<?xml version='1.0' encoding='UTF-8'?><gpx version="1.1" creator="JPX - https://github.com/jenetics/jpx" xmlns="http://www.topografix.com/GPX/1/1"><trk><trkseg><trkpt lat="41.8911559" lon="12.5025489"><ele>60.0</ele><time>2026-05-01T07:23:18.485Z</time></trkpt><trkpt lat="41.8910814" lon="12.5025376"><ele>60.0</ele><time>2026-05-01T07:24:15.504Z</time></trkpt><trkpt lat="41.8911291" lon="12.5024578"><ele>60.0</ele><time>2026-05-01T07:24:42.464Z</time></trkpt><trkpt lat="41.8912253" lon="12.5023893"><ele>60.0</ele><time>2026-05-01T07:24:44.504Z</time></trkpt><trkpt lat="41.891294" lon="12.5023122"><ele>60.0</ele><time>2026-05-01T07:24:46.492Z</time></trkpt><trkpt lat="41.891356" lon="12.5022614"><ele>60.0</ele><time>2026-05-01T07:24:48.483Z</time></trkpt><trkpt lat="41.891434" lon="12.5022474"><ele>60.0</ele><time>2026-05-01T07:25:09.483Z</time></trkpt><trkpt lat="41.8915283" lon="12.5022069"><ele>60.0</ele><time>2026-05-01T07:25:11.493Z</time></trkpt><trkpt lat="41.8916469" lon="12.5022227"><ele>60.0</ele><time>2026-05-01T07:25:13.487Z</time></trkpt><trkpt lat="41.8917085" lon="12.5022894"><ele>60.0</ele><time>2026-05-01T07:25:15.504Z</time></trkpt><trkpt lat="41.8918039" lon="12.5024129"><ele>60.0</ele><time>2026-05-01T07:25:17.509Z</time></trkpt><trkpt lat="41.8918851" lon="12.5024924"><ele>59.8</ele><time>2026-05-01T07:25:18.521Z</time></trkpt><trkpt lat="41.8919745" lon="12.5025691"><ele>59.6</ele><time>2026-05-01T07:25:19.504Z</time></trkpt><trkpt lat="41.8920676" lon="12.5026572"><ele>59.400000000000006</ele><time>2026-05-01T07:25:20.515Z</time></trkpt><trkpt lat="41.8921468" lon="12.5027385"><ele>59.2</ele><time>2026-05-01T07:25:21.526Z</time></trkpt><trkpt lat="41.8922097" lon="12.5028105"><ele>59.0</ele><time>2026-05-01T07:25:22.487Z</time></trkpt><trkpt lat="41.8922677" lon="12.5028815"><ele>59.400000000000006</ele><time>2026-05-01T07:25:23.501Z</time></trkpt><trkpt lat="41.8923117" lon="12.5029428"><ele>59.800000000000004</ele><time>2026-05-01T07:25:24.525Z</time></trkpt><trkpt lat="41.8924172" lon="12.5030382"><ele>60.199999999999996</ele><time>2026-05-01T07:25:26.509Z</time></trkpt><trkpt lat="41.8924856" lon="12.5031048"><ele>60.599999999999994</ele><time>2026-05-01T07:25:27.518Z</time></trkpt><trkpt lat="41.8925647" lon="12.5031712"><ele>61.0</ele><time>2026-05-01T07:25:28.512Z</time></trkpt><trkpt lat="41.8926575" lon="12.5032513"><ele>61.49999999999999</ele><time>2026-05-01T07:25:29.516Z</time></trkpt><trkpt lat="41.8927425" lon="12.5033391"><ele>62.0</ele><time>2026-05-01T07:25:30.502Z</time></trkpt><trkpt lat="41.8928176" lon="12.503421"><ele>62.5</ele><time>2026-05-01T07:25:31.495Z</time></trkpt><trkpt lat="41.8928743" lon="12.5034786"><ele>63.0</ele><time>2026-05-01T07:25:32.488Z</time></trkpt><trkpt lat="41.8929323" lon="12.5035544"><ele>63.49999999999999</ele><time>2026-05-01T07:25:34.492Z</time></trkpt><trkpt lat="41.8930015" lon="12.5036006"><ele>64.0</ele><time>2026-05-01T07:25:36.51Z</time></trkpt><trkpt lat="41.8931216" lon="12.5037308"><ele>64.2</ele><time>2026-05-01T07:25:38.496Z</time></trkpt><trkpt lat="41.8931877" lon="12.5038243"><ele>64.4</ele><time>2026-05-01T07:25:39.466Z</time></trkpt><trkpt lat="41.8932537" lon="12.5039102"><ele>64.6</ele><time>2026-05-01T07:25:40.482Z</time></trkpt><trkpt lat="41.8933247" lon="12.503991"><ele>64.8</ele><time>2026-05-01T07:25:41.481Z</time></trkpt><trkpt lat="41.8933915" lon="12.5040752"><ele>65.0</ele><time>2026-05-01T07:25:42.494Z</time></trkpt><trkpt lat="41.8934482" lon="12.5041475"><ele>63.833333333333336</ele><time>2026-05-01T07:25:43.494Z</time></trkpt><trkpt lat="41.8934991" lon="12.5042053"><ele>62.66666666666667</ele><time>2026-05-01T07:25:44.5Z</time></trkpt><trkpt lat="41.8935469" lon="12.5042842"><ele>61.5</ele><time>2026-05-01T07:25:46.499Z</time></trkpt><trkpt lat="41.8935956" lon="12.5043469"><ele>60.33333333333333</ele><time>2026-05-01T07:25:49.474Z</time></trkpt><trkpt lat="41.8935985" lon="12.5044764"><ele>59.166666666666664</ele><time>2026-05-01T07:25:52.468Z</time></trkpt><trkpt lat="41.8935563" lon="12.5045689"><ele>58.0</ele><time>2026-05-01T07:25:53.467Z</time></trkpt><trkpt lat="41.8935016" lon="12.5046743"><ele>57.83333333333333</ele><time>2026-05-01T07:25:54.475Z</time></trkpt><trkpt lat="41.8934411" lon="12.5047791"><ele>57.666666666666664</ele><time>2026-05-01T07:25:55.511Z</time></trkpt><trkpt lat="41.8933936" lon="12.5048811"><ele>57.5</ele><time>2026-05-01T07:25:56.568Z</time></trkpt><trkpt lat="41.8933502" lon="12.5049507"><ele>57.33333333333333</ele><time>2026-05-01T07:25:57.489Z</time></trkpt><trkpt lat="41.8933066" lon="12.5050131"><ele>57.166666666666664</ele><time>2026-05-01T07:25:58.489Z</time></trkpt><trkpt lat="41.8932645" lon="12.5051289"><ele>57.0</ele><time>2026-05-01T07:26:00.502Z</time></trkpt><trkpt lat="41.893289" lon="12.5052665"><ele>57.0</ele><time>2026-05-01T07:26:02.461Z</time></trkpt><trkpt lat="41.8933201" lon="12.5053437"><ele>57.0</ele><time>2026-05-01T07:26:03.473Z</time></trkpt><trkpt lat="41.8933625" lon="12.5054123"><ele>57.0</ele><time>2026-05-01T07:26:04.471Z</time></trkpt><trkpt lat="41.8934227" lon="12.5054687"><ele>57.0</ele><time>2026-05-01T07:26:05.479Z</time></trkpt><trkpt lat="41.89349" lon="12.5055299"><ele>57.0</ele><time>2026-05-01T07:26:06.484Z</time></trkpt><trkpt lat="41.8935627" lon="12.505598"><ele>57.0</ele><time>2026-05-01T07:26:07.48Z</time></trkpt><trkpt lat="41.8936317" lon="12.505667"><ele>57.5</ele><time>2026-05-01T07:26:08.499Z</time></trkpt><trkpt lat="41.8936932" lon="12.5057243"><ele>58.0</ele><time>2026-05-01T07:26:09.492Z</time></trkpt><trkpt lat="41.8937603" lon="12.5057703"><ele>58.5</ele><time>2026-05-01T07:26:10.481Z</time></trkpt><trkpt lat="41.8938242" lon="12.5058133"><ele>59.0</ele><time>2026-05-01T07:26:11.508Z</time></trkpt><trkpt lat="41.8938772" lon="12.5058607"><ele>59.5</ele><time>2026-05-01T07:26:12.504Z</time></trkpt><trkpt lat="41.8939562" lon="12.5059598"><ele>60.0</ele><time>2026-05-01T07:26:14.52Z</time></trkpt><trkpt lat="41.8940396" lon="12.5060414"><ele>60.0</ele><time>2026-05-01T07:26:16.485Z</time></trkpt><trkpt lat="41.8941124" lon="12.5061239"><ele>60.0</ele><time>2026-05-01T07:26:18.494Z</time></trkpt><trkpt lat="41.8941663" lon="12.5061933"><ele>60.0</ele><time>2026-05-01T07:26:21.496Z</time></trkpt><trkpt lat="41.8942257" lon="12.5062642"><ele>60.0</ele><time>2026-05-01T07:27:22.501Z</time></trkpt><trkpt lat="41.8942553" lon="12.506369"><ele>60.0</ele><time>2026-05-01T07:27:24.484Z</time></trkpt><trkpt lat="41.8942079" lon="12.5065333"><ele>60.5</ele><time>2026-05-01T07:27:26.471Z</time></trkpt><trkpt lat="41.8941802" lon="12.5066191"><ele>61.0</ele><time>2026-05-01T07:27:27.477Z</time></trkpt><trkpt lat="41.8941481" lon="12.5067182"><ele>61.5</ele><time>2026-05-01T07:27:28.491Z</time></trkpt><trkpt lat="41.8941103" lon="12.5068243"><ele>62.0</ele><time>2026-05-01T07:27:29.481Z</time></trkpt><trkpt lat="41.8940681" lon="12.5069263"><ele>62.5</ele><time>2026-05-01T07:27:30.483Z</time></trkpt><trkpt lat="41.8940316" lon="12.5070411"><ele>63.0</ele><time>2026-05-01T07:27:31.501Z</time></trkpt><trkpt lat="41.893992" lon="12.5071682"><ele>63.0</ele><time>2026-05-01T07:27:32.491Z</time></trkpt><trkpt lat="41.8939523" lon="12.5072992"><ele>63.0</ele><time>2026-05-01T07:27:33.48Z</time></trkpt><trkpt lat="41.8939154" lon="12.5074249"><ele>63.0</ele><time>2026-05-01T07:27:34.483Z</time></trkpt><trkpt lat="41.8938785" lon="12.5075394"><ele>63.0</ele><time>2026-05-01T07:27:35.485Z</time></trkpt><trkpt lat="41.8938402" lon="12.5076431"><ele>63.0</ele><time>2026-05-01T07:27:36.475Z</time></trkpt><trkpt lat="41.8938087" lon="12.5077435"><ele>63.0</ele><time>2026-05-01T07:27:37.471Z</time></trkpt><trkpt lat="41.8937768" lon="12.5078397"><ele>63.0</ele><time>2026-05-01T07:27:38.493Z</time></trkpt><trkpt lat="41.8937495" lon="12.5079356"><ele>63.0</ele><time>2026-05-01T07:27:39.513Z</time></trkpt><trkpt lat="41.893722" lon="12.5080344"><ele>63.0</ele><time>2026-05-01T07:27:40.495Z</time></trkpt><trkpt lat="41.8936935" lon="12.5081299"><ele>63.0</ele><time>2026-05-01T07:27:41.49Z</time></trkpt><trkpt lat="41.8936615" lon="12.508231"><ele>63.0</ele><time>2026-05-01T07:27:42.493Z</time></trkpt><trkpt lat="41.8936308" lon="12.5083315"><ele>63.0</ele><time>2026-05-01T07:27:43.496Z</time></trkpt><trkpt lat="41.8936022" lon="12.5084315"><ele>63.0</ele><time>2026-05-01T07:27:44.477Z</time></trkpt><trkpt lat="41.8935794" lon="12.5085252"><ele>63.0</ele><time>2026-05-01T07:27:45.494Z</time></trkpt><trkpt lat="41.8935576" lon="12.5086055"><ele>63.0</ele><time>2026-05-01T07:27:46.485Z</time></trkpt><trkpt lat="41.893505" lon="12.508749"><ele>63.0</ele><time>2026-05-01T07:27:48.582Z</time></trkpt><trkpt lat="41.8934462" lon="12.5089166"><ele>62.14285714285714</ele><time>2026-05-01T07:27:50.503Z</time></trkpt><trkpt lat="41.893418" lon="12.5090006"><ele>61.285714285714285</ele><time>2026-05-01T07:27:51.496Z</time></trkpt><trkpt lat="41.8933939" lon="12.5090798"><ele>60.42857142857143</ele><time>2026-05-01T07:27:52.517Z</time></trkpt><trkpt lat="41.8933496" lon="12.5092101"><ele>59.57142857142857</ele><time>2026-05-01T07:27:54.536Z</time></trkpt><trkpt lat="41.8933382" lon="12.5092934"><ele>58.71428571428571</ele><time>2026-05-01T07:27:56.514Z</time></trkpt><trkpt lat="41.8933116" lon="12.5093799"><ele>57.857142857142854</ele><time>2026-05-01T07:27:59.486Z</time></trkpt><trkpt lat="41.8932764" lon="12.5094621"><ele>57.0</ele><time>2026-05-01T07:28:04.47Z</time></trkpt><trkpt lat="41.8932281" lon="12.5095434"><ele>57.166666666666664</ele><time>2026-05-01T07:28:25.506Z</time></trkpt><trkpt lat="41.8931796" lon="12.5096799"><ele>57.33333333333333</ele><time>2026-05-01T07:28:27.499Z</time></trkpt><trkpt lat="41.8931533" lon="12.5097803"><ele>57.5</ele><time>2026-05-01T07:28:28.514Z</time></trkpt><trkpt lat="41.8931278" lon="12.5098852"><ele>57.666666666666664</ele><time>2026-05-01T07:28:29.496Z</time></trkpt><trkpt lat="41.893103" lon="12.509996"><ele>57.83333333333333</ele><time>2026-05-01T07:28:30.506Z</time></trkpt><trkpt lat="41.8930718" lon="12.5100969"><ele>58.0</ele><time>2026-05-01T07:28:31.506Z</time></trkpt><trkpt lat="41.893039" lon="12.5101959"><ele>58.0</ele><time>2026-05-01T07:28:32.501Z</time></trkpt><trkpt lat="41.893008" lon="12.5102915"><ele>58.0</ele><time>2026-05-01T07:28:33.521Z</time></trkpt><trkpt lat="41.8929757" lon="12.5103922"><ele>58.0</ele><time>2026-05-01T07:28:34.498Z</time></trkpt><trkpt lat="41.892937" lon="12.5105022"><ele>58.0</ele><time>2026-05-01T07:28:35.502Z</time></trkpt><trkpt lat="41.8928961" lon="12.5106172"><ele>58.0</ele><time>2026-05-01T07:28:36.518Z</time></trkpt><trkpt lat="41.8928396" lon="12.5107671"><ele>58.25</ele><time>2026-05-01T07:28:37.505Z</time></trkpt><trkpt lat="41.892774" lon="12.510939"><ele>58.5</ele><time>2026-05-01T07:28:38.507Z</time></trkpt><trkpt lat="41.8927218" lon="12.5111124"><ele>58.75</ele><time>2026-05-01T07:28:39.487Z</time></trkpt><trkpt lat="41.8926654" lon="12.5112811"><ele>59.0</ele><time>2026-05-01T07:28:40.484Z</time></trkpt><trkpt lat="41.8926101" lon="12.5114509"><ele>57.5</ele><time>2026-05-01T07:28:41.482Z</time></trkpt><trkpt lat="41.8925596" lon="12.5116084"><ele>56.0</ele><time>2026-05-01T07:28:42.493Z</time></trkpt><trkpt lat="41.8925136" lon="12.5117607"><ele>54.5</ele><time>2026-05-01T07:28:43.5Z</time></trkpt><trkpt lat="41.8924679" lon="12.5118997"><ele>53.0</ele><time>2026-05-01T07:28:44.498Z</time></trkpt><trkpt lat="41.8924257" lon="12.5120344"><ele>53.4</ele><time>2026-05-01T07:28:45.511Z</time></trkpt><trkpt lat="41.8923852" lon="12.5121738"><ele>53.8</ele><time>2026-05-01T07:28:46.482Z</time></trkpt><trkpt lat="41.892343" lon="12.5123163"><ele>54.2</ele><time>2026-05-01T07:28:47.487Z</time></trkpt><trkpt lat="41.8922959" lon="12.5124475"><ele>54.6</ele><time>2026-05-01T07:28:48.481Z</time></trkpt><trkpt lat="41.8922526" lon="12.5125866"><ele>55.0</ele><time>2026-05-01T07:28:49.503Z</time></trkpt><trkpt lat="41.892211" lon="12.5127294"><ele>55.0</ele><time>2026-05-01T07:28:50.497Z</time></trkpt><trkpt lat="41.8921687" lon="12.5128662"><ele>55.0</ele><time>2026-05-01T07:28:51.498Z</time></trkpt><trkpt lat="41.8921281" lon="12.5129963"><ele>55.0</ele><time>2026-05-01T07:28:52.488Z</time></trkpt><trkpt lat="41.8920919" lon="12.513124"><ele>55.0</ele><time>2026-05-01T07:28:53.49Z</time></trkpt><trkpt lat="41.8920511" lon="12.5132398"><ele>55.0</ele><time>2026-05-01T07:28:54.517Z</time></trkpt><trkpt lat="41.8920161" lon="12.5133587"><ele>54.99999999999999</ele><time>2026-05-01T07:28:55.517Z</time></trkpt><trkpt lat="41.8919732" lon="12.5134836"><ele>55.0</ele><time>2026-05-01T07:28:56.501Z</time></trkpt><trkpt lat="41.8919337" lon="12.5135961"><ele>55.0</ele><time>2026-05-01T07:28:57.501Z</time></trkpt><trkpt lat="41.8918956" lon="12.5136939"><ele>55.0</ele><time>2026-05-01T07:28:58.494Z</time></trkpt><trkpt lat="41.8918644" lon="12.5137873"><ele>54.99999999999999</ele><time>2026-05-01T07:28:59.511Z</time></trkpt><trkpt lat="41.891842" lon="12.513869"><ele>55.0</ele><time>2026-05-01T07:29:00.516Z</time></trkpt><trkpt lat="41.8917968" lon="12.5139907"><ele>54.0</ele><time>2026-05-01T07:29:02.488Z</time></trkpt><trkpt lat="41.8917139" lon="12.5140711"><ele>53.0</ele><time>2026-05-01T07:29:04.5Z</time></trkpt><trkpt lat="41.8915903" lon="12.514121"><ele>52.0</ele><time>2026-05-01T07:29:06.474Z</time></trkpt><trkpt lat="41.8915131" lon="12.5141277"><ele>51.0</ele><time>2026-05-01T07:29:07.491Z</time></trkpt><trkpt lat="41.8914301" lon="12.5141337"><ele>50.0</ele><time>2026-05-01T07:29:08.504Z</time></trkpt><trkpt lat="41.8913485" lon="12.5141642"><ele>50.0</ele><time>2026-05-01T07:29:09.5Z</time></trkpt><trkpt lat="41.8912835" lon="12.514206"><ele>50.0</ele><time>2026-05-01T07:29:10.499Z</time></trkpt><trkpt lat="41.891189" lon="12.5142414"><ele>50.0</ele><time>2026-05-01T07:29:12.481Z</time></trkpt><trkpt lat="41.891126" lon="12.5142455"><ele>50.0</ele><time>2026-05-01T07:29:15.52Z</time></trkpt><trkpt lat="41.8910274" lon="12.5142389"><ele>50.0</ele><time>2026-05-01T07:29:39.48Z</time></trkpt><trkpt lat="41.8909096" lon="12.5143169"><ele>50.0</ele><time>2026-05-01T07:29:41.489Z</time></trkpt><trkpt lat="41.8908492" lon="12.5143692"><ele>50.0</ele><time>2026-05-01T07:29:42.487Z</time></trkpt><trkpt lat="41.8907494" lon="12.5144436"><ele>50.0</ele><time>2026-05-01T07:29:44.519Z</time></trkpt><trkpt lat="41.8906596" lon="12.5145215"><ele>50.0</ele><time>2026-05-01T07:29:46.498Z</time></trkpt><trkpt lat="41.8906278" lon="12.5146298"><ele>50.0</ele><time>2026-05-01T07:29:48.499Z</time></trkpt><trkpt lat="41.8906277" lon="12.5147336"><ele>49.6</ele><time>2026-05-01T07:29:50.552Z</time></trkpt><trkpt lat="41.8906463" lon="12.5148255"><ele>49.2</ele><time>2026-05-01T07:29:52.5Z</time></trkpt><trkpt lat="41.8906869" lon="12.5149489"><ele>48.8</ele><time>2026-05-01T07:29:54.487Z</time></trkpt><trkpt lat="41.8907712" lon="12.5150602"><ele>48.4</ele><time>2026-05-01T07:29:56.48Z</time></trkpt><trkpt lat="41.8908688" lon="12.5151609"><ele>48.0</ele><time>2026-05-01T07:29:58.5Z</time></trkpt><trkpt lat="41.8909156" lon="12.5152293"><ele>47.833333333333336</ele><time>2026-05-01T07:29:59.527Z</time></trkpt><trkpt lat="41.890959" lon="12.5153047"><ele>47.666666666666664</ele><time>2026-05-01T07:30:00.527Z</time></trkpt><trkpt lat="41.8910055" lon="12.5153816"><ele>47.5</ele><time>2026-05-01T07:30:01.495Z</time></trkpt><trkpt lat="41.8910531" lon="12.5154457"><ele>47.33333333333333</ele><time>2026-05-01T07:30:02.499Z</time></trkpt><trkpt lat="41.8911051" lon="12.5155034"><ele>47.166666666666664</ele><time>2026-05-01T07:30:03.5Z</time></trkpt><trkpt lat="41.8911684" lon="12.5155659"><ele>47.0</ele><time>2026-05-01T07:30:04.505Z</time></trkpt><trkpt lat="41.8912532" lon="12.5156517"><ele>47.400000000000006</ele><time>2026-05-01T07:30:05.507Z</time></trkpt><trkpt lat="41.8913657" lon="12.515737"><ele>47.800000000000004</ele><time>2026-05-01T07:30:06.517Z</time></trkpt><trkpt lat="41.8914691" lon="12.5158241"><ele>48.2</ele><time>2026-05-01T07:30:07.483Z</time></trkpt><trkpt lat="41.8915268" lon="12.515923"><ele>48.6</ele><time>2026-05-01T07:30:08.499Z</time></trkpt><trkpt lat="41.8915632" lon="12.5160314"><ele>49.0</ele><time>2026-05-01T07:30:09.502Z</time></trkpt><trkpt lat="41.8915738" lon="12.5161419"><ele>49.2</ele><time>2026-05-01T07:30:10.495Z</time></trkpt><trkpt lat="41.8915642" lon="12.5162667"><ele>49.400000000000006</ele><time>2026-05-01T07:30:11.49Z</time></trkpt><trkpt lat="41.8915315" lon="12.5163998"><ele>49.6</ele><time>2026-05-01T07:30:12.484Z</time></trkpt><trkpt lat="41.891471" lon="12.5165357"><ele>49.8</ele><time>2026-05-01T07:30:13.494Z</time></trkpt><trkpt lat="41.8914051" lon="12.5166911"><ele>50.0</ele><time>2026-05-01T07:30:14.49Z</time></trkpt><trkpt lat="41.8913679" lon="12.51688"><ele>50.0</ele><time>2026-05-01T07:30:15.504Z</time></trkpt><trkpt lat="41.8913591" lon="12.5170869"><ele>50.0</ele><time>2026-05-01T07:30:16.482Z</time></trkpt><trkpt lat="41.8913729" lon="12.5173044"><ele>50.0</ele><time>2026-05-01T07:30:17.481Z</time></trkpt><trkpt lat="41.8914082" lon="12.5175322"><ele>50.0</ele><time>2026-05-01T07:30:18.464Z</time></trkpt><trkpt lat="41.8914445" lon="12.5177537"><ele>50.0</ele><time>2026-05-01T07:30:19.482Z</time></trkpt><trkpt lat="41.8914709" lon="12.5179774"><ele>50.0</ele><time>2026-05-01T07:30:20.489Z</time></trkpt><trkpt lat="41.8914852" lon="12.518205"><ele>50.0</ele><time>2026-05-01T07:30:21.49Z</time></trkpt><trkpt lat="41.8914866" lon="12.518437"><ele>50.0</ele><time>2026-05-01T07:30:22.519Z</time></trkpt><trkpt lat="41.891464" lon="12.5186577"><ele>50.0</ele><time>2026-05-01T07:30:23.511Z</time></trkpt><trkpt lat="41.8914513" lon="12.5188569"><ele>50.0</ele><time>2026-05-01T07:30:24.51Z</time></trkpt><trkpt lat="41.8914293" lon="12.5190436"><ele>50.0</ele><time>2026-05-01T07:30:25.53Z</time></trkpt><trkpt lat="41.8914124" lon="12.5192282"><ele>50.0</ele><time>2026-05-01T07:30:26.489Z</time></trkpt><trkpt lat="41.8914055" lon="12.5194042"><ele>50.0</ele><time>2026-05-01T07:30:27.525Z</time></trkpt><trkpt lat="41.8913967" lon="12.5196084"><ele>50.0</ele><time>2026-05-01T07:30:28.493Z</time></trkpt><trkpt lat="41.8913884" lon="12.5198125"><ele>50.0</ele><time>2026-05-01T07:30:29.504Z</time></trkpt><trkpt lat="41.8913748" lon="12.5200104"><ele>50.0</ele><time>2026-05-01T07:30:30.499Z</time></trkpt><trkpt lat="41.8913671" lon="12.5201961"><ele>50.0</ele><time>2026-05-01T07:30:31.491Z</time></trkpt><trkpt lat="41.8913602" lon="12.5203696"><ele>50.75</ele><time>2026-05-01T07:30:32.492Z</time></trkpt><trkpt lat="41.8913445" lon="12.5205451"><ele>51.5</ele><time>2026-05-01T07:30:33.509Z</time></trkpt><trkpt lat="41.8913259" lon="12.5207217"><ele>52.25</ele><time>2026-05-01T07:30:34.518Z</time></trkpt><trkpt lat="41.8913037" lon="12.5208969"><ele>53.0</ele><time>2026-05-01T07:30:35.492Z</time></trkpt><trkpt lat="41.891279" lon="12.5210705"><ele>52.0</ele><time>2026-05-01T07:30:36.494Z</time></trkpt><trkpt lat="41.8912528" lon="12.5212458"><ele>51.0</ele><time>2026-05-01T07:30:37.514Z</time></trkpt><trkpt lat="41.8912202" lon="12.5214408"><ele>50.0</ele><time>2026-05-01T07:30:38.506Z</time></trkpt><trkpt lat="41.8911883" lon="12.5216691"><ele>50.0</ele><time>2026-05-01T07:30:39.491Z</time></trkpt><trkpt lat="41.8911653" lon="12.5219143"><ele>50.0</ele><time>2026-05-01T07:30:40.491Z</time></trkpt><trkpt lat="41.8911422" lon="12.5221698"><ele>50.0</ele><time>2026-05-01T07:30:41.494Z</time></trkpt><trkpt lat="41.8911306" lon="12.5224304"><ele>50.0</ele><time>2026-05-01T07:30:42.502Z</time></trkpt><trkpt lat="41.8911128" lon="12.5226864"><ele>50.0</ele><time>2026-05-01T07:30:43.491Z</time></trkpt><trkpt lat="41.8910887" lon="12.5229285"><ele>50.0</ele><time>2026-05-01T07:30:44.492Z</time></trkpt><trkpt lat="41.8910691" lon="12.5231601"><ele>50.0</ele><time>2026-05-01T07:30:45.489Z</time></trkpt><trkpt lat="41.8910553" lon="12.5233698"><ele>50.0</ele><time>2026-05-01T07:30:46.49Z</time></trkpt><trkpt lat="41.8910401" lon="12.5235793"><ele>50.0</ele><time>2026-05-01T07:30:47.507Z</time></trkpt><trkpt lat="41.8910211" lon="12.5237939"><ele>50.333333333333336</ele><time>2026-05-01T07:30:48.483Z</time></trkpt><trkpt lat="41.8910083" lon="12.5240139"><ele>50.66666666666667</ele><time>2026-05-01T07:30:49.501Z</time></trkpt><trkpt lat="41.8909973" lon="12.5242318"><ele>51.0</ele><time>2026-05-01T07:30:50.504Z</time></trkpt><trkpt lat="41.8910026" lon="12.5244418"><ele>51.33333333333333</ele><time>2026-05-01T07:30:51.51Z</time></trkpt><trkpt lat="41.8910057" lon="12.5246677"><ele>51.666666666666664</ele><time>2026-05-01T07:30:52.491Z</time></trkpt><trkpt lat="41.8910234" lon="12.5248991"><ele>52.0</ele><time>2026-05-01T07:30:53.494Z</time></trkpt><trkpt lat="41.8910534" lon="12.5251261"><ele>52.0</ele><time>2026-05-01T07:30:54.511Z</time></trkpt><trkpt lat="41.8910686" lon="12.5253376"><ele>52.0</ele><time>2026-05-01T07:30:55.506Z</time></trkpt><trkpt lat="41.8910701" lon="12.525559"><ele>52.0</ele><time>2026-05-01T07:30:56.527Z</time></trkpt><trkpt lat="41.8910657" lon="12.5257784"><ele>52.75</ele><time>2026-05-01T07:30:57.482Z</time></trkpt><trkpt lat="41.8910697" lon="12.5259753"><ele>53.5</ele><time>2026-05-01T07:30:58.495Z</time></trkpt><trkpt lat="41.8910802" lon="12.5261613"><ele>54.25</ele><time>2026-05-01T07:30:59.47Z</time></trkpt><trkpt lat="41.8910923" lon="12.5263226"><ele>55.0</ele><time>2026-05-01T07:31:00.497Z</time></trkpt><trkpt lat="41.8910978" lon="12.5264593"><ele>56.0</ele><time>2026-05-01T07:31:01.502Z</time></trkpt><trkpt lat="41.8910982" lon="12.5265826"><ele>57.0</ele><time>2026-05-01T07:31:02.496Z</time></trkpt><trkpt lat="41.8910983" lon="12.5266813"><ele>58.0</ele><time>2026-05-01T07:31:03.5Z</time></trkpt><trkpt lat="41.8911088" lon="12.5267861"><ele>59.0</ele><time>2026-05-01T07:31:05.503Z</time></trkpt><trkpt lat="41.8910858" lon="12.5268943"><ele>60.0</ele><time>2026-05-01T07:32:41.484Z</time></trkpt><trkpt lat="41.8911237" lon="12.5270632"><ele>56.75</ele><time>2026-05-01T07:32:43.505Z</time></trkpt><trkpt lat="41.8911524" lon="12.5271812"><ele>53.5</ele><time>2026-05-01T07:32:44.494Z</time></trkpt><trkpt lat="41.891188" lon="12.5273323"><ele>50.25</ele><time>2026-05-01T07:32:45.494Z</time></trkpt><trkpt lat="41.8912099" lon="12.5275016"><ele>47.0</ele><time>2026-05-01T07:32:46.495Z</time></trkpt><trkpt lat="41.8912411" lon="12.527678"><ele>47.0</ele><time>2026-05-01T07:32:47.496Z</time></trkpt><trkpt lat="41.8912694" lon="12.5278576"><ele>47.0</ele><time>2026-05-01T07:32:48.487Z</time></trkpt><trkpt lat="41.8912973" lon="12.528042"><ele>47.0</ele><time>2026-05-01T07:32:49.489Z</time></trkpt><trkpt lat="41.8913178" lon="12.5282225"><ele>47.0</ele><time>2026-05-01T07:32:50.494Z</time></trkpt><trkpt lat="41.8913382" lon="12.5284056"><ele>46.25</ele><time>2026-05-01T07:32:51.498Z</time></trkpt><trkpt lat="41.8913664" lon="12.5285969"><ele>45.5</ele><time>2026-05-01T07:32:52.486Z</time></trkpt><trkpt lat="41.8913976" lon="12.5287888"><ele>44.75</ele><time>2026-05-01T07:32:53.506Z</time></trkpt><trkpt lat="41.8914318" lon="12.5289794"><ele>44.0</ele><time>2026-05-01T07:32:54.484Z</time></trkpt><trkpt lat="41.8914666" lon="12.5291761"><ele>44.0</ele><time>2026-05-01T07:32:55.51Z</time></trkpt><trkpt lat="41.8915037" lon="12.5293714"><ele>44.0</ele><time>2026-05-01T07:32:56.49Z</time></trkpt><trkpt lat="41.8915392" lon="12.5295657"><ele>44.0</ele><time>2026-05-01T07:32:57.491Z</time></trkpt><trkpt lat="41.8915799" lon="12.5297461"><ele>44.0</ele><time>2026-05-01T07:32:58.507Z</time></trkpt><trkpt lat="41.8916155" lon="12.5299288"><ele>44.75</ele><time>2026-05-01T07:32:59.501Z</time></trkpt><trkpt lat="41.8916461" lon="12.530091"><ele>45.5</ele><time>2026-05-01T07:33:00.497Z</time></trkpt><trkpt lat="41.8916702" lon="12.5302436"><ele>46.25</ele><time>2026-05-01T07:33:01.481Z</time></trkpt><trkpt lat="41.8917014" lon="12.5303925"><ele>47.0</ele><time>2026-05-01T07:33:02.487Z</time></trkpt><trkpt lat="41.8917308" lon="12.5305415"><ele>47.0</ele><time>2026-05-01T07:33:03.493Z</time></trkpt><trkpt lat="41.8917637" lon="12.5306773"><ele>47.0</ele><time>2026-05-01T07:33:04.494Z</time></trkpt><trkpt lat="41.891786" lon="12.530793"><ele>47.0</ele><time>2026-05-01T07:33:05.497Z</time></trkpt><trkpt lat="41.8918041" lon="12.5308914"><ele>47.0</ele><time>2026-05-01T07:33:06.496Z</time></trkpt><trkpt lat="41.8918174" lon="12.5310195"><ele>47.0</ele><time>2026-05-01T07:33:08.486Z</time></trkpt><trkpt lat="41.8918354" lon="12.5311037"><ele>47.0</ele><time>2026-05-01T07:33:10.502Z</time></trkpt><trkpt lat="41.8918667" lon="12.5311981"><ele>45.6</ele><time>2026-05-01T07:33:12.512Z</time></trkpt><trkpt lat="41.8918855" lon="12.531298"><ele>44.2</ele><time>2026-05-01T07:33:14.484Z</time></trkpt><trkpt lat="41.8919058" lon="12.5313871"><ele>42.8</ele><time>2026-05-01T07:33:28.513Z</time></trkpt><trkpt lat="41.8919256" lon="12.531533"><ele>41.4</ele><time>2026-05-01T07:33:30.494Z</time></trkpt><trkpt lat="41.8919459" lon="12.5316692"><ele>40.0</ele><time>2026-05-01T07:33:31.497Z</time></trkpt><trkpt lat="41.8919703" lon="12.5318426"><ele>40.0</ele><time>2026-05-01T07:33:32.481Z</time></trkpt><trkpt lat="41.8920016" lon="12.5320504"><ele>40.0</ele><time>2026-05-01T07:33:33.473Z</time></trkpt><trkpt lat="41.8920341" lon="12.5322656"><ele>40.0</ele><time>2026-05-01T07:33:34.503Z</time></trkpt><trkpt lat="41.8920536" lon="12.5324783"><ele>40.0</ele><time>2026-05-01T07:33:35.506Z</time></trkpt><trkpt lat="41.8920698" lon="12.532669"><ele>40.0</ele><time>2026-05-01T07:33:36.487Z</time></trkpt><trkpt lat="41.8920924" lon="12.5328357"><ele>40.0</ele><time>2026-05-01T07:33:37.501Z</time></trkpt><trkpt lat="41.8921072" lon="12.5329931"><ele>40.0</ele><time>2026-05-01T07:33:38.492Z</time></trkpt><trkpt lat="41.8921261" lon="12.5331424"><ele>40.2</ele><time>2026-05-01T07:33:39.469Z</time></trkpt><trkpt lat="41.8921416" lon="12.533286"><ele>40.4</ele><time>2026-05-01T07:33:40.476Z</time></trkpt><trkpt lat="41.892152" lon="12.5334253"><ele>40.599999999999994</ele><time>2026-05-01T07:33:41.488Z</time></trkpt><trkpt lat="41.8921689" lon="12.5335651"><ele>40.8</ele><time>2026-05-01T07:33:42.494Z</time></trkpt><trkpt lat="41.8921847" lon="12.5336915"><ele>41.0</ele><time>2026-05-01T07:33:43.505Z</time></trkpt><trkpt lat="41.8921947" lon="12.533815"><ele>41.0</ele><time>2026-05-01T07:33:44.5Z</time></trkpt><trkpt lat="41.8922143" lon="12.5339967"><ele>41.0</ele><time>2026-05-01T07:33:45.504Z</time></trkpt><trkpt lat="41.8922348" lon="12.5342065"><ele>41.0</ele><time>2026-05-01T07:33:46.481Z</time></trkpt><trkpt lat="41.892261" lon="12.5344283"><ele>40.33333333333333</ele><time>2026-05-01T07:33:47.49Z</time></trkpt><trkpt lat="41.8922789" lon="12.5346619"><ele>39.666666666666664</ele><time>2026-05-01T07:33:48.498Z</time></trkpt><trkpt lat="41.8922921" lon="12.5348867"><ele>39.0</ele><time>2026-05-01T07:33:49.503Z</time></trkpt><trkpt lat="41.8923105" lon="12.5350862"><ele>39.0</ele><time>2026-05-01T07:33:50.488Z</time></trkpt><trkpt lat="41.8923272" lon="12.5352778"><ele>39.0</ele><time>2026-05-01T07:33:51.49Z</time></trkpt><trkpt lat="41.8923467" lon="12.5354446"><ele>39.0</ele><time>2026-05-01T07:33:52.495Z</time></trkpt><trkpt lat="41.8923509" lon="12.5355741"><ele>39.0</ele><time>2026-05-01T07:33:53.499Z</time></trkpt><trkpt lat="41.8923517" lon="12.5356736"><ele>39.0</ele><time>2026-05-01T07:33:54.499Z</time></trkpt><trkpt lat="41.8923472" lon="12.5357631"><ele>39.0</ele><time>2026-05-01T07:33:55.519Z</time></trkpt><trkpt lat="41.892349" lon="12.5358927"><ele>39.0</ele><time>2026-05-01T07:33:57.492Z</time></trkpt><trkpt lat="41.8923281" lon="12.5360122"><ele>39.0</ele><time>2026-05-01T07:34:48.478Z</time></trkpt><trkpt lat="41.8923411" lon="12.5361651"><ele>39.0</ele><time>2026-05-01T07:34:50.479Z</time></trkpt><trkpt lat="41.8923481" lon="12.536276"><ele>39.0</ele><time>2026-05-01T07:34:51.5Z</time></trkpt><trkpt lat="41.8923498" lon="12.5364076"><ele>38.8</ele><time>2026-05-01T07:34:52.498Z</time></trkpt><trkpt lat="41.8923537" lon="12.5365357"><ele>38.599999999999994</ele><time>2026-05-01T07:34:53.51Z</time></trkpt><trkpt lat="41.8923519" lon="12.5366588"><ele>38.4</ele><time>2026-05-01T07:34:54.494Z</time></trkpt><trkpt lat="41.8923541" lon="12.5367912"><ele>38.199999999999996</ele><time>2026-05-01T07:34:55.519Z</time></trkpt><trkpt lat="41.8923535" lon="12.5369303"><ele>38.0</ele><time>2026-05-01T07:34:56.488Z</time></trkpt><trkpt lat="41.8923524" lon="12.5370747"><ele>38.0</ele><time>2026-05-01T07:34:57.478Z</time></trkpt><trkpt lat="41.8923545" lon="12.5372334"><ele>38.0</ele><time>2026-05-01T07:34:58.491Z</time></trkpt><trkpt lat="41.892353" lon="12.5374013"><ele>38.0</ele><time>2026-05-01T07:34:59.507Z</time></trkpt><trkpt lat="41.892349" lon="12.5375715"><ele>38.0</ele><time>2026-05-01T07:35:00.484Z</time></trkpt><trkpt lat="41.8923411" lon="12.5377418"><ele>37.75</ele><time>2026-05-01T07:35:01.495Z</time></trkpt><trkpt lat="41.8923324" lon="12.5379243"><ele>37.5</ele><time>2026-05-01T07:35:02.48Z</time></trkpt><trkpt lat="41.8923278" lon="12.5381062"><ele>37.25</ele><time>2026-05-01T07:35:03.476Z</time></trkpt><trkpt lat="41.892322" lon="12.5382859"><ele>37.0</ele><time>2026-05-01T07:35:04.479Z</time></trkpt><trkpt lat="41.8923224" lon="12.5384595"><ele>37.0</ele><time>2026-05-01T07:35:05.495Z</time></trkpt><trkpt lat="41.8923221" lon="12.5386245"><ele>37.0</ele><time>2026-05-01T07:35:06.508Z</time></trkpt><trkpt lat="41.892318" lon="12.5387829"><ele>37.0</ele><time>2026-05-01T07:35:07.482Z</time></trkpt><trkpt lat="41.8923123" lon="12.5389309"><ele>37.0</ele><time>2026-05-01T07:35:08.497Z</time></trkpt><trkpt lat="41.8923069" lon="12.53908"><ele>37.0</ele><time>2026-05-01T07:35:09.49Z</time></trkpt><trkpt lat="41.8922947" lon="12.5392246"><ele>37.0</ele><time>2026-05-01T07:35:10.505Z</time></trkpt><trkpt lat="41.8922869" lon="12.5393694"><ele>37.0</ele><time>2026-05-01T07:35:11.504Z</time></trkpt><trkpt lat="41.8922808" lon="12.5395154"><ele>37.0</ele><time>2026-05-01T07:35:12.493Z</time></trkpt><trkpt lat="41.8922856" lon="12.5396578"><ele>37.0</ele><time>2026-05-01T07:35:13.511Z</time></trkpt><trkpt lat="41.8922991" lon="12.5397915"><ele>37.0</ele><time>2026-05-01T07:35:14.499Z</time></trkpt><trkpt lat="41.8923069" lon="12.5399078"><ele>37.0</ele><time>2026-05-01T07:35:15.482Z</time></trkpt><trkpt lat="41.8923226" lon="12.5400075"><ele>37.0</ele><time>2026-05-01T07:35:16.491Z</time></trkpt><trkpt lat="41.8923382" lon="12.5400942"><ele>37.0</ele><time>2026-05-01T07:35:17.506Z</time></trkpt><trkpt lat="41.8923766" lon="12.5402203"><ele>37.0</ele><time>2026-05-01T07:35:19.488Z</time></trkpt><trkpt lat="41.8924198" lon="12.5403302"><ele>37.0</ele><time>2026-05-01T07:36:14.479Z</time></trkpt><trkpt lat="41.8924319" lon="12.5404986"><ele>36.5</ele><time>2026-05-01T07:36:16.498Z</time></trkpt><trkpt lat="41.8924441" lon="12.5405989"><ele>36.0</ele><time>2026-05-01T07:36:17.479Z</time></trkpt><trkpt lat="41.8924615" lon="12.5407138"><ele>35.5</ele><time>2026-05-01T07:36:18.496Z</time></trkpt><trkpt lat="41.8924754" lon="12.5408218"><ele>35.0</ele><time>2026-05-01T07:36:19.478Z</time></trkpt><trkpt lat="41.8924931" lon="12.5409299"><ele>34.5</ele><time>2026-05-01T07:36:20.486Z</time></trkpt><trkpt lat="41.8925047" lon="12.5410322"><ele>34.0</ele><time>2026-05-01T07:36:21.485Z</time></trkpt><trkpt lat="41.8925198" lon="12.5411197"><ele>34.6</ele><time>2026-05-01T07:36:22.497Z</time></trkpt><trkpt lat="41.8925316" lon="12.5412575"><ele>35.2</ele><time>2026-05-01T07:36:24.501Z</time></trkpt><trkpt lat="41.8925466" lon="12.5413801"><ele>35.800000000000004</ele><time>2026-05-01T07:36:26.51Z</time></trkpt><trkpt lat="41.8925738" lon="12.5415386"><ele>36.4</ele><time>2026-05-01T07:36:28.496Z</time></trkpt><trkpt lat="41.8925922" lon="12.5416625"><ele>37.0</ele><time>2026-05-01T07:36:29.5Z</time></trkpt><trkpt lat="41.892612" lon="12.5418027"><ele>35.25</ele><time>2026-05-01T07:36:30.493Z</time></trkpt><trkpt lat="41.8926265" lon="12.5419518"><ele>33.5</ele><time>2026-05-01T07:36:31.475Z</time></trkpt><trkpt lat="41.892649" lon="12.5421104"><ele>31.75</ele><time>2026-05-01T07:36:32.478Z</time></trkpt><trkpt lat="41.8926692" lon="12.5422791"><ele>30.0</ele><time>2026-05-01T07:36:33.481Z</time></trkpt><trkpt lat="41.8926863" lon="12.5424559"><ele>30.0</ele><time>2026-05-01T07:36:34.492Z</time></trkpt><trkpt lat="41.892707" lon="12.5426305"><ele>30.0</ele><time>2026-05-01T07:36:35.47Z</time></trkpt><trkpt lat="41.8927268" lon="12.5428083"><ele>30.0</ele><time>2026-05-01T07:36:36.495Z</time></trkpt><trkpt lat="41.8927453" lon="12.5429897"><ele>30.0</ele><time>2026-05-01T07:36:37.483Z</time></trkpt><trkpt lat="41.8927668" lon="12.5431739"><ele>31.75</ele><time>2026-05-01T07:36:38.482Z</time></trkpt><trkpt lat="41.8927866" lon="12.5433624"><ele>33.5</ele><time>2026-05-01T07:36:39.479Z</time></trkpt><trkpt lat="41.8928142" lon="12.5435533"><ele>35.25</ele><time>2026-05-01T07:36:40.483Z</time></trkpt><trkpt lat="41.8928373" lon="12.5437424"><ele>37.0</ele><time>2026-05-01T07:36:41.49Z</time></trkpt><trkpt lat="41.892865" lon="12.5439329"><ele>37.0</ele><time>2026-05-01T07:36:42.49Z</time></trkpt><trkpt lat="41.8928861" lon="12.544128"><ele>37.0</ele><time>2026-05-01T07:36:43.501Z</time></trkpt><trkpt lat="41.8929091" lon="12.5443315"><ele>37.0</ele><time>2026-05-01T07:36:44.491Z</time></trkpt><trkpt lat="41.8929351" lon="12.5445398"><ele>37.66666666666667</ele><time>2026-05-01T07:36:45.5Z</time></trkpt><trkpt lat="41.8929601" lon="12.5447428"><ele>38.333333333333336</ele><time>2026-05-01T07:36:46.485Z</time></trkpt><trkpt lat="41.8929873" lon="12.544947"><ele>39.0</ele><time>2026-05-01T07:36:47.488Z</time></trkpt><trkpt lat="41.8930187" lon="12.5451399"><ele>39.0</ele><time>2026-05-01T07:36:48.485Z</time></trkpt><trkpt lat="41.8930462" lon="12.5453225"><ele>39.0</ele><time>2026-05-01T07:36:49.498Z</time></trkpt><trkpt lat="41.8930621" lon="12.5454953"><ele>39.0</ele><time>2026-05-01T07:36:50.478Z</time></trkpt><trkpt lat="41.8930802" lon="12.5456497"><ele>39.0</ele><time>2026-05-01T07:36:51.488Z</time></trkpt><trkpt lat="41.8930985" lon="12.5458068"><ele>39.833333333333336</ele><time>2026-05-01T07:36:52.479Z</time></trkpt><trkpt lat="41.8931135" lon="12.5459485"><ele>40.666666666666664</ele><time>2026-05-01T07:36:53.484Z</time></trkpt><trkpt lat="41.8931228" lon="12.5460768"><ele>41.5</ele><time>2026-05-01T07:36:54.49Z</time></trkpt><trkpt lat="41.8931353" lon="12.546198"><ele>42.33333333333333</ele><time>2026-05-01T07:36:55.487Z</time></trkpt><trkpt lat="41.8931504" lon="12.5463102"><ele>43.166666666666664</ele><time>2026-05-01T07:36:56.489Z</time></trkpt><trkpt lat="41.893166" lon="12.5463987"><ele>44.0</ele><time>2026-05-01T07:36:57.489Z</time></trkpt><trkpt lat="41.8931788" lon="12.5465455"><ele>44.83333333333333</ele><time>2026-05-01T07:36:59.489Z</time></trkpt><trkpt lat="41.8931931" lon="12.5466362"><ele>45.666666666666664</ele><time>2026-05-01T07:37:01.498Z</time></trkpt><trkpt lat="41.8932066" lon="12.5467452"><ele>46.5</ele><time>2026-05-01T07:37:41.515Z</time></trkpt><trkpt lat="41.8932138" lon="12.5468366"><ele>47.33333333333333</ele><time>2026-05-01T07:37:42.517Z</time></trkpt><trkpt lat="41.8932239" lon="12.5469527"><ele>48.166666666666664</ele><time>2026-05-01T07:37:43.483Z</time></trkpt><trkpt lat="41.8932425" lon="12.5470832"><ele>49.0</ele><time>2026-05-01T07:37:44.499Z</time></trkpt><trkpt lat="41.8932639" lon="12.547226"><ele>49.5</ele><time>2026-05-01T07:37:45.504Z</time></trkpt><trkpt lat="41.8932821" lon="12.5473762"><ele>50.0</ele><time>2026-05-01T07:37:46.486Z</time></trkpt><trkpt lat="41.8932981" lon="12.5475293"><ele>50.5</ele><time>2026-05-01T07:37:47.499Z</time></trkpt><trkpt lat="41.893315" lon="12.5476896"><ele>51.0</ele><time>2026-05-01T07:37:48.491Z</time></trkpt><trkpt lat="41.8933332" lon="12.5478469"><ele>50.75</ele><time>2026-05-01T07:37:49.511Z</time></trkpt><trkpt lat="41.8933514" lon="12.5480038"><ele>50.5</ele><time>2026-05-01T07:37:50.499Z</time></trkpt><trkpt lat="41.8933735" lon="12.5481629"><ele>50.25</ele><time>2026-05-01T07:37:51.486Z</time></trkpt><trkpt lat="41.8933951" lon="12.5483273"><ele>50.0</ele><time>2026-05-01T07:37:52.479Z</time></trkpt><trkpt lat="41.8934122" lon="12.5484946"><ele>50.2</ele><time>2026-05-01T07:37:53.494Z</time></trkpt><trkpt lat="41.8934345" lon="12.5486474"><ele>50.4</ele><time>2026-05-01T07:37:54.494Z</time></trkpt><trkpt lat="41.8934573" lon="12.5487892"><ele>50.599999999999994</ele><time>2026-05-01T07:37:55.485Z</time></trkpt><trkpt lat="41.8934732" lon="12.548923"><ele>50.8</ele><time>2026-05-01T07:37:56.489Z</time></trkpt><trkpt lat="41.8934865" lon="12.5490377"><ele>51.0</ele><time>2026-05-01T07:37:57.486Z</time></trkpt><trkpt lat="41.8935045" lon="12.549138"><ele>50.4</ele><time>2026-05-01T07:37:58.51Z</time></trkpt><trkpt lat="41.8935121" lon="12.5492221"><ele>49.8</ele><time>2026-05-01T07:37:59.508Z</time></trkpt><trkpt lat="41.8935119" lon="12.549341"><ele>49.199999999999996</ele><time>2026-05-01T07:38:01.526Z</time></trkpt><trkpt lat="41.8935016" lon="12.549461"><ele>48.599999999999994</ele><time>2026-05-01T07:38:48.508Z</time></trkpt><trkpt lat="41.8935293" lon="12.5496347"><ele>48.0</ele><time>2026-05-01T07:38:50.498Z</time></trkpt><trkpt lat="41.8935585" lon="12.5497577"><ele>47.75</ele><time>2026-05-01T07:38:51.503Z</time></trkpt><trkpt lat="41.8935823" lon="12.5499062"><ele>47.5</ele><time>2026-05-01T07:38:52.507Z</time></trkpt><trkpt lat="41.8935959" lon="12.5500722"><ele>47.25</ele><time>2026-05-01T07:38:53.497Z</time></trkpt><trkpt lat="41.893617" lon="12.5502512"><ele>47.0</ele><time>2026-05-01T07:38:54.497Z</time></trkpt><trkpt lat="41.8936416" lon="12.5504389"><ele>46.5</ele><time>2026-05-01T07:38:55.509Z</time></trkpt><trkpt lat="41.8936629" lon="12.5506302"><ele>46.0</ele><time>2026-05-01T07:38:56.493Z</time></trkpt><trkpt lat="41.8936945" lon="12.5508249"><ele>45.5</ele><time>2026-05-01T07:38:57.506Z</time></trkpt><trkpt lat="41.8937227" lon="12.5510291"><ele>45.0</ele><time>2026-05-01T07:38:58.482Z</time></trkpt><trkpt lat="41.8937583" lon="12.5512328"><ele>43.333333333333336</ele><time>2026-05-01T07:38:59.489Z</time></trkpt><trkpt lat="41.8937895" lon="12.5514376"><ele>41.66666666666667</ele><time>2026-05-01T07:39:00.488Z</time></trkpt><trkpt lat="41.8938141" lon="12.5516466"><ele>40.0</ele><time>2026-05-01T07:39:01.512Z</time></trkpt><trkpt lat="41.8938446" lon="12.5518564"><ele>40.0</ele><time>2026-05-01T07:39:02.488Z</time></trkpt><trkpt lat="41.8938687" lon="12.5520683"><ele>40.0</ele><time>2026-05-01T07:39:03.5Z</time></trkpt><trkpt lat="41.8938889" lon="12.5522856"><ele>40.0</ele><time>2026-05-01T07:39:04.494Z</time></trkpt><trkpt lat="41.8939151" lon="12.5525049"><ele>40.0</ele><time>2026-05-01T07:39:05.489Z</time></trkpt><trkpt lat="41.8939413" lon="12.5527276"><ele>40.0</ele><time>2026-05-01T07:39:06.483Z</time></trkpt><trkpt lat="41.8939666" lon="12.5529617"><ele>40.0</ele><time>2026-05-01T07:39:07.494Z</time></trkpt><trkpt lat="41.8939897" lon="12.5531939"><ele>40.333333333333336</ele><time>2026-05-01T07:39:08.5Z</time></trkpt><trkpt lat="41.8940174" lon="12.5534141"><ele>40.666666666666664</ele><time>2026-05-01T07:39:09.483Z</time></trkpt><trkpt lat="41.8940428" lon="12.5536205"><ele>41.0</ele><time>2026-05-01T07:39:10.475Z</time></trkpt><trkpt lat="41.8940686" lon="12.5538152"><ele>41.75</ele><time>2026-05-01T07:39:11.479Z</time></trkpt><trkpt lat="41.8940932" lon="12.5540003"><ele>42.5</ele><time>2026-05-01T07:39:12.503Z</time></trkpt><trkpt lat="41.8941131" lon="12.5541925"><ele>43.25</ele><time>2026-05-01T07:39:13.491Z</time></trkpt><trkpt lat="41.8941283" lon="12.5543806"><ele>44.0</ele><time>2026-05-01T07:39:14.491Z</time></trkpt><trkpt lat="41.8941367" lon="12.554539"><ele>44.2</ele><time>2026-05-01T07:39:15.483Z</time></trkpt><trkpt lat="41.8941449" lon="12.5546437"><ele>44.400000000000006</ele><time>2026-05-01T07:39:16.498Z</time></trkpt><trkpt lat="41.8941653" lon="12.5547379"><ele>44.6</ele><time>2026-05-01T07:39:18.518Z</time></trkpt><trkpt lat="41.8941561" lon="12.5548465"><ele>44.8</ele><time>2026-05-01T07:39:39.483Z</time></trkpt><trkpt lat="41.8941728" lon="12.5550323"><ele>45.0</ele><time>2026-05-01T07:39:41.497Z</time></trkpt><trkpt lat="41.8941904" lon="12.5551652"><ele>45.0</ele><time>2026-05-01T07:39:42.494Z</time></trkpt><trkpt lat="41.8942094" lon="12.555315"><ele>45.0</ele><time>2026-05-01T07:39:43.508Z</time></trkpt><trkpt lat="41.8942311" lon="12.5554838"><ele>45.0</ele><time>2026-05-01T07:39:44.482Z</time></trkpt><trkpt lat="41.8942499" lon="12.5556675"><ele>45.0</ele><time>2026-05-01T07:39:45.501Z</time></trkpt><trkpt lat="41.8942719" lon="12.5558498"><ele>45.0</ele><time>2026-05-01T07:39:46.491Z</time></trkpt><trkpt lat="41.894297" lon="12.5560448"><ele>45.0</ele><time>2026-05-01T07:39:47.494Z</time></trkpt><trkpt lat="41.8943268" lon="12.5562495"><ele>45.0</ele><time>2026-05-01T07:39:48.492Z</time></trkpt><trkpt lat="41.8943586" lon="12.5564645"><ele>44.666666666666664</ele><time>2026-05-01T07:39:49.499Z</time></trkpt><trkpt lat="41.8943923" lon="12.5566845"><ele>44.33333333333333</ele><time>2026-05-01T07:39:50.499Z</time></trkpt><trkpt lat="41.8944237" lon="12.5569006"><ele>44.0</ele><time>2026-05-01T07:39:51.502Z</time></trkpt><trkpt lat="41.8944521" lon="12.557113"><ele>44.0</ele><time>2026-05-01T07:39:52.492Z</time></trkpt><trkpt lat="41.8944817" lon="12.5573278"><ele>44.0</ele><time>2026-05-01T07:39:53.469Z</time></trkpt><trkpt lat="41.8945167" lon="12.5575377"><ele>44.0</ele><time>2026-05-01T07:39:54.5Z</time></trkpt><trkpt lat="41.8945532" lon="12.5577472"><ele>43.0</ele><time>2026-05-01T07:39:55.508Z</time></trkpt><trkpt lat="41.8945915" lon="12.5579536"><ele>42.0</ele><time>2026-05-01T07:39:56.488Z</time></trkpt><trkpt lat="41.8946272" lon="12.558157"><ele>41.0</ele><time>2026-05-01T07:39:57.486Z</time></trkpt><trkpt lat="41.8946593" lon="12.5583609"><ele>41.0</ele><time>2026-05-01T07:39:58.503Z</time></trkpt><trkpt lat="41.8946942" lon="12.5585618"><ele>41.0</ele><time>2026-05-01T07:39:59.488Z</time></trkpt><trkpt lat="41.8947273" lon="12.5587638"><ele>41.0</ele><time>2026-05-01T07:40:00.507Z</time></trkpt><trkpt lat="41.8947555" lon="12.5589706"><ele>39.666666666666664</ele><time>2026-05-01T07:40:01.486Z</time></trkpt><trkpt lat="41.8947833" lon="12.5591775"><ele>38.333333333333336</ele><time>2026-05-01T07:40:02.478Z</time></trkpt><trkpt lat="41.89481" lon="12.5593806"><ele>37.0</ele><time>2026-05-01T07:40:03.493Z</time></trkpt><trkpt lat="41.8948236" lon="12.5595722"><ele>37.0</ele><time>2026-05-01T07:40:04.47Z</time></trkpt><trkpt lat="41.8948246" lon="12.5597768"><ele>37.0</ele><time>2026-05-01T07:40:05.504Z</time></trkpt><trkpt lat="41.8948197" lon="12.5599878"><ele>37.0</ele><time>2026-05-01T07:40:06.489Z</time></trkpt><trkpt lat="41.8948097" lon="12.5601945"><ele>37.25</ele><time>2026-05-01T07:40:07.496Z</time></trkpt><trkpt lat="41.8948085" lon="12.5603754"><ele>37.5</ele><time>2026-05-01T07:40:08.519Z</time></trkpt><trkpt lat="41.89481" lon="12.5605422"><ele>37.75</ele><time>2026-05-01T07:40:09.507Z</time></trkpt><trkpt lat="41.894813" lon="12.5606985"><ele>38.0</ele><time>2026-05-01T07:40:10.494Z</time></trkpt><trkpt lat="41.8948205" lon="12.5608467"><ele>38.0</ele><time>2026-05-01T07:40:11.477Z</time></trkpt><trkpt lat="41.8948243" lon="12.5609847"><ele>38.0</ele><time>2026-05-01T07:40:12.482Z</time></trkpt><trkpt lat="41.894832" lon="12.5611053"><ele>38.0</ele><time>2026-05-01T07:40:13.482Z</time></trkpt><trkpt lat="41.8948505" lon="12.561212"><ele>38.0</ele><time>2026-05-01T07:40:14.495Z</time></trkpt><trkpt lat="41.8948485" lon="12.5613092"><ele>38.0</ele><time>2026-05-01T07:40:15.51Z</time></trkpt><trkpt lat="41.8948573" lon="12.5614715"><ele>38.199999999999996</ele><time>2026-05-01T07:40:17.494Z</time></trkpt><trkpt lat="41.8948606" lon="12.5616148"><ele>38.4</ele><time>2026-05-01T07:40:19.507Z</time></trkpt><trkpt lat="41.8948736" lon="12.5617787"><ele>38.599999999999994</ele><time>2026-05-01T07:40:21.511Z</time></trkpt><trkpt lat="41.8948693" lon="12.5618654"><ele>38.8</ele><time>2026-05-01T07:40:22.514Z</time></trkpt><trkpt lat="41.8948663" lon="12.5620306"><ele>39.0</ele><time>2026-05-01T07:40:24.508Z</time></trkpt><trkpt lat="41.8948627" lon="12.5621618"><ele>39.0</ele><time>2026-05-01T07:40:26.498Z</time></trkpt><trkpt lat="41.894857" lon="12.5622537"><ele>39.0</ele><time>2026-05-01T07:40:29.492Z</time></trkpt><trkpt lat="41.8948803" lon="12.5623604"><ele>39.0</ele><time>2026-05-01T07:40:33.504Z</time></trkpt><trkpt lat="41.8948657" lon="12.5624435"><ele>39.0</ele><time>2026-05-01T07:40:36.479Z</time></trkpt><trkpt lat="41.8948635" lon="12.5625442"><ele>39.0</ele><time>2026-05-01T07:40:39.485Z</time></trkpt><trkpt lat="41.8948526" lon="12.562652"><ele>39.0</ele><time>2026-05-01T07:40:42.483Z</time></trkpt><trkpt lat="41.8948547" lon="12.5627401"><ele>39.0</ele><time>2026-05-01T07:40:45.496Z</time></trkpt><trkpt lat="41.8948557" lon="12.562837"><ele>39.0</ele><time>2026-05-01T07:40:51.507Z</time></trkpt><trkpt lat="41.8948399" lon="12.5629227"><ele>39.0</ele><time>2026-05-01T07:40:59.488Z</time></trkpt><trkpt lat="41.8948557" lon="12.5630473"><ele>39.0</ele><time>2026-05-01T07:41:01.505Z</time></trkpt><trkpt lat="41.8948936" lon="12.5632255"><ele>39.0</ele><time>2026-05-01T07:41:03.506Z</time></trkpt><trkpt lat="41.8949098" lon="12.5633626"><ele>39.0</ele><time>2026-05-01T07:41:04.49Z</time></trkpt><trkpt lat="41.894921" lon="12.5635291"><ele>39.333333333333336</ele><time>2026-05-01T07:41:05.485Z</time></trkpt><trkpt lat="41.8949283" lon="12.5637155"><ele>39.66666666666667</ele><time>2026-05-01T07:41:06.5Z</time></trkpt><trkpt lat="41.8949299" lon="12.5639418"><ele>40.0</ele><time>2026-05-01T07:41:07.503Z</time></trkpt><trkpt lat="41.8949273" lon="12.564172"><ele>40.0</ele><time>2026-05-01T07:41:08.481Z</time></trkpt><trkpt lat="41.8949331" lon="12.5643787"><ele>40.0</ele><time>2026-05-01T07:41:09.481Z</time></trkpt><trkpt lat="41.8949318" lon="12.5645573"><ele>40.0</ele><time>2026-05-01T07:41:10.491Z</time></trkpt><trkpt lat="41.8949274" lon="12.5647357"><ele>40.0</ele><time>2026-05-01T07:41:11.487Z</time></trkpt><trkpt lat="41.8949339" lon="12.5648953"><ele>40.0</ele><time>2026-05-01T07:41:12.485Z</time></trkpt><trkpt lat="41.8949311" lon="12.5650601"><ele>40.0</ele><time>2026-05-01T07:41:13.477Z</time></trkpt><trkpt lat="41.8949339" lon="12.5652185"><ele>40.0</ele><time>2026-05-01T07:41:14.504Z</time></trkpt><trkpt lat="41.8949435" lon="12.5653762"><ele>40.0</ele><time>2026-05-01T07:41:15.479Z</time></trkpt><trkpt lat="41.89495" lon="12.5655272"><ele>40.8</ele><time>2026-05-01T07:41:16.475Z</time></trkpt><trkpt lat="41.8949567" lon="12.5656772"><ele>41.6</ele><time>2026-05-01T07:41:17.506Z</time></trkpt><trkpt lat="41.8949641" lon="12.5658209"><ele>42.400000000000006</ele><time>2026-05-01T07:41:18.51Z</time></trkpt><trkpt lat="41.8949675" lon="12.5659606"><ele>43.2</ele><time>2026-05-01T07:41:19.505Z</time></trkpt><trkpt lat="41.8949695" lon="12.5660938"><ele>44.0</ele><time>2026-05-01T07:41:20.518Z</time></trkpt><trkpt lat="41.8949696" lon="12.5662133"><ele>44.0</ele><time>2026-05-01T07:41:21.502Z</time></trkpt><trkpt lat="41.8949634" lon="12.5663106"><ele>44.0</ele><time>2026-05-01T07:41:22.482Z</time></trkpt><trkpt lat="41.8949552" lon="12.5664482"><ele>44.0</ele><time>2026-05-01T07:41:24.486Z</time></trkpt><trkpt lat="41.894958" lon="12.5665579"><ele>44.0</ele><time>2026-05-01T07:41:25.496Z</time></trkpt><trkpt lat="41.8949649" lon="12.5667331"><ele>44.0</ele><time>2026-05-01T07:41:26.507Z</time></trkpt><trkpt lat="41.8949746" lon="12.5669485"><ele>43.666666666666664</ele><time>2026-05-01T07:41:27.494Z</time></trkpt><trkpt lat="41.8949846" lon="12.5671959"><ele>43.333333333333336</ele><time>2026-05-01T07:41:28.469Z</time></trkpt><trkpt lat="41.8949888" lon="12.567478"><ele>43.0</ele><time>2026-05-01T07:41:29.482Z</time></trkpt><trkpt lat="41.8949997" lon="12.5677675"><ele>43.0</ele><time>2026-05-01T07:41:30.515Z</time></trkpt><trkpt lat="41.8950034" lon="12.5680347"><ele>43.0</ele><time>2026-05-01T07:41:31.5Z</time></trkpt><trkpt lat="41.8950104" lon="12.5682853"><ele>43.0</ele><time>2026-05-01T07:41:32.483Z</time></trkpt><trkpt lat="41.8950175" lon="12.5685263"><ele>42.333333333333336</ele><time>2026-05-01T07:41:33.487Z</time></trkpt><trkpt lat="41.8950286" lon="12.5687595"><ele>41.666666666666664</ele><time>2026-05-01T07:41:34.497Z</time></trkpt><trkpt lat="41.8950337" lon="12.5689901"><ele>41.0</ele><time>2026-05-01T07:41:35.49Z</time></trkpt><trkpt lat="41.8950374" lon="12.5692205"><ele>41.0</ele><time>2026-05-01T07:41:36.485Z</time></trkpt><trkpt lat="41.8950414" lon="12.5694535"><ele>41.0</ele><time>2026-05-01T07:41:37.483Z</time></trkpt><trkpt lat="41.8950467" lon="12.5696937"><ele>41.0</ele><time>2026-05-01T07:41:38.489Z</time></trkpt><trkpt lat="41.8950499" lon="12.5699353"><ele>41.0</ele><time>2026-05-01T07:41:39.492Z</time></trkpt><trkpt lat="41.8950575" lon="12.5701736"><ele>41.0</ele><time>2026-05-01T07:41:40.468Z</time></trkpt><trkpt lat="41.8950635" lon="12.5704154"><ele>41.0</ele><time>2026-05-01T07:41:41.508Z</time></trkpt><trkpt lat="41.8950672" lon="12.5706633"><ele>39.666666666666664</ele><time>2026-05-01T07:41:42.5Z</time></trkpt><trkpt lat="41.8950655" lon="12.5709102"><ele>38.333333333333336</ele><time>2026-05-01T07:41:43.494Z</time></trkpt><trkpt lat="41.8950607" lon="12.5711528"><ele>37.0</ele><time>2026-05-01T07:41:44.5Z</time></trkpt><trkpt lat="41.8950559" lon="12.5713972"><ele>36.333333333333336</ele><time>2026-05-01T07:41:45.501Z</time></trkpt><trkpt lat="41.8950509" lon="12.5716307"><ele>35.666666666666664</ele><time>2026-05-01T07:41:46.501Z</time></trkpt><trkpt lat="41.8950434" lon="12.5718602"><ele>35.0</ele><time>2026-05-01T07:41:47.5Z</time></trkpt><trkpt lat="41.8950327" lon="12.5720836"><ele>34.33333333333333</ele><time>2026-05-01T07:41:48.508Z</time></trkpt><trkpt lat="41.8950168" lon="12.572297"><ele>33.666666666666664</ele><time>2026-05-01T07:41:49.525Z</time></trkpt><trkpt lat="41.89501" lon="12.5725105"><ele>33.0</ele><time>2026-05-01T07:41:50.51Z</time></trkpt><trkpt lat="41.8949984" lon="12.5727155"><ele>32.25</ele><time>2026-05-01T07:41:51.491Z</time></trkpt><trkpt lat="41.8949826" lon="12.572909"><ele>31.5</ele><time>2026-05-01T07:41:52.489Z</time></trkpt><trkpt lat="41.8949671" lon="12.5731018"><ele>30.75</ele><time>2026-05-01T07:41:53.489Z</time></trkpt><trkpt lat="41.8949604" lon="12.5732931"><ele>30.0</ele><time>2026-05-01T07:41:54.499Z</time></trkpt><trkpt lat="41.8949429" lon="12.5734687"><ele>30.0</ele><time>2026-05-01T07:41:55.489Z</time></trkpt><trkpt lat="41.8949259" lon="12.5736294"><ele>30.0</ele><time>2026-05-01T07:41:56.473Z</time></trkpt><trkpt lat="41.894918" lon="12.5737764"><ele>30.0</ele><time>2026-05-01T07:41:57.506Z</time></trkpt><trkpt lat="41.8949089" lon="12.5738872"><ele>30.0</ele><time>2026-05-01T07:41:58.487Z</time></trkpt><trkpt lat="41.8948847" lon="12.5740539"><ele>30.0</ele><time>2026-05-01T07:42:00.497Z</time></trkpt><trkpt lat="41.894863" lon="12.5742025"><ele>29.4</ele><time>2026-05-01T07:42:02.496Z</time></trkpt><trkpt lat="41.8948238" lon="12.5743463"><ele>28.8</ele><time>2026-05-01T07:42:04.479Z</time></trkpt><trkpt lat="41.8947616" lon="12.5744729"><ele>28.200000000000003</ele><time>2026-05-01T07:42:06.509Z</time></trkpt><trkpt lat="41.8946568" lon="12.5745551"><ele>27.6</ele><time>2026-05-01T07:42:08.49Z</time></trkpt><trkpt lat="41.8945798" lon="12.574573"><ele>27.0</ele><time>2026-05-01T07:42:09.468Z</time></trkpt><trkpt lat="41.8944889" lon="12.5745701"><ele>27.0</ele><time>2026-05-01T07:42:10.473Z</time></trkpt><trkpt lat="41.8943868" lon="12.574559"><ele>27.000000000000004</ele><time>2026-05-01T07:42:11.488Z</time></trkpt><trkpt lat="41.8942821" lon="12.5745479"><ele>27.000000000000004</ele><time>2026-05-01T07:42:12.521Z</time></trkpt><trkpt lat="41.8941756" lon="12.5745365"><ele>27.0</ele><time>2026-05-01T07:42:13.493Z</time></trkpt><trkpt lat="41.8940604" lon="12.5745172"><ele>27.0</ele><time>2026-05-01T07:42:14.485Z</time></trkpt><trkpt lat="41.893942" lon="12.5745014"><ele>27.8</ele><time>2026-05-01T07:42:15.495Z</time></trkpt><trkpt lat="41.8938235" lon="12.5744842"><ele>28.6</ele><time>2026-05-01T07:42:16.503Z</time></trkpt><trkpt lat="41.8937058" lon="12.57447"><ele>29.400000000000002</ele><time>2026-05-01T07:42:17.472Z</time></trkpt><trkpt lat="41.8935954" lon="12.5744568"><ele>30.200000000000003</ele><time>2026-05-01T07:42:18.5Z</time></trkpt><trkpt lat="41.8934963" lon="12.5744519"><ele>31.0</ele><time>2026-05-01T07:42:19.502Z</time></trkpt><trkpt lat="41.8934221" lon="12.5744524"><ele>31.333333333333336</ele><time>2026-05-01T07:42:20.482Z</time></trkpt><trkpt lat="41.8933498" lon="12.5744581"><ele>31.666666666666668</ele><time>2026-05-01T07:42:23.553Z</time></trkpt><trkpt lat="41.8932934" lon="12.5745529"><ele>32.0</ele><time>2026-05-01T07:42:26.492Z</time></trkpt><trkpt lat="41.8933247" lon="12.5746333"><ele>32.333333333333336</ele><time>2026-05-01T07:42:30.476Z</time></trkpt><trkpt lat="41.893377" lon="12.5747223"><ele>32.666666666666664</ele><time>2026-05-01T07:42:36.47Z</time></trkpt><trkpt lat="41.8934722" lon="12.5747634"><ele>33.0</ele><time>2026-05-01T07:42:38.479Z</time></trkpt><trkpt lat="41.8935546" lon="12.5747859"><ele>33.25</ele><time>2026-05-01T07:42:39.481Z</time></trkpt><trkpt lat="41.8936733" lon="12.5748082"><ele>33.5</ele><time>2026-05-01T07:42:40.502Z</time></trkpt><trkpt lat="41.8938065" lon="12.5748403"><ele>33.75</ele><time>2026-05-01T07:42:41.496Z</time></trkpt><trkpt lat="41.8939303" lon="12.5748665"><ele>34.0</ele><time>2026-05-01T07:42:42.501Z</time></trkpt><trkpt lat="41.8940396" lon="12.5748884"><ele>34.0</ele><time>2026-05-01T07:42:43.542Z</time></trkpt><trkpt lat="41.8941361" lon="12.5749117"><ele>34.0</ele><time>2026-05-01T07:42:44.499Z</time></trkpt><trkpt lat="41.8942333" lon="12.5749329"><ele>34.0</ele><time>2026-05-01T07:42:45.505Z</time></trkpt><trkpt lat="41.8943164" lon="12.5749517"><ele>34.0</ele><time>2026-05-01T07:42:46.494Z</time></trkpt><trkpt lat="41.8943985" lon="12.5749786"><ele>34.0</ele><time>2026-05-01T07:42:47.506Z</time></trkpt><trkpt lat="41.8944729" lon="12.5750055"><ele>34.0</ele><time>2026-05-01T07:42:48.526Z</time></trkpt><trkpt lat="41.8945446" lon="12.5750438"><ele>33.333333333333336</ele><time>2026-05-01T07:42:49.517Z</time></trkpt><trkpt lat="41.894603" lon="12.5751097"><ele>32.66666666666667</ele><time>2026-05-01T07:42:50.494Z</time></trkpt><trkpt lat="41.8946414" lon="12.575212"><ele>32.0</ele><time>2026-05-01T07:42:51.473Z</time></trkpt><trkpt lat="41.894666" lon="12.5753386"><ele>31.333333333333336</ele><time>2026-05-01T07:42:52.479Z</time></trkpt><trkpt lat="41.8946774" lon="12.5754619"><ele>30.666666666666668</ele><time>2026-05-01T07:42:53.467Z</time></trkpt><trkpt lat="41.8946829" lon="12.575577"><ele>30.0</ele><time>2026-05-01T07:42:54.486Z</time></trkpt><trkpt lat="41.8946797" lon="12.5757044"><ele>30.0</ele><time>2026-05-01T07:42:55.481Z</time></trkpt><trkpt lat="41.8946661" lon="12.5758434"><ele>30.0</ele><time>2026-05-01T07:42:56.494Z</time></trkpt><trkpt lat="41.8946433" lon="12.5759908"><ele>30.0</ele><time>2026-05-01T07:42:57.49Z</time></trkpt><trkpt lat="41.8946138" lon="12.5761377"><ele>30.0</ele><time>2026-05-01T07:42:58.489Z</time></trkpt><trkpt lat="41.8945874" lon="12.5762829"><ele>30.0</ele><time>2026-05-01T07:42:59.495Z</time></trkpt><trkpt lat="41.8945649" lon="12.5764245"><ele>30.0</ele><time>2026-05-01T07:43:00.493Z</time></trkpt><trkpt lat="41.8945415" lon="12.576556"><ele>30.0</ele><time>2026-05-01T07:43:01.488Z</time></trkpt><trkpt lat="41.8945226" lon="12.576683"><ele>30.0</ele><time>2026-05-01T07:43:02.48Z</time></trkpt><trkpt lat="41.8945071" lon="12.5768223"><ele>30.0</ele><time>2026-05-01T07:43:03.476Z</time></trkpt><trkpt lat="41.8944839" lon="12.5770127"><ele>30.0</ele><time>2026-05-01T07:43:04.501Z</time></trkpt><trkpt lat="41.8944504" lon="12.5772401"><ele>30.0</ele><time>2026-05-01T07:43:05.484Z</time></trkpt><trkpt lat="41.8944109" lon="12.5774823"><ele>30.0</ele><time>2026-05-01T07:43:06.51Z</time></trkpt><trkpt lat="41.8943643" lon="12.5777335"><ele>30.0</ele><time>2026-05-01T07:43:07.483Z</time></trkpt><trkpt lat="41.8943238" lon="12.5779901"><ele>30.0</ele><time>2026-05-01T07:43:08.484Z</time></trkpt><trkpt lat="41.8942864" lon="12.5782466"><ele>30.0</ele><time>2026-05-01T07:43:09.496Z</time></trkpt><trkpt lat="41.8942483" lon="12.5785055"><ele>30.0</ele><time>2026-05-01T07:43:10.495Z</time></trkpt><trkpt lat="41.894208" lon="12.5787716"><ele>31.666666666666664</ele><time>2026-05-01T07:43:11.488Z</time></trkpt><trkpt lat="41.8941639" lon="12.5790367"><ele>33.33333333333333</ele><time>2026-05-01T07:43:12.496Z</time></trkpt><trkpt lat="41.89411" lon="12.5792868"><ele>35.0</ele><time>2026-05-01T07:43:13.492Z</time></trkpt><trkpt lat="41.8940506" lon="12.5795195"><ele>35.0</ele><time>2026-05-01T07:43:14.477Z</time></trkpt><trkpt lat="41.8939893" lon="12.5797357"><ele>35.0</ele><time>2026-05-01T07:43:15.485Z</time></trkpt><trkpt lat="41.8939264" lon="12.5799367"><ele>35.0</ele><time>2026-05-01T07:43:16.483Z</time></trkpt><trkpt lat="41.8938518" lon="12.5801282"><ele>35.0</ele><time>2026-05-01T07:43:17.49Z</time></trkpt><trkpt lat="41.8937637" lon="12.5803022"><ele>35.0</ele><time>2026-05-01T07:43:18.508Z</time></trkpt><trkpt lat="41.8936696" lon="12.580448"><ele>35.0</ele><time>2026-05-01T07:43:19.496Z</time></trkpt><trkpt lat="41.8935892" lon="12.5805723"><ele>35.0</ele><time>2026-05-01T07:43:20.498Z</time></trkpt><trkpt lat="41.8935239" lon="12.5806886"><ele>34.83333333333333</ele><time>2026-05-01T07:43:21.486Z</time></trkpt><trkpt lat="41.8934775" lon="12.5808043"><ele>34.666666666666664</ele><time>2026-05-01T07:43:22.502Z</time></trkpt><trkpt lat="41.8934408" lon="12.5809085"><ele>34.5</ele><time>2026-05-01T07:43:23.556Z</time></trkpt><trkpt lat="41.8934128" lon="12.5809983"><ele>34.333333333333336</ele><time>2026-05-01T07:43:24.542Z</time></trkpt><trkpt lat="41.8933802" lon="12.5810841"><ele>34.16666666666667</ele><time>2026-05-01T07:43:25.516Z</time></trkpt><trkpt lat="41.8933397" lon="12.5811748"><ele>34.0</ele><time>2026-05-01T07:43:26.498Z</time></trkpt><trkpt lat="41.8932846" lon="12.5812776"><ele>34.0</ele><time>2026-05-01T07:43:27.481Z</time></trkpt><trkpt lat="41.8932421" lon="12.5813911"><ele>34.0</ele><time>2026-05-01T07:43:28.493Z</time></trkpt><trkpt lat="41.8932309" lon="12.5815102"><ele>34.0</ele><time>2026-05-01T07:43:29.5Z</time></trkpt><trkpt lat="41.8932557" lon="12.5816303"><ele>34.0</ele><time>2026-05-01T07:43:30.491Z</time></trkpt><trkpt lat="41.8933107" lon="12.5817278"><ele>34.0</ele><time>2026-05-01T07:43:31.499Z</time></trkpt><trkpt lat="41.8933898" lon="12.5818343"><ele>35.75</ele><time>2026-05-01T07:43:32.496Z</time></trkpt><trkpt lat="41.8934489" lon="12.5819679"><ele>37.5</ele><time>2026-05-01T07:43:33.511Z</time></trkpt><trkpt lat="41.893488" lon="12.5821491"><ele>39.25</ele><time>2026-05-01T07:43:34.515Z</time></trkpt><trkpt lat="41.8935084" lon="12.5823489"><ele>41.0</ele><time>2026-05-01T07:43:35.49Z</time></trkpt><trkpt lat="41.8935071" lon="12.5825683"><ele>41.33333333333333</ele><time>2026-05-01T07:43:36.483Z</time></trkpt><trkpt lat="41.8935057" lon="12.5828088"><ele>41.666666666666664</ele><time>2026-05-01T07:43:37.489Z</time></trkpt><trkpt lat="41.8935175" lon="12.5830596"><ele>42.0</ele><time>2026-05-01T07:43:38.523Z</time></trkpt><trkpt lat="41.893532" lon="12.583286"><ele>42.75</ele><time>2026-05-01T07:43:39.491Z</time></trkpt><trkpt lat="41.8935405" lon="12.5834906"><ele>43.5</ele><time>2026-05-01T07:43:40.494Z</time></trkpt><trkpt lat="41.893555" lon="12.583683"><ele>44.25</ele><time>2026-05-01T07:43:41.481Z</time></trkpt><trkpt lat="41.893566" lon="12.5838739"><ele>45.0</ele><time>2026-05-01T07:43:42.491Z</time></trkpt><trkpt lat="41.89358" lon="12.5840584"><ele>45.25</ele><time>2026-05-01T07:43:43.494Z</time></trkpt><trkpt lat="41.8935926" lon="12.5842389"><ele>45.5</ele><time>2026-05-01T07:43:44.479Z</time></trkpt><trkpt lat="41.8936108" lon="12.5844181"><ele>45.75</ele><time>2026-05-01T07:43:45.487Z</time></trkpt><trkpt lat="41.8936291" lon="12.5845872"><ele>46.0</ele><time>2026-05-01T07:43:46.511Z</time></trkpt><trkpt lat="41.8936457" lon="12.5847546"><ele>45.25</ele><time>2026-05-01T07:43:47.472Z</time></trkpt><trkpt lat="41.8936622" lon="12.5849182"><ele>44.5</ele><time>2026-05-01T07:43:48.487Z</time></trkpt><trkpt lat="41.893681" lon="12.5850793"><ele>43.75</ele><time>2026-05-01T07:43:49.491Z</time></trkpt><trkpt lat="41.8937012" lon="12.585244"><ele>43.0</ele><time>2026-05-01T07:43:50.503Z</time></trkpt><trkpt lat="41.8937233" lon="12.5853958"><ele>42.199999999999996</ele><time>2026-05-01T07:43:51.472Z</time></trkpt><trkpt lat="41.8937406" lon="12.5855424"><ele>41.4</ele><time>2026-05-01T07:43:52.494Z</time></trkpt><trkpt lat="41.8937562" lon="12.5856746"><ele>40.599999999999994</ele><time>2026-05-01T07:43:53.491Z</time></trkpt><trkpt lat="41.8937724" lon="12.5857997"><ele>39.8</ele><time>2026-05-01T07:43:54.489Z</time></trkpt><trkpt lat="41.8937914" lon="12.585916"><ele>39.0</ele><time>2026-05-01T07:43:55.477Z</time></trkpt><trkpt lat="41.8938111" lon="12.5860244"><ele>39.0</ele><time>2026-05-01T07:43:56.501Z</time></trkpt><trkpt lat="41.8938309" lon="12.5861322"><ele>39.0</ele><time>2026-05-01T07:43:57.516Z</time></trkpt><trkpt lat="41.8938448" lon="12.5862412"><ele>39.0</ele><time>2026-05-01T07:43:58.498Z</time></trkpt><trkpt lat="41.893856" lon="12.5863554"><ele>39.0</ele><time>2026-05-01T07:43:59.495Z</time></trkpt><trkpt lat="41.8938697" lon="12.5864743"><ele>39.0</ele><time>2026-05-01T07:44:00.49Z</time></trkpt><trkpt lat="41.8938816" lon="12.5865956"><ele>39.0</ele><time>2026-05-01T07:44:01.483Z</time></trkpt><trkpt lat="41.8938955" lon="12.5867177"><ele>39.75</ele><time>2026-05-01T07:44:02.488Z</time></trkpt><trkpt lat="41.8939055" lon="12.5868302"><ele>40.5</ele><time>2026-05-01T07:44:03.493Z</time></trkpt><trkpt lat="41.8939147" lon="12.5869164"><ele>41.25</ele><time>2026-05-01T07:44:04.514Z</time></trkpt><trkpt lat="41.8939334" lon="12.5870219"><ele>42.0</ele><time>2026-05-01T07:44:06.502Z</time></trkpt><trkpt lat="41.8936822" lon="12.5946975"><ele>42.666666666666664</ele><time>2026-05-01T07:45:08.495Z</time></trkpt><trkpt lat="41.8936626" lon="12.594919"><ele>43.33333333333333</ele><time>2026-05-01T07:45:09.508Z</time></trkpt><trkpt lat="41.893651" lon="12.5951521"><ele>44.0</ele><time>2026-05-01T07:45:10.501Z</time></trkpt><trkpt lat="41.8936399" lon="12.595381"><ele>44.666666666666664</ele><time>2026-05-01T07:45:11.479Z</time></trkpt><trkpt lat="41.8936283" lon="12.5956115"><ele>45.333333333333336</ele><time>2026-05-01T07:45:12.503Z</time></trkpt><trkpt lat="41.893618" lon="12.5958451"><ele>46.0</ele><time>2026-05-01T07:45:13.508Z</time></trkpt><trkpt lat="41.8936112" lon="12.5960767"><ele>45.333333333333336</ele><time>2026-05-01T07:45:14.487Z</time></trkpt><trkpt lat="41.8936124" lon="12.5963015"><ele>44.666666666666664</ele><time>2026-05-01T07:45:15.492Z</time></trkpt><trkpt lat="41.8936157" lon="12.5965185"><ele>44.0</ele><time>2026-05-01T07:45:16.498Z</time></trkpt><trkpt lat="41.8936166" lon="12.5967121"><ele>44.0</ele><time>2026-05-01T07:45:17.467Z</time></trkpt><trkpt lat="41.8936189" lon="12.5968883"><ele>44.0</ele><time>2026-05-01T07:45:18.483Z</time></trkpt><trkpt lat="41.8936218" lon="12.5970349"><ele>44.0</ele><time>2026-05-01T07:45:19.485Z</time></trkpt><trkpt lat="41.8936298" lon="12.5971674"><ele>44.0</ele><time>2026-05-01T07:45:20.489Z</time></trkpt><trkpt lat="41.893642" lon="12.5973123"><ele>44.0</ele><time>2026-05-01T07:45:21.484Z</time></trkpt><trkpt lat="41.8936569" lon="12.5974819"><ele>44.25</ele><time>2026-05-01T07:45:22.478Z</time></trkpt><trkpt lat="41.8936757" lon="12.5976622"><ele>44.5</ele><time>2026-05-01T07:45:23.532Z</time></trkpt><trkpt lat="41.8936718" lon="12.5978555"><ele>44.75</ele><time>2026-05-01T07:45:24.481Z</time></trkpt><trkpt lat="41.893667" lon="12.5980592"><ele>45.0</ele><time>2026-05-01T07:45:25.54Z</time></trkpt><trkpt lat="41.8936587" lon="12.5984486"><ele>45.0</ele><time>2026-05-01T07:45:27.488Z</time></trkpt><trkpt lat="41.8936516" lon="12.5986289"><ele>45.0</ele><time>2026-05-01T07:45:28.486Z</time></trkpt><trkpt lat="41.8936433" lon="12.5987991"><ele>45.0</ele><time>2026-05-01T07:45:29.48Z</time></trkpt><trkpt lat="41.8936344" lon="12.5989612"><ele>45.0</ele><time>2026-05-01T07:45:30.484Z</time></trkpt><trkpt lat="41.8936219" lon="12.5991206"><ele>45.0</ele><time>2026-05-01T07:45:31.474Z</time></trkpt><trkpt lat="41.8936069" lon="12.5992888"><ele>45.0</ele><time>2026-05-01T07:45:32.498Z</time></trkpt><trkpt lat="41.8935893" lon="12.5994696"><ele>45.0</ele><time>2026-05-01T07:45:33.483Z</time></trkpt><trkpt lat="41.8935701" lon="12.599654"><ele>45.0</ele><time>2026-05-01T07:45:34.475Z</time></trkpt><trkpt lat="41.8935446" lon="12.5998424"><ele>45.0</ele><time>2026-05-01T07:45:35.503Z</time></trkpt><trkpt lat="41.8935227" lon="12.6000245"><ele>45.0</ele><time>2026-05-01T07:45:36.482Z</time></trkpt><trkpt lat="41.8935021" lon="12.6001997"><ele>45.0</ele><time>2026-05-01T07:45:37.499Z</time></trkpt><trkpt lat="41.893478" lon="12.6003737"><ele>45.0</ele><time>2026-05-01T07:45:38.497Z</time></trkpt><trkpt lat="41.8934556" lon="12.6005485"><ele>44.0</ele><time>2026-05-01T07:45:39.493Z</time></trkpt><trkpt lat="41.893432" lon="12.6007171"><ele>43.0</ele><time>2026-05-01T07:45:40.489Z</time></trkpt><trkpt lat="41.8934066" lon="12.6008817"><ele>42.0</ele><time>2026-05-01T07:45:41.503Z</time></trkpt><trkpt lat="41.8933827" lon="12.6010432"><ele>41.0</ele><time>2026-05-01T07:45:42.487Z</time></trkpt><trkpt lat="41.8933645" lon="12.6011942"><ele>40.75</ele><time>2026-05-01T07:45:43.481Z</time></trkpt><trkpt lat="41.8933412" lon="12.6013366"><ele>40.5</ele><time>2026-05-01T07:45:44.494Z</time></trkpt><trkpt lat="41.8933202" lon="12.601473"><ele>40.25</ele><time>2026-05-01T07:45:45.501Z</time></trkpt><trkpt lat="41.8932916" lon="12.6016061"><ele>40.0</ele><time>2026-05-01T07:45:46.489Z</time></trkpt><trkpt lat="41.8932359" lon="12.6018072"><ele>40.0</ele><time>2026-05-01T07:45:48.474Z</time></trkpt><trkpt lat="41.8932045" lon="12.601928"><ele>40.0</ele><time>2026-05-01T07:45:50.493Z</time></trkpt><trkpt lat="41.893207" lon="12.6020168"><ele>40.0</ele><time>2026-05-01T07:46:14.48Z</time></trkpt><trkpt lat="41.8931961" lon="12.6021931"><ele>40.0</ele><time>2026-05-01T07:46:17.494Z</time></trkpt><trkpt lat="41.8931801" lon="12.602286"><ele>40.0</ele><time>2026-05-01T07:46:18.495Z</time></trkpt><trkpt lat="41.8931583" lon="12.6023999"><ele>39.8</ele><time>2026-05-01T07:46:19.515Z</time></trkpt><trkpt lat="41.8931379" lon="12.6025264"><ele>39.6</ele><time>2026-05-01T07:46:20.5Z</time></trkpt><trkpt lat="41.8931193" lon="12.6026597"><ele>39.4</ele><time>2026-05-01T07:46:21.49Z</time></trkpt><trkpt lat="41.8930965" lon="12.6027901"><ele>39.2</ele><time>2026-05-01T07:46:22.502Z</time></trkpt><trkpt lat="41.8930753" lon="12.6029179"><ele>39.0</ele><time>2026-05-01T07:46:23.48Z</time></trkpt><trkpt lat="41.8930575" lon="12.6030326"><ele>38.42857142857143</ele><time>2026-05-01T07:46:24.488Z</time></trkpt><trkpt lat="41.8930309" lon="12.6031401"><ele>37.857142857142854</ele><time>2026-05-01T07:46:25.502Z</time></trkpt><trkpt lat="41.8930032" lon="12.6032267"><ele>37.285714285714285</ele><time>2026-05-01T07:46:26.486Z</time></trkpt><trkpt lat="41.8929653" lon="12.6033083"><ele>36.714285714285715</ele><time>2026-05-01T07:46:27.5Z</time></trkpt><trkpt lat="41.8929279" lon="12.6033806"><ele>36.14285714285714</ele><time>2026-05-01T07:46:28.487Z</time></trkpt><trkpt lat="41.892898" lon="12.6034573"><ele>35.57142857142857</ele><time>2026-05-01T07:46:29.48Z</time></trkpt><trkpt lat="41.8928857" lon="12.6035506"><ele>35.0</ele><time>2026-05-01T07:46:30.491Z</time></trkpt><trkpt lat="41.8928949" lon="12.6036489"><ele>35.2</ele><time>2026-05-01T07:46:31.491Z</time></trkpt><trkpt lat="41.8929116" lon="12.6037491"><ele>35.4</ele><time>2026-05-01T07:46:32.49Z</time></trkpt><trkpt lat="41.8929419" lon="12.6038527"><ele>35.6</ele><time>2026-05-01T07:46:33.493Z</time></trkpt><trkpt lat="41.892981" lon="12.6039477"><ele>35.8</ele><time>2026-05-01T07:46:34.482Z</time></trkpt><trkpt lat="41.8930287" lon="12.6040491"><ele>36.0</ele><time>2026-05-01T07:46:35.474Z</time></trkpt><trkpt lat="41.8931591" lon="12.6042286"><ele>36.0</ele><time>2026-05-01T07:46:37.485Z</time></trkpt><trkpt lat="41.8932419" lon="12.6042794"><ele>36.0</ele><time>2026-05-01T07:46:38.492Z</time></trkpt><trkpt lat="41.8933264" lon="12.6043148"><ele>36.0</ele><time>2026-05-01T07:46:39.475Z</time></trkpt><trkpt lat="41.8934088" lon="12.6043542"><ele>36.0</ele><time>2026-05-01T07:46:40.49Z</time></trkpt><trkpt lat="41.8934712" lon="12.6044194"><ele>36.0</ele><time>2026-05-01T07:46:41.488Z</time></trkpt><trkpt lat="41.8935175" lon="12.6045049"><ele>36.0</ele><time>2026-05-01T07:46:42.488Z</time></trkpt><trkpt lat="41.8935545" lon="12.6046031"><ele>36.6</ele><time>2026-05-01T07:46:43.497Z</time></trkpt><trkpt lat="41.8935866" lon="12.6047157"><ele>37.2</ele><time>2026-05-01T07:46:44.483Z</time></trkpt><trkpt lat="41.8936222" lon="12.6048409"><ele>37.8</ele><time>2026-05-01T07:46:45.505Z</time></trkpt><trkpt lat="41.8936578" lon="12.6049724"><ele>38.4</ele><time>2026-05-01T07:46:46.494Z</time></trkpt><trkpt lat="41.893693" lon="12.6051152"><ele>39.0</ele><time>2026-05-01T07:46:47.486Z</time></trkpt><trkpt lat="41.8937218" lon="12.6052616"><ele>38.75</ele><time>2026-05-01T07:46:48.497Z</time></trkpt><trkpt lat="41.8937505" lon="12.6054094"><ele>38.5</ele><time>2026-05-01T07:46:49.49Z</time></trkpt><trkpt lat="41.8937732" lon="12.605567"><ele>38.25</ele><time>2026-05-01T07:46:50.465Z</time></trkpt><trkpt lat="41.8937848" lon="12.6057368"><ele>38.0</ele><time>2026-05-01T07:46:51.484Z</time></trkpt><trkpt lat="41.8937957" lon="12.605907"><ele>38.0</ele><time>2026-05-01T07:46:52.501Z</time></trkpt><trkpt lat="41.8938046" lon="12.6060815"><ele>38.0</ele><time>2026-05-01T07:46:53.523Z</time></trkpt><trkpt lat="41.8938055" lon="12.6062486"><ele>38.0</ele><time>2026-05-01T07:46:54.479Z</time></trkpt><trkpt lat="41.8938034" lon="12.6064052"><ele>38.0</ele><time>2026-05-01T07:46:55.5Z</time></trkpt><trkpt lat="41.8937953" lon="12.6065622"><ele>37.33333333333333</ele><time>2026-05-01T07:46:56.486Z</time></trkpt><trkpt lat="41.8937814" lon="12.6068668"><ele>36.666666666666664</ele><time>2026-05-01T07:46:58.497Z</time></trkpt><trkpt lat="41.893772" lon="12.6070175"><ele>36.0</ele><time>2026-05-01T07:46:59.486Z</time></trkpt><trkpt lat="41.8937611" lon="12.6071748"><ele>35.75</ele><time>2026-05-01T07:47:00.497Z</time></trkpt><trkpt lat="41.8937483" lon="12.6073372"><ele>35.5</ele><time>2026-05-01T07:47:01.508Z</time></trkpt><trkpt lat="41.8937363" lon="12.607496"><ele>35.25</ele><time>2026-05-01T07:47:02.492Z</time></trkpt><trkpt lat="41.8937254" lon="12.607655"><ele>35.0</ele><time>2026-05-01T07:47:03.489Z</time></trkpt><trkpt lat="41.8937145" lon="12.6078035"><ele>35.4</ele><time>2026-05-01T07:47:04.491Z</time></trkpt><trkpt lat="41.8937035" lon="12.6079413"><ele>35.8</ele><time>2026-05-01T07:47:05.49Z</time></trkpt><trkpt lat="41.8936992" lon="12.6080695"><ele>36.2</ele><time>2026-05-01T07:47:06.494Z</time></trkpt><trkpt lat="41.8936911" lon="12.6082057"><ele>36.6</ele><time>2026-05-01T07:47:07.491Z</time></trkpt><trkpt lat="41.8936827" lon="12.6083423"><ele>37.0</ele><time>2026-05-01T07:47:08.484Z</time></trkpt><trkpt lat="41.8936746" lon="12.6084811"><ele>37.0</ele><time>2026-05-01T07:47:09.514Z</time></trkpt><trkpt lat="41.8936636" lon="12.6086307"><ele>37.0</ele><time>2026-05-01T07:47:10.474Z</time></trkpt><trkpt lat="41.8936552" lon="12.6087802"><ele>37.0</ele><time>2026-05-01T07:47:11.486Z</time></trkpt><trkpt lat="41.8936458" lon="12.6089344"><ele>37.0</ele><time>2026-05-01T07:47:12.485Z</time></trkpt><trkpt lat="41.8936377" lon="12.6090958"><ele>37.75</ele><time>2026-05-01T07:47:13.498Z</time></trkpt><trkpt lat="41.893627" lon="12.6092596"><ele>38.5</ele><time>2026-05-01T07:47:14.483Z</time></trkpt><trkpt lat="41.8936142" lon="12.6094313"><ele>39.25</ele><time>2026-05-01T07:47:15.501Z</time></trkpt><trkpt lat="41.8935955" lon="12.6095993"><ele>40.0</ele><time>2026-05-01T07:47:16.502Z</time></trkpt><trkpt lat="41.8935728" lon="12.6097657"><ele>41.0</ele><time>2026-05-01T07:47:17.493Z</time></trkpt><trkpt lat="41.8935274" lon="12.6101113"><ele>42.0</ele><time>2026-05-01T07:47:19.48Z</time></trkpt><trkpt lat="41.8935058" lon="12.6102795"><ele>43.0</ele><time>2026-05-01T07:47:20.486Z</time></trkpt><trkpt lat="41.8934837" lon="12.6104442"><ele>43.25</ele><time>2026-05-01T07:47:21.498Z</time></trkpt><trkpt lat="41.8934601" lon="12.610604"><ele>43.5</ele><time>2026-05-01T07:47:22.509Z</time></trkpt><trkpt lat="41.8934342" lon="12.610759"><ele>43.75</ele><time>2026-05-01T07:47:23.505Z</time></trkpt><trkpt lat="41.8934028" lon="12.6109151"><ele>44.0</ele><time>2026-05-01T07:47:24.481Z</time></trkpt><trkpt lat="41.8933719" lon="12.6110746"><ele>43.75</ele><time>2026-05-01T07:47:25.49Z</time></trkpt><trkpt lat="41.8933441" lon="12.6112417"><ele>43.5</ele><time>2026-05-01T07:47:26.48Z</time></trkpt><trkpt lat="41.8933175" lon="12.6114128"><ele>43.25</ele><time>2026-05-01T07:47:27.483Z</time></trkpt><trkpt lat="41.8932902" lon="12.6115848"><ele>43.0</ele><time>2026-05-01T07:47:28.517Z</time></trkpt><trkpt lat="41.893261" lon="12.6117574"><ele>43.0</ele><time>2026-05-01T07:47:29.479Z</time></trkpt><trkpt lat="41.893232" lon="12.6119305"><ele>43.0</ele><time>2026-05-01T07:47:30.489Z</time></trkpt><trkpt lat="41.8931808" lon="12.6122566"><ele>43.0</ele><time>2026-05-01T07:47:32.51Z</time></trkpt><trkpt lat="41.8931646" lon="12.6124036"><ele>44.0</ele><time>2026-05-01T07:47:33.477Z</time></trkpt><trkpt lat="41.8931577" lon="12.6125483"><ele>45.0</ele><time>2026-05-01T07:47:34.51Z</time></trkpt><trkpt lat="41.8931562" lon="12.6126896"><ele>46.0</ele><time>2026-05-01T07:47:35.493Z</time></trkpt><trkpt lat="41.8931625" lon="12.6128076"><ele>47.0</ele><time>2026-05-01T07:47:36.504Z</time></trkpt><trkpt lat="41.8931732" lon="12.6128949"><ele>48.0</ele><time>2026-05-01T07:47:37.499Z</time></trkpt><trkpt lat="41.8931876" lon="12.6130178"><ele>49.0</ele><time>2026-05-01T07:47:39.479Z</time></trkpt></trkseg><trkseg><trkpt lat="41.9531505" lon="12.8447909"><ele>249.0</ele><time>2026-05-01T09:14:06.507Z</time></trkpt><trkpt lat="41.9532137" lon="12.8454775"><ele>249.0</ele><time>2026-05-01T09:14:09.535Z</time></trkpt><trkpt lat="41.9532519" lon="12.8457113"><ele>249.0</ele><time>2026-05-01T09:14:10.522Z</time></trkpt><trkpt lat="41.9532968" lon="12.8459377"><ele>249.0</ele><time>2026-05-01T09:14:11.6Z</time></trkpt><trkpt lat="41.9533483" lon="12.8461603"><ele>251.0</ele><time>2026-05-01T09:14:12.524Z</time></trkpt><trkpt lat="41.9533992" lon="12.8463848"><ele>253.0</ele><time>2026-05-01T09:14:13.517Z</time></trkpt><trkpt lat="41.9534539" lon="12.8466144"><ele>255.0</ele><time>2026-05-01T09:14:14.514Z</time></trkpt><trkpt lat="41.953518" lon="12.846862"><ele>255.0</ele><time>2026-05-01T09:14:15.511Z</time></trkpt><trkpt lat="41.9535917" lon="12.8471309"><ele>255.0</ele><time>2026-05-01T09:14:16.513Z</time></trkpt><trkpt lat="41.9536625" lon="12.8473921"><ele>255.0</ele><time>2026-05-01T09:14:17.537Z</time></trkpt><trkpt lat="41.9537206" lon="12.8476406"><ele>255.0</ele><time>2026-05-01T09:14:18.532Z</time></trkpt><trkpt lat="41.9537628" lon="12.8478783"><ele>255.0</ele><time>2026-05-01T09:14:19.529Z</time></trkpt><trkpt lat="41.9537913" lon="12.84811"><ele>255.0</ele><time>2026-05-01T09:14:20.523Z</time></trkpt><trkpt lat="41.9538201" lon="12.848332"><ele>251.66666666666669</ele><time>2026-05-01T09:14:21.526Z</time></trkpt><trkpt lat="41.953858" lon="12.8485316"><ele>248.33333333333334</ele><time>2026-05-01T09:14:22.52Z</time></trkpt><trkpt lat="41.9539166" lon="12.8487237"><ele>245.0</ele><time>2026-05-01T09:14:23.507Z</time></trkpt><trkpt lat="41.9539927" lon="12.8489042"><ele>245.0</ele><time>2026-05-01T09:14:24.543Z</time></trkpt><trkpt lat="41.9540856" lon="12.8490686"><ele>245.0</ele><time>2026-05-01T09:14:25.515Z</time></trkpt><trkpt lat="41.9542028" lon="12.8492062"><ele>245.0</ele><time>2026-05-01T09:14:26.517Z</time></trkpt><trkpt lat="41.9543351" lon="12.8493261"><ele>245.0</ele><time>2026-05-01T09:14:27.505Z</time></trkpt><trkpt lat="41.9544678" lon="12.8494351"><ele>245.0</ele><time>2026-05-01T09:14:28.499Z</time></trkpt><trkpt lat="41.9545945" lon="12.8495576"><ele>245.0</ele><time>2026-05-01T09:14:29.5Z</time></trkpt><trkpt lat="41.954713" lon="12.8496994"><ele>245.0</ele><time>2026-05-01T09:14:30.519Z</time></trkpt><trkpt lat="41.9548273" lon="12.8498593"><ele>245.0</ele><time>2026-05-01T09:14:31.536Z</time></trkpt><trkpt lat="41.9549483" lon="12.8500441"><ele>245.0</ele><time>2026-05-01T09:14:32.513Z</time></trkpt><trkpt lat="41.955068" lon="12.8502594"><ele>246.33333333333334</ele><time>2026-05-01T09:14:33.524Z</time></trkpt><trkpt lat="41.9551814" lon="12.850509"><ele>247.66666666666669</ele><time>2026-05-01T09:14:34.521Z</time></trkpt><trkpt lat="41.9552828" lon="12.8507721"><ele>249.0</ele><time>2026-05-01T09:14:35.527Z</time></trkpt><trkpt lat="41.9553711" lon="12.851025"><ele>249.0</ele><time>2026-05-01T09:14:36.517Z</time></trkpt><trkpt lat="41.9554491" lon="12.851267"><ele>249.0</ele><time>2026-05-01T09:14:37.521Z</time></trkpt><trkpt lat="41.9555197" lon="12.8515012"><ele>249.0</ele><time>2026-05-01T09:14:38.517Z</time></trkpt><trkpt lat="41.9555827" lon="12.8517175"><ele>248.66666666666669</ele><time>2026-05-01T09:14:39.507Z</time></trkpt><trkpt lat="41.955638" lon="12.8519241"><ele>248.33333333333334</ele><time>2026-05-01T09:14:40.526Z</time></trkpt><trkpt lat="41.955697" lon="12.8521284"><ele>248.0</ele><time>2026-05-01T09:14:41.534Z</time></trkpt><trkpt lat="41.955753" lon="12.8523328"><ele>248.0</ele><time>2026-05-01T09:14:42.527Z</time></trkpt><trkpt lat="41.955806" lon="12.8525286"><ele>248.0</ele><time>2026-05-01T09:14:43.519Z</time></trkpt><trkpt lat="41.9558566" lon="12.8527101"><ele>248.0</ele><time>2026-05-01T09:14:44.527Z</time></trkpt><trkpt lat="41.9559052" lon="12.8528831"><ele>248.0</ele><time>2026-05-01T09:14:45.529Z</time></trkpt><trkpt lat="41.9559546" lon="12.8530648"><ele>248.33333333333334</ele><time>2026-05-01T09:14:46.516Z</time></trkpt><trkpt lat="41.9560077" lon="12.8532657"><ele>248.66666666666669</ele><time>2026-05-01T09:14:47.515Z</time></trkpt><trkpt lat="41.9560633" lon="12.8534742"><ele>249.0</ele><time>2026-05-01T09:14:48.527Z</time></trkpt><trkpt lat="41.9561112" lon="12.8536707"><ele>249.0</ele><time>2026-05-01T09:14:49.514Z</time></trkpt><trkpt lat="41.9561507" lon="12.8538489"><ele>249.0</ele><time>2026-05-01T09:14:50.513Z</time></trkpt><trkpt lat="41.9561852" lon="12.8540091"><ele>249.0</ele><time>2026-05-01T09:14:51.518Z</time></trkpt><trkpt lat="41.9562175" lon="12.854168"><ele>249.0</ele><time>2026-05-01T09:14:52.514Z</time></trkpt><trkpt lat="41.9562545" lon="12.85434"><ele>248.66666666666669</ele><time>2026-05-01T09:14:53.527Z</time></trkpt><trkpt lat="41.9562923" lon="12.8545282"><ele>248.33333333333334</ele><time>2026-05-01T09:14:54.509Z</time></trkpt><trkpt lat="41.9563316" lon="12.8547232"><ele>248.0</ele><time>2026-05-01T09:14:55.507Z</time></trkpt><trkpt lat="41.9563704" lon="12.8549311"><ele>247.33333333333334</ele><time>2026-05-01T09:14:56.525Z</time></trkpt><trkpt lat="41.9564068" lon="12.855144"><ele>246.66666666666669</ele><time>2026-05-01T09:14:57.515Z</time></trkpt><trkpt lat="41.9564458" lon="12.85536"><ele>246.0</ele><time>2026-05-01T09:14:58.53Z</time></trkpt><trkpt lat="41.9564876" lon="12.8555765"><ele>246.0</ele><time>2026-05-01T09:14:59.518Z</time></trkpt><trkpt lat="41.9565323" lon="12.8557919"><ele>246.0</ele><time>2026-05-01T09:15:00.522Z</time></trkpt><trkpt lat="41.9565722" lon="12.8560013"><ele>246.0</ele><time>2026-05-01T09:15:01.552Z</time></trkpt><trkpt lat="41.956611" lon="12.8562017"><ele>246.33333333333331</ele><time>2026-05-01T09:15:02.514Z</time></trkpt><trkpt lat="41.9566473" lon="12.8564035"><ele>246.66666666666666</ele><time>2026-05-01T09:15:03.508Z</time></trkpt><trkpt lat="41.9566871" lon="12.8566158"><ele>247.0</ele><time>2026-05-01T09:15:04.522Z</time></trkpt><trkpt lat="41.9567288" lon="12.8568378"><ele>247.33333333333331</ele><time>2026-05-01T09:15:05.517Z</time></trkpt><trkpt lat="41.9567646" lon="12.8570819"><ele>247.66666666666669</ele><time>2026-05-01T09:15:06.497Z</time></trkpt><trkpt lat="41.9567862" lon="12.8573501"><ele>248.0</ele><time>2026-05-01T09:15:07.54Z</time></trkpt><trkpt lat="41.9567876" lon="12.8576552"><ele>247.66666666666669</ele><time>2026-05-01T09:15:08.518Z</time></trkpt><trkpt lat="41.9567736" lon="12.8579709"><ele>247.33333333333331</ele><time>2026-05-01T09:15:09.531Z</time></trkpt><trkpt lat="41.9567525" lon="12.8582456"><ele>247.0</ele><time>2026-05-01T09:15:10.509Z</time></trkpt><trkpt lat="41.9567388" lon="12.8585099"><ele>247.0</ele><time>2026-05-01T09:15:11.515Z</time></trkpt><trkpt lat="41.9567274" lon="12.8587595"><ele>247.0</ele><time>2026-05-01T09:15:12.543Z</time></trkpt><trkpt lat="41.9567207" lon="12.8589887"><ele>247.0</ele><time>2026-05-01T09:15:13.524Z</time></trkpt><trkpt lat="41.9567365" lon="12.8592134"><ele>247.33333333333331</ele><time>2026-05-01T09:15:14.603Z</time></trkpt><trkpt lat="41.9567788" lon="12.8594467"><ele>247.66666666666669</ele><time>2026-05-01T09:15:15.525Z</time></trkpt><trkpt lat="41.9568467" lon="12.8596857"><ele>248.0</ele><time>2026-05-01T09:15:16.518Z</time></trkpt><trkpt lat="41.9569256" lon="12.8599191"><ele>249.66666666666669</ele><time>2026-05-01T09:15:17.519Z</time></trkpt><trkpt lat="41.9569995" lon="12.8601372"><ele>251.33333333333331</ele><time>2026-05-01T09:15:18.538Z</time></trkpt><trkpt lat="41.9570624" lon="12.8603584"><ele>253.0</ele><time>2026-05-01T09:15:19.518Z</time></trkpt><trkpt lat="41.9571168" lon="12.8606098"><ele>253.0</ele><time>2026-05-01T09:15:20.519Z</time></trkpt><trkpt lat="41.9571585" lon="12.8608709"><ele>253.0</ele><time>2026-05-01T09:15:21.519Z</time></trkpt><trkpt lat="41.9571865" lon="12.8611223"><ele>253.0</ele><time>2026-05-01T09:15:22.538Z</time></trkpt><trkpt lat="41.9572085" lon="12.8613523"><ele>252.66666666666666</ele><time>2026-05-01T09:15:23.512Z</time></trkpt><trkpt lat="41.9572275" lon="12.8615736"><ele>252.33333333333331</ele><time>2026-05-01T09:15:24.513Z</time></trkpt><trkpt lat="41.9572546" lon="12.8617835"><ele>252.0</ele><time>2026-05-01T09:15:25.503Z</time></trkpt><trkpt lat="41.9572964" lon="12.861984"><ele>252.0</ele><time>2026-05-01T09:15:26.531Z</time></trkpt><trkpt lat="41.9573697" lon="12.8621797"><ele>252.0</ele><time>2026-05-01T09:15:27.523Z</time></trkpt><trkpt lat="41.9574747" lon="12.8623626"><ele>252.0</ele><time>2026-05-01T09:15:28.51Z</time></trkpt><trkpt lat="41.9575976" lon="12.8625309"><ele>252.33333333333331</ele><time>2026-05-01T09:15:29.515Z</time></trkpt><trkpt lat="41.9577316" lon="12.8626799"><ele>252.66666666666666</ele><time>2026-05-01T09:15:30.515Z</time></trkpt><trkpt lat="41.9578749" lon="12.8628147"><ele>253.0</ele><time>2026-05-01T09:15:31.519Z</time></trkpt><trkpt lat="41.9580244" lon="12.8629408"><ele>253.0</ele><time>2026-05-01T09:15:32.502Z</time></trkpt><trkpt lat="41.9581665" lon="12.8630575"><ele>253.0</ele><time>2026-05-01T09:15:33.529Z</time></trkpt><trkpt lat="41.958297" lon="12.863159"><ele>253.0</ele><time>2026-05-01T09:15:34.502Z</time></trkpt><trkpt lat="41.958413" lon="12.8632461"><ele>255.0</ele><time>2026-05-01T09:15:35.519Z</time></trkpt><trkpt lat="41.9585204" lon="12.8633305"><ele>257.0</ele><time>2026-05-01T09:15:36.514Z</time></trkpt><trkpt lat="41.9586102" lon="12.863432"><ele>259.0</ele><time>2026-05-01T09:15:37.513Z</time></trkpt><trkpt lat="41.9586719" lon="12.8635655"><ele>261.0</ele><time>2026-05-01T09:15:38.529Z</time></trkpt><trkpt lat="41.9587068" lon="12.8637069"><ele>261.0</ele><time>2026-05-01T09:15:39.533Z</time></trkpt><trkpt lat="41.9587033" lon="12.8638567"><ele>261.0</ele><time>2026-05-01T09:15:40.506Z</time></trkpt><trkpt lat="41.9586647" lon="12.8640224"><ele>261.0</ele><time>2026-05-01T09:15:41.521Z</time></trkpt><trkpt lat="41.958614" lon="12.8642115"><ele>261.0</ele><time>2026-05-01T09:15:42.514Z</time></trkpt><trkpt lat="41.9585476" lon="12.8644142"><ele>262.3333333333333</ele><time>2026-05-01T09:15:43.514Z</time></trkpt><trkpt lat="41.9584799" lon="12.8646358"><ele>263.66666666666663</ele><time>2026-05-01T09:15:44.585Z</time></trkpt><trkpt lat="41.9584109" lon="12.8648509"><ele>265.0</ele><time>2026-05-01T09:15:45.531Z</time></trkpt><trkpt lat="41.9583475" lon="12.8650674"><ele>261.66666666666663</ele><time>2026-05-01T09:15:46.525Z</time></trkpt><trkpt lat="41.9582854" lon="12.8652926"><ele>258.3333333333333</ele><time>2026-05-01T09:15:47.505Z</time></trkpt><trkpt lat="41.9582307" lon="12.8655201"><ele>255.0</ele><time>2026-05-01T09:15:48.522Z</time></trkpt><trkpt lat="41.9581925" lon="12.8657454"><ele>255.0</ele><time>2026-05-01T09:15:49.543Z</time></trkpt><trkpt lat="41.9581765" lon="12.8659619"><ele>255.0</ele><time>2026-05-01T09:15:50.522Z</time></trkpt><trkpt lat="41.9581683" lon="12.8661863"><ele>255.0</ele><time>2026-05-01T09:15:51.546Z</time></trkpt><trkpt lat="41.9581514" lon="12.8664212"><ele>255.0</ele><time>2026-05-01T09:15:52.527Z</time></trkpt><trkpt lat="41.9581196" lon="12.866665"><ele>255.0</ele><time>2026-05-01T09:15:53.528Z</time></trkpt><trkpt lat="41.9580788" lon="12.8669116"><ele>255.0</ele><time>2026-05-01T09:15:54.515Z</time></trkpt><trkpt lat="41.95804" lon="12.8671616"><ele>255.33333333333331</ele><time>2026-05-01T09:15:55.51Z</time></trkpt><trkpt lat="41.9580063" lon="12.8674184"><ele>255.66666666666666</ele><time>2026-05-01T09:15:56.539Z</time></trkpt><trkpt lat="41.9579727" lon="12.867681"><ele>256.0</ele><time>2026-05-01T09:15:57.54Z</time></trkpt><trkpt lat="41.9579452" lon="12.8679295"><ele>256.3333333333333</ele><time>2026-05-01T09:15:58.521Z</time></trkpt><trkpt lat="41.957933" lon="12.868156"><ele>256.6666666666667</ele><time>2026-05-01T09:15:59.519Z</time></trkpt><trkpt lat="41.9579295" lon="12.868371"><ele>257.0</ele><time>2026-05-01T09:16:00.541Z</time></trkpt><trkpt lat="41.9579371" lon="12.8685901"><ele>257.0</ele><time>2026-05-01T09:16:01.529Z</time></trkpt><trkpt lat="41.9579579" lon="12.8688216"><ele>257.0</ele><time>2026-05-01T09:16:02.519Z</time></trkpt><trkpt lat="41.957983" lon="12.8690665"><ele>257.0</ele><time>2026-05-01T09:16:03.534Z</time></trkpt><trkpt lat="41.958022" lon="12.8693365"><ele>257.33333333333337</ele><time>2026-05-01T09:16:04.517Z</time></trkpt><trkpt lat="41.958062" lon="12.869615"><ele>257.6666666666667</ele><time>2026-05-01T09:16:05.512Z</time></trkpt><trkpt lat="41.9581001" lon="12.8698976"><ele>258.0</ele><time>2026-05-01T09:16:06.534Z</time></trkpt><trkpt lat="41.9581487" lon="12.8701823"><ele>259.0</ele><time>2026-05-01T09:16:07.544Z</time></trkpt><trkpt lat="41.9581961" lon="12.8704741"><ele>260.0</ele><time>2026-05-01T09:16:08.511Z</time></trkpt><trkpt lat="41.9582422" lon="12.8707649"><ele>261.0</ele><time>2026-05-01T09:16:09.493Z</time></trkpt><trkpt lat="41.9582889" lon="12.8710519"><ele>261.0</ele><time>2026-05-01T09:16:10.525Z</time></trkpt><trkpt lat="41.958329" lon="12.8713145"><ele>261.0</ele><time>2026-05-01T09:16:11.523Z</time></trkpt><trkpt lat="41.9583671" lon="12.8715451"><ele>261.0</ele><time>2026-05-01T09:16:12.53Z</time></trkpt><trkpt lat="41.9583985" lon="12.8717537"><ele>263.3333333333333</ele><time>2026-05-01T09:16:13.526Z</time></trkpt><trkpt lat="41.9584243" lon="12.8719606"><ele>265.66666666666663</ele><time>2026-05-01T09:16:14.513Z</time></trkpt><trkpt lat="41.958448" lon="12.8721739"><ele>268.0</ele><time>2026-05-01T09:16:15.515Z</time></trkpt><trkpt lat="41.9584628" lon="12.8723961"><ele>266.66666666666663</ele><time>2026-05-01T09:16:16.514Z</time></trkpt><trkpt lat="41.9584798" lon="12.8726189"><ele>265.3333333333333</ele><time>2026-05-01T09:16:17.541Z</time></trkpt><trkpt lat="41.9584987" lon="12.8728416"><ele>264.0</ele><time>2026-05-01T09:16:18.52Z</time></trkpt><trkpt lat="41.9585235" lon="12.8730739"><ele>264.0</ele><time>2026-05-01T09:16:19.511Z</time></trkpt><trkpt lat="41.9585619" lon="12.8733039"><ele>264.0</ele><time>2026-05-01T09:16:20.516Z</time></trkpt><trkpt lat="41.9585972" lon="12.8735406"><ele>264.0</ele><time>2026-05-01T09:16:21.519Z</time></trkpt><trkpt lat="41.9586317" lon="12.8737765"><ele>265.0</ele><time>2026-05-01T09:16:22.531Z</time></trkpt><trkpt lat="41.9586704" lon="12.8740125"><ele>266.0</ele><time>2026-05-01T09:16:23.525Z</time></trkpt><trkpt lat="41.958707" lon="12.8742496"><ele>267.0</ele><time>2026-05-01T09:16:24.521Z</time></trkpt><trkpt lat="41.9587449" lon="12.8744886"><ele>267.0</ele><time>2026-05-01T09:16:25.532Z</time></trkpt><trkpt lat="41.9587798" lon="12.8747303"><ele>267.0</ele><time>2026-05-01T09:16:26.512Z</time></trkpt><trkpt lat="41.958815" lon="12.8749722"><ele>267.0</ele><time>2026-05-01T09:16:27.522Z</time></trkpt><trkpt lat="41.9588489" lon="12.8752142"><ele>267.0</ele><time>2026-05-01T09:16:28.521Z</time></trkpt><trkpt lat="41.9588807" lon="12.8754588"><ele>267.0</ele><time>2026-05-01T09:16:29.522Z</time></trkpt><trkpt lat="41.9589171" lon="12.8757047"><ele>267.0</ele><time>2026-05-01T09:16:30.512Z</time></trkpt><trkpt lat="41.9589543" lon="12.8759475"><ele>266.6666666666667</ele><time>2026-05-01T09:16:31.527Z</time></trkpt><trkpt lat="41.958996" lon="12.8761875"><ele>266.33333333333337</ele><time>2026-05-01T09:16:32.527Z</time></trkpt><trkpt lat="41.9590363" lon="12.8764249"><ele>266.0</ele><time>2026-05-01T09:16:33.509Z</time></trkpt><trkpt lat="41.9590791" lon="12.8766603"><ele>265.0</ele><time>2026-05-01T09:16:34.533Z</time></trkpt><trkpt lat="41.9591235" lon="12.8768921"><ele>264.0</ele><time>2026-05-01T09:16:35.528Z</time></trkpt><trkpt lat="41.9591754" lon="12.8771211"><ele>263.0</ele><time>2026-05-01T09:16:36.509Z</time></trkpt><trkpt lat="41.9592373" lon="12.8773511"><ele>267.6666666666667</ele><time>2026-05-01T09:16:37.506Z</time></trkpt><trkpt lat="41.9593059" lon="12.8775814"><ele>272.3333333333333</ele><time>2026-05-01T09:16:38.508Z</time></trkpt><trkpt lat="41.9593767" lon="12.8778154"><ele>277.0</ele><time>2026-05-01T09:16:39.512Z</time></trkpt><trkpt lat="41.9594534" lon="12.8780596"><ele>277.0</ele><time>2026-05-01T09:16:40.527Z</time></trkpt><trkpt lat="41.9595336" lon="12.8783096"><ele>277.0</ele><time>2026-05-01T09:16:41.507Z</time></trkpt><trkpt lat="41.9596182" lon="12.8785656"><ele>277.0</ele><time>2026-05-01T09:16:42.515Z</time></trkpt><trkpt lat="41.9596949" lon="12.8788174"><ele>275.3333333333333</ele><time>2026-05-01T09:16:43.525Z</time></trkpt><trkpt lat="41.959767" lon="12.8790564"><ele>273.6666666666667</ele><time>2026-05-01T09:16:44.516Z</time></trkpt><trkpt lat="41.959839" lon="12.8792801"><ele>272.0</ele><time>2026-05-01T09:16:45.575Z</time></trkpt><trkpt lat="41.9599014" lon="12.8794792"><ele>271.33333333333337</ele><time>2026-05-01T09:16:46.523Z</time></trkpt><trkpt lat="41.9599653" lon="12.8796757"><ele>270.6666666666667</ele><time>2026-05-01T09:16:47.506Z</time></trkpt><trkpt lat="41.9600249" lon="12.8798611"><ele>270.0</ele><time>2026-05-01T09:16:48.514Z</time></trkpt><trkpt lat="41.960079" lon="12.8800513"><ele>273.3333333333333</ele><time>2026-05-01T09:16:49.517Z</time></trkpt><trkpt lat="41.9601297" lon="12.8802385"><ele>276.66666666666663</ele><time>2026-05-01T09:16:50.525Z</time></trkpt><trkpt lat="41.9601829" lon="12.8804257"><ele>280.0</ele><time>2026-05-01T09:16:51.52Z</time></trkpt><trkpt lat="41.9602366" lon="12.8806188"><ele>280.0</ele><time>2026-05-01T09:16:52.512Z</time></trkpt><trkpt lat="41.960292" lon="12.8808186"><ele>280.0</ele><time>2026-05-01T09:16:53.512Z</time></trkpt><trkpt lat="41.9603464" lon="12.8810256"><ele>280.0</ele><time>2026-05-01T09:16:54.541Z</time></trkpt><trkpt lat="41.9604003" lon="12.8812337"><ele>279.66666666666663</ele><time>2026-05-01T09:16:55.505Z</time></trkpt><trkpt lat="41.9604492" lon="12.8814411"><ele>279.3333333333333</ele><time>2026-05-01T09:16:56.525Z</time></trkpt><trkpt lat="41.9604967" lon="12.8816524"><ele>279.0</ele><time>2026-05-01T09:16:57.506Z</time></trkpt><trkpt lat="41.9605426" lon="12.8818631"><ele>278.6666666666667</ele><time>2026-05-01T09:16:58.524Z</time></trkpt><trkpt lat="41.9605895" lon="12.882073"><ele>278.33333333333337</ele><time>2026-05-01T09:16:59.51Z</time></trkpt><trkpt lat="41.9606387" lon="12.8822871"><ele>278.0</ele><time>2026-05-01T09:17:00.535Z</time></trkpt><trkpt lat="41.9606862" lon="12.8825064"><ele>278.0</ele><time>2026-05-01T09:17:01.52Z</time></trkpt><trkpt lat="41.9607359" lon="12.8827237"><ele>278.0</ele><time>2026-05-01T09:17:02.513Z</time></trkpt><trkpt lat="41.9607826" lon="12.8829383"><ele>278.0</ele><time>2026-05-01T09:17:03.545Z</time></trkpt><trkpt lat="41.9608263" lon="12.8831473"><ele>282.0</ele><time>2026-05-01T09:17:04.519Z</time></trkpt><trkpt lat="41.9608735" lon="12.8833535"><ele>286.0</ele><time>2026-05-01T09:17:05.518Z</time></trkpt><trkpt lat="41.960919" lon="12.8835522"><ele>290.0</ele><time>2026-05-01T09:17:06.512Z</time></trkpt><trkpt lat="41.9609615" lon="12.8837525"><ele>290.0</ele><time>2026-05-01T09:17:07.504Z</time></trkpt><trkpt lat="41.9610067" lon="12.8839514"><ele>290.0</ele><time>2026-05-01T09:17:08.52Z</time></trkpt><trkpt lat="41.9610527" lon="12.8841551"><ele>290.0</ele><time>2026-05-01T09:17:09.528Z</time></trkpt><trkpt lat="41.9610978" lon="12.88436"><ele>288.0</ele><time>2026-05-01T09:17:10.515Z</time></trkpt><trkpt lat="41.9611467" lon="12.8845632"><ele>286.0</ele><time>2026-05-01T09:17:11.52Z</time></trkpt><trkpt lat="41.9611968" lon="12.8847667"><ele>284.0</ele><time>2026-05-01T09:17:12.519Z</time></trkpt><trkpt lat="41.9612418" lon="12.8849723"><ele>283.6666666666667</ele><time>2026-05-01T09:17:13.507Z</time></trkpt><trkpt lat="41.9612895" lon="12.8851877"><ele>283.3333333333333</ele><time>2026-05-01T09:17:14.525Z</time></trkpt><trkpt lat="41.9613341" lon="12.8854059"><ele>283.0</ele><time>2026-05-01T09:17:15.499Z</time></trkpt><trkpt lat="41.9613838" lon="12.8856217"><ele>283.0</ele><time>2026-05-01T09:17:16.595Z</time></trkpt><trkpt lat="41.961434" lon="12.885834"><ele>283.0</ele><time>2026-05-01T09:17:17.503Z</time></trkpt><trkpt lat="41.9614772" lon="12.8860348"><ele>283.0</ele><time>2026-05-01T09:17:18.519Z</time></trkpt><trkpt lat="41.9615229" lon="12.8862298"><ele>282.66666666666663</ele><time>2026-05-01T09:17:19.516Z</time></trkpt><trkpt lat="41.9615759" lon="12.8864217"><ele>282.3333333333333</ele><time>2026-05-01T09:17:20.522Z</time></trkpt><trkpt lat="41.9616328" lon="12.8866135"><ele>282.0</ele><time>2026-05-01T09:17:21.523Z</time></trkpt><trkpt lat="41.961695" lon="12.8868071"><ele>285.0</ele><time>2026-05-01T09:17:22.509Z</time></trkpt><trkpt lat="41.9617667" lon="12.8870092"><ele>288.0</ele><time>2026-05-01T09:17:23.524Z</time></trkpt><trkpt lat="41.9618416" lon="12.8872141"><ele>291.0</ele><time>2026-05-01T09:17:24.523Z</time></trkpt><trkpt lat="41.9619217" lon="12.8874159"><ele>287.3333333333333</ele><time>2026-05-01T09:17:25.515Z</time></trkpt><trkpt lat="41.9620038" lon="12.8876032"><ele>283.66666666666663</ele><time>2026-05-01T09:17:26.51Z</time></trkpt><trkpt lat="41.9620862" lon="12.8877744"><ele>280.0</ele><time>2026-05-01T09:17:27.521Z</time></trkpt><trkpt lat="41.962173" lon="12.8879287"><ele>280.0</ele><time>2026-05-01T09:17:28.513Z</time></trkpt><trkpt lat="41.9622876" lon="12.8880703"><ele>280.0</ele><time>2026-05-01T09:17:29.542Z</time></trkpt><trkpt lat="41.9624269" lon="12.8881901"><ele>280.0</ele><time>2026-05-01T09:17:30.504Z</time></trkpt><trkpt lat="41.9625772" lon="12.8882842"><ele>281.75</ele><time>2026-05-01T09:17:31.511Z</time></trkpt><trkpt lat="41.9627182" lon="12.8883557"><ele>283.5</ele><time>2026-05-01T09:17:32.52Z</time></trkpt><trkpt lat="41.9628573" lon="12.8883902"><ele>285.25</ele><time>2026-05-01T09:17:33.513Z</time></trkpt><trkpt lat="41.9629963" lon="12.8883921"><ele>287.0</ele><time>2026-05-01T09:17:34.519Z</time></trkpt><trkpt lat="41.9631338" lon="12.88838"><ele>287.0</ele><time>2026-05-01T09:17:35.512Z</time></trkpt><trkpt lat="41.9632473" lon="12.8883666"><ele>287.0</ele><time>2026-05-01T09:17:36.508Z</time></trkpt><trkpt lat="41.9633479" lon="12.8883547"><ele>287.0</ele><time>2026-05-01T09:17:37.501Z</time></trkpt><trkpt lat="41.9634431" lon="12.8883395"><ele>287.0</ele><time>2026-05-01T09:17:38.511Z</time></trkpt><trkpt lat="41.9635225" lon="12.8883202"><ele>287.0</ele><time>2026-05-01T09:17:39.565Z</time></trkpt><trkpt lat="41.9635932" lon="12.888304"><ele>288.8</ele><time>2026-05-01T09:17:40.527Z</time></trkpt><trkpt lat="41.9636582" lon="12.8882855"><ele>290.6</ele><time>2026-05-01T09:17:41.533Z</time></trkpt><trkpt lat="41.9637767" lon="12.8882585"><ele>292.40000000000003</ele><time>2026-05-01T09:17:43.517Z</time></trkpt><trkpt lat="41.963901" lon="12.8882511"><ele>294.2</ele><time>2026-05-01T09:17:45.519Z</time></trkpt><trkpt lat="41.9639629" lon="12.8882711"><ele>296.0</ele><time>2026-05-01T09:17:46.508Z</time></trkpt><trkpt lat="41.9640524" lon="12.8883764"><ele>297.40000000000003</ele><time>2026-05-01T09:17:48.509Z</time></trkpt><trkpt lat="41.9640752" lon="12.888456"><ele>298.8</ele><time>2026-05-01T09:17:49.52Z</time></trkpt><trkpt lat="41.9640739" lon="12.8886193"><ele>300.20000000000005</ele><time>2026-05-01T09:17:51.518Z</time></trkpt><trkpt lat="41.9640236" lon="12.8887756"><ele>301.6</ele><time>2026-05-01T09:17:53.509Z</time></trkpt><trkpt lat="41.9639812" lon="12.8888575"><ele>303.0</ele><time>2026-05-01T09:17:54.506Z</time></trkpt><trkpt lat="41.9639284" lon="12.88894"><ele>303.0</ele><time>2026-05-01T09:17:55.507Z</time></trkpt><trkpt lat="41.9638774" lon="12.8890204"><ele>303.0</ele><time>2026-05-01T09:17:56.523Z</time></trkpt><trkpt lat="41.9638185" lon="12.8891051"><ele>303.0</ele><time>2026-05-01T09:17:57.506Z</time></trkpt><trkpt lat="41.9637563" lon="12.8892216"><ele>303.0</ele><time>2026-05-01T09:17:58.514Z</time></trkpt><trkpt lat="41.9636888" lon="12.8893475"><ele>303.0</ele><time>2026-05-01T09:17:59.517Z</time></trkpt><trkpt lat="41.9636281" lon="12.8894734"><ele>303.4</ele><time>2026-05-01T09:18:00.512Z</time></trkpt><trkpt lat="41.9635727" lon="12.8896076"><ele>303.8</ele><time>2026-05-01T09:18:01.51Z</time></trkpt><trkpt lat="41.9635296" lon="12.8897416"><ele>304.2</ele><time>2026-05-01T09:18:02.509Z</time></trkpt><trkpt lat="41.963512" lon="12.8898813"><ele>304.6</ele><time>2026-05-01T09:18:03.52Z</time></trkpt><trkpt lat="41.9635222" lon="12.890022"><ele>305.0</ele><time>2026-05-01T09:18:04.513Z</time></trkpt><trkpt lat="41.9635403" lon="12.8901685"><ele>305.0</ele><time>2026-05-01T09:18:05.521Z</time></trkpt><trkpt lat="41.963564" lon="12.890307"><ele>305.0</ele><time>2026-05-01T09:18:06.498Z</time></trkpt><trkpt lat="41.9635866" lon="12.8904469"><ele>305.0</ele><time>2026-05-01T09:18:07.53Z</time></trkpt><trkpt lat="41.9636138" lon="12.8906105"><ele>305.0</ele><time>2026-05-01T09:18:08.527Z</time></trkpt><trkpt lat="41.9636421" lon="12.89078"><ele>304.5</ele><time>2026-05-01T09:18:09.513Z</time></trkpt><trkpt lat="41.9636716" lon="12.890954"><ele>304.0</ele><time>2026-05-01T09:18:10.542Z</time></trkpt><trkpt lat="41.9637048" lon="12.8911392"><ele>303.5</ele><time>2026-05-01T09:18:11.514Z</time></trkpt><trkpt lat="41.9637433" lon="12.8913284"><ele>303.0</ele><time>2026-05-01T09:18:12.512Z</time></trkpt><trkpt lat="41.9637827" lon="12.8915312"><ele>303.0</ele><time>2026-05-01T09:18:13.521Z</time></trkpt><trkpt lat="41.9638228" lon="12.8917432"><ele>303.0</ele><time>2026-05-01T09:18:14.517Z</time></trkpt><trkpt lat="41.9638568" lon="12.8919601"><ele>303.0</ele><time>2026-05-01T09:18:15.516Z</time></trkpt><trkpt lat="41.9638913" lon="12.8921733"><ele>302.6666666666667</ele><time>2026-05-01T09:18:16.506Z</time></trkpt><trkpt lat="41.9639255" lon="12.8923844"><ele>302.33333333333337</ele><time>2026-05-01T09:18:17.533Z</time></trkpt><trkpt lat="41.9639626" lon="12.8925928"><ele>302.0</ele><time>2026-05-01T09:18:18.552Z</time></trkpt><trkpt lat="41.9639983" lon="12.8928022"><ele>302.0</ele><time>2026-05-01T09:18:19.513Z</time></trkpt><trkpt lat="41.9640336" lon="12.8930123"><ele>302.0</ele><time>2026-05-01T09:18:20.506Z</time></trkpt><trkpt lat="41.9640596" lon="12.89323"><ele>302.0</ele><time>2026-05-01T09:18:21.514Z</time></trkpt><trkpt lat="41.9640653" lon="12.8934551"><ele>302.6666666666667</ele><time>2026-05-01T09:18:22.542Z</time></trkpt><trkpt lat="41.964053" lon="12.8936862"><ele>303.3333333333333</ele><time>2026-05-01T09:18:23.545Z</time></trkpt><trkpt lat="41.9640398" lon="12.8939068"><ele>304.0</ele><time>2026-05-01T09:18:24.529Z</time></trkpt><trkpt lat="41.9640263" lon="12.8941262"><ele>304.0</ele><time>2026-05-01T09:18:25.551Z</time></trkpt><trkpt lat="41.9640123" lon="12.8943435"><ele>304.0</ele><time>2026-05-01T09:18:26.515Z</time></trkpt><trkpt lat="41.9640002" lon="12.894559"><ele>304.0</ele><time>2026-05-01T09:18:27.537Z</time></trkpt><trkpt lat="41.9639887" lon="12.8947757"><ele>304.0</ele><time>2026-05-01T09:18:28.519Z</time></trkpt><trkpt lat="41.9639882" lon="12.894991"><ele>304.0</ele><time>2026-05-01T09:18:29.521Z</time></trkpt><trkpt lat="41.9639971" lon="12.8952315"><ele>304.0</ele><time>2026-05-01T09:18:30.509Z</time></trkpt><trkpt lat="41.9640167" lon="12.8954919"><ele>304.66666666666663</ele><time>2026-05-01T09:18:31.512Z</time></trkpt><trkpt lat="41.9640372" lon="12.8957615"><ele>305.3333333333333</ele><time>2026-05-01T09:18:32.525Z</time></trkpt><trkpt lat="41.9640561" lon="12.8960346"><ele>306.0</ele><time>2026-05-01T09:18:33.533Z</time></trkpt><trkpt lat="41.964073" lon="12.8963064"><ele>306.0</ele><time>2026-05-01T09:18:34.503Z</time></trkpt><trkpt lat="41.9640902" lon="12.8965782"><ele>306.0</ele><time>2026-05-01T09:18:35.52Z</time></trkpt><trkpt lat="41.9641109" lon="12.8968571"><ele>306.0</ele><time>2026-05-01T09:18:36.516Z</time></trkpt><trkpt lat="41.9641336" lon="12.8971441"><ele>305.6666666666667</ele><time>2026-05-01T09:18:37.527Z</time></trkpt><trkpt lat="41.9641548" lon="12.8974254"><ele>305.33333333333337</ele><time>2026-05-01T09:18:38.502Z</time></trkpt><trkpt lat="41.9641758" lon="12.8976979"><ele>305.0</ele><time>2026-05-01T09:18:39.514Z</time></trkpt><trkpt lat="41.9641912" lon="12.89796"><ele>308.6666666666667</ele><time>2026-05-01T09:18:40.522Z</time></trkpt><trkpt lat="41.9642043" lon="12.8982132"><ele>312.3333333333333</ele><time>2026-05-01T09:18:41.523Z</time></trkpt><trkpt lat="41.9642157" lon="12.8984679"><ele>316.0</ele><time>2026-05-01T09:18:42.517Z</time></trkpt><trkpt lat="41.964231" lon="12.8987196"><ele>316.0</ele><time>2026-05-01T09:18:43.51Z</time></trkpt><trkpt lat="41.964246" lon="12.8989692"><ele>316.0</ele><time>2026-05-01T09:18:44.504Z</time></trkpt><trkpt lat="41.9642624" lon="12.8992239"><ele>316.0</ele><time>2026-05-01T09:18:45.508Z</time></trkpt><trkpt lat="41.9642823" lon="12.8994955"><ele>316.0</ele><time>2026-05-01T09:18:46.515Z</time></trkpt><trkpt lat="41.9643173" lon="12.8997833"><ele>316.0</ele><time>2026-05-01T09:18:47.511Z</time></trkpt><trkpt lat="41.9643705" lon="12.9000748"><ele>316.0</ele><time>2026-05-01T09:18:48.529Z</time></trkpt><trkpt lat="41.9644345" lon="12.9003712"><ele>316.0</ele><time>2026-05-01T09:18:49.523Z</time></trkpt><trkpt lat="41.9645009" lon="12.9006608"><ele>316.0</ele><time>2026-05-01T09:18:50.515Z</time></trkpt><trkpt lat="41.9645615" lon="12.9009461"><ele>316.0</ele><time>2026-05-01T09:18:51.516Z</time></trkpt><trkpt lat="41.9646236" lon="12.9012268"><ele>315.66666666666663</ele><time>2026-05-01T09:18:52.505Z</time></trkpt><trkpt lat="41.9646848" lon="12.9015051"><ele>315.3333333333333</ele><time>2026-05-01T09:18:53.513Z</time></trkpt><trkpt lat="41.964747" lon="12.9017789"><ele>315.0</ele><time>2026-05-01T09:18:54.507Z</time></trkpt><trkpt lat="41.9648098" lon="12.9020483"><ele>315.0</ele><time>2026-05-01T09:18:55.517Z</time></trkpt><trkpt lat="41.9648686" lon="12.9023141"><ele>315.0</ele><time>2026-05-01T09:18:56.516Z</time></trkpt><trkpt lat="41.9649241" lon="12.9025723"><ele>315.0</ele><time>2026-05-01T09:18:57.524Z</time></trkpt><trkpt lat="41.9649722" lon="12.9028376"><ele>315.0</ele><time>2026-05-01T09:18:58.518Z</time></trkpt><trkpt lat="41.9650038" lon="12.9031181"><ele>315.0</ele><time>2026-05-01T09:18:59.513Z</time></trkpt><trkpt lat="41.9650309" lon="12.9034141"><ele>315.0</ele><time>2026-05-01T09:19:00.508Z</time></trkpt><trkpt lat="41.9650512" lon="12.9037207"><ele>318.0</ele><time>2026-05-01T09:19:01.52Z</time></trkpt><trkpt lat="41.9650637" lon="12.9040422"><ele>321.0</ele><time>2026-05-01T09:19:02.52Z</time></trkpt><trkpt lat="41.9650771" lon="12.9043631"><ele>321.5</ele><time>2026-05-01T09:19:03.512Z</time></trkpt><trkpt lat="41.9650919" lon="12.9046766"><ele>322.0</ele><time>2026-05-01T09:19:04.51Z</time></trkpt><trkpt lat="41.9651113" lon="12.9049796"><ele>322.0</ele><time>2026-05-01T09:19:05.524Z</time></trkpt><trkpt lat="41.9651352" lon="12.9052667"><ele>322.0</ele><time>2026-05-01T09:19:06.519Z</time></trkpt><trkpt lat="41.9651668" lon="12.9055381"><ele>322.0</ele><time>2026-05-01T09:19:07.52Z</time></trkpt><trkpt lat="41.9652037" lon="12.90579"><ele>321.66666666666663</ele><time>2026-05-01T09:19:08.523Z</time></trkpt><trkpt lat="41.9652468" lon="12.9060319"><ele>321.3333333333333</ele><time>2026-05-01T09:19:09.524Z</time></trkpt><trkpt lat="41.9653008" lon="12.9062723"><ele>321.0</ele><time>2026-05-01T09:19:10.51Z</time></trkpt><trkpt lat="41.965368" lon="12.906514"><ele>319.6666666666667</ele><time>2026-05-01T09:19:11.525Z</time></trkpt><trkpt lat="41.9654436" lon="12.9067514"><ele>318.33333333333337</ele><time>2026-05-01T09:19:12.527Z</time></trkpt><trkpt lat="41.9655235" lon="12.9069914"><ele>317.0</ele><time>2026-05-01T09:19:13.536Z</time></trkpt><trkpt lat="41.9656042" lon="12.9072248"><ele>317.0</ele><time>2026-05-01T09:19:14.512Z</time></trkpt><trkpt lat="41.9656956" lon="12.9074512"><ele>317.0</ele><time>2026-05-01T09:19:15.518Z</time></trkpt><trkpt lat="41.965802" lon="12.9076594"><ele>317.0</ele><time>2026-05-01T09:19:16.534Z</time></trkpt><trkpt lat="41.9659063" lon="12.9078503"><ele>319.0</ele><time>2026-05-01T09:19:17.516Z</time></trkpt><trkpt lat="41.9660031" lon="12.908031"><ele>321.0</ele><time>2026-05-01T09:19:18.509Z</time></trkpt><trkpt lat="41.9660889" lon="12.9082114"><ele>323.0</ele><time>2026-05-01T09:19:19.512Z</time></trkpt><trkpt lat="41.966156" lon="12.9084108"><ele>323.0</ele><time>2026-05-01T09:19:20.517Z</time></trkpt><trkpt lat="41.9661965" lon="12.9086263"><ele>323.0</ele><time>2026-05-01T09:19:21.502Z</time></trkpt><trkpt lat="41.9662202" lon="12.9088501"><ele>323.0</ele><time>2026-05-01T09:19:22.511Z</time></trkpt><trkpt lat="41.9662288" lon="12.9090744"><ele>322.6666666666667</ele><time>2026-05-01T09:19:23.512Z</time></trkpt><trkpt lat="41.9662235" lon="12.9093104"><ele>322.3333333333333</ele><time>2026-05-01T09:19:24.508Z</time></trkpt><trkpt lat="41.9662079" lon="12.9095449"><ele>322.0</ele><time>2026-05-01T09:19:25.516Z</time></trkpt><trkpt lat="41.9661857" lon="12.909783"><ele>322.0</ele><time>2026-05-01T09:19:26.513Z</time></trkpt><trkpt lat="41.9661623" lon="12.9100222"><ele>322.0</ele><time>2026-05-01T09:19:27.506Z</time></trkpt><trkpt lat="41.9661407" lon="12.9102604"><ele>322.0</ele><time>2026-05-01T09:19:28.521Z</time></trkpt><trkpt lat="41.9661222" lon="12.9104913"><ele>322.66666666666663</ele><time>2026-05-01T09:19:29.503Z</time></trkpt><trkpt lat="41.9661071" lon="12.9107221"><ele>323.3333333333333</ele><time>2026-05-01T09:19:30.518Z</time></trkpt><trkpt lat="41.9660938" lon="12.9109495"><ele>324.0</ele><time>2026-05-01T09:19:31.525Z</time></trkpt><trkpt lat="41.9660789" lon="12.9111766"><ele>325.6666666666667</ele><time>2026-05-01T09:19:32.513Z</time></trkpt><trkpt lat="41.966066" lon="12.9114061"><ele>327.33333333333337</ele><time>2026-05-01T09:19:33.517Z</time></trkpt><trkpt lat="41.9660572" lon="12.9116418"><ele>329.0</ele><time>2026-05-01T09:19:34.507Z</time></trkpt><trkpt lat="41.9660541" lon="12.911884"><ele>329.0</ele><time>2026-05-01T09:19:35.51Z</time></trkpt><trkpt lat="41.9660509" lon="12.9121257"><ele>329.0</ele><time>2026-05-01T09:19:36.511Z</time></trkpt><trkpt lat="41.9660502" lon="12.91237"><ele>329.0</ele><time>2026-05-01T09:19:37.501Z</time></trkpt><trkpt lat="41.9660538" lon="12.9126144"><ele>328.33333333333337</ele><time>2026-05-01T09:19:38.508Z</time></trkpt><trkpt lat="41.9660617" lon="12.9128598"><ele>327.6666666666667</ele><time>2026-05-01T09:19:39.523Z</time></trkpt><trkpt lat="41.9660646" lon="12.9131063"><ele>327.0</ele><time>2026-05-01T09:19:40.518Z</time></trkpt><trkpt lat="41.9660637" lon="12.9133499"><ele>326.3333333333333</ele><time>2026-05-01T09:19:41.506Z</time></trkpt><trkpt lat="41.9660639" lon="12.9135874"><ele>325.66666666666663</ele><time>2026-05-01T09:19:42.509Z</time></trkpt><trkpt lat="41.9660515" lon="12.9138195"><ele>325.0</ele><time>2026-05-01T09:19:43.511Z</time></trkpt><trkpt lat="41.9660308" lon="12.9140511"><ele>325.3333333333333</ele><time>2026-05-01T09:19:44.518Z</time></trkpt><trkpt lat="41.9660001" lon="12.9142862"><ele>325.6666666666667</ele><time>2026-05-01T09:19:45.535Z</time></trkpt><trkpt lat="41.9659591" lon="12.9145238"><ele>326.0</ele><time>2026-05-01T09:19:46.52Z</time></trkpt><trkpt lat="41.9659084" lon="12.9147595"><ele>325.33333333333337</ele><time>2026-05-01T09:19:47.503Z</time></trkpt><trkpt lat="41.9658535" lon="12.9149966"><ele>324.6666666666667</ele><time>2026-05-01T09:19:48.509Z</time></trkpt><trkpt lat="41.9657987" lon="12.9152338"><ele>324.0</ele><time>2026-05-01T09:19:49.515Z</time></trkpt><trkpt lat="41.9657415" lon="12.9154744"><ele>324.0</ele><time>2026-05-01T09:19:50.52Z</time></trkpt><trkpt lat="41.9656855" lon="12.9157166"><ele>324.0</ele><time>2026-05-01T09:19:51.524Z</time></trkpt><trkpt lat="41.9656283" lon="12.9159602"><ele>324.0</ele><time>2026-05-01T09:19:52.512Z</time></trkpt><trkpt lat="41.965565" lon="12.9162065"><ele>324.3333333333333</ele><time>2026-05-01T09:19:53.566Z</time></trkpt><trkpt lat="41.9654937" lon="12.9164566"><ele>324.66666666666663</ele><time>2026-05-01T09:19:54.513Z</time></trkpt><trkpt lat="41.9654154" lon="12.9167011"><ele>325.0</ele><time>2026-05-01T09:19:55.517Z</time></trkpt><trkpt lat="41.9653307" lon="12.9169473"><ele>326.0</ele><time>2026-05-01T09:19:56.529Z</time></trkpt><trkpt lat="41.9652417" lon="12.9172012"><ele>327.0</ele><time>2026-05-01T09:19:57.522Z</time></trkpt><trkpt lat="41.9651482" lon="12.917465"><ele>328.0</ele><time>2026-05-01T09:19:58.521Z</time></trkpt><trkpt lat="41.9650549" lon="12.9177329"><ele>328.3333333333333</ele><time>2026-05-01T09:19:59.511Z</time></trkpt><trkpt lat="41.9649612" lon="12.9180074"><ele>328.6666666666667</ele><time>2026-05-01T09:20:00.505Z</time></trkpt><trkpt lat="41.9648704" lon="12.9182827"><ele>329.0</ele><time>2026-05-01T09:20:01.543Z</time></trkpt><trkpt lat="41.9647754" lon="12.9185576"><ele>329.0</ele><time>2026-05-01T09:20:02.542Z</time></trkpt><trkpt lat="41.9646796" lon="12.9188381"><ele>329.0</ele><time>2026-05-01T09:20:03.518Z</time></trkpt><trkpt lat="41.9645835" lon="12.9191154"><ele>329.6666666666667</ele><time>2026-05-01T09:20:04.507Z</time></trkpt><trkpt lat="41.9644882" lon="12.9193871"><ele>330.3333333333333</ele><time>2026-05-01T09:20:05.525Z</time></trkpt><trkpt lat="41.9643974" lon="12.9196468"><ele>331.0</ele><time>2026-05-01T09:20:06.537Z</time></trkpt><trkpt lat="41.9643087" lon="12.9198994"><ele>330.3333333333333</ele><time>2026-05-01T09:20:07.503Z</time></trkpt><trkpt lat="41.9642234" lon="12.9201477"><ele>329.6666666666667</ele><time>2026-05-01T09:20:08.503Z</time></trkpt><trkpt lat="41.9641376" lon="12.9203883"><ele>329.0</ele><time>2026-05-01T09:20:09.523Z</time></trkpt><trkpt lat="41.9640508" lon="12.9206328"><ele>329.0</ele><time>2026-05-01T09:20:10.516Z</time></trkpt><trkpt lat="41.9639639" lon="12.9208798"><ele>329.0</ele><time>2026-05-01T09:20:11.521Z</time></trkpt><trkpt lat="41.9638783" lon="12.92113"><ele>329.0</ele><time>2026-05-01T09:20:12.524Z</time></trkpt><trkpt lat="41.963794" lon="12.9213926"><ele>330.33333333333337</ele><time>2026-05-01T09:20:13.55Z</time></trkpt><trkpt lat="41.9637185" lon="12.9216726"><ele>331.6666666666667</ele><time>2026-05-01T09:20:14.52Z</time></trkpt><trkpt lat="41.9636409" lon="12.921957"><ele>333.0</ele><time>2026-05-01T09:20:15.505Z</time></trkpt><trkpt lat="41.9635678" lon="12.9222436"><ele>334.0</ele><time>2026-05-01T09:20:16.499Z</time></trkpt><trkpt lat="41.9635002" lon="12.9225264"><ele>335.0</ele><time>2026-05-01T09:20:17.526Z</time></trkpt><trkpt lat="41.963436" lon="12.9227987"><ele>336.0</ele><time>2026-05-01T09:20:18.522Z</time></trkpt><trkpt lat="41.9633751" lon="12.9230612"><ele>336.0</ele><time>2026-05-01T09:20:19.53Z</time></trkpt><trkpt lat="41.9633189" lon="12.9233084"><ele>336.0</ele><time>2026-05-01T09:20:20.525Z</time></trkpt><trkpt lat="41.9632605" lon="12.9235351"><ele>336.0</ele><time>2026-05-01T09:20:21.528Z</time></trkpt><trkpt lat="41.9632013" lon="12.9237559"><ele>336.6666666666667</ele><time>2026-05-01T09:20:22.517Z</time></trkpt><trkpt lat="41.9631428" lon="12.9239724"><ele>337.33333333333337</ele><time>2026-05-01T09:20:23.511Z</time></trkpt><trkpt lat="41.9630883" lon="12.9241796"><ele>338.0</ele><time>2026-05-01T09:20:24.505Z</time></trkpt><trkpt lat="41.9630364" lon="12.9243714"><ele>338.33333333333337</ele><time>2026-05-01T09:20:25.538Z</time></trkpt><trkpt lat="41.9629885" lon="12.9245605"><ele>338.6666666666667</ele><time>2026-05-01T09:20:26.526Z</time></trkpt><trkpt lat="41.9629744" lon="12.9247598"><ele>339.0</ele><time>2026-05-01T09:20:27.541Z</time></trkpt><trkpt lat="41.9630102" lon="12.9249721"><ele>340.3333333333333</ele><time>2026-05-01T09:20:28.512Z</time></trkpt><trkpt lat="41.9630856" lon="12.925176"><ele>341.66666666666663</ele><time>2026-05-01T09:20:29.542Z</time></trkpt><trkpt lat="41.9631788" lon="12.9253827"><ele>343.0</ele><time>2026-05-01T09:20:30.521Z</time></trkpt><trkpt lat="41.963282" lon="12.9256061"><ele>343.3333333333333</ele><time>2026-05-01T09:20:31.51Z</time></trkpt><trkpt lat="41.963392" lon="12.9258444"><ele>343.6666666666667</ele><time>2026-05-01T09:20:32.515Z</time></trkpt><trkpt lat="41.9634973" lon="12.9260788"><ele>344.0</ele><time>2026-05-01T09:20:33.503Z</time></trkpt><trkpt lat="41.963597" lon="12.9263031"><ele>347.33333333333337</ele><time>2026-05-01T09:20:34.5Z</time></trkpt><trkpt lat="41.9636871" lon="12.9265089"><ele>350.6666666666667</ele><time>2026-05-01T09:20:35.513Z</time></trkpt><trkpt lat="41.9637654" lon="12.9267018"><ele>354.0</ele><time>2026-05-01T09:20:36.505Z</time></trkpt><trkpt lat="41.9638288" lon="12.9268953"><ele>357.3333333333333</ele><time>2026-05-01T09:20:37.526Z</time></trkpt><trkpt lat="41.963856" lon="12.9270879"><ele>360.66666666666663</ele><time>2026-05-01T09:20:38.525Z</time></trkpt><trkpt lat="41.9638336" lon="12.9272896"><ele>364.0</ele><time>2026-05-01T09:20:39.522Z</time></trkpt><trkpt lat="41.9637848" lon="12.9274936"><ele>366.3333333333333</ele><time>2026-05-01T09:20:40.497Z</time></trkpt><trkpt lat="41.9637236" lon="12.9277013"><ele>368.6666666666667</ele><time>2026-05-01T09:20:41.535Z</time></trkpt><trkpt lat="41.9636718" lon="12.9279029"><ele>371.0</ele><time>2026-05-01T09:20:42.518Z</time></trkpt><trkpt lat="41.9636502" lon="12.928097"><ele>371.0</ele><time>2026-05-01T09:20:43.512Z</time></trkpt><trkpt lat="41.9636533" lon="12.9282824"><ele>371.0</ele><time>2026-05-01T09:20:44.508Z</time></trkpt><trkpt lat="41.9636905" lon="12.9284729"><ele>371.0</ele><time>2026-05-01T09:20:45.508Z</time></trkpt><trkpt lat="41.9637526" lon="12.9286636"><ele>371.0</ele><time>2026-05-01T09:20:46.506Z</time></trkpt><trkpt lat="41.9638307" lon="12.928854"><ele>371.33333333333337</ele><time>2026-05-01T09:20:47.493Z</time></trkpt><trkpt lat="41.9639096" lon="12.9290529"><ele>371.6666666666667</ele><time>2026-05-01T09:20:48.508Z</time></trkpt><trkpt lat="41.9639707" lon="12.9292645"><ele>372.0</ele><time>2026-05-01T09:20:49.533Z</time></trkpt><trkpt lat="41.9640067" lon="12.929485"><ele>372.6666666666667</ele><time>2026-05-01T09:20:50.502Z</time></trkpt><trkpt lat="41.9640298" lon="12.9297107"><ele>373.33333333333337</ele><time>2026-05-01T09:20:51.522Z</time></trkpt><trkpt lat="41.9640488" lon="12.9299367"><ele>374.0</ele><time>2026-05-01T09:20:52.523Z</time></trkpt><trkpt lat="41.9640669" lon="12.9301608"><ele>376.0</ele><time>2026-05-01T09:20:53.521Z</time></trkpt><trkpt lat="41.9640802" lon="12.9303836"><ele>378.0</ele><time>2026-05-01T09:20:54.522Z</time></trkpt><trkpt lat="41.9640816" lon="12.9306038"><ele>380.0</ele><time>2026-05-01T09:20:55.519Z</time></trkpt><trkpt lat="41.9640704" lon="12.9308224"><ele>381.5</ele><time>2026-05-01T09:20:56.514Z</time></trkpt><trkpt lat="41.9640464" lon="12.9310228"><ele>383.0</ele><time>2026-05-01T09:20:57.515Z</time></trkpt><trkpt lat="41.9640227" lon="12.9311966"><ele>384.5</ele><time>2026-05-01T09:20:58.502Z</time></trkpt><trkpt lat="41.9640005" lon="12.931345"><ele>386.0</ele><time>2026-05-01T09:20:59.511Z</time></trkpt><trkpt lat="41.9639763" lon="12.9314744"><ele>386.0</ele><time>2026-05-01T09:21:00.511Z</time></trkpt><trkpt lat="41.9639536" lon="12.9316001"><ele>386.0</ele><time>2026-05-01T09:21:01.525Z</time></trkpt><trkpt lat="41.9639288" lon="12.9317231"><ele>386.0</ele><time>2026-05-01T09:21:02.504Z</time></trkpt><trkpt lat="41.9638963" lon="12.9318435"><ele>386.0</ele><time>2026-05-01T09:21:03.507Z</time></trkpt><trkpt lat="41.9638369" lon="12.9319332"><ele>386.0</ele><time>2026-05-01T09:21:04.522Z</time></trkpt><trkpt lat="41.9637495" lon="12.9319524"><ele>386.0</ele><time>2026-05-01T09:21:05.505Z</time></trkpt><trkpt lat="41.9636558" lon="12.9319105"><ele>386.0</ele><time>2026-05-01T09:21:06.513Z</time></trkpt><trkpt lat="41.9635753" lon="12.9318205"><ele>386.0</ele><time>2026-05-01T09:21:07.519Z</time></trkpt><trkpt lat="41.9635053" lon="12.9316944"><ele>386.0</ele><time>2026-05-01T09:21:08.513Z</time></trkpt><trkpt lat="41.9634538" lon="12.9315566"><ele>386.0</ele><time>2026-05-01T09:21:09.522Z</time></trkpt><trkpt lat="41.963407" lon="12.9314331"><ele>385.8</ele><time>2026-05-01T09:21:10.51Z</time></trkpt><trkpt lat="41.9633416" lon="12.9313401"><ele>385.6</ele><time>2026-05-01T09:21:11.518Z</time></trkpt><trkpt lat="41.963255" lon="12.931293"><ele>385.4</ele><time>2026-05-01T09:21:12.502Z</time></trkpt><trkpt lat="41.9631496" lon="12.9312971"><ele>385.2</ele><time>2026-05-01T09:21:13.517Z</time></trkpt><trkpt lat="41.9630439" lon="12.931346"><ele>385.0</ele><time>2026-05-01T09:21:14.502Z</time></trkpt><trkpt lat="41.9629393" lon="12.9314275"><ele>385.0</ele><time>2026-05-01T09:21:15.509Z</time></trkpt><trkpt lat="41.9628323" lon="12.9315254"><ele>385.0</ele><time>2026-05-01T09:21:16.514Z</time></trkpt><trkpt lat="41.9627109" lon="12.931625"><ele>385.0</ele><time>2026-05-01T09:21:17.516Z</time></trkpt><trkpt lat="41.96257" lon="12.9317114"><ele>385.0</ele><time>2026-05-01T09:21:18.516Z</time></trkpt><trkpt lat="41.96242" lon="12.9317808"><ele>392.6666666666667</ele><time>2026-05-01T09:21:19.522Z</time></trkpt><trkpt lat="41.9622652" lon="12.9318304"><ele>400.33333333333337</ele><time>2026-05-01T09:21:20.518Z</time></trkpt><trkpt lat="41.9621181" lon="12.9318651"><ele>408.0</ele><time>2026-05-01T09:21:21.53Z</time></trkpt><trkpt lat="41.9619751" lon="12.9318883"><ele>408.0</ele><time>2026-05-01T09:21:22.522Z</time></trkpt><trkpt lat="41.9618359" lon="12.9319071"><ele>408.0</ele><time>2026-05-01T09:21:23.497Z</time></trkpt><trkpt lat="41.9616997" lon="12.931928"><ele>408.0</ele><time>2026-05-01T09:21:24.529Z</time></trkpt><trkpt lat="41.9615694" lon="12.9319498"><ele>408.0</ele><time>2026-05-01T09:21:25.527Z</time></trkpt><trkpt lat="41.961438" lon="12.9319733"><ele>409.5</ele><time>2026-05-01T09:21:26.502Z</time></trkpt><trkpt lat="41.9613027" lon="12.9319993"><ele>411.0</ele><time>2026-05-01T09:21:27.491Z</time></trkpt><trkpt lat="41.9611684" lon="12.9320266"><ele>412.5</ele><time>2026-05-01T09:21:28.508Z</time></trkpt><trkpt lat="41.9610381" lon="12.9320585"><ele>414.0</ele><time>2026-05-01T09:21:29.504Z</time></trkpt><trkpt lat="41.9609017" lon="12.932088"><ele>415.75</ele><time>2026-05-01T09:21:30.534Z</time></trkpt><trkpt lat="41.9607656" lon="12.9321179"><ele>417.5</ele><time>2026-05-01T09:21:31.526Z</time></trkpt><trkpt lat="41.9606307" lon="12.9321518"><ele>419.25</ele><time>2026-05-01T09:21:32.507Z</time></trkpt><trkpt lat="41.9604981" lon="12.9321918"><ele>421.0</ele><time>2026-05-01T09:21:33.533Z</time></trkpt><trkpt lat="41.9603639" lon="12.9322481"><ele>421.0</ele><time>2026-05-01T09:21:34.502Z</time></trkpt><trkpt lat="41.9602199" lon="12.9323346"><ele>421.0</ele><time>2026-05-01T09:21:35.506Z</time></trkpt><trkpt lat="41.960073" lon="12.9324425"><ele>421.0</ele><time>2026-05-01T09:21:36.519Z</time></trkpt><trkpt lat="41.9599253" lon="12.9325675"><ele>428.6666666666667</ele><time>2026-05-01T09:21:37.502Z</time></trkpt><trkpt lat="41.9597752" lon="12.9327076"><ele>436.33333333333337</ele><time>2026-05-01T09:21:38.512Z</time></trkpt><trkpt lat="41.9596312" lon="12.9328518"><ele>444.0</ele><time>2026-05-01T09:21:39.497Z</time></trkpt><trkpt lat="41.9594844" lon="12.9329966"><ele>444.0</ele><time>2026-05-01T09:21:40.513Z</time></trkpt><trkpt lat="41.9593408" lon="12.9331386"><ele>444.0</ele><time>2026-05-01T09:21:41.496Z</time></trkpt><trkpt lat="41.959203" lon="12.9332873"><ele>444.0</ele><time>2026-05-01T09:21:42.527Z</time></trkpt><trkpt lat="41.9590738" lon="12.9334397"><ele>445.66666666666663</ele><time>2026-05-01T09:21:43.498Z</time></trkpt><trkpt lat="41.9589451" lon="12.9336052"><ele>447.3333333333333</ele><time>2026-05-01T09:21:44.512Z</time></trkpt><trkpt lat="41.9588172" lon="12.933769"><ele>449.0</ele><time>2026-05-01T09:21:45.511Z</time></trkpt><trkpt lat="41.9586794" lon="12.9339333"><ele>449.0</ele><time>2026-05-01T09:21:46.51Z</time></trkpt><trkpt lat="41.958534" lon="12.9341026"><ele>449.0</ele><time>2026-05-01T09:21:47.518Z</time></trkpt><trkpt lat="41.9583867" lon="12.9342782"><ele>449.0</ele><time>2026-05-01T09:21:48.525Z</time></trkpt><trkpt lat="41.9582325" lon="12.9344475"><ele>450.3333333333333</ele><time>2026-05-01T09:21:49.504Z</time></trkpt><trkpt lat="41.9580762" lon="12.9346"><ele>451.66666666666663</ele><time>2026-05-01T09:21:50.513Z</time></trkpt><trkpt lat="41.9579173" lon="12.9347204"><ele>453.0</ele><time>2026-05-01T09:21:51.51Z</time></trkpt><trkpt lat="41.9577479" lon="12.9348144"><ele>453.0</ele><time>2026-05-01T09:21:52.526Z</time></trkpt><trkpt lat="41.9575726" lon="12.9348868"><ele>453.0</ele><time>2026-05-01T09:21:53.52Z</time></trkpt><trkpt lat="41.9573893" lon="12.9349452"><ele>453.0</ele><time>2026-05-01T09:21:54.496Z</time></trkpt><trkpt lat="41.9572078" lon="12.934999"><ele>450.33333333333337</ele><time>2026-05-01T09:21:55.518Z</time></trkpt><trkpt lat="41.9570385" lon="12.935048"><ele>447.6666666666667</ele><time>2026-05-01T09:21:56.506Z</time></trkpt><trkpt lat="41.9568757" lon="12.935098"><ele>445.0</ele><time>2026-05-01T09:21:57.515Z</time></trkpt><trkpt lat="41.9567205" lon="12.935158"><ele>450.5</ele><time>2026-05-01T09:21:58.514Z</time></trkpt><trkpt lat="41.9565757" lon="12.9352407"><ele>456.0</ele><time>2026-05-01T09:21:59.519Z</time></trkpt><trkpt lat="41.9539769" lon="12.937555"><ele>459.6</ele><time>2026-05-01T09:22:25.527Z</time></trkpt><trkpt lat="41.9538664" lon="12.9375705"><ele>463.20000000000005</ele><time>2026-05-01T09:22:26.515Z</time></trkpt><trkpt lat="41.9537572" lon="12.9376139"><ele>466.79999999999995</ele><time>2026-05-01T09:22:27.521Z</time></trkpt><trkpt lat="41.9536537" lon="12.9376732"><ele>470.4</ele><time>2026-05-01T09:22:28.502Z</time></trkpt><trkpt lat="41.9535588" lon="12.9377393"><ele>474.0</ele><time>2026-05-01T09:22:29.495Z</time></trkpt><trkpt lat="41.9534678" lon="12.9378106"><ele>474.0</ele><time>2026-05-01T09:22:30.518Z</time></trkpt><trkpt lat="41.9533837" lon="12.937885"><ele>474.0</ele><time>2026-05-01T09:22:31.5Z</time></trkpt><trkpt lat="41.9533046" lon="12.9379862"><ele>474.0</ele><time>2026-05-01T09:22:32.517Z</time></trkpt><trkpt lat="41.9532102" lon="12.938075"><ele>474.0</ele><time>2026-05-01T09:22:33.517Z</time></trkpt><trkpt lat="41.953111" lon="12.9381574"><ele>474.0</ele><time>2026-05-01T09:22:34.532Z</time></trkpt><trkpt lat="41.9530125" lon="12.9382395"><ele>468.66666666666663</ele><time>2026-05-01T09:22:35.515Z</time></trkpt><trkpt lat="41.9528091" lon="12.938395"><ele>463.3333333333333</ele><time>2026-05-01T09:22:37.503Z</time></trkpt><trkpt lat="41.9526944" lon="12.9384641"><ele>458.0</ele><time>2026-05-01T09:22:38.516Z</time></trkpt><trkpt lat="41.9525722" lon="12.9385241"><ele>459.0</ele><time>2026-05-01T09:22:39.509Z</time></trkpt><trkpt lat="41.9524408" lon="12.938574"><ele>460.0</ele><time>2026-05-01T09:22:40.514Z</time></trkpt><trkpt lat="41.9523105" lon="12.9386126"><ele>461.0</ele><time>2026-05-01T09:22:41.521Z</time></trkpt><trkpt lat="41.9521853" lon="12.9386472"><ele>462.0</ele><time>2026-05-01T09:22:42.498Z</time></trkpt><trkpt lat="41.9520591" lon="12.9386857"><ele>462.0</ele><time>2026-05-01T09:22:43.503Z</time></trkpt><trkpt lat="41.9519339" lon="12.938721"><ele>462.0</ele><time>2026-05-01T09:22:44.502Z</time></trkpt><trkpt lat="41.9517969" lon="12.9387621"><ele>462.0</ele><time>2026-05-01T09:22:45.509Z</time></trkpt><trkpt lat="41.9516543" lon="12.9388111"><ele>462.0</ele><time>2026-05-01T09:22:46.515Z</time></trkpt><trkpt lat="41.9515084" lon="12.9388661"><ele>461.33333333333337</ele><time>2026-05-01T09:22:47.517Z</time></trkpt><trkpt lat="41.9513637" lon="12.9389346"><ele>460.6666666666667</ele><time>2026-05-01T09:22:48.522Z</time></trkpt><trkpt lat="41.951223" lon="12.9390302"><ele>460.0</ele><time>2026-05-01T09:22:49.504Z</time></trkpt><trkpt lat="41.9510936" lon="12.9391431"><ele>457.33333333333337</ele><time>2026-05-01T09:22:50.512Z</time></trkpt><trkpt lat="41.9509787" lon="12.939296"><ele>454.66666666666663</ele><time>2026-05-01T09:22:51.51Z</time></trkpt><trkpt lat="41.9508789" lon="12.9394613"><ele>452.0</ele><time>2026-05-01T09:22:52.515Z</time></trkpt><trkpt lat="41.9507838" lon="12.9396407"><ele>452.0</ele><time>2026-05-01T09:22:53.51Z</time></trkpt><trkpt lat="41.9506852" lon="12.939806"><ele>452.0</ele><time>2026-05-01T09:22:54.516Z</time></trkpt><trkpt lat="41.9505888" lon="12.9399741"><ele>452.0</ele><time>2026-05-01T09:22:55.528Z</time></trkpt><trkpt lat="41.9504928" lon="12.9401391"><ele>447.5</ele><time>2026-05-01T09:22:56.513Z</time></trkpt><trkpt lat="41.9502841" lon="12.9404451"><ele>443.0</ele><time>2026-05-01T09:22:58.519Z</time></trkpt><trkpt lat="41.9501651" lon="12.9405998"><ele>444.3333333333333</ele><time>2026-05-01T09:22:59.519Z</time></trkpt><trkpt lat="41.9500388" lon="12.9407617"><ele>445.66666666666663</ele><time>2026-05-01T09:23:00.515Z</time></trkpt><trkpt lat="41.9499032" lon="12.9409301"><ele>447.0</ele><time>2026-05-01T09:23:01.535Z</time></trkpt><trkpt lat="41.9497711" lon="12.9410934"><ele>443.66666666666663</ele><time>2026-05-01T09:23:02.505Z</time></trkpt><trkpt lat="41.949642" lon="12.9412533"><ele>440.3333333333333</ele><time>2026-05-01T09:23:03.508Z</time></trkpt><trkpt lat="41.9495125" lon="12.9414044"><ele>437.0</ele><time>2026-05-01T09:23:04.525Z</time></trkpt><trkpt lat="41.949378" lon="12.9415468"><ele>437.0</ele><time>2026-05-01T09:23:05.533Z</time></trkpt><trkpt lat="41.9492486" lon="12.9416771"><ele>437.0</ele><time>2026-05-01T09:23:06.526Z</time></trkpt><trkpt lat="41.9491112" lon="12.9417922"><ele>437.0</ele><time>2026-05-01T09:23:07.53Z</time></trkpt><trkpt lat="41.9489695" lon="12.9418997"><ele>436.0</ele><time>2026-05-01T09:23:08.523Z</time></trkpt><trkpt lat="41.9488295" lon="12.9420065"><ele>435.0</ele><time>2026-05-01T09:23:09.507Z</time></trkpt><trkpt lat="41.9486909" lon="12.942111"><ele>434.0</ele><time>2026-05-01T09:23:10.51Z</time></trkpt><trkpt lat="41.9485576" lon="12.9422134"><ele>434.0</ele><time>2026-05-01T09:23:11.552Z</time></trkpt><trkpt lat="41.9484229" lon="12.9423211"><ele>434.0</ele><time>2026-05-01T09:23:12.52Z</time></trkpt><trkpt lat="41.948279" lon="12.9424331"><ele>434.0</ele><time>2026-05-01T09:23:13.518Z</time></trkpt><trkpt lat="41.948131" lon="12.9425476"><ele>430.66666666666663</ele><time>2026-05-01T09:23:14.525Z</time></trkpt><trkpt lat="41.9479792" lon="12.942665"><ele>427.33333333333337</ele><time>2026-05-01T09:23:15.521Z</time></trkpt><trkpt lat="41.9478326" lon="12.9427821"><ele>424.0</ele><time>2026-05-01T09:23:16.517Z</time></trkpt><trkpt lat="41.9476893" lon="12.9429002"><ele>423.5</ele><time>2026-05-01T09:23:17.505Z</time></trkpt><trkpt lat="41.9474255" lon="12.9431464"><ele>423.0</ele><time>2026-05-01T09:23:19.525Z</time></trkpt><trkpt lat="41.9473029" lon="12.9432744"><ele>420.66666666666663</ele><time>2026-05-01T09:23:20.53Z</time></trkpt><trkpt lat="41.9471864" lon="12.9434121"><ele>418.3333333333333</ele><time>2026-05-01T09:23:21.508Z</time></trkpt><trkpt lat="41.9470853" lon="12.943561"><ele>416.0</ele><time>2026-05-01T09:23:22.499Z</time></trkpt><trkpt lat="41.946996" lon="12.9437191"><ele>416.0</ele><time>2026-05-01T09:23:23.524Z</time></trkpt><trkpt lat="41.9469234" lon="12.9438945"><ele>416.0</ele><time>2026-05-01T09:23:24.523Z</time></trkpt><trkpt lat="41.9468637" lon="12.9440865"><ele>416.0</ele><time>2026-05-01T09:23:25.513Z</time></trkpt><trkpt lat="41.946826" lon="12.9442857"><ele>414.0</ele><time>2026-05-01T09:23:26.509Z</time></trkpt><trkpt lat="41.9468026" lon="12.9444926"><ele>412.0</ele><time>2026-05-01T09:23:27.513Z</time></trkpt><trkpt lat="41.9467906" lon="12.9447134"><ele>410.0</ele><time>2026-05-01T09:23:28.513Z</time></trkpt><trkpt lat="41.9467831" lon="12.9449331"><ele>409.0</ele><time>2026-05-01T09:23:29.516Z</time></trkpt><trkpt lat="41.9467751" lon="12.9451501"><ele>408.0</ele><time>2026-05-01T09:23:30.519Z</time></trkpt><trkpt lat="41.9467714" lon="12.9453729"><ele>407.0</ele><time>2026-05-01T09:23:31.502Z</time></trkpt><trkpt lat="41.9467626" lon="12.9456174"><ele>407.0</ele><time>2026-05-01T09:23:32.511Z</time></trkpt><trkpt lat="41.9467553" lon="12.9458685"><ele>407.0</ele><time>2026-05-01T09:23:33.515Z</time></trkpt><trkpt lat="41.9467424" lon="12.9461239"><ele>407.0</ele><time>2026-05-01T09:23:34.522Z</time></trkpt><trkpt lat="41.9467308" lon="12.9463783"><ele>407.0</ele><time>2026-05-01T09:23:35.517Z</time></trkpt><trkpt lat="41.946722" lon="12.9466366"><ele>407.0</ele><time>2026-05-01T09:23:36.514Z</time></trkpt><trkpt lat="41.9467119" lon="12.9468974"><ele>407.0</ele><time>2026-05-01T09:23:37.517Z</time></trkpt><trkpt lat="41.9466977" lon="12.9471542"><ele>407.5</ele><time>2026-05-01T09:23:38.505Z</time></trkpt><trkpt lat="41.9466702" lon="12.9476635"><ele>408.0</ele><time>2026-05-01T09:23:40.509Z</time></trkpt><trkpt lat="41.9466351" lon="12.9479045"><ele>408.0</ele><time>2026-05-01T09:23:41.513Z</time></trkpt><trkpt lat="41.9465687" lon="12.948125"><ele>408.0</ele><time>2026-05-01T09:23:42.527Z</time></trkpt><trkpt lat="41.9464791" lon="12.9483371"><ele>408.0</ele><time>2026-05-01T09:23:43.527Z</time></trkpt><trkpt lat="41.9463692" lon="12.948549"><ele>410.66666666666663</ele><time>2026-05-01T09:23:44.502Z</time></trkpt><trkpt lat="41.9462558" lon="12.948756"><ele>413.3333333333333</ele><time>2026-05-01T09:23:45.504Z</time></trkpt><trkpt lat="41.9461426" lon="12.9489608"><ele>416.0</ele><time>2026-05-01T09:23:46.509Z</time></trkpt><trkpt lat="41.9460172" lon="12.949155"><ele>415.0</ele><time>2026-05-01T09:23:47.511Z</time></trkpt><trkpt lat="41.9458653" lon="12.9493429"><ele>414.0</ele><time>2026-05-01T09:23:48.508Z</time></trkpt><trkpt lat="41.9456979" lon="12.9495437"><ele>413.0</ele><time>2026-05-01T09:23:49.512Z</time></trkpt><trkpt lat="41.9455282" lon="12.9497472"><ele>413.0</ele><time>2026-05-01T09:23:50.513Z</time></trkpt><trkpt lat="41.9453551" lon="12.9499423"><ele>413.0</ele><time>2026-05-01T09:23:51.51Z</time></trkpt><trkpt lat="41.9451789" lon="12.9501339"><ele>414.3333333333333</ele><time>2026-05-01T09:23:52.513Z</time></trkpt><trkpt lat="41.9450059" lon="12.9503209"><ele>415.66666666666663</ele><time>2026-05-01T09:23:53.508Z</time></trkpt><trkpt lat="41.9448366" lon="12.950512"><ele>417.0</ele><time>2026-05-01T09:23:54.514Z</time></trkpt><trkpt lat="41.9446737" lon="12.9507062"><ele>419.33333333333337</ele><time>2026-05-01T09:23:55.54Z</time></trkpt><trkpt lat="41.9445144" lon="12.950908"><ele>421.6666666666667</ele><time>2026-05-01T09:23:56.518Z</time></trkpt><trkpt lat="41.9443635" lon="12.9511186"><ele>424.0</ele><time>2026-05-01T09:23:57.525Z</time></trkpt><trkpt lat="41.9442257" lon="12.9513419"><ele>423.5</ele><time>2026-05-01T09:23:58.511Z</time></trkpt><trkpt lat="41.944098" lon="12.9515658"><ele>423.0</ele><time>2026-05-01T09:23:59.526Z</time></trkpt><trkpt lat="41.9438655" lon="12.9519836"><ele>423.0</ele><time>2026-05-01T09:24:01.528Z</time></trkpt><trkpt lat="41.9437558" lon="12.9521663"><ele>423.0</ele><time>2026-05-01T09:24:02.538Z</time></trkpt><trkpt lat="41.9436351" lon="12.9523334"><ele>423.0</ele><time>2026-05-01T09:24:03.517Z</time></trkpt><trkpt lat="41.9434911" lon="12.9524914"><ele>421.66666666666663</ele><time>2026-05-01T09:24:04.515Z</time></trkpt><trkpt lat="41.9433385" lon="12.9526559"><ele>420.3333333333333</ele><time>2026-05-01T09:24:05.513Z</time></trkpt><trkpt lat="41.943183" lon="12.9528268"><ele>419.0</ele><time>2026-05-01T09:24:06.513Z</time></trkpt><trkpt lat="41.9430299" lon="12.9529947"><ele>419.0</ele><time>2026-05-01T09:24:07.521Z</time></trkpt><trkpt lat="41.9428784" lon="12.9531539"><ele>419.0</ele><time>2026-05-01T09:24:08.523Z</time></trkpt><trkpt lat="41.9427381" lon="12.9532998"><ele>419.0</ele><time>2026-05-01T09:24:09.535Z</time></trkpt><trkpt lat="41.942612" lon="12.953434"><ele>417.25</ele><time>2026-05-01T09:24:10.515Z</time></trkpt><trkpt lat="41.9424896" lon="12.953559"><ele>415.5</ele><time>2026-05-01T09:24:11.527Z</time></trkpt><trkpt lat="41.9423737" lon="12.9536797"><ele>413.75</ele><time>2026-05-01T09:24:12.521Z</time></trkpt><trkpt lat="41.9422671" lon="12.9538006"><ele>412.0</ele><time>2026-05-01T09:24:13.523Z</time></trkpt><trkpt lat="41.9421661" lon="12.9539123"><ele>412.0</ele><time>2026-05-01T09:24:14.52Z</time></trkpt><trkpt lat="41.9420656" lon="12.9540168"><ele>412.0</ele><time>2026-05-01T09:24:15.519Z</time></trkpt><trkpt lat="41.9419681" lon="12.9541202"><ele>412.0</ele><time>2026-05-01T09:24:16.525Z</time></trkpt><trkpt lat="41.9418747" lon="12.9542269"><ele>412.0</ele><time>2026-05-01T09:24:17.54Z</time></trkpt><trkpt lat="41.9417753" lon="12.9543306"><ele>411.0</ele><time>2026-05-01T09:24:18.516Z</time></trkpt><trkpt lat="41.9416812" lon="12.9544303"><ele>410.0</ele><time>2026-05-01T09:24:19.546Z</time></trkpt><trkpt lat="41.9415911" lon="12.9545308"><ele>409.0</ele><time>2026-05-01T09:24:20.51Z</time></trkpt><trkpt lat="41.940661" lon="12.9554641"><ele>408.50000000000006</ele><time>2026-05-01T09:25:41.485Z</time></trkpt><trkpt lat="41.9405868" lon="12.9555014"><ele>408.0</ele><time>2026-05-01T09:26:57.53Z</time></trkpt><trkpt lat="41.940504" lon="12.9555957"><ele>407.5</ele><time>2026-05-01T09:26:59.52Z</time></trkpt><trkpt lat="41.9404406" lon="12.9556878"><ele>407.0</ele><time>2026-05-01T09:27:01.518Z</time></trkpt><trkpt lat="41.9404077" lon="12.955797"><ele>406.50000000000006</ele><time>2026-05-01T09:27:03.502Z</time></trkpt><trkpt lat="41.9403752" lon="12.9558962"><ele>406.0</ele><time>2026-05-01T09:27:05.558Z</time></trkpt><trkpt lat="41.9403048" lon="12.956004"><ele>405.33333333333337</ele><time>2026-05-01T09:27:07.544Z</time></trkpt><trkpt lat="41.9402541" lon="12.9560582"><ele>404.6666666666667</ele><time>2026-05-01T09:27:08.532Z</time></trkpt><trkpt lat="41.9401947" lon="12.9561305"><ele>404.0</ele><time>2026-05-01T09:27:09.514Z</time></trkpt><trkpt lat="41.9401239" lon="12.9562069"><ele>403.33333333333337</ele><time>2026-05-01T09:27:10.514Z</time></trkpt><trkpt lat="41.9400542" lon="12.9562843"><ele>402.6666666666667</ele><time>2026-05-01T09:27:11.512Z</time></trkpt><trkpt lat="41.9399707" lon="12.9563721"><ele>402.0</ele><time>2026-05-01T09:27:12.518Z</time></trkpt><trkpt lat="41.9398648" lon="12.9564775"><ele>402.0</ele><time>2026-05-01T09:27:13.508Z</time></trkpt><trkpt lat="41.9397585" lon="12.9565969"><ele>402.0</ele><time>2026-05-01T09:27:14.526Z</time></trkpt><trkpt lat="41.9396471" lon="12.9567188"><ele>402.0</ele><time>2026-05-01T09:27:15.502Z</time></trkpt><trkpt lat="41.9395282" lon="12.9568432"><ele>402.0</ele><time>2026-05-01T09:27:16.506Z</time></trkpt><trkpt lat="41.9394056" lon="12.9569768"><ele>402.0</ele><time>2026-05-01T09:27:17.503Z</time></trkpt><trkpt lat="41.9392784" lon="12.9571194"><ele>402.0</ele><time>2026-05-01T09:27:18.509Z</time></trkpt><trkpt lat="41.9391548" lon="12.9572846"><ele>402.0</ele><time>2026-05-01T09:27:19.523Z</time></trkpt><trkpt lat="41.9390386" lon="12.9574746"><ele>404.0</ele><time>2026-05-01T09:27:20.543Z</time></trkpt><trkpt lat="41.9389231" lon="12.957671"><ele>406.0</ele><time>2026-05-01T09:27:21.518Z</time></trkpt><trkpt lat="41.9388122" lon="12.9578583"><ele>408.0</ele><time>2026-05-01T09:27:22.538Z</time></trkpt><trkpt lat="41.9386976" lon="12.9580108"><ele>408.0</ele><time>2026-05-01T09:27:23.544Z</time></trkpt><trkpt lat="41.9385677" lon="12.9581023"><ele>408.0</ele><time>2026-05-01T09:27:24.522Z</time></trkpt><trkpt lat="41.9384239" lon="12.9581374"><ele>408.0</ele><time>2026-05-01T09:27:25.527Z</time></trkpt><trkpt lat="41.9382813" lon="12.9581449"><ele>408.0</ele><time>2026-05-01T09:27:26.504Z</time></trkpt><trkpt lat="41.9381259" lon="12.9581387"><ele>404.0</ele><time>2026-05-01T09:27:27.52Z</time></trkpt><trkpt lat="41.9379658" lon="12.9581414"><ele>400.0</ele><time>2026-05-01T09:27:28.503Z</time></trkpt><trkpt lat="41.9377966" lon="12.9581527"><ele>396.0</ele><time>2026-05-01T09:27:29.514Z</time></trkpt><trkpt lat="41.9376348" lon="12.9581672"><ele>396.0</ele><time>2026-05-01T09:27:30.516Z</time></trkpt><trkpt lat="41.9374791" lon="12.9581767"><ele>396.0</ele><time>2026-05-01T09:27:31.532Z</time></trkpt><trkpt lat="41.9373226" lon="12.9581858"><ele>396.0</ele><time>2026-05-01T09:27:32.53Z</time></trkpt><trkpt lat="41.9371644" lon="12.9582018"><ele>396.0</ele><time>2026-05-01T09:27:33.51Z</time></trkpt><trkpt lat="41.937019" lon="12.958242"><ele>396.0</ele><time>2026-05-01T09:27:34.513Z</time></trkpt><trkpt lat="41.9369029" lon="12.9582902"><ele>396.0</ele><time>2026-05-01T09:27:35.51Z</time></trkpt><trkpt lat="41.936823" lon="12.9583378"><ele>396.0</ele><time>2026-05-01T09:27:36.501Z</time></trkpt><trkpt lat="41.9367106" lon="12.9584002"><ele>396.1666666666667</ele><time>2026-05-01T09:27:38.491Z</time></trkpt><trkpt lat="41.9366636" lon="12.9584592"><ele>396.33333333333337</ele><time>2026-05-01T09:27:39.527Z</time></trkpt><trkpt lat="41.9366432" lon="12.9585421"><ele>396.5</ele><time>2026-05-01T09:27:40.492Z</time></trkpt><trkpt lat="41.9366621" lon="12.9586868"><ele>396.6666666666667</ele><time>2026-05-01T09:27:42.505Z</time></trkpt><trkpt lat="41.9366904" lon="12.9587656"><ele>396.83333333333337</ele><time>2026-05-01T09:27:43.504Z</time></trkpt><trkpt lat="41.9367252" lon="12.9588503"><ele>397.0</ele><time>2026-05-01T09:27:44.506Z</time></trkpt><trkpt lat="41.9367596" lon="12.9589528"><ele>396.6</ele><time>2026-05-01T09:27:45.506Z</time></trkpt><trkpt lat="41.9367724" lon="12.9590822"><ele>396.20000000000005</ele><time>2026-05-01T09:27:46.524Z</time></trkpt><trkpt lat="41.9367661" lon="12.9592363"><ele>395.8</ele><time>2026-05-01T09:27:47.534Z</time></trkpt><trkpt lat="41.9367423" lon="12.9593888"><ele>395.4</ele><time>2026-05-01T09:27:48.517Z</time></trkpt><trkpt lat="41.9367156" lon="12.9595404"><ele>395.0</ele><time>2026-05-01T09:27:49.521Z</time></trkpt><trkpt lat="41.9366947" lon="12.9596945"><ele>395.0</ele><time>2026-05-01T09:27:50.543Z</time></trkpt><trkpt lat="41.9366972" lon="12.9598478"><ele>395.0</ele><time>2026-05-01T09:27:51.518Z</time></trkpt><trkpt lat="41.9367099" lon="12.9600054"><ele>395.0</ele><time>2026-05-01T09:27:52.524Z</time></trkpt><trkpt lat="41.9367401" lon="12.9601728"><ele>395.0</ele><time>2026-05-01T09:27:53.492Z</time></trkpt><trkpt lat="41.9367925" lon="12.9603461"><ele>394.66666666666663</ele><time>2026-05-01T09:27:54.551Z</time></trkpt><trkpt lat="41.9368609" lon="12.9605289"><ele>394.33333333333337</ele><time>2026-05-01T09:27:55.539Z</time></trkpt><trkpt lat="41.9369378" lon="12.9607073"><ele>394.0</ele><time>2026-05-01T09:27:56.537Z</time></trkpt><trkpt lat="41.9370192" lon="12.9608807"><ele>394.0</ele><time>2026-05-01T09:27:57.525Z</time></trkpt><trkpt lat="41.9371004" lon="12.9610595"><ele>394.0</ele><time>2026-05-01T09:27:58.533Z</time></trkpt><trkpt lat="41.9371816" lon="12.9612406"><ele>394.0</ele><time>2026-05-01T09:27:59.556Z</time></trkpt><trkpt lat="41.9372635" lon="12.96142"><ele>394.0</ele><time>2026-05-01T09:28:00.505Z</time></trkpt><trkpt lat="41.9373447" lon="12.9615936"><ele>394.0</ele><time>2026-05-01T09:28:01.511Z</time></trkpt><trkpt lat="41.9374247" lon="12.9617627"><ele>394.0</ele><time>2026-05-01T09:28:02.516Z</time></trkpt><trkpt lat="41.9375057" lon="12.9619321"><ele>393.6666666666667</ele><time>2026-05-01T09:28:03.538Z</time></trkpt><trkpt lat="41.9375862" lon="12.9621083"><ele>393.33333333333337</ele><time>2026-05-01T09:28:04.506Z</time></trkpt><trkpt lat="41.9376716" lon="12.9622863"><ele>393.0</ele><time>2026-05-01T09:28:05.538Z</time></trkpt><trkpt lat="41.9377582" lon="12.9624629"><ele>393.33333333333337</ele><time>2026-05-01T09:28:06.515Z</time></trkpt><trkpt lat="41.9378448" lon="12.9626492"><ele>393.6666666666667</ele><time>2026-05-01T09:28:07.513Z</time></trkpt><trkpt lat="41.9379339" lon="12.962841"><ele>394.0</ele><time>2026-05-01T09:28:08.524Z</time></trkpt><trkpt lat="41.9380191" lon="12.9630364"><ele>394.0</ele><time>2026-05-01T09:28:09.507Z</time></trkpt><trkpt lat="41.9381098" lon="12.9632359"><ele>394.0</ele><time>2026-05-01T09:28:10.506Z</time></trkpt><trkpt lat="41.9382043" lon="12.9634429"><ele>394.0</ele><time>2026-05-01T09:28:11.509Z</time></trkpt><trkpt lat="41.9382978" lon="12.9636587"><ele>393.6666666666667</ele><time>2026-05-01T09:28:12.506Z</time></trkpt><trkpt lat="41.9383928" lon="12.9638695"><ele>393.33333333333337</ele><time>2026-05-01T09:28:13.515Z</time></trkpt><trkpt lat="41.93849" lon="12.9640767"><ele>393.0</ele><time>2026-05-01T09:28:14.522Z</time></trkpt><trkpt lat="41.9385948" lon="12.9642844"><ele>392.66666666666663</ele><time>2026-05-01T09:28:15.548Z</time></trkpt><trkpt lat="41.938691" lon="12.9644994"><ele>392.3333333333333</ele><time>2026-05-01T09:28:16.509Z</time></trkpt><trkpt lat="41.9387947" lon="12.9647045"><ele>392.0</ele><time>2026-05-01T09:28:17.531Z</time></trkpt><trkpt lat="41.9388942" lon="12.9649087"><ele>392.3333333333333</ele><time>2026-05-01T09:28:18.526Z</time></trkpt><trkpt lat="41.9389921" lon="12.965115"><ele>392.66666666666663</ele><time>2026-05-01T09:28:19.517Z</time></trkpt><trkpt lat="41.9390813" lon="12.9653262"><ele>393.0</ele><time>2026-05-01T09:28:20.545Z</time></trkpt><trkpt lat="41.9391507" lon="12.9655522"><ele>393.0</ele><time>2026-05-01T09:28:21.517Z</time></trkpt><trkpt lat="41.9392072" lon="12.9657901"><ele>393.0</ele><time>2026-05-01T09:28:22.526Z</time></trkpt><trkpt lat="41.9392558" lon="12.9660306"><ele>393.0</ele><time>2026-05-01T09:28:23.515Z</time></trkpt><trkpt lat="41.9392998" lon="12.9662713"><ele>393.0</ele><time>2026-05-01T09:28:24.515Z</time></trkpt><trkpt lat="41.9393465" lon="12.9665085"><ele>393.0</ele><time>2026-05-01T09:28:25.528Z</time></trkpt><trkpt lat="41.9393885" lon="12.9667379"><ele>393.0</ele><time>2026-05-01T09:28:26.521Z</time></trkpt><trkpt lat="41.9394337" lon="12.9669703"><ele>393.0</ele><time>2026-05-01T09:28:27.505Z</time></trkpt><trkpt lat="41.9394783" lon="12.9672084"><ele>393.0</ele><time>2026-05-01T09:28:28.524Z</time></trkpt><trkpt lat="41.9395274" lon="12.9674499"><ele>393.0</ele><time>2026-05-01T09:28:29.534Z</time></trkpt><trkpt lat="41.9395758" lon="12.9676957"><ele>393.33333333333337</ele><time>2026-05-01T09:28:30.549Z</time></trkpt><trkpt lat="41.9396257" lon="12.9679433"><ele>393.6666666666667</ele><time>2026-05-01T09:28:31.508Z</time></trkpt><trkpt lat="41.9396734" lon="12.9681927"><ele>394.0</ele><time>2026-05-01T09:28:32.509Z</time></trkpt><trkpt lat="41.9397229" lon="12.9684502"><ele>394.0</ele><time>2026-05-01T09:28:33.513Z</time></trkpt><trkpt lat="41.9397771" lon="12.9687135"><ele>394.0</ele><time>2026-05-01T09:28:34.52Z</time></trkpt><trkpt lat="41.9398319" lon="12.9689736"><ele>394.0</ele><time>2026-05-01T09:28:35.508Z</time></trkpt><trkpt lat="41.9398901" lon="12.9692327"><ele>394.0</ele><time>2026-05-01T09:28:36.534Z</time></trkpt><trkpt lat="41.9399425" lon="12.9694891"><ele>394.0</ele><time>2026-05-01T09:28:37.509Z</time></trkpt><trkpt lat="41.9399912" lon="12.9697344"><ele>394.0</ele><time>2026-05-01T09:28:38.519Z</time></trkpt><trkpt lat="41.9400386" lon="12.9699764"><ele>394.6666666666667</ele><time>2026-05-01T09:28:39.527Z</time></trkpt><trkpt lat="41.9400802" lon="12.9702044"><ele>395.33333333333337</ele><time>2026-05-01T09:28:40.532Z</time></trkpt><trkpt lat="41.9401238" lon="12.9704089"><ele>396.0</ele><time>2026-05-01T09:28:41.507Z</time></trkpt><trkpt lat="41.94016" lon="12.9705968"><ele>396.0</ele><time>2026-05-01T09:28:42.517Z</time></trkpt><trkpt lat="41.9401911" lon="12.9707688"><ele>396.0</ele><time>2026-05-01T09:28:43.53Z</time></trkpt><trkpt lat="41.9402172" lon="12.970936"><ele>396.0</ele><time>2026-05-01T09:28:44.51Z</time></trkpt><trkpt lat="41.9402395" lon="12.9711111"><ele>396.0</ele><time>2026-05-01T09:28:45.506Z</time></trkpt><trkpt lat="41.9402479" lon="12.971283"><ele>396.0</ele><time>2026-05-01T09:28:46.52Z</time></trkpt><trkpt lat="41.9402525" lon="12.9714364"><ele>396.0</ele><time>2026-05-01T09:28:47.553Z</time></trkpt><trkpt lat="41.9402522" lon="12.9715754"><ele>396.0</ele><time>2026-05-01T09:28:48.522Z</time></trkpt><trkpt lat="41.9402455" lon="12.9716982"><ele>396.0</ele><time>2026-05-01T09:28:49.526Z</time></trkpt><trkpt lat="41.9402409" lon="12.9717836"><ele>396.0</ele><time>2026-05-01T09:28:50.524Z</time></trkpt><trkpt lat="41.9402663" lon="12.9718815"><ele>396.5</ele><time>2026-05-01T09:28:52.547Z</time></trkpt><trkpt lat="41.94034" lon="12.9720259"><ele>397.0</ele><time>2026-05-01T09:28:54.502Z</time></trkpt><trkpt lat="41.9403942" lon="12.9721197"><ele>397.5</ele><time>2026-05-01T09:28:55.529Z</time></trkpt><trkpt lat="41.94047" lon="12.9722279"><ele>398.0</ele><time>2026-05-01T09:28:56.52Z</time></trkpt><trkpt lat="41.940556" lon="12.9723459"><ele>398.0</ele><time>2026-05-01T09:28:57.524Z</time></trkpt><trkpt lat="41.9406551" lon="12.9724746"><ele>398.0</ele><time>2026-05-01T09:28:58.529Z</time></trkpt><trkpt lat="41.9407576" lon="12.9726163"><ele>398.0</ele><time>2026-05-01T09:28:59.528Z</time></trkpt><trkpt lat="41.9408539" lon="12.9727528"><ele>398.0</ele><time>2026-05-01T09:29:00.533Z</time></trkpt><trkpt lat="41.9409489" lon="12.9728864"><ele>400.25</ele><time>2026-05-01T09:29:01.532Z</time></trkpt><trkpt lat="41.9410458" lon="12.9730139"><ele>402.5</ele><time>2026-05-01T09:29:02.541Z</time></trkpt><trkpt lat="41.9411353" lon="12.9731418"><ele>404.75</ele><time>2026-05-01T09:29:03.511Z</time></trkpt><trkpt lat="41.9412248" lon="12.973276"><ele>407.0</ele><time>2026-05-01T09:29:04.53Z</time></trkpt><trkpt lat="41.9412977" lon="12.973434"><ele>409.25</ele><time>2026-05-01T09:29:05.516Z</time></trkpt><trkpt lat="41.9413453" lon="12.9736253"><ele>411.5</ele><time>2026-05-01T09:29:06.503Z</time></trkpt><trkpt lat="41.9413776" lon="12.9738168"><ele>413.75</ele><time>2026-05-01T09:29:07.526Z</time></trkpt><trkpt lat="41.9413913" lon="12.9740164"><ele>416.0</ele><time>2026-05-01T09:29:08.511Z</time></trkpt><trkpt lat="41.9413871" lon="12.9742288"><ele>417.5</ele><time>2026-05-01T09:29:09.507Z</time></trkpt><trkpt lat="41.9413696" lon="12.9744282"><ele>419.0</ele><time>2026-05-01T09:29:10.514Z</time></trkpt><trkpt lat="41.9413609" lon="12.9746108"><ele>420.5</ele><time>2026-05-01T09:29:11.511Z</time></trkpt><trkpt lat="41.9413842" lon="12.9747704"><ele>422.0</ele><time>2026-05-01T09:29:12.513Z</time></trkpt><trkpt lat="41.941429" lon="12.974921"><ele>421.25</ele><time>2026-05-01T09:29:13.515Z</time></trkpt><trkpt lat="41.9414929" lon="12.9750865"><ele>420.5</ele><time>2026-05-01T09:29:14.519Z</time></trkpt><trkpt lat="41.9415543" lon="12.9752558"><ele>419.75</ele><time>2026-05-01T09:29:15.502Z</time></trkpt><trkpt lat="41.941632" lon="12.9754246"><ele>419.0</ele><time>2026-05-01T09:29:16.563Z</time></trkpt><trkpt lat="41.9417236" lon="12.9755981"><ele>418.66666666666663</ele><time>2026-05-01T09:29:17.518Z</time></trkpt><trkpt lat="41.9418156" lon="12.9757768"><ele>418.33333333333337</ele><time>2026-05-01T09:29:18.519Z</time></trkpt><trkpt lat="41.9418948" lon="12.9759467"><ele>418.0</ele><time>2026-05-01T09:29:19.505Z</time></trkpt><trkpt lat="41.9419715" lon="12.9761085"><ele>418.75</ele><time>2026-05-01T09:29:20.544Z</time></trkpt><trkpt lat="41.94204" lon="12.9762683"><ele>419.5</ele><time>2026-05-01T09:29:21.524Z</time></trkpt><trkpt lat="41.9421055" lon="12.9764302"><ele>420.25</ele><time>2026-05-01T09:29:22.536Z</time></trkpt><trkpt lat="41.9421452" lon="12.9765929"><ele>421.0</ele><time>2026-05-01T09:29:23.54Z</time></trkpt><trkpt lat="41.9421671" lon="12.9767558"><ele>423.5</ele><time>2026-05-01T09:29:24.55Z</time></trkpt><trkpt lat="41.94218" lon="12.9769215"><ele>426.0</ele><time>2026-05-01T09:29:25.517Z</time></trkpt><trkpt lat="41.9421818" lon="12.977082"><ele>428.5</ele><time>2026-05-01T09:29:26.53Z</time></trkpt><trkpt lat="41.9421683" lon="12.9772499"><ele>431.0</ele><time>2026-05-01T09:29:27.529Z</time></trkpt><trkpt lat="41.9421259" lon="12.9774114"><ele>436.5</ele><time>2026-05-01T09:29:28.525Z</time></trkpt><trkpt lat="41.9420468" lon="12.97756"><ele>442.0</ele><time>2026-05-01T09:29:29.501Z</time></trkpt><trkpt lat="41.9419534" lon="12.9777126"><ele>447.5</ele><time>2026-05-01T09:29:30.503Z</time></trkpt><trkpt lat="41.9418524" lon="12.9778704"><ele>453.0</ele><time>2026-05-01T09:29:31.5Z</time></trkpt><trkpt lat="41.941758" lon="12.9780347"><ele>453.66666666666663</ele><time>2026-05-01T09:29:32.512Z</time></trkpt><trkpt lat="41.9416635" lon="12.9781992"><ele>454.3333333333333</ele><time>2026-05-01T09:29:33.533Z</time></trkpt><trkpt lat="41.9415637" lon="12.9783686"><ele>455.0</ele><time>2026-05-01T09:29:34.521Z</time></trkpt><trkpt lat="41.9414611" lon="12.97854"><ele>455.0</ele><time>2026-05-01T09:29:35.522Z</time></trkpt><trkpt lat="41.9413558" lon="12.9787148"><ele>455.0</ele><time>2026-05-01T09:29:36.526Z</time></trkpt><trkpt lat="41.9412497" lon="12.9788937"><ele>455.0</ele><time>2026-05-01T09:29:37.512Z</time></trkpt><trkpt lat="41.9411447" lon="12.9790727"><ele>455.3333333333333</ele><time>2026-05-01T09:29:38.542Z</time></trkpt><trkpt lat="41.9410394" lon="12.9792536"><ele>455.66666666666663</ele><time>2026-05-01T09:29:39.553Z</time></trkpt><trkpt lat="41.940927" lon="12.9794247"><ele>456.0</ele><time>2026-05-01T09:29:40.526Z</time></trkpt><trkpt lat="41.940806" lon="12.9795799"><ele>456.0</ele><time>2026-05-01T09:29:41.515Z</time></trkpt><trkpt lat="41.9406889" lon="12.9797226"><ele>456.0</ele><time>2026-05-01T09:29:42.544Z</time></trkpt><trkpt lat="41.9405849" lon="12.9798819"><ele>456.0</ele><time>2026-05-01T09:29:43.53Z</time></trkpt><trkpt lat="41.9404902" lon="12.9800556"><ele>460.0</ele><time>2026-05-01T09:29:44.535Z</time></trkpt><trkpt lat="41.9404069" lon="12.980245"><ele>464.0</ele><time>2026-05-01T09:29:45.501Z</time></trkpt><trkpt lat="41.9403481" lon="12.9804313"><ele>468.0</ele><time>2026-05-01T09:29:46.51Z</time></trkpt><trkpt lat="41.9403103" lon="12.9806134"><ele>468.0</ele><time>2026-05-01T09:29:47.53Z</time></trkpt><trkpt lat="41.9402889" lon="12.9807804"><ele>468.0</ele><time>2026-05-01T09:29:48.508Z</time></trkpt><trkpt lat="41.9402805" lon="12.9809307"><ele>468.0</ele><time>2026-05-01T09:29:49.51Z</time></trkpt><trkpt lat="41.9402721" lon="12.9810771"><ele>468.0</ele><time>2026-05-01T09:29:50.5Z</time></trkpt><trkpt lat="41.9402603" lon="12.9812186"><ele>469.0</ele><time>2026-05-01T09:29:51.509Z</time></trkpt><trkpt lat="41.9402454" lon="12.9813652"><ele>469.99999999999994</ele><time>2026-05-01T09:29:52.506Z</time></trkpt><trkpt lat="41.9402326" lon="12.9815134"><ele>470.99999999999994</ele><time>2026-05-01T09:29:53.507Z</time></trkpt><trkpt lat="41.9402085" lon="12.9816633"><ele>472.0</ele><time>2026-05-01T09:29:54.506Z</time></trkpt><trkpt lat="41.9401672" lon="12.9818049"><ele>473.0</ele><time>2026-05-01T09:29:55.521Z</time></trkpt><trkpt lat="41.9400977" lon="12.9819164"><ele>471.59999999999997</ele><time>2026-05-01T09:29:56.53Z</time></trkpt><trkpt lat="41.9400051" lon="12.9819977"><ele>470.19999999999993</ele><time>2026-05-01T09:29:57.502Z</time></trkpt><trkpt lat="41.939898" lon="12.9820718"><ele>468.8</ele><time>2026-05-01T09:29:58.514Z</time></trkpt><trkpt lat="41.9398121" lon="12.9821658"><ele>467.4</ele><time>2026-05-01T09:29:59.52Z</time></trkpt><trkpt lat="41.9397646" lon="12.9822854"><ele>466.0</ele><time>2026-05-01T09:30:00.538Z</time></trkpt><trkpt lat="41.9397361" lon="12.9824058"><ele>466.00000000000006</ele><time>2026-05-01T09:30:01.529Z</time></trkpt><trkpt lat="41.9397293" lon="12.9825118"><ele>466.0</ele><time>2026-05-01T09:30:02.524Z</time></trkpt><trkpt lat="41.9397573" lon="12.9826053"><ele>466.0</ele><time>2026-05-01T09:30:03.519Z</time></trkpt><trkpt lat="41.9398174" lon="12.9826773"><ele>466.0</ele><time>2026-05-01T09:30:04.509Z</time></trkpt><trkpt lat="41.9399031" lon="12.9827006"><ele>466.00000000000006</ele><time>2026-05-01T09:30:05.508Z</time></trkpt><trkpt lat="41.9399922" lon="12.9826929"><ele>466.0</ele><time>2026-05-01T09:30:06.522Z</time></trkpt><trkpt lat="41.9400736" lon="12.9826755"><ele>466.6</ele><time>2026-05-01T09:30:07.5Z</time></trkpt><trkpt lat="41.9401502" lon="12.9826653"><ele>467.20000000000005</ele><time>2026-05-01T09:30:08.537Z</time></trkpt><trkpt lat="41.9402178" lon="12.9826649"><ele>467.79999999999995</ele><time>2026-05-01T09:30:09.525Z</time></trkpt><trkpt lat="41.9403411" lon="12.9826934"><ele>468.4</ele><time>2026-05-01T09:30:11.516Z</time></trkpt><trkpt lat="41.9404529" lon="12.9827295"><ele>469.0</ele><time>2026-05-01T09:30:13.519Z</time></trkpt><trkpt lat="41.9405273" lon="12.9827814"><ele>469.00000000000006</ele><time>2026-05-01T09:30:15.537Z</time></trkpt><trkpt lat="41.9405908" lon="12.9828336"><ele>469.0</ele><time>2026-05-01T09:30:17.508Z</time></trkpt><trkpt lat="41.9406531" lon="12.982884"><ele>469.0</ele><time>2026-05-01T09:30:19.508Z</time></trkpt><trkpt lat="41.9407216" lon="12.9828899"><ele>469.0</ele><time>2026-05-01T09:30:21.517Z</time></trkpt><trkpt lat="41.9407838" lon="12.9827825"><ele>469.00000000000006</ele><time>2026-05-01T09:30:23.499Z</time></trkpt><trkpt lat="41.9408476" lon="12.9826687"><ele>469.0</ele><time>2026-05-01T09:30:25.53Z</time></trkpt><trkpt lat="41.9409164" lon="12.9825568"><ele>472.6</ele><time>2026-05-01T09:30:27.5Z</time></trkpt><trkpt lat="41.9410016" lon="12.98246"><ele>476.2</ele><time>2026-05-01T09:30:29.539Z</time></trkpt><trkpt lat="41.9411194" lon="12.9824187"><ele>479.80000000000007</ele><time>2026-05-01T09:30:31.521Z</time></trkpt><trkpt lat="41.9411944" lon="12.9824045"><ele>483.40000000000003</ele><time>2026-05-01T09:30:32.55Z</time></trkpt><trkpt lat="41.9412708" lon="12.9823943"><ele>487.0</ele><time>2026-05-01T09:30:33.539Z</time></trkpt><trkpt lat="41.9413479" lon="12.9823862"><ele>487.00000000000006</ele><time>2026-05-01T09:30:34.518Z</time></trkpt><trkpt lat="41.9414278" lon="12.9823728"><ele>487.0</ele><time>2026-05-01T09:30:35.525Z</time></trkpt><trkpt lat="41.941511" lon="12.982369"><ele>487.0</ele><time>2026-05-01T09:30:36.513Z</time></trkpt><trkpt lat="41.9416004" lon="12.9823685"><ele>487.0</ele><time>2026-05-01T09:30:37.516Z</time></trkpt><trkpt lat="41.9416841" lon="12.9823656"><ele>487.00000000000006</ele><time>2026-05-01T09:30:38.514Z</time></trkpt><trkpt lat="41.9417721" lon="12.9823726"><ele>487.0</ele><time>2026-05-01T09:30:39.538Z</time></trkpt><trkpt lat="41.941854" lon="12.9823877"><ele>488.7142857142857</ele><time>2026-05-01T09:30:40.515Z</time></trkpt><trkpt lat="41.9419267" lon="12.9823876"><ele>490.42857142857144</ele><time>2026-05-01T09:30:41.53Z</time></trkpt><trkpt lat="41.9419896" lon="12.9823496"><ele>492.14285714285717</ele><time>2026-05-01T09:30:42.521Z</time></trkpt><trkpt lat="41.9420575" lon="12.9822987"><ele>493.8571428571429</ele><time>2026-05-01T09:30:43.503Z</time></trkpt><trkpt lat="41.9421271" lon="12.982242"><ele>495.57142857142856</ele><time>2026-05-01T09:30:44.526Z</time></trkpt><trkpt lat="41.9421958" lon="12.9821996"><ele>497.28571428571433</ele><time>2026-05-01T09:30:45.521Z</time></trkpt><trkpt lat="41.9422611" lon="12.9821594"><ele>499.00000000000006</ele><time>2026-05-01T09:30:46.548Z</time></trkpt><trkpt lat="41.9423158" lon="12.9821061"><ele>499.00000000000006</ele><time>2026-05-01T09:30:47.517Z</time></trkpt><trkpt lat="41.942381" lon="12.9820615"><ele>499.0</ele><time>2026-05-01T09:30:48.522Z</time></trkpt><trkpt lat="41.9424473" lon="12.9820371"><ele>499.0</ele><time>2026-05-01T09:30:49.507Z</time></trkpt><trkpt lat="41.9425279" lon="12.9820345"><ele>499.0</ele><time>2026-05-01T09:30:50.517Z</time></trkpt><trkpt lat="41.9426167" lon="12.9820304"><ele>499.00000000000006</ele><time>2026-05-01T09:30:51.51Z</time></trkpt><trkpt lat="41.9427144" lon="12.9820305"><ele>499.0</ele><time>2026-05-01T09:30:52.518Z</time></trkpt><trkpt lat="41.942801" lon="12.9820246"><ele>501.50000000000006</ele><time>2026-05-01T09:30:53.532Z</time></trkpt><trkpt lat="41.9428818" lon="12.9820277"><ele>504.0</ele><time>2026-05-01T09:30:54.513Z</time></trkpt><trkpt lat="41.9429507" lon="12.9820361"><ele>506.5</ele><time>2026-05-01T09:30:55.504Z</time></trkpt><trkpt lat="41.9430163" lon="12.9820478"><ele>509.0</ele><time>2026-05-01T09:30:56.528Z</time></trkpt><trkpt lat="41.9430818" lon="12.9820595"><ele>511.50000000000006</ele><time>2026-05-01T09:30:57.524Z</time></trkpt><trkpt lat="41.9431819" lon="12.982088"><ele>514.0</ele><time>2026-05-01T09:30:59.522Z</time></trkpt><trkpt lat="41.9432494" lon="12.9821139"><ele>514.0</ele><time>2026-05-01T09:31:02.505Z</time></trkpt><trkpt lat="41.9433102" lon="12.9821371"><ele>514.0</ele><time>2026-05-01T09:31:04.519Z</time></trkpt><trkpt lat="41.9433878" lon="12.9821394"><ele>514.0</ele><time>2026-05-01T09:31:06.538Z</time></trkpt><trkpt lat="41.9434546" lon="12.9821164"><ele>514.0</ele><time>2026-05-01T09:31:08.539Z</time></trkpt><trkpt lat="41.9435175" lon="12.9820993"><ele>514.0</ele><time>2026-05-01T09:31:10.551Z</time></trkpt><trkpt lat="41.9435823" lon="12.9820854"><ele>514.0</ele><time>2026-05-01T09:31:13.526Z</time></trkpt><trkpt lat="41.9436414" lon="12.9820537"><ele>514.0</ele><time>2026-05-01T09:31:16.507Z</time></trkpt><trkpt lat="41.9436564" lon="12.9819715"><ele>514.0</ele><time>2026-05-01T09:31:30.538Z</time></trkpt><trkpt lat="41.943599" lon="12.9819185"><ele>514.0</ele><time>2026-05-01T09:31:36.566Z</time></trkpt><trkpt lat="41.9435185" lon="12.9819369"><ele>514.0</ele><time>2026-05-01T09:31:50.564Z</time></trkpt><trkpt lat="41.9434428" lon="12.9819761"><ele>514.0</ele><time>2026-05-01T09:31:53.55Z</time></trkpt><trkpt lat="41.9433739" lon="12.982037"><ele>514.0</ele><time>2026-05-01T09:31:55.547Z</time></trkpt><trkpt lat="41.9432969" lon="12.9820941"><ele>514.0</ele><time>2026-05-01T09:31:57.525Z</time></trkpt><trkpt lat="41.9432063" lon="12.9821265"><ele>514.0</ele><time>2026-05-01T09:31:59.526Z</time></trkpt><trkpt lat="41.9430928" lon="12.982135"><ele>514.0</ele><time>2026-05-01T09:32:01.542Z</time></trkpt><trkpt lat="41.9430288" lon="12.9821243"><ele>514.0</ele><time>2026-05-01T09:32:02.561Z</time></trkpt><trkpt lat="41.9429561" lon="12.982108"><ele>514.0</ele><time>2026-05-01T09:32:03.528Z</time></trkpt><trkpt lat="41.9428802" lon="12.982095"><ele>514.0</ele><time>2026-05-01T09:32:04.525Z</time></trkpt><trkpt lat="41.9428166" lon="12.9820879"><ele>514.0</ele><time>2026-05-01T09:32:05.55Z</time></trkpt><trkpt lat="41.9427124" lon="12.9820714"><ele>514.0</ele><time>2026-05-01T09:32:07.552Z</time></trkpt><trkpt lat="41.9426177" lon="12.9820632"><ele>514.0</ele><time>2026-05-01T09:32:09.537Z</time></trkpt><trkpt lat="41.942514" lon="12.9820639"><ele>514.0</ele><time>2026-05-01T09:32:11.533Z</time></trkpt><trkpt lat="41.9424053" lon="12.9820654"><ele>514.0</ele><time>2026-05-01T09:32:13.537Z</time></trkpt><trkpt lat="41.9423022" lon="12.9820967"><ele>514.0</ele><time>2026-05-01T09:32:15.528Z</time></trkpt><trkpt lat="41.9422007" lon="12.9821744"><ele>511.0</ele><time>2026-05-01T09:32:17.523Z</time></trkpt><trkpt lat="41.9421006" lon="12.9822636"><ele>508.0</ele><time>2026-05-01T09:32:19.537Z</time></trkpt><trkpt lat="41.942001" lon="12.9823557"><ele>505.0</ele><time>2026-05-01T09:32:21.519Z</time></trkpt><trkpt lat="41.9418829" lon="12.9823986"><ele>502.0</ele><time>2026-05-01T09:32:23.558Z</time></trkpt><trkpt lat="41.9418185" lon="12.9823936"><ele>499.0</ele><time>2026-05-01T09:32:24.529Z</time></trkpt><trkpt lat="41.9417514" lon="12.9823807"><ele>497.00000000000006</ele><time>2026-05-01T09:32:25.524Z</time></trkpt><trkpt lat="41.9416802" lon="12.9823728"><ele>495.0</ele><time>2026-05-01T09:32:26.527Z</time></trkpt><trkpt lat="41.9416135" lon="12.9823683"><ele>493.0</ele><time>2026-05-01T09:32:27.518Z</time></trkpt><trkpt lat="41.9415386" lon="12.9823702"><ele>491.0</ele><time>2026-05-01T09:32:28.506Z</time></trkpt><trkpt lat="41.9414577" lon="12.9823738"><ele>489.00000000000006</ele><time>2026-05-01T09:32:29.512Z</time></trkpt><trkpt lat="41.9413763" lon="12.9823795"><ele>487.0</ele><time>2026-05-01T09:32:30.544Z</time></trkpt><trkpt lat="41.941299" lon="12.9823888"><ele>487.00000000000006</ele><time>2026-05-01T09:32:31.537Z</time></trkpt><trkpt lat="41.941222" lon="12.9823956"><ele>487.0</ele><time>2026-05-01T09:32:32.512Z</time></trkpt><trkpt lat="41.9411464" lon="12.9824077"><ele>487.0</ele><time>2026-05-01T09:32:33.511Z</time></trkpt><trkpt lat="41.9410745" lon="12.9824184"><ele>487.0</ele><time>2026-05-01T09:32:34.54Z</time></trkpt><trkpt lat="41.9410029" lon="12.9824272"><ele>487.00000000000006</ele><time>2026-05-01T09:32:35.539Z</time></trkpt><trkpt lat="41.9409382" lon="12.9824331"><ele>487.0</ele><time>2026-05-01T09:32:36.524Z</time></trkpt><trkpt lat="41.9408231" lon="12.9824303"><ele>485.00000000000006</ele><time>2026-05-01T09:32:38.534Z</time></trkpt><trkpt lat="41.9407454" lon="12.9824123"><ele>483.0</ele><time>2026-05-01T09:32:40.557Z</time></trkpt><trkpt lat="41.9406819" lon="12.9824078"><ele>481.0</ele><time>2026-05-01T09:32:42.533Z</time></trkpt><trkpt lat="41.9406383" lon="12.9825539"><ele>479.0</ele><time>2026-05-01T09:32:47.517Z</time></trkpt><trkpt lat="41.9406349" lon="12.9826452"><ele>477.00000000000006</ele><time>2026-05-01T09:32:48.526Z</time></trkpt><trkpt lat="41.9405647" lon="12.982756"><ele>475.0</ele><time>2026-05-01T09:32:50.519Z</time></trkpt><trkpt lat="41.9404401" lon="12.982722"><ele>473.8</ele><time>2026-05-01T09:32:52.519Z</time></trkpt><trkpt lat="41.940357" lon="12.9826805"><ele>472.6</ele><time>2026-05-01T09:32:53.518Z</time></trkpt><trkpt lat="41.9402507" lon="12.9826541"><ele>471.4</ele><time>2026-05-01T09:32:54.551Z</time></trkpt><trkpt lat="41.9401459" lon="12.9826407"><ele>470.2</ele><time>2026-05-01T09:32:55.535Z</time></trkpt><trkpt lat="41.9400499" lon="12.982645"><ele>469.0</ele><time>2026-05-01T09:32:56.512Z</time></trkpt><trkpt lat="41.9399556" lon="12.9826595"><ele>468.50000000000006</ele><time>2026-05-01T09:32:57.551Z</time></trkpt><trkpt lat="41.9398786" lon="12.9826652"><ele>468.0</ele><time>2026-05-01T09:32:58.544Z</time></trkpt><trkpt lat="41.9398157" lon="12.9826442"><ele>467.5</ele><time>2026-05-01T09:32:59.545Z</time></trkpt><trkpt lat="41.9397421" lon="12.9824994"><ele>467.0</ele><time>2026-05-01T09:33:01.52Z</time></trkpt><trkpt lat="41.9397429" lon="12.9823869"><ele>466.50000000000006</ele><time>2026-05-01T09:33:02.532Z</time></trkpt><trkpt lat="41.9397719" lon="12.9822681"><ele>466.0</ele><time>2026-05-01T09:33:03.552Z</time></trkpt><trkpt lat="41.9398368" lon="12.9821528"><ele>466.0</ele><time>2026-05-01T09:33:04.516Z</time></trkpt><trkpt lat="41.939918" lon="12.9820632"><ele>466.0</ele><time>2026-05-01T09:33:05.516Z</time></trkpt><trkpt lat="41.940012" lon="12.9819972"><ele>466.0</ele><time>2026-05-01T09:33:06.516Z</time></trkpt><trkpt lat="41.940097" lon="12.9819361"><ele>466.0</ele><time>2026-05-01T09:33:07.518Z</time></trkpt><trkpt lat="41.9401667" lon="12.9818496"><ele>466.0</ele><time>2026-05-01T09:33:08.536Z</time></trkpt><trkpt lat="41.9402242" lon="12.9817371"><ele>467.75</ele><time>2026-05-01T09:33:09.522Z</time></trkpt><trkpt lat="41.9402594" lon="12.981598"><ele>469.5</ele><time>2026-05-01T09:33:10.516Z</time></trkpt><trkpt lat="41.9402799" lon="12.9814221"><ele>471.25</ele><time>2026-05-01T09:33:11.504Z</time></trkpt><trkpt lat="41.9402951" lon="12.9812509"><ele>473.0</ele><time>2026-05-01T09:33:12.525Z</time></trkpt><trkpt lat="41.9403118" lon="12.9810985"><ele>473.0</ele><time>2026-05-01T09:33:13.537Z</time></trkpt><trkpt lat="41.9403303" lon="12.9809487"><ele>472.99999999999994</ele><time>2026-05-01T09:33:14.536Z</time></trkpt><trkpt lat="41.9403453" lon="12.980798"><ele>472.99999999999994</ele><time>2026-05-01T09:33:15.529Z</time></trkpt><trkpt lat="41.9403569" lon="12.9806494"><ele>473.0</ele><time>2026-05-01T09:33:16.505Z</time></trkpt><trkpt lat="41.9403805" lon="12.9805175"><ele>473.0</ele><time>2026-05-01T09:33:17.526Z</time></trkpt><trkpt lat="41.9404137" lon="12.9803877"><ele>471.75</ele><time>2026-05-01T09:33:18.537Z</time></trkpt><trkpt lat="41.9404535" lon="12.9802562"><ele>470.5</ele><time>2026-05-01T09:33:19.516Z</time></trkpt><trkpt lat="41.9405022" lon="12.9801215"><ele>469.25</ele><time>2026-05-01T09:33:20.528Z</time></trkpt><trkpt lat="41.9405567" lon="12.9799826"><ele>468.0</ele><time>2026-05-01T09:33:21.517Z</time></trkpt><trkpt lat="41.9406278" lon="12.9798401"><ele>469.75</ele><time>2026-05-01T09:33:22.531Z</time></trkpt><trkpt lat="41.9407294" lon="12.9797105"><ele>471.5</ele><time>2026-05-01T09:33:23.515Z</time></trkpt><trkpt lat="41.940846" lon="12.9795832"><ele>473.25</ele><time>2026-05-01T09:33:24.523Z</time></trkpt><trkpt lat="41.9409599" lon="12.9794522"><ele>475.0</ele><time>2026-05-01T09:33:25.549Z</time></trkpt><trkpt lat="41.9410718" lon="12.9793175"><ele>468.33333333333337</ele><time>2026-05-01T09:33:26.547Z</time></trkpt><trkpt lat="41.9411767" lon="12.9791637"><ele>461.66666666666663</ele><time>2026-05-01T09:33:27.54Z</time></trkpt><trkpt lat="41.9412814" lon="12.9789886"><ele>455.0</ele><time>2026-05-01T09:33:28.537Z</time></trkpt><trkpt lat="41.9413847" lon="12.9788127"><ele>455.0</ele><time>2026-05-01T09:33:29.536Z</time></trkpt><trkpt lat="41.9414934" lon="12.9786391"><ele>455.0</ele><time>2026-05-01T09:33:30.534Z</time></trkpt><trkpt lat="41.9415983" lon="12.9784755"><ele>455.0</ele><time>2026-05-01T09:33:31.544Z</time></trkpt><trkpt lat="41.9417045" lon="12.9783136"><ele>454.3333333333333</ele><time>2026-05-01T09:33:32.529Z</time></trkpt><trkpt lat="41.9418027" lon="12.9781505"><ele>453.66666666666663</ele><time>2026-05-01T09:33:33.531Z</time></trkpt><trkpt lat="41.9418988" lon="12.9779904"><ele>453.0</ele><time>2026-05-01T09:33:34.521Z</time></trkpt><trkpt lat="41.9419944" lon="12.9778324"><ele>453.0</ele><time>2026-05-01T09:33:35.543Z</time></trkpt><trkpt lat="41.942083" lon="12.9776799"><ele>453.0</ele><time>2026-05-01T09:33:36.53Z</time></trkpt><trkpt lat="41.9421631" lon="12.9775361"><ele>453.0</ele><time>2026-05-01T09:33:37.5Z</time></trkpt><trkpt lat="41.9422177" lon="12.9773895"><ele>453.0</ele><time>2026-05-01T09:33:38.548Z</time></trkpt><trkpt lat="41.9422376" lon="12.9772257"><ele>447.5</ele><time>2026-05-01T09:33:39.51Z</time></trkpt><trkpt lat="41.9422471" lon="12.9770385"><ele>442.0</ele><time>2026-05-01T09:33:40.546Z</time></trkpt><trkpt lat="41.9422445" lon="12.9768472"><ele>436.5</ele><time>2026-05-01T09:33:41.547Z</time></trkpt><trkpt lat="41.9422226" lon="12.9766566"><ele>431.0</ele><time>2026-05-01T09:33:42.508Z</time></trkpt><trkpt lat="41.9421721" lon="12.9764621"><ele>427.66666666666663</ele><time>2026-05-01T09:33:43.513Z</time></trkpt><trkpt lat="41.9420976" lon="12.976277"><ele>424.33333333333337</ele><time>2026-05-01T09:33:44.522Z</time></trkpt><trkpt lat="41.942014" lon="12.9760926"><ele>421.0</ele><time>2026-05-01T09:33:45.518Z</time></trkpt><trkpt lat="41.9419246" lon="12.9759076"><ele>420.33333333333337</ele><time>2026-05-01T09:33:46.51Z</time></trkpt><trkpt lat="41.9418346" lon="12.9757153"><ele>419.66666666666663</ele><time>2026-05-01T09:33:47.531Z</time></trkpt><trkpt lat="41.9417473" lon="12.9755272"><ele>419.0</ele><time>2026-05-01T09:33:48.506Z</time></trkpt><trkpt lat="41.9416659" lon="12.9753486"><ele>419.0</ele><time>2026-05-01T09:33:49.528Z</time></trkpt><trkpt lat="41.9415919" lon="12.9751736"><ele>419.0</ele><time>2026-05-01T09:33:50.536Z</time></trkpt><trkpt lat="41.9415235" lon="12.9750091"><ele>419.0</ele><time>2026-05-01T09:33:51.554Z</time></trkpt><trkpt lat="41.9414549" lon="12.9748541"><ele>419.0</ele><time>2026-05-01T09:33:52.538Z</time></trkpt><trkpt lat="41.9413936" lon="12.9747016"><ele>419.75</ele><time>2026-05-01T09:33:53.52Z</time></trkpt><trkpt lat="41.9413567" lon="12.974543"><ele>420.5</ele><time>2026-05-01T09:33:54.612Z</time></trkpt><trkpt lat="41.9413417" lon="12.9743789"><ele>421.25</ele><time>2026-05-01T09:33:55.563Z</time></trkpt><trkpt lat="41.9413432" lon="12.9742017"><ele>422.0</ele><time>2026-05-01T09:33:56.585Z</time></trkpt><trkpt lat="41.9413621" lon="12.9740237"><ele>420.5</ele><time>2026-05-01T09:33:57.571Z</time></trkpt><trkpt lat="41.9413782" lon="12.9738548"><ele>419.0</ele><time>2026-05-01T09:33:58.555Z</time></trkpt><trkpt lat="41.9413733" lon="12.9736932"><ele>417.5</ele><time>2026-05-01T09:33:59.511Z</time></trkpt><trkpt lat="41.9413515" lon="12.9735338"><ele>416.0</ele><time>2026-05-01T09:34:00.51Z</time></trkpt><trkpt lat="41.9413066" lon="12.9733878"><ele>413.75</ele><time>2026-05-01T09:34:01.534Z</time></trkpt><trkpt lat="41.9412291" lon="12.9732482"><ele>411.5</ele><time>2026-05-01T09:34:02.532Z</time></trkpt><trkpt lat="41.9411318" lon="12.9731145"><ele>409.25</ele><time>2026-05-01T09:34:03.522Z</time></trkpt><trkpt lat="41.941039" lon="12.9729778"><ele>407.0</ele><time>2026-05-01T09:34:04.534Z</time></trkpt><trkpt lat="41.9409429" lon="12.9728397"><ele>406.5</ele><time>2026-05-01T09:34:05.539Z</time></trkpt><trkpt lat="41.940842" lon="12.9726969"><ele>406.0</ele><time>2026-05-01T09:34:06.525Z</time></trkpt><trkpt lat="41.9407519" lon="12.9725698"><ele>405.5</ele><time>2026-05-01T09:34:07.513Z</time></trkpt><trkpt lat="41.940666" lon="12.9724444"><ele>405.0</ele><time>2026-05-01T09:34:08.528Z</time></trkpt><trkpt lat="41.9405874" lon="12.9723274"><ele>403.6</ele><time>2026-05-01T09:34:09.524Z</time></trkpt><trkpt lat="41.9405208" lon="12.9722093"><ele>402.2</ele><time>2026-05-01T09:34:10.531Z</time></trkpt><trkpt lat="41.9404694" lon="12.9720908"><ele>400.79999999999995</ele><time>2026-05-01T09:34:11.533Z</time></trkpt><trkpt lat="41.9404345" lon="12.971984"><ele>399.4</ele><time>2026-05-01T09:34:12.509Z</time></trkpt><trkpt lat="41.9404142" lon="12.9718987"><ele>398.0</ele><time>2026-05-01T09:34:13.522Z</time></trkpt><trkpt lat="41.9404047" lon="12.9717733"><ele>397.99999999999994</ele><time>2026-05-01T09:34:15.538Z</time></trkpt><trkpt lat="41.9403859" lon="12.9716593"><ele>398.0</ele><time>2026-05-01T09:34:17.526Z</time></trkpt><trkpt lat="41.9402898" lon="12.9716488"><ele>398.0</ele><time>2026-05-01T09:34:19.51Z</time></trkpt><trkpt lat="41.9402239" lon="12.9717547"><ele>398.0</ele><time>2026-05-01T09:34:21.535Z</time></trkpt><trkpt lat="41.940194" lon="12.9718366"><ele>397.99999999999994</ele><time>2026-05-01T09:34:22.504Z</time></trkpt><trkpt lat="41.940164" lon="12.9719581"><ele>398.0</ele><time>2026-05-01T09:34:23.525Z</time></trkpt><trkpt lat="41.9401241" lon="12.9720892"><ele>398.0</ele><time>2026-05-01T09:34:24.532Z</time></trkpt><trkpt lat="41.9400689" lon="12.9722411"><ele>398.0</ele><time>2026-05-01T09:34:25.517Z</time></trkpt><trkpt lat="41.9399949" lon="12.9724086"><ele>398.0</ele><time>2026-05-01T09:34:26.541Z</time></trkpt><trkpt lat="41.9399089" lon="12.9725998"><ele>398.0</ele><time>2026-05-01T09:34:27.516Z</time></trkpt><trkpt lat="41.9398122" lon="12.9728082"><ele>397.66666666666663</ele><time>2026-05-01T09:34:28.542Z</time></trkpt><trkpt lat="41.9397133" lon="12.9730288"><ele>397.33333333333337</ele><time>2026-05-01T09:34:29.549Z</time></trkpt><trkpt lat="41.9396117" lon="12.9732537"><ele>397.0</ele><time>2026-05-01T09:34:30.522Z</time></trkpt><trkpt lat="41.9395126" lon="12.9734855"><ele>398.33333333333337</ele><time>2026-05-01T09:34:31.544Z</time></trkpt><trkpt lat="41.9394216" lon="12.9737297"><ele>399.66666666666663</ele><time>2026-05-01T09:34:32.534Z</time></trkpt><trkpt lat="41.9393365" lon="12.9740031"><ele>401.0</ele><time>2026-05-01T09:34:33.529Z</time></trkpt><trkpt lat="41.9392542" lon="12.9742855"><ele>399.3333333333333</ele><time>2026-05-01T09:34:34.516Z</time></trkpt><trkpt lat="41.939178" lon="12.9745626"><ele>397.66666666666663</ele><time>2026-05-01T09:34:35.543Z</time></trkpt><trkpt lat="41.939108" lon="12.974842"><ele>396.0</ele><time>2026-05-01T09:34:36.533Z</time></trkpt><trkpt lat="41.9390392" lon="12.9751238"><ele>396.0</ele><time>2026-05-01T09:34:37.563Z</time></trkpt><trkpt lat="41.9389708" lon="12.9753985"><ele>396.0</ele><time>2026-05-01T09:34:38.532Z</time></trkpt><trkpt lat="41.9389058" lon="12.9756698"><ele>396.0</ele><time>2026-05-01T09:34:39.531Z</time></trkpt><trkpt lat="41.9388396" lon="12.9759368"><ele>396.0</ele><time>2026-05-01T09:34:40.523Z</time></trkpt><trkpt lat="41.938777" lon="12.9761864"><ele>396.0</ele><time>2026-05-01T09:34:41.526Z</time></trkpt><trkpt lat="41.9387195" lon="12.9764335"><ele>396.0</ele><time>2026-05-01T09:34:42.544Z</time></trkpt><trkpt lat="41.9386605" lon="12.9766784"><ele>397.33333333333337</ele><time>2026-05-01T09:34:43.518Z</time></trkpt><trkpt lat="41.9385938" lon="12.9769148"><ele>398.6666666666667</ele><time>2026-05-01T09:34:44.527Z</time></trkpt><trkpt lat="41.938526" lon="12.9771345"><ele>400.0</ele><time>2026-05-01T09:34:45.513Z</time></trkpt><trkpt lat="41.9384558" lon="12.9773527"><ele>400.33333333333337</ele><time>2026-05-01T09:34:46.54Z</time></trkpt><trkpt lat="41.9383805" lon="12.9775696"><ele>400.66666666666663</ele><time>2026-05-01T09:34:47.539Z</time></trkpt><trkpt lat="41.9382933" lon="12.9777931"><ele>401.0</ele><time>2026-05-01T09:34:48.505Z</time></trkpt><trkpt lat="41.9382002" lon="12.9780208"><ele>401.0</ele><time>2026-05-01T09:34:49.537Z</time></trkpt><trkpt lat="41.9381104" lon="12.9782551"><ele>401.0</ele><time>2026-05-01T09:34:50.542Z</time></trkpt><trkpt lat="41.9380188" lon="12.9784913"><ele>401.0</ele><time>2026-05-01T09:34:51.547Z</time></trkpt><trkpt lat="41.9379285" lon="12.9787313"><ele>402.66666666666663</ele><time>2026-05-01T09:34:52.537Z</time></trkpt><trkpt lat="41.9378432" lon="12.9789726"><ele>404.33333333333337</ele><time>2026-05-01T09:34:53.532Z</time></trkpt><trkpt lat="41.9377591" lon="12.9792124"><ele>406.0</ele><time>2026-05-01T09:34:54.527Z</time></trkpt><trkpt lat="41.9376748" lon="12.9794455"><ele>406.33333333333337</ele><time>2026-05-01T09:34:55.587Z</time></trkpt><trkpt lat="41.9375861" lon="12.9796651"><ele>406.66666666666663</ele><time>2026-05-01T09:34:56.525Z</time></trkpt><trkpt lat="41.9374912" lon="12.9798705"><ele>407.0</ele><time>2026-05-01T09:34:57.532Z</time></trkpt><trkpt lat="41.9373983" lon="12.9800635"><ele>405.0</ele><time>2026-05-01T09:34:58.528Z</time></trkpt><trkpt lat="41.9373134" lon="12.9802603"><ele>403.0</ele><time>2026-05-01T09:34:59.548Z</time></trkpt><trkpt lat="41.9372421" lon="12.9804604"><ele>401.0</ele><time>2026-05-01T09:35:00.548Z</time></trkpt><trkpt lat="41.9371715" lon="12.9806741"><ele>401.66666666666663</ele><time>2026-05-01T09:35:01.54Z</time></trkpt><trkpt lat="41.9371047" lon="12.9808915"><ele>402.33333333333337</ele><time>2026-05-01T09:35:02.548Z</time></trkpt><trkpt lat="41.9370541" lon="12.9810979"><ele>403.0</ele><time>2026-05-01T09:35:03.56Z</time></trkpt><trkpt lat="41.9370241" lon="12.9812982"><ele>403.0</ele><time>2026-05-01T09:35:04.529Z</time></trkpt><trkpt lat="41.9370183" lon="12.9814946"><ele>403.0</ele><time>2026-05-01T09:35:05.551Z</time></trkpt><trkpt lat="41.9370323" lon="12.9816974"><ele>403.0</ele><time>2026-05-01T09:35:06.538Z</time></trkpt><trkpt lat="41.9370662" lon="12.9819047"><ele>404.0</ele><time>2026-05-01T09:35:07.519Z</time></trkpt><trkpt lat="41.9371193" lon="12.9821207"><ele>405.0</ele><time>2026-05-01T09:35:08.534Z</time></trkpt><trkpt lat="41.9371771" lon="12.9823385"><ele>406.0</ele><time>2026-05-01T09:35:09.537Z</time></trkpt><trkpt lat="41.9372272" lon="12.9825401"><ele>406.0</ele><time>2026-05-01T09:35:10.526Z</time></trkpt><trkpt lat="41.9372803" lon="12.9827377"><ele>406.0</ele><time>2026-05-01T09:35:11.52Z</time></trkpt><trkpt lat="41.9373332" lon="12.9829361"><ele>406.0</ele><time>2026-05-01T09:35:12.569Z</time></trkpt><trkpt lat="41.9373825" lon="12.9831322"><ele>406.0</ele><time>2026-05-01T09:35:13.545Z</time></trkpt><trkpt lat="41.9374213" lon="12.9833171"><ele>406.0</ele><time>2026-05-01T09:35:14.537Z</time></trkpt><trkpt lat="41.9374324" lon="12.983486"><ele>406.0</ele><time>2026-05-01T09:35:15.515Z</time></trkpt><trkpt lat="41.9374117" lon="12.9836326"><ele>406.0</ele><time>2026-05-01T09:35:16.524Z</time></trkpt><trkpt lat="41.9373639" lon="12.9837605"><ele>405.25</ele><time>2026-05-01T09:35:17.499Z</time></trkpt><trkpt lat="41.9372969" lon="12.9838776"><ele>404.5</ele><time>2026-05-01T09:35:18.499Z</time></trkpt><trkpt lat="41.9372071" lon="12.9839872"><ele>403.75</ele><time>2026-05-01T09:35:19.501Z</time></trkpt><trkpt lat="41.9371019" lon="12.9840909"><ele>403.0</ele><time>2026-05-01T09:35:20.517Z</time></trkpt><trkpt lat="41.9369967" lon="12.9841962"><ele>403.0</ele><time>2026-05-01T09:35:21.522Z</time></trkpt><trkpt lat="41.9369121" lon="12.9842918"><ele>403.0</ele><time>2026-05-01T09:35:22.527Z</time></trkpt><trkpt lat="41.9368407" lon="12.9843743"><ele>403.0</ele><time>2026-05-01T09:35:23.513Z</time></trkpt><trkpt lat="41.9367794" lon="12.9844647"><ele>403.0</ele><time>2026-05-01T09:35:24.531Z</time></trkpt><trkpt lat="41.9367279" lon="12.9845708"><ele>403.0</ele><time>2026-05-01T09:35:25.523Z</time></trkpt><trkpt lat="41.9366901" lon="12.9847017"><ele>403.0</ele><time>2026-05-01T09:35:26.504Z</time></trkpt><trkpt lat="41.9366828" lon="12.9848453"><ele>403.0</ele><time>2026-05-01T09:35:27.508Z</time></trkpt><trkpt lat="41.9367071" lon="12.9849862"><ele>403.0</ele><time>2026-05-01T09:35:28.5Z</time></trkpt><trkpt lat="41.9367546" lon="12.9851049"><ele>403.0</ele><time>2026-05-01T09:35:29.51Z</time></trkpt><trkpt lat="41.9368233" lon="12.9852184"><ele>403.0</ele><time>2026-05-01T09:35:30.507Z</time></trkpt><trkpt lat="41.9368995" lon="12.9853399"><ele>402.75</ele><time>2026-05-01T09:35:31.514Z</time></trkpt><trkpt lat="41.9369775" lon="12.9854719"><ele>402.5</ele><time>2026-05-01T09:35:32.509Z</time></trkpt><trkpt lat="41.9370613" lon="12.9856109"><ele>402.25</ele><time>2026-05-01T09:35:33.507Z</time></trkpt><trkpt lat="41.9371562" lon="12.9857689"><ele>402.0</ele><time>2026-05-01T09:35:34.53Z</time></trkpt><trkpt lat="41.9372528" lon="12.9859331"><ele>404.33333333333337</ele><time>2026-05-01T09:35:35.521Z</time></trkpt><trkpt lat="41.9373475" lon="12.9861017"><ele>406.6666666666667</ele><time>2026-05-01T09:35:36.524Z</time></trkpt><trkpt lat="41.9374393" lon="12.986265"><ele>409.0</ele><time>2026-05-01T09:35:37.525Z</time></trkpt><trkpt lat="41.9375365" lon="12.9864265"><ele>408.0</ele><time>2026-05-01T09:35:38.525Z</time></trkpt><trkpt lat="41.9376389" lon="12.9865932"><ele>407.0</ele><time>2026-05-01T09:35:39.524Z</time></trkpt><trkpt lat="41.9377332" lon="12.9867532"><ele>406.0</ele><time>2026-05-01T09:35:40.52Z</time></trkpt><trkpt lat="41.93782" lon="12.9869084"><ele>406.0</ele><time>2026-05-01T09:35:41.531Z</time></trkpt><trkpt lat="41.9378964" lon="12.9870527"><ele>406.0</ele><time>2026-05-01T09:35:42.518Z</time></trkpt><trkpt lat="41.9379671" lon="12.9871849"><ele>406.0</ele><time>2026-05-01T09:35:43.502Z</time></trkpt><trkpt lat="41.9380416" lon="12.9873012"><ele>406.0</ele><time>2026-05-01T09:35:44.504Z</time></trkpt><trkpt lat="41.9381019" lon="12.9873999"><ele>406.00000000000006</ele><time>2026-05-01T09:35:45.53Z</time></trkpt><trkpt lat="41.9381649" lon="12.9874861"><ele>406.0</ele><time>2026-05-01T09:35:46.516Z</time></trkpt><trkpt lat="41.9382145" lon="12.987577"><ele>406.0</ele><time>2026-05-01T09:35:47.518Z</time></trkpt><trkpt lat="41.93824" lon="12.9876702"><ele>406.0</ele><time>2026-05-01T09:35:48.526Z</time></trkpt><trkpt lat="41.938235" lon="12.9877684"><ele>406.00000000000006</ele><time>2026-05-01T09:35:49.516Z</time></trkpt><trkpt lat="41.9382058" lon="12.9878693"><ele>406.0</ele><time>2026-05-01T09:35:50.515Z</time></trkpt><trkpt lat="41.9381601" lon="12.9879728"><ele>405.8</ele><time>2026-05-01T09:35:51.51Z</time></trkpt><trkpt lat="41.9381088" lon="12.9880683"><ele>405.6</ele><time>2026-05-01T09:35:52.513Z</time></trkpt><trkpt lat="41.9380459" lon="12.9881631"><ele>405.4</ele><time>2026-05-01T09:35:53.523Z</time></trkpt><trkpt lat="41.9379653" lon="12.9882696"><ele>405.2</ele><time>2026-05-01T09:35:54.514Z</time></trkpt><trkpt lat="41.9378765" lon="12.9883892"><ele>405.0</ele><time>2026-05-01T09:35:55.526Z</time></trkpt><trkpt lat="41.9377786" lon="12.9885128"><ele>404.75</ele><time>2026-05-01T09:35:56.506Z</time></trkpt><trkpt lat="41.9376822" lon="12.9886434"><ele>404.5</ele><time>2026-05-01T09:35:57.559Z</time></trkpt><trkpt lat="41.9375871" lon="12.9887663"><ele>404.25</ele><time>2026-05-01T09:35:58.525Z</time></trkpt><trkpt lat="41.937504" lon="12.98888"><ele>404.0</ele><time>2026-05-01T09:35:59.531Z</time></trkpt><trkpt lat="41.9374344" lon="12.9889757"><ele>404.0</ele><time>2026-05-01T09:36:00.508Z</time></trkpt><trkpt lat="41.9373803" lon="12.9890732"><ele>404.0</ele><time>2026-05-01T09:36:01.521Z</time></trkpt><trkpt lat="41.9373371" lon="12.9891799"><ele>404.0</ele><time>2026-05-01T09:36:02.514Z</time></trkpt><trkpt lat="41.9373035" lon="12.989298"><ele>404.0</ele><time>2026-05-01T09:36:03.505Z</time></trkpt><trkpt lat="41.9372821" lon="12.989441"><ele>404.0</ele><time>2026-05-01T09:36:04.513Z</time></trkpt><trkpt lat="41.93728" lon="12.9895959"><ele>406.75</ele><time>2026-05-01T09:36:05.499Z</time></trkpt><trkpt lat="41.9373014" lon="12.9897415"><ele>409.5</ele><time>2026-05-01T09:36:06.501Z</time></trkpt><trkpt lat="41.9373508" lon="12.989878"><ele>412.25</ele><time>2026-05-01T09:36:07.536Z</time></trkpt><trkpt lat="41.9374149" lon="12.9900115"><ele>415.0</ele><time>2026-05-01T09:36:08.514Z</time></trkpt><trkpt lat="41.9374983" lon="12.9901197"><ele>420.0</ele><time>2026-05-01T09:36:09.526Z</time></trkpt><trkpt lat="41.9375968" lon="12.9902075"><ele>425.0</ele><time>2026-05-01T09:36:10.5Z</time></trkpt><trkpt lat="41.9376945" lon="12.9902663"><ele>430.0</ele><time>2026-05-01T09:36:11.526Z</time></trkpt><trkpt lat="41.9377896" lon="12.9903045"><ele>435.0</ele><time>2026-05-01T09:36:12.512Z</time></trkpt><trkpt lat="41.9378977" lon="12.9903469"><ele>440.0</ele><time>2026-05-01T09:36:13.53Z</time></trkpt><trkpt lat="41.9380264" lon="12.9903962"><ele>440.0</ele><time>2026-05-01T09:36:14.527Z</time></trkpt><trkpt lat="41.9381607" lon="12.9904401"><ele>440.0</ele><time>2026-05-01T09:36:15.515Z</time></trkpt><trkpt lat="41.9383004" lon="12.990485"><ele>440.0</ele><time>2026-05-01T09:36:16.518Z</time></trkpt><trkpt lat="41.9384391" lon="12.9905263"><ele>440.0</ele><time>2026-05-01T09:36:17.517Z</time></trkpt><trkpt lat="41.9385776" lon="12.9905677"><ele>436.25</ele><time>2026-05-01T09:36:18.547Z</time></trkpt><trkpt lat="41.9387101" lon="12.9906143"><ele>432.5</ele><time>2026-05-01T09:36:19.536Z</time></trkpt><trkpt lat="41.9388345" lon="12.9906623"><ele>428.75</ele><time>2026-05-01T09:36:20.518Z</time></trkpt><trkpt lat="41.9389545" lon="12.9907101"><ele>425.0</ele><time>2026-05-01T09:36:21.523Z</time></trkpt><trkpt lat="41.9390699" lon="12.9907619"><ele>425.0</ele><time>2026-05-01T09:36:22.517Z</time></trkpt><trkpt lat="41.9391806" lon="12.9908295"><ele>425.0</ele><time>2026-05-01T09:36:23.537Z</time></trkpt><trkpt lat="41.9392882" lon="12.990912"><ele>425.0</ele><time>2026-05-01T09:36:24.529Z</time></trkpt><trkpt lat="41.9393856" lon="12.9910033"><ele>425.0</ele><time>2026-05-01T09:36:25.54Z</time></trkpt><trkpt lat="41.9394636" lon="12.9910837"><ele>424.99999999999994</ele><time>2026-05-01T09:36:26.521Z</time></trkpt><trkpt lat="41.9395172" lon="12.9911556"><ele>425.0</ele><time>2026-05-01T09:36:27.522Z</time></trkpt><trkpt lat="41.9395489" lon="12.9912386"><ele>425.0</ele><time>2026-05-01T09:36:28.53Z</time></trkpt><trkpt lat="41.9395478" lon="12.9913412"><ele>425.0</ele><time>2026-05-01T09:36:29.53Z</time></trkpt><trkpt lat="41.9395231" lon="12.9914439"><ele>424.99999999999994</ele><time>2026-05-01T09:36:30.533Z</time></trkpt><trkpt lat="41.9394768" lon="12.9915314"><ele>425.0</ele><time>2026-05-01T09:36:31.517Z</time></trkpt><trkpt lat="41.9394149" lon="12.9915847"><ele>425.0</ele><time>2026-05-01T09:36:32.54Z</time></trkpt><trkpt lat="41.939334" lon="12.9915954"><ele>425.0</ele><time>2026-05-01T09:36:33.512Z</time></trkpt><trkpt lat="41.9392475" lon="12.9915558"><ele>425.0</ele><time>2026-05-01T09:36:34.489Z</time></trkpt><trkpt lat="41.9391719" lon="12.9914671"><ele>425.0</ele><time>2026-05-01T09:36:35.512Z</time></trkpt><trkpt lat="41.9391152" lon="12.9913555"><ele>425.0</ele><time>2026-05-01T09:36:36.544Z</time></trkpt><trkpt lat="41.9390757" lon="12.9912412"><ele>430.2</ele><time>2026-05-01T09:36:37.543Z</time></trkpt><trkpt lat="41.939032" lon="12.9911264"><ele>435.4</ele><time>2026-05-01T09:36:38.51Z</time></trkpt><trkpt lat="41.9389577" lon="12.9910309"><ele>440.6</ele><time>2026-05-01T09:36:39.537Z</time></trkpt><trkpt lat="41.9388549" lon="12.9909584"><ele>445.8</ele><time>2026-05-01T09:36:40.539Z</time></trkpt><trkpt lat="41.938735" lon="12.990924"><ele>451.0</ele><time>2026-05-01T09:36:41.544Z</time></trkpt><trkpt lat="41.938611" lon="12.9909237"><ele>451.0</ele><time>2026-05-01T09:36:42.511Z</time></trkpt><trkpt lat="41.9384835" lon="12.9909241"><ele>451.0</ele><time>2026-05-01T09:36:43.507Z</time></trkpt><trkpt lat="41.9383517" lon="12.9909245"><ele>451.0</ele><time>2026-05-01T09:36:44.512Z</time></trkpt><trkpt lat="41.9382293" lon="12.9909325"><ele>451.0</ele><time>2026-05-01T09:36:45.495Z</time></trkpt><trkpt lat="41.9381069" lon="12.9909375"><ele>454.20000000000005</ele><time>2026-05-01T09:36:46.515Z</time></trkpt><trkpt lat="41.9379851" lon="12.9909472"><ele>457.40000000000003</ele><time>2026-05-01T09:36:47.513Z</time></trkpt><trkpt lat="41.9378784" lon="12.9909785"><ele>460.6</ele><time>2026-05-01T09:36:48.517Z</time></trkpt><trkpt lat="41.9377837" lon="12.991033"><ele>463.8</ele><time>2026-05-01T09:36:49.511Z</time></trkpt><trkpt lat="41.937707" lon="12.9911245"><ele>467.0</ele><time>2026-05-01T09:36:50.534Z</time></trkpt><trkpt lat="41.9376443" lon="12.9912494"><ele>467.0</ele><time>2026-05-01T09:36:51.502Z</time></trkpt><trkpt lat="41.9376001" lon="12.991401"><ele>467.0</ele><time>2026-05-01T09:36:52.52Z</time></trkpt><trkpt lat="41.9375759" lon="12.9915767"><ele>467.0</ele><time>2026-05-01T09:36:53.516Z</time></trkpt><trkpt lat="41.9375628" lon="12.9917472"><ele>467.0</ele><time>2026-05-01T09:36:54.523Z</time></trkpt><trkpt lat="41.9375755" lon="12.9919158"><ele>468.0</ele><time>2026-05-01T09:36:55.519Z</time></trkpt><trkpt lat="41.937628" lon="12.9920592"><ele>469.0</ele><time>2026-05-01T09:36:56.561Z</time></trkpt><trkpt lat="41.9376958" lon="12.9921937"><ele>470.0</ele><time>2026-05-01T09:36:57.536Z</time></trkpt><trkpt lat="41.9377852" lon="12.9923257"><ele>471.0</ele><time>2026-05-01T09:36:58.508Z</time></trkpt><trkpt lat="41.9378816" lon="12.9924511"><ele>470.25</ele><time>2026-05-01T09:36:59.528Z</time></trkpt><trkpt lat="41.9379893" lon="12.9925754"><ele>469.5</ele><time>2026-05-01T09:37:00.537Z</time></trkpt><trkpt lat="41.9380903" lon="12.992695"><ele>468.75</ele><time>2026-05-01T09:37:01.541Z</time></trkpt><trkpt lat="41.9381931" lon="12.9928023"><ele>468.0</ele><time>2026-05-01T09:37:02.54Z</time></trkpt><trkpt lat="41.9382875" lon="12.9929"><ele>468.0</ele><time>2026-05-01T09:37:03.547Z</time></trkpt><trkpt lat="41.9383674" lon="12.9930085"><ele>468.0</ele><time>2026-05-01T09:37:04.525Z</time></trkpt><trkpt lat="41.9384329" lon="12.9931344"><ele>468.0</ele><time>2026-05-01T09:37:05.493Z</time></trkpt><trkpt lat="41.9384821" lon="12.9932757"><ele>468.0</ele><time>2026-05-01T09:37:06.525Z</time></trkpt><trkpt lat="41.9385105" lon="12.9934331"><ele>471.0</ele><time>2026-05-01T09:37:07.535Z</time></trkpt><trkpt lat="41.9385043" lon="12.9936032"><ele>474.0</ele><time>2026-05-01T09:37:08.555Z</time></trkpt><trkpt lat="41.9384712" lon="12.9937576"><ele>477.0</ele><time>2026-05-01T09:37:09.514Z</time></trkpt><trkpt lat="41.9384156" lon="12.9938969"><ele>480.0</ele><time>2026-05-01T09:37:10.52Z</time></trkpt><trkpt lat="41.9383447" lon="12.9940181"><ele>480.0</ele><time>2026-05-01T09:37:11.538Z</time></trkpt><trkpt lat="41.9382638" lon="12.9941064"><ele>480.0</ele><time>2026-05-01T09:37:12.534Z</time></trkpt><trkpt lat="41.9381689" lon="12.9941728"><ele>480.0</ele><time>2026-05-01T09:37:13.546Z</time></trkpt><trkpt lat="41.9380695" lon="12.9942055"><ele>480.0</ele><time>2026-05-01T09:37:14.528Z</time></trkpt><trkpt lat="41.9379653" lon="12.9942136"><ele>480.0</ele><time>2026-05-01T09:37:15.503Z</time></trkpt><trkpt lat="41.9378636" lon="12.9941912"><ele>480.0</ele><time>2026-05-01T09:37:16.527Z</time></trkpt><trkpt lat="41.9377641" lon="12.9941565"><ele>480.0</ele><time>2026-05-01T09:37:17.492Z</time></trkpt><trkpt lat="41.9376644" lon="12.9941303"><ele>480.0</ele><time>2026-05-01T09:37:18.53Z</time></trkpt><trkpt lat="41.9375727" lon="12.9941379"><ele>480.0</ele><time>2026-05-01T09:37:19.513Z</time></trkpt><trkpt lat="41.937481" lon="12.9941859"><ele>480.0</ele><time>2026-05-01T09:37:20.5Z</time></trkpt><trkpt lat="41.9373985" lon="12.9942738"><ele>482.5</ele><time>2026-05-01T09:37:21.514Z</time></trkpt><trkpt lat="41.937334" lon="12.9944048"><ele>485.0</ele><time>2026-05-01T09:37:22.505Z</time></trkpt><trkpt lat="41.9372853" lon="12.9945697"><ele>487.5</ele><time>2026-05-01T09:37:23.519Z</time></trkpt><trkpt lat="41.9372491" lon="12.9947436"><ele>490.0</ele><time>2026-05-01T09:37:24.509Z</time></trkpt><trkpt lat="41.9372123" lon="12.994917"><ele>490.0</ele><time>2026-05-01T09:37:25.51Z</time></trkpt><trkpt lat="41.9371794" lon="12.995091"><ele>490.0</ele><time>2026-05-01T09:37:26.535Z</time></trkpt><trkpt lat="41.9371683" lon="12.9952569"><ele>490.0</ele><time>2026-05-01T09:37:27.533Z</time></trkpt><trkpt lat="41.9371864" lon="12.9954179"><ele>490.0</ele><time>2026-05-01T09:37:28.544Z</time></trkpt><trkpt lat="41.9372381" lon="12.9955595"><ele>490.0</ele><time>2026-05-01T09:37:29.538Z</time></trkpt><trkpt lat="41.9373183" lon="12.9956878"><ele>490.0</ele><time>2026-05-01T09:37:30.524Z</time></trkpt><trkpt lat="41.9374154" lon="12.9958119"><ele>490.0</ele><time>2026-05-01T09:37:31.522Z</time></trkpt><trkpt lat="41.9375111" lon="12.995943"><ele>490.0</ele><time>2026-05-01T09:37:32.517Z</time></trkpt><trkpt lat="41.9376106" lon="12.9960816"><ele>496.75</ele><time>2026-05-01T09:37:33.517Z</time></trkpt><trkpt lat="41.9377005" lon="12.9962268"><ele>503.5</ele><time>2026-05-01T09:37:34.533Z</time></trkpt><trkpt lat="41.937768" lon="12.9963892"><ele>510.25</ele><time>2026-05-01T09:37:35.521Z</time></trkpt><trkpt lat="41.9378065" lon="12.9965691"><ele>517.0</ele><time>2026-05-01T09:37:36.542Z</time></trkpt><trkpt lat="41.9378171" lon="12.9967555"><ele>518.0</ele><time>2026-05-01T09:37:37.51Z</time></trkpt><trkpt lat="41.9378142" lon="12.9969528"><ele>519.0</ele><time>2026-05-01T09:37:38.531Z</time></trkpt><trkpt lat="41.9378039" lon="12.9971639"><ele>520.0</ele><time>2026-05-01T09:37:39.525Z</time></trkpt><trkpt lat="41.9377945" lon="12.9973934"><ele>520.0</ele><time>2026-05-01T09:37:40.526Z</time></trkpt><trkpt lat="41.9377933" lon="12.9976398"><ele>520.0</ele><time>2026-05-01T09:37:41.526Z</time></trkpt><trkpt lat="41.9377965" lon="12.9978833"><ele>520.0</ele><time>2026-05-01T09:37:42.529Z</time></trkpt><trkpt lat="41.9377985" lon="12.9981108"><ele>520.0</ele><time>2026-05-01T09:37:43.534Z</time></trkpt><trkpt lat="41.9377955" lon="12.9983088"><ele>520.0</ele><time>2026-05-01T09:37:44.523Z</time></trkpt><trkpt lat="41.937792" lon="12.9984917"><ele>520.0</ele><time>2026-05-01T09:37:45.528Z</time></trkpt><trkpt lat="41.9377762" lon="12.9986543"><ele>520.0</ele><time>2026-05-01T09:37:46.515Z</time></trkpt><trkpt lat="41.9377415" lon="12.9988109"><ele>523.0</ele><time>2026-05-01T09:37:47.505Z</time></trkpt><trkpt lat="41.9376877" lon="12.998969"><ele>526.0</ele><time>2026-05-01T09:37:48.537Z</time></trkpt><trkpt lat="41.937622" lon="12.9991252"><ele>529.0</ele><time>2026-05-01T09:37:49.536Z</time></trkpt><trkpt lat="41.9375596" lon="12.999274"><ele>532.0</ele><time>2026-05-01T09:37:50.547Z</time></trkpt><trkpt lat="41.9374919" lon="12.9994041"><ele>532.4</ele><time>2026-05-01T09:37:51.516Z</time></trkpt><trkpt lat="41.9374064" lon="12.9994993"><ele>532.8000000000001</ele><time>2026-05-01T09:37:52.535Z</time></trkpt><trkpt lat="41.9373075" lon="12.9995624"><ele>533.2</ele><time>2026-05-01T09:37:53.532Z</time></trkpt><trkpt lat="41.9372039" lon="12.9996036"><ele>533.6</ele><time>2026-05-01T09:37:54.516Z</time></trkpt><trkpt lat="41.9370839" lon="12.9996022"><ele>534.0</ele><time>2026-05-01T09:37:55.532Z</time></trkpt><trkpt lat="41.9369448" lon="12.9995752"><ele>534.0</ele><time>2026-05-01T09:37:56.51Z</time></trkpt><trkpt lat="41.9367852" lon="12.999524"><ele>534.0</ele><time>2026-05-01T09:37:57.521Z</time></trkpt><trkpt lat="41.9366212" lon="12.9994493"><ele>534.0</ele><time>2026-05-01T09:37:58.504Z</time></trkpt><trkpt lat="41.9364627" lon="12.9993536"><ele>537.5</ele><time>2026-05-01T09:37:59.526Z</time></trkpt><trkpt lat="41.936325" lon="12.9992595"><ele>541.0</ele><time>2026-05-01T09:38:00.541Z</time></trkpt><trkpt lat="41.936195" lon="12.9991887"><ele>544.5</ele><time>2026-05-01T09:38:01.553Z</time></trkpt><trkpt lat="41.9360554" lon="12.9991625"><ele>548.0</ele><time>2026-05-01T09:38:02.524Z</time></trkpt><trkpt lat="41.9359104" lon="12.9991753"><ele>546.5</ele><time>2026-05-01T09:38:03.526Z</time></trkpt><trkpt lat="41.9357704" lon="12.9992087"><ele>545.0</ele><time>2026-05-01T09:38:04.534Z</time></trkpt><trkpt lat="41.9356496" lon="12.999255"><ele>543.5</ele><time>2026-05-01T09:38:05.542Z</time></trkpt><trkpt lat="41.935549" lon="12.9993184"><ele>542.0</ele><time>2026-05-01T09:38:06.535Z</time></trkpt><trkpt lat="41.9354653" lon="12.9994193"><ele>542.0</ele><time>2026-05-01T09:38:07.521Z</time></trkpt><trkpt lat="41.935397" lon="12.9995613"><ele>542.0</ele><time>2026-05-01T09:38:08.512Z</time></trkpt><trkpt lat="41.9353343" lon="12.9997317"><ele>542.0</ele><time>2026-05-01T09:38:09.496Z</time></trkpt><trkpt lat="41.935274" lon="12.9999255"><ele>542.0</ele><time>2026-05-01T09:38:10.505Z</time></trkpt><trkpt lat="41.9352217" lon="13.0001297"><ele>542.0</ele><time>2026-05-01T09:38:11.495Z</time></trkpt><trkpt lat="41.9351905" lon="13.0003373"><ele>542.0</ele><time>2026-05-01T09:38:12.516Z</time></trkpt><trkpt lat="41.9351837" lon="13.0005459"><ele>542.0</ele><time>2026-05-01T09:38:13.527Z</time></trkpt><trkpt lat="41.9351861" lon="13.0007566"><ele>546.25</ele><time>2026-05-01T09:38:14.543Z</time></trkpt><trkpt lat="41.9351844" lon="13.0009543"><ele>550.5</ele><time>2026-05-01T09:38:15.518Z</time></trkpt><trkpt lat="41.9351751" lon="13.0011545"><ele>554.75</ele><time>2026-05-01T09:38:16.511Z</time></trkpt><trkpt lat="41.935151" lon="13.001354"><ele>559.0</ele><time>2026-05-01T09:38:17.524Z</time></trkpt><trkpt lat="41.9351176" lon="13.0015425"><ele>561.0</ele><time>2026-05-01T09:38:18.52Z</time></trkpt><trkpt lat="41.935086" lon="13.0017113"><ele>563.0</ele><time>2026-05-01T09:38:19.519Z</time></trkpt><trkpt lat="41.9350722" lon="13.001861"><ele>565.0</ele><time>2026-05-01T09:38:20.522Z</time></trkpt><trkpt lat="41.935081" lon="13.0020027"><ele>567.0</ele><time>2026-05-01T09:38:21.53Z</time></trkpt><trkpt lat="41.9351182" lon="13.0021455"><ele>567.0</ele><time>2026-05-01T09:38:22.527Z</time></trkpt><trkpt lat="41.935176" lon="13.0022791"><ele>567.0</ele><time>2026-05-01T09:38:23.5Z</time></trkpt><trkpt lat="41.9352298" lon="13.0023983"><ele>567.0</ele><time>2026-05-01T09:38:24.518Z</time></trkpt><trkpt lat="41.9352564" lon="13.002515"><ele>567.0</ele><time>2026-05-01T09:38:25.515Z</time></trkpt><trkpt lat="41.9352483" lon="13.0026414"><ele>567.0</ele><time>2026-05-01T09:38:26.504Z</time></trkpt><trkpt lat="41.9352157" lon="13.0027813"><ele>566.25</ele><time>2026-05-01T09:38:27.504Z</time></trkpt><trkpt lat="41.9351579" lon="13.002924"><ele>565.5</ele><time>2026-05-01T09:38:28.534Z</time></trkpt><trkpt lat="41.9350822" lon="13.0030683"><ele>564.75</ele><time>2026-05-01T09:38:29.532Z</time></trkpt><trkpt lat="41.9349853" lon="13.0032211"><ele>564.0</ele><time>2026-05-01T09:38:30.527Z</time></trkpt><trkpt lat="41.9348816" lon="13.0033747"><ele>560.6666666666666</ele><time>2026-05-01T09:38:31.526Z</time></trkpt><trkpt lat="41.9347784" lon="13.0035356"><ele>557.3333333333333</ele><time>2026-05-01T09:38:32.53Z</time></trkpt><trkpt lat="41.9346807" lon="13.0037034"><ele>554.0</ele><time>2026-05-01T09:38:33.529Z</time></trkpt><trkpt lat="41.9346001" lon="13.0038728"><ele>554.0</ele><time>2026-05-01T09:38:34.548Z</time></trkpt><trkpt lat="41.9345401" lon="13.0040275"><ele>554.0</ele><time>2026-05-01T09:38:35.516Z</time></trkpt><trkpt lat="41.9344826" lon="13.0041651"><ele>554.0</ele><time>2026-05-01T09:38:36.515Z</time></trkpt><trkpt lat="41.9344166" lon="13.0042827"><ele>554.0</ele><time>2026-05-01T09:38:37.525Z</time></trkpt><trkpt lat="41.9343421" lon="13.0043875"><ele>555.0</ele><time>2026-05-01T09:38:38.518Z</time></trkpt><trkpt lat="41.9342523" lon="13.0044508"><ele>556.0</ele><time>2026-05-01T09:38:39.528Z</time></trkpt><trkpt lat="41.9341439" lon="13.0044569"><ele>557.0</ele><time>2026-05-01T09:38:40.498Z</time></trkpt><trkpt lat="41.934034" lon="13.0044284"><ele>558.0</ele><time>2026-05-01T09:38:41.513Z</time></trkpt><trkpt lat="41.9339314" lon="13.0043702"><ele>559.0</ele><time>2026-05-01T09:38:42.52Z</time></trkpt><trkpt lat="41.9338409" lon="13.0042703"><ele>553.25</ele><time>2026-05-01T09:38:43.519Z</time></trkpt><trkpt lat="41.9337558" lon="13.0041491"><ele>547.5</ele><time>2026-05-01T09:38:44.504Z</time></trkpt><trkpt lat="41.9336721" lon="13.004017"><ele>541.75</ele><time>2026-05-01T09:38:45.504Z</time></trkpt><trkpt lat="41.9335857" lon="13.0038741"><ele>536.0</ele><time>2026-05-01T09:38:46.512Z</time></trkpt><trkpt lat="41.9335027" lon="13.0037308"><ele>536.0</ele><time>2026-05-01T09:38:47.51Z</time></trkpt><trkpt lat="41.933428" lon="13.0035972"><ele>536.0</ele><time>2026-05-01T09:38:48.516Z</time></trkpt><trkpt lat="41.9333627" lon="13.0034926"><ele>536.0</ele><time>2026-05-01T09:38:49.528Z</time></trkpt><trkpt lat="41.9332913" lon="13.0034321"><ele>536.0</ele><time>2026-05-01T09:38:50.516Z</time></trkpt><trkpt lat="41.933219" lon="13.0034243"><ele>536.0</ele><time>2026-05-01T09:38:51.505Z</time></trkpt><trkpt lat="41.9331542" lon="13.0034617"><ele>539.6666666666666</ele><time>2026-05-01T09:38:52.505Z</time></trkpt><trkpt lat="41.9330932" lon="13.0035322"><ele>543.3333333333333</ele><time>2026-05-01T09:38:53.505Z</time></trkpt><trkpt lat="41.9330379" lon="13.003628"><ele>547.0</ele><time>2026-05-01T09:38:54.519Z</time></trkpt><trkpt lat="41.9329879" lon="13.0037266"><ele>550.6666666666666</ele><time>2026-05-01T09:38:55.541Z</time></trkpt><trkpt lat="41.9329578" lon="13.0038324"><ele>554.3333333333334</ele><time>2026-05-01T09:38:56.503Z</time></trkpt><trkpt lat="41.932959" lon="13.0039459"><ele>558.0</ele><time>2026-05-01T09:38:57.524Z</time></trkpt><trkpt lat="41.9329697" lon="13.0040615"><ele>561.0</ele><time>2026-05-01T09:38:58.537Z</time></trkpt><trkpt lat="41.9329586" lon="13.0041685"><ele>564.0</ele><time>2026-05-01T09:38:59.538Z</time></trkpt><trkpt lat="41.9329171" lon="13.0042532"><ele>567.0</ele><time>2026-05-01T09:39:00.5Z</time></trkpt><trkpt lat="41.9328493" lon="13.0043053"><ele>570.0</ele><time>2026-05-01T09:39:01.502Z</time></trkpt><trkpt lat="41.9327685" lon="13.0043181"><ele>573.0</ele><time>2026-05-01T09:39:02.528Z</time></trkpt><trkpt lat="41.9326777" lon="13.0043091"><ele>576.0</ele><time>2026-05-01T09:39:03.52Z</time></trkpt><trkpt lat="41.9325765" lon="13.0042912"><ele>574.25</ele><time>2026-05-01T09:39:04.508Z</time></trkpt><trkpt lat="41.9324613" lon="13.0042636"><ele>572.5</ele><time>2026-05-01T09:39:05.514Z</time></trkpt><trkpt lat="41.9323353" lon="13.0042398"><ele>570.75</ele><time>2026-05-01T09:39:06.495Z</time></trkpt><trkpt lat="41.9321979" lon="13.0042169"><ele>569.0</ele><time>2026-05-01T09:39:07.535Z</time></trkpt><trkpt lat="41.9320655" lon="13.0041869"><ele>567.25</ele><time>2026-05-01T09:39:08.513Z</time></trkpt><trkpt lat="41.9319308" lon="13.0041264"><ele>565.5</ele><time>2026-05-01T09:39:09.508Z</time></trkpt><trkpt lat="41.9318006" lon="13.004041"><ele>563.75</ele><time>2026-05-01T09:39:10.498Z</time></trkpt><trkpt lat="41.9316764" lon="13.003942"><ele>562.0</ele><time>2026-05-01T09:39:11.522Z</time></trkpt><trkpt lat="41.931557" lon="13.0038438"><ele>562.0</ele><time>2026-05-01T09:39:12.506Z</time></trkpt><trkpt lat="41.9314477" lon="13.003739"><ele>562.0</ele><time>2026-05-01T09:39:13.529Z</time></trkpt><trkpt lat="41.931358" lon="13.003609"><ele>562.0</ele><time>2026-05-01T09:39:14.518Z</time></trkpt><trkpt lat="41.9312999" lon="13.0034594"><ele>562.0</ele><time>2026-05-01T09:39:15.508Z</time></trkpt><trkpt lat="41.9312668" lon="13.0033058"><ele>559.2</ele><time>2026-05-01T09:39:16.505Z</time></trkpt><trkpt lat="41.9312323" lon="13.0031784"><ele>556.4000000000001</ele><time>2026-05-01T09:39:17.517Z</time></trkpt><trkpt lat="41.9311816" lon="13.0030853"><ele>553.5999999999999</ele><time>2026-05-01T09:39:18.53Z</time></trkpt><trkpt lat="41.9311" lon="13.0030405"><ele>550.8</ele><time>2026-05-01T09:39:19.527Z</time></trkpt><trkpt lat="41.9310055" lon="13.0030409"><ele>548.0</ele><time>2026-05-01T09:39:20.508Z</time></trkpt><trkpt lat="41.9309156" lon="13.0030946"><ele>551.5</ele><time>2026-05-01T09:39:21.505Z</time></trkpt><trkpt lat="41.9308329" lon="13.0031939"><ele>555.0</ele><time>2026-05-01T09:39:22.512Z</time></trkpt><trkpt lat="41.930751" lon="13.0033193"><ele>558.5</ele><time>2026-05-01T09:39:23.505Z</time></trkpt><trkpt lat="41.93066" lon="13.0034642"><ele>562.0</ele><time>2026-05-01T09:39:24.534Z</time></trkpt><trkpt lat="41.9305698" lon="13.003628"><ele>566.0</ele><time>2026-05-01T09:39:25.533Z</time></trkpt><trkpt lat="41.9304768" lon="13.0037896"><ele>570.0</ele><time>2026-05-01T09:39:26.546Z</time></trkpt><trkpt lat="41.930389" lon="13.0039449"><ele>574.0</ele><time>2026-05-01T09:39:27.508Z</time></trkpt><trkpt lat="41.9302961" lon="13.0040925"><ele>578.0</ele><time>2026-05-01T09:39:28.563Z</time></trkpt><trkpt lat="41.9301998" lon="13.0042177"><ele>578.0</ele><time>2026-05-01T09:39:29.52Z</time></trkpt><trkpt lat="41.9300884" lon="13.0043248"><ele>578.0</ele><time>2026-05-01T09:39:30.52Z</time></trkpt><trkpt lat="41.929974" lon="13.0044197"><ele>578.0</ele><time>2026-05-01T09:39:31.546Z</time></trkpt><trkpt lat="41.9298647" lon="13.0044916"><ele>578.0</ele><time>2026-05-01T09:39:32.5Z</time></trkpt><trkpt lat="41.929754" lon="13.0045414"><ele>578.0</ele><time>2026-05-01T09:39:33.544Z</time></trkpt><trkpt lat="41.9296403" lon="13.004562"><ele>578.0</ele><time>2026-05-01T09:39:34.537Z</time></trkpt><trkpt lat="41.9295163" lon="13.0045571"><ele>578.0</ele><time>2026-05-01T09:39:35.539Z</time></trkpt><trkpt lat="41.929388" lon="13.0045287"><ele>578.0</ele><time>2026-05-01T09:39:36.51Z</time></trkpt><trkpt lat="41.9292692" lon="13.0045069"><ele>577.6</ele><time>2026-05-01T09:39:37.518Z</time></trkpt><trkpt lat="41.9291576" lon="13.0044963"><ele>577.1999999999999</ele><time>2026-05-01T09:39:38.522Z</time></trkpt><trkpt lat="41.929053" lon="13.0045029"><ele>576.8</ele><time>2026-05-01T09:39:39.505Z</time></trkpt><trkpt lat="41.9289475" lon="13.0045353"><ele>576.4</ele><time>2026-05-01T09:39:40.525Z</time></trkpt><trkpt lat="41.9288483" lon="13.0045727"><ele>576.0</ele><time>2026-05-01T09:39:41.508Z</time></trkpt><trkpt lat="41.928762" lon="13.0045748"><ele>576.0</ele><time>2026-05-01T09:39:42.498Z</time></trkpt><trkpt lat="41.928681" lon="13.0045759"><ele>576.0</ele><time>2026-05-01T09:39:43.521Z</time></trkpt><trkpt lat="41.9285987" lon="13.004597"><ele>576.0</ele><time>2026-05-01T09:39:44.508Z</time></trkpt><trkpt lat="41.928512" lon="13.0046453"><ele>576.0</ele><time>2026-05-01T09:39:45.512Z</time></trkpt><trkpt lat="41.928432" lon="13.0046967"><ele>576.0</ele><time>2026-05-01T09:39:46.505Z</time></trkpt><trkpt lat="41.9283494" lon="13.0047188"><ele>576.0</ele><time>2026-05-01T09:39:47.522Z</time></trkpt><trkpt lat="41.9282569" lon="13.0047104"><ele>578.4</ele><time>2026-05-01T09:39:48.522Z</time></trkpt><trkpt lat="41.9281633" lon="13.0046939"><ele>580.8</ele><time>2026-05-01T09:39:49.51Z</time></trkpt><trkpt lat="41.928063" lon="13.0046633"><ele>583.1999999999999</ele><time>2026-05-01T09:39:50.525Z</time></trkpt><trkpt lat="41.9279781" lon="13.004623"><ele>585.6</ele><time>2026-05-01T09:39:51.516Z</time></trkpt><trkpt lat="41.9278981" lon="13.0045698"><ele>588.0</ele><time>2026-05-01T09:39:52.514Z</time></trkpt><trkpt lat="41.9278242" lon="13.0044977"><ele>588.0</ele><time>2026-05-01T09:39:53.511Z</time></trkpt><trkpt lat="41.9277761" lon="13.0043828"><ele>588.0</ele><time>2026-05-01T09:39:54.518Z</time></trkpt><trkpt lat="41.9277677" lon="13.004252"><ele>588.0</ele><time>2026-05-01T09:39:55.522Z</time></trkpt><trkpt lat="41.9277673" lon="13.0041205"><ele>588.0</ele><time>2026-05-01T09:39:56.496Z</time></trkpt><trkpt lat="41.9277735" lon="13.0039879"><ele>588.0</ele><time>2026-05-01T09:39:57.506Z</time></trkpt><trkpt lat="41.9277639" lon="13.0038703"><ele>588.6666666666666</ele><time>2026-05-01T09:39:58.505Z</time></trkpt><trkpt lat="41.927734" lon="13.0037753"><ele>589.3333333333334</ele><time>2026-05-01T09:39:59.516Z</time></trkpt><trkpt lat="41.9276637" lon="13.0037182"><ele>590.0</ele><time>2026-05-01T09:40:00.538Z</time></trkpt><trkpt lat="41.9275787" lon="13.0036806"><ele>590.6666666666667</ele><time>2026-05-01T09:40:01.522Z</time></trkpt><trkpt lat="41.9274927" lon="13.0036452"><ele>591.3333333333334</ele><time>2026-05-01T09:40:02.536Z</time></trkpt><trkpt lat="41.9273895" lon="13.0036226"><ele>592.0</ele><time>2026-05-01T09:40:03.529Z</time></trkpt><trkpt lat="41.9272862" lon="13.00362"><ele>592.0</ele><time>2026-05-01T09:40:04.539Z</time></trkpt><trkpt lat="41.9271694" lon="13.0036449"><ele>592.0</ele><time>2026-05-01T09:40:05.546Z</time></trkpt><trkpt lat="41.9270559" lon="13.003694"><ele>592.0</ele><time>2026-05-01T09:40:06.529Z</time></trkpt><trkpt lat="41.926948" lon="13.0037706"><ele>592.0</ele><time>2026-05-01T09:40:07.545Z</time></trkpt><trkpt lat="41.9268532" lon="13.0038708"><ele>592.0</ele><time>2026-05-01T09:40:08.501Z</time></trkpt><trkpt lat="41.9267729" lon="13.0039764"><ele>592.0</ele><time>2026-05-01T09:40:09.528Z</time></trkpt><trkpt lat="41.9267098" lon="13.0040856"><ele>592.0</ele><time>2026-05-01T09:40:10.552Z</time></trkpt><trkpt lat="41.9266632" lon="13.0042117"><ele>592.0</ele><time>2026-05-01T09:40:11.543Z</time></trkpt><trkpt lat="41.9266577" lon="13.0043576"><ele>592.0</ele><time>2026-05-01T09:40:12.557Z</time></trkpt><trkpt lat="41.9267028" lon="13.0045203"><ele>597.75</ele><time>2026-05-01T09:40:13.534Z</time></trkpt><trkpt lat="41.9267725" lon="13.0046736"><ele>603.5</ele><time>2026-05-01T09:40:14.543Z</time></trkpt><trkpt lat="41.9268524" lon="13.0048344"><ele>609.25</ele><time>2026-05-01T09:40:15.536Z</time></trkpt><trkpt lat="41.9269414" lon="13.0049912"><ele>615.0</ele><time>2026-05-01T09:40:16.547Z</time></trkpt><trkpt lat="41.9270163" lon="13.0051483"><ele>615.5</ele><time>2026-05-01T09:40:17.529Z</time></trkpt><trkpt lat="41.927079" lon="13.005302"><ele>616.0</ele><time>2026-05-01T09:40:18.522Z</time></trkpt><trkpt lat="41.9271411" lon="13.0054485"><ele>616.5</ele><time>2026-05-01T09:40:19.515Z</time></trkpt><trkpt lat="41.9271986" lon="13.0055944"><ele>617.0</ele><time>2026-05-01T09:40:20.516Z</time></trkpt><trkpt lat="41.9272533" lon="13.0057312"><ele>616.0</ele><time>2026-05-01T09:40:21.508Z</time></trkpt><trkpt lat="41.927301" lon="13.0058723"><ele>615.0</ele><time>2026-05-01T09:40:22.513Z</time></trkpt><trkpt lat="41.9273354" lon="13.0060224"><ele>614.0</ele><time>2026-05-01T09:40:23.532Z</time></trkpt><trkpt lat="41.927368" lon="13.0061905"><ele>613.0</ele><time>2026-05-01T09:40:24.51Z</time></trkpt><trkpt lat="41.9273948" lon="13.0063752"><ele>613.0</ele><time>2026-05-01T09:40:25.548Z</time></trkpt><trkpt lat="41.9274129" lon="13.0065577"><ele>613.0</ele><time>2026-05-01T09:40:26.521Z</time></trkpt><trkpt lat="41.9274276" lon="13.0067394"><ele>613.0</ele><time>2026-05-01T09:40:27.503Z</time></trkpt><trkpt lat="41.9274423" lon="13.0069083"><ele>613.0</ele><time>2026-05-01T09:40:28.531Z</time></trkpt><trkpt lat="41.9274561" lon="13.0070619"><ele>612.1999999999999</ele><time>2026-05-01T09:40:29.513Z</time></trkpt><trkpt lat="41.9274562" lon="13.0072095"><ele>611.4</ele><time>2026-05-01T09:40:30.52Z</time></trkpt><trkpt lat="41.9274453" lon="13.0073504"><ele>610.5999999999999</ele><time>2026-05-01T09:40:31.518Z</time></trkpt><trkpt lat="41.9273975" lon="13.0074833"><ele>609.8</ele><time>2026-05-01T09:40:32.527Z</time></trkpt><trkpt lat="41.9273055" lon="13.0075952"><ele>609.0</ele><time>2026-05-01T09:40:33.505Z</time></trkpt><trkpt lat="41.9271935" lon="13.0076935"><ele>609.0</ele><time>2026-05-01T09:40:34.508Z</time></trkpt><trkpt lat="41.9270845" lon="13.0077728"><ele>609.0</ele><time>2026-05-01T09:40:35.49Z</time></trkpt><trkpt lat="41.9269862" lon="13.0078454"><ele>609.0</ele><time>2026-05-01T09:40:36.541Z</time></trkpt><trkpt lat="41.9269065" lon="13.0079291"><ele>609.0</ele><time>2026-05-01T09:40:37.526Z</time></trkpt><trkpt lat="41.9268512" lon="13.0080352"><ele>609.0</ele><time>2026-05-01T09:40:38.518Z</time></trkpt><trkpt lat="41.9268265" lon="13.0081684"><ele>609.0</ele><time>2026-05-01T09:40:39.51Z</time></trkpt><trkpt lat="41.926841" lon="13.0083229"><ele>609.0</ele><time>2026-05-01T09:40:40.501Z</time></trkpt><trkpt lat="41.926877" lon="13.0084904"><ele>609.0</ele><time>2026-05-01T09:40:41.511Z</time></trkpt><trkpt lat="41.9269053" lon="13.0086591"><ele>609.0</ele><time>2026-05-01T09:40:42.505Z</time></trkpt><trkpt lat="41.9269064" lon="13.0088353"><ele>609.0</ele><time>2026-05-01T09:40:43.516Z</time></trkpt><trkpt lat="41.9268638" lon="13.0090151"><ele>609.0</ele><time>2026-05-01T09:40:44.519Z</time></trkpt><trkpt lat="41.926812" lon="13.0091953"><ele>609.0</ele><time>2026-05-01T09:40:45.52Z</time></trkpt><trkpt lat="41.9267565" lon="13.009386"><ele>609.0</ele><time>2026-05-01T09:40:46.522Z</time></trkpt><trkpt lat="41.9266954" lon="13.009587"><ele>602.6666666666666</ele><time>2026-05-01T09:40:47.518Z</time></trkpt><trkpt lat="41.9266365" lon="13.0097978"><ele>596.3333333333333</ele><time>2026-05-01T09:40:48.523Z</time></trkpt><trkpt lat="41.9265732" lon="13.0100074"><ele>590.0</ele><time>2026-05-01T09:40:49.532Z</time></trkpt><trkpt lat="41.926505" lon="13.0102181"><ele>590.0</ele><time>2026-05-01T09:40:50.514Z</time></trkpt><trkpt lat="41.9264435" lon="13.0104293"><ele>590.0</ele><time>2026-05-01T09:40:51.509Z</time></trkpt><trkpt lat="41.9263841" lon="13.0106287"><ele>590.0</ele><time>2026-05-01T09:40:52.52Z</time></trkpt><trkpt lat="41.926327" lon="13.0107864"><ele>590.4</ele><time>2026-05-01T09:40:53.513Z</time></trkpt><trkpt lat="41.9262832" lon="13.0109146"><ele>590.8</ele><time>2026-05-01T09:40:54.52Z</time></trkpt><trkpt lat="41.9262267" lon="13.0110178"><ele>591.2</ele><time>2026-05-01T09:40:55.524Z</time></trkpt><trkpt lat="41.9261513" lon="13.0111047"><ele>591.6</ele><time>2026-05-01T09:40:56.506Z</time></trkpt><trkpt lat="41.9260555" lon="13.0111641"><ele>592.0</ele><time>2026-05-01T09:40:57.513Z</time></trkpt><trkpt lat="41.9259505" lon="13.0111907"><ele>589.0</ele><time>2026-05-01T09:40:58.509Z</time></trkpt><trkpt lat="41.9258436" lon="13.011183"><ele>586.0</ele><time>2026-05-01T09:40:59.541Z</time></trkpt><trkpt lat="41.9257389" lon="13.0111121"><ele>583.0</ele><time>2026-05-01T09:41:00.501Z</time></trkpt><trkpt lat="41.9256636" lon="13.011002"><ele>580.0</ele><time>2026-05-01T09:41:01.511Z</time></trkpt><trkpt lat="41.9256265" lon="13.0108753"><ele>577.0</ele><time>2026-05-01T09:41:02.514Z</time></trkpt><trkpt lat="41.9256274" lon="13.0107365"><ele>576.0</ele><time>2026-05-01T09:41:03.504Z</time></trkpt><trkpt lat="41.9256542" lon="13.0105662"><ele>575.0</ele><time>2026-05-01T09:41:04.502Z</time></trkpt><trkpt lat="41.9256788" lon="13.0103796"><ele>574.0</ele><time>2026-05-01T09:41:05.495Z</time></trkpt><trkpt lat="41.925698" lon="13.0101737"><ele>573.0</ele><time>2026-05-01T09:41:06.545Z</time></trkpt><trkpt lat="41.9257133" lon="13.0099692"><ele>572.0</ele><time>2026-05-01T09:41:07.518Z</time></trkpt><trkpt lat="41.9257254" lon="13.0097778"><ele>571.0</ele><time>2026-05-01T09:41:08.526Z</time></trkpt><trkpt lat="41.9257425" lon="13.0095854"><ele>570.0</ele><time>2026-05-01T09:41:09.518Z</time></trkpt><trkpt lat="41.9257634" lon="13.0094005"><ele>569.0</ele><time>2026-05-01T09:41:10.508Z</time></trkpt><trkpt lat="41.9257868" lon="13.0092174"><ele>567.5</ele><time>2026-05-01T09:41:11.505Z</time></trkpt><trkpt lat="41.9258123" lon="13.0090409"><ele>566.0</ele><time>2026-05-01T09:41:12.503Z</time></trkpt><trkpt lat="41.9258438" lon="13.0088706"><ele>564.5</ele><time>2026-05-01T09:41:13.516Z</time></trkpt><trkpt lat="41.9258766" lon="13.0087172"><ele>563.0</ele><time>2026-05-01T09:41:14.513Z</time></trkpt><trkpt lat="41.9259034" lon="13.0085809"><ele>563.8333333333333</ele><time>2026-05-01T09:41:15.524Z</time></trkpt><trkpt lat="41.925924" lon="13.0084539"><ele>564.6666666666666</ele><time>2026-05-01T09:41:16.536Z</time></trkpt><trkpt lat="41.9259201" lon="13.0083372"><ele>565.5</ele><time>2026-05-01T09:41:17.538Z</time></trkpt><trkpt lat="41.9258879" lon="13.0082358"><ele>566.3333333333334</ele><time>2026-05-01T09:41:18.526Z</time></trkpt><trkpt lat="41.9258345" lon="13.0081535"><ele>567.1666666666667</ele><time>2026-05-01T09:41:19.512Z</time></trkpt><trkpt lat="41.925777" lon="13.0081117"><ele>568.0</ele><time>2026-05-01T09:41:20.505Z</time></trkpt><trkpt lat="41.9257113" lon="13.0081175"><ele>568.0</ele><time>2026-05-01T09:41:21.515Z</time></trkpt><trkpt lat="41.9256397" lon="13.008144"><ele>568.0</ele><time>2026-05-01T09:41:22.515Z</time></trkpt><trkpt lat="41.9255642" lon="13.0081955"><ele>568.0</ele><time>2026-05-01T09:41:23.498Z</time></trkpt><trkpt lat="41.92549" lon="13.0082737"><ele>568.0</ele><time>2026-05-01T09:41:24.512Z</time></trkpt><trkpt lat="41.9254242" lon="13.0083771"><ele>568.0</ele><time>2026-05-01T09:41:25.505Z</time></trkpt><trkpt lat="41.9253593" lon="13.0085187"><ele>566.3333333333334</ele><time>2026-05-01T09:41:26.505Z</time></trkpt><trkpt lat="41.9252946" lon="13.0086884"><ele>564.6666666666666</ele><time>2026-05-01T09:41:27.51Z</time></trkpt><trkpt lat="41.9252218" lon="13.0088689"><ele>563.0</ele><time>2026-05-01T09:41:28.503Z</time></trkpt><trkpt lat="41.9251368" lon="13.0090575"><ele>557.0</ele><time>2026-05-01T09:41:29.528Z</time></trkpt><trkpt lat="41.9250528" lon="13.0092408"><ele>551.0</ele><time>2026-05-01T09:41:30.501Z</time></trkpt><trkpt lat="41.9249694" lon="13.009428"><ele>545.0</ele><time>2026-05-01T09:41:31.519Z</time></trkpt><trkpt lat="41.9248841" lon="13.0096131"><ele>545.0</ele><time>2026-05-01T09:41:32.509Z</time></trkpt><trkpt lat="41.9247988" lon="13.0097955"><ele>545.0</ele><time>2026-05-01T09:41:33.517Z</time></trkpt><trkpt lat="41.9247144" lon="13.009978"><ele>545.0</ele><time>2026-05-01T09:41:34.51Z</time></trkpt><trkpt lat="41.9246326" lon="13.0101594"><ele>547.0</ele><time>2026-05-01T09:41:35.517Z</time></trkpt><trkpt lat="41.9245545" lon="13.010342"><ele>549.0</ele><time>2026-05-01T09:41:36.515Z</time></trkpt><trkpt lat="41.924477" lon="13.0105223"><ele>551.0</ele><time>2026-05-01T09:41:37.514Z</time></trkpt><trkpt lat="41.9243942" lon="13.010701"><ele>552.0</ele><time>2026-05-01T09:41:38.504Z</time></trkpt><trkpt lat="41.9243092" lon="13.0108773"><ele>553.0</ele><time>2026-05-01T09:41:39.513Z</time></trkpt><trkpt lat="41.9242279" lon="13.0110396"><ele>554.0</ele><time>2026-05-01T09:41:40.512Z</time></trkpt><trkpt lat="41.9241407" lon="13.0111803"><ele>555.0</ele><time>2026-05-01T09:41:41.529Z</time></trkpt><trkpt lat="41.9240408" lon="13.0112924"><ele>549.5</ele><time>2026-05-01T09:41:42.492Z</time></trkpt><trkpt lat="41.9239241" lon="13.011395"><ele>544.0</ele><time>2026-05-01T09:41:43.525Z</time></trkpt><trkpt lat="41.923806" lon="13.0114828"><ele>538.5</ele><time>2026-05-01T09:41:44.555Z</time></trkpt><trkpt lat="41.9236879" lon="13.011563"><ele>533.0</ele><time>2026-05-01T09:41:45.556Z</time></trkpt><trkpt lat="41.9235754" lon="13.0116309"><ele>533.8</ele><time>2026-05-01T09:41:46.55Z</time></trkpt><trkpt lat="41.9234782" lon="13.0116843"><ele>534.5999999999999</ele><time>2026-05-01T09:41:47.55Z</time></trkpt><trkpt lat="41.9233952" lon="13.011723"><ele>535.4000000000001</ele><time>2026-05-01T09:41:48.51Z</time></trkpt><trkpt lat="41.9233225" lon="13.0117509"><ele>536.2</ele><time>2026-05-01T09:41:49.537Z</time></trkpt><trkpt lat="41.9231995" lon="13.011685"><ele>537.0</ele><time>2026-05-01T09:41:51.521Z</time></trkpt><trkpt lat="41.9231332" lon="13.0115956"><ele>533.25</ele><time>2026-05-01T09:41:52.525Z</time></trkpt><trkpt lat="41.9230898" lon="13.0114689"><ele>529.5</ele><time>2026-05-01T09:41:53.483Z</time></trkpt><trkpt lat="41.9230812" lon="13.011311"><ele>525.75</ele><time>2026-05-01T09:41:54.509Z</time></trkpt><trkpt lat="41.9231099" lon="13.0111462"><ele>522.0</ele><time>2026-05-01T09:41:55.505Z</time></trkpt><trkpt lat="41.923155" lon="13.010994"><ele>522.0</ele><time>2026-05-01T09:41:56.493Z</time></trkpt><trkpt lat="41.9232147" lon="13.0108632"><ele>522.0</ele><time>2026-05-01T09:41:57.517Z</time></trkpt><trkpt lat="41.9232763" lon="13.010761"><ele>522.0</ele><time>2026-05-01T09:41:58.528Z</time></trkpt><trkpt lat="41.9233664" lon="13.010693"><ele>522.0</ele><time>2026-05-01T09:41:59.52Z</time></trkpt><trkpt lat="41.9234515" lon="13.0106907"><ele>522.0</ele><time>2026-05-01T09:42:00.525Z</time></trkpt><trkpt lat="41.9235439" lon="13.0106978"><ele>523.2</ele><time>2026-05-01T09:42:01.506Z</time></trkpt><trkpt lat="41.9236406" lon="13.0106765"><ele>524.4000000000001</ele><time>2026-05-01T09:42:02.493Z</time></trkpt><trkpt lat="41.9237241" lon="13.010612"><ele>525.5999999999999</ele><time>2026-05-01T09:42:03.509Z</time></trkpt><trkpt lat="41.9237939" lon="13.010501"><ele>526.8</ele><time>2026-05-01T09:42:04.515Z</time></trkpt><trkpt lat="41.9238408" lon="13.010366"><ele>528.0</ele><time>2026-05-01T09:42:05.495Z</time></trkpt><trkpt lat="41.9238647" lon="13.0102209"><ele>528.0</ele><time>2026-05-01T09:42:06.493Z</time></trkpt><trkpt lat="41.9238704" lon="13.0100749"><ele>528.0</ele><time>2026-05-01T09:42:07.487Z</time></trkpt><trkpt lat="41.923863" lon="13.0099233"><ele>528.0</ele><time>2026-05-01T09:42:08.503Z</time></trkpt><trkpt lat="41.923836" lon="13.0097782"><ele>528.0</ele><time>2026-05-01T09:42:09.514Z</time></trkpt><trkpt lat="41.9237861" lon="13.0096356"><ele>528.0</ele><time>2026-05-01T09:42:10.516Z</time></trkpt><trkpt lat="41.9237246" lon="13.0094921"><ele>528.0</ele><time>2026-05-01T09:42:11.513Z</time></trkpt><trkpt lat="41.9236667" lon="13.0093563"><ele>528.0</ele><time>2026-05-01T09:42:12.502Z</time></trkpt><trkpt lat="41.923611" lon="13.0092179"><ele>528.0</ele><time>2026-05-01T09:42:13.521Z</time></trkpt><trkpt lat="41.9235594" lon="13.0090865"><ele>528.0</ele><time>2026-05-01T09:42:14.506Z</time></trkpt><trkpt lat="41.9235092" lon="13.008965"><ele>528.0</ele><time>2026-05-01T09:42:15.504Z</time></trkpt><trkpt lat="41.9234536" lon="13.0088579"><ele>528.0</ele><time>2026-05-01T09:42:16.498Z</time></trkpt><trkpt lat="41.9233875" lon="13.0087692"><ele>528.0</ele><time>2026-05-01T09:42:17.51Z</time></trkpt><trkpt lat="41.9233076" lon="13.0086981"><ele>528.0</ele><time>2026-05-01T09:42:18.509Z</time></trkpt><trkpt lat="41.9232079" lon="13.008665"><ele>528.0</ele><time>2026-05-01T09:42:19.509Z</time></trkpt><trkpt lat="41.9230896" lon="13.0086732"><ele>528.0</ele><time>2026-05-01T09:42:20.514Z</time></trkpt><trkpt lat="41.92297" lon="13.0087193"><ele>528.0</ele><time>2026-05-01T09:42:21.502Z</time></trkpt><trkpt lat="41.9228464" lon="13.0087826"><ele>528.0</ele><time>2026-05-01T09:42:22.508Z</time></trkpt><trkpt lat="41.9227281" lon="13.0088673"><ele>528.0</ele><time>2026-05-01T09:42:23.509Z</time></trkpt><trkpt lat="41.9226337" lon="13.0089818"><ele>528.0</ele><time>2026-05-01T09:42:24.513Z</time></trkpt><trkpt lat="41.9225398" lon="13.0091156"><ele>528.0</ele><time>2026-05-01T09:42:25.511Z</time></trkpt><trkpt lat="41.9224389" lon="13.0092439"><ele>528.0</ele><time>2026-05-01T09:42:26.511Z</time></trkpt><trkpt lat="41.9223225" lon="13.0093631"><ele>523.3333333333334</ele><time>2026-05-01T09:42:27.499Z</time></trkpt><trkpt lat="41.9221965" lon="13.0094719"><ele>518.6666666666667</ele><time>2026-05-01T09:42:28.507Z</time></trkpt><trkpt lat="41.9220704" lon="13.0095838"><ele>514.0</ele><time>2026-05-01T09:42:29.516Z</time></trkpt><trkpt lat="41.9219453" lon="13.0097038"><ele>514.0</ele><time>2026-05-01T09:42:30.521Z</time></trkpt><trkpt lat="41.9218261" lon="13.009821"><ele>514.0</ele><time>2026-05-01T09:42:31.532Z</time></trkpt><trkpt lat="41.9217104" lon="13.0099441"><ele>514.0</ele><time>2026-05-01T09:42:32.513Z</time></trkpt><trkpt lat="41.9215998" lon="13.0100764"><ele>514.0</ele><time>2026-05-01T09:42:33.512Z</time></trkpt><trkpt lat="41.9214889" lon="13.0102047"><ele>511.0</ele><time>2026-05-01T09:42:34.509Z</time></trkpt><trkpt lat="41.9213804" lon="13.010326"><ele>508.0</ele><time>2026-05-01T09:42:35.517Z</time></trkpt><trkpt lat="41.9212671" lon="13.0104437"><ele>505.0</ele><time>2026-05-01T09:42:36.518Z</time></trkpt><trkpt lat="41.9211466" lon="13.0105507"><ele>502.0</ele><time>2026-05-01T09:42:37.538Z</time></trkpt><trkpt lat="41.9210246" lon="13.0106588"><ele>502.0</ele><time>2026-05-01T09:42:38.525Z</time></trkpt><trkpt lat="41.9209111" lon="13.0107613"><ele>502.0</ele><time>2026-05-01T09:42:39.539Z</time></trkpt><trkpt lat="41.9208103" lon="13.010851"><ele>502.0</ele><time>2026-05-01T09:42:40.521Z</time></trkpt><trkpt lat="41.9207236" lon="13.010925"><ele>502.0</ele><time>2026-05-01T09:42:41.533Z</time></trkpt><trkpt lat="41.9206396" lon="13.0109751"><ele>499.8</ele><time>2026-05-01T09:42:42.508Z</time></trkpt><trkpt lat="41.9205464" lon="13.0109696"><ele>497.6</ele><time>2026-05-01T09:42:43.547Z</time></trkpt><trkpt lat="41.9204561" lon="13.0109215"><ele>495.40000000000003</ele><time>2026-05-01T09:42:44.504Z</time></trkpt><trkpt lat="41.9203784" lon="13.0108457"><ele>493.20000000000005</ele><time>2026-05-01T09:42:45.514Z</time></trkpt><trkpt lat="41.9203238" lon="13.0107307"><ele>491.0</ele><time>2026-05-01T09:42:46.507Z</time></trkpt><trkpt lat="41.9203128" lon="13.0105869"><ele>491.0</ele><time>2026-05-01T09:42:47.507Z</time></trkpt><trkpt lat="41.9203304" lon="13.0104427"><ele>491.0</ele><time>2026-05-01T09:42:48.52Z</time></trkpt><trkpt lat="41.9203592" lon="13.0102956"><ele>491.0</ele><time>2026-05-01T09:42:49.514Z</time></trkpt><trkpt lat="41.920378" lon="13.0101542"><ele>491.0</ele><time>2026-05-01T09:42:50.499Z</time></trkpt><trkpt lat="41.9203907" lon="13.0100143"><ele>491.0</ele><time>2026-05-01T09:42:51.534Z</time></trkpt><trkpt lat="41.9203814" lon="13.0098713"><ele>491.0</ele><time>2026-05-01T09:42:52.485Z</time></trkpt><trkpt lat="41.9203557" lon="13.0097311"><ele>491.0</ele><time>2026-05-01T09:42:53.497Z</time></trkpt><trkpt lat="41.9203141" lon="13.0095983"><ele>491.0</ele><time>2026-05-01T09:42:54.506Z</time></trkpt><trkpt lat="41.9202683" lon="13.0094556"><ele>491.0</ele><time>2026-05-01T09:42:55.508Z</time></trkpt><trkpt lat="41.920219" lon="13.0093103"><ele>491.0</ele><time>2026-05-01T09:42:56.521Z</time></trkpt><trkpt lat="41.9201673" lon="13.0091627"><ele>491.8</ele><time>2026-05-01T09:42:57.515Z</time></trkpt><trkpt lat="41.9201162" lon="13.0090285"><ele>492.6</ele><time>2026-05-01T09:42:58.514Z</time></trkpt><trkpt lat="41.9200571" lon="13.0089022"><ele>493.4</ele><time>2026-05-01T09:42:59.513Z</time></trkpt><trkpt lat="41.9199908" lon="13.0087932"><ele>494.2</ele><time>2026-05-01T09:43:00.503Z</time></trkpt><trkpt lat="41.9199279" lon="13.0087141"><ele>495.0</ele><time>2026-05-01T09:43:01.518Z</time></trkpt><trkpt lat="41.9198655" lon="13.008656"><ele>490.8333333333333</ele><time>2026-05-01T09:43:02.515Z</time></trkpt><trkpt lat="41.9198058" lon="13.0086204"><ele>486.66666666666663</ele><time>2026-05-01T09:43:03.508Z</time></trkpt><trkpt lat="41.9197077" lon="13.0086834"><ele>482.5</ele><time>2026-05-01T09:43:05.488Z</time></trkpt><trkpt lat="41.9196894" lon="13.0087718"><ele>478.3333333333333</ele><time>2026-05-01T09:43:06.5Z</time></trkpt><trkpt lat="41.9196869" lon="13.0088878"><ele>474.16666666666663</ele><time>2026-05-01T09:43:07.506Z</time></trkpt><trkpt lat="41.919692" lon="13.0090342"><ele>470.0</ele><time>2026-05-01T09:43:08.504Z</time></trkpt><trkpt lat="41.9196963" lon="13.0092152"><ele>468.0</ele><time>2026-05-01T09:43:09.496Z</time></trkpt><trkpt lat="41.9196847" lon="13.0094361"><ele>466.0</ele><time>2026-05-01T09:43:10.509Z</time></trkpt><trkpt lat="41.9196668" lon="13.0096446"><ele>464.0</ele><time>2026-05-01T09:43:11.514Z</time></trkpt><trkpt lat="41.9196469" lon="13.0098408"><ele>463.25</ele><time>2026-05-01T09:43:12.507Z</time></trkpt><trkpt lat="41.9196153" lon="13.0100366"><ele>462.5</ele><time>2026-05-01T09:43:13.518Z</time></trkpt><trkpt lat="41.919578" lon="13.0102222"><ele>461.75</ele><time>2026-05-01T09:43:14.524Z</time></trkpt><trkpt lat="41.9195347" lon="13.010402"><ele>461.0</ele><time>2026-05-01T09:43:15.502Z</time></trkpt><trkpt lat="41.9194863" lon="13.0105795"><ele>461.0</ele><time>2026-05-01T09:43:16.522Z</time></trkpt><trkpt lat="41.9194274" lon="13.0107543"><ele>461.0</ele><time>2026-05-01T09:43:17.521Z</time></trkpt><trkpt lat="41.9193537" lon="13.0109271"><ele>461.0</ele><time>2026-05-01T09:43:18.525Z</time></trkpt><trkpt lat="41.9192827" lon="13.0110962"><ele>461.0</ele><time>2026-05-01T09:43:19.536Z</time></trkpt><trkpt lat="41.9192156" lon="13.011257"><ele>457.25</ele><time>2026-05-01T09:43:20.519Z</time></trkpt><trkpt lat="41.9191504" lon="13.0114177"><ele>453.5</ele><time>2026-05-01T09:43:21.528Z</time></trkpt><trkpt lat="41.9190836" lon="13.0115834"><ele>449.75</ele><time>2026-05-01T09:43:22.518Z</time></trkpt><trkpt lat="41.9190128" lon="13.0117615"><ele>446.0</ele><time>2026-05-01T09:43:23.538Z</time></trkpt><trkpt lat="41.9189428" lon="13.0119362"><ele>445.75</ele><time>2026-05-01T09:43:24.504Z</time></trkpt><trkpt lat="41.918873" lon="13.0121133"><ele>445.5</ele><time>2026-05-01T09:43:25.507Z</time></trkpt><trkpt lat="41.9188007" lon="13.0122826"><ele>445.25</ele><time>2026-05-01T09:43:26.528Z</time></trkpt><trkpt lat="41.9187421" lon="13.0124532"><ele>445.0</ele><time>2026-05-01T09:43:27.528Z</time></trkpt><trkpt lat="41.9186922" lon="13.0126117"><ele>444.5</ele><time>2026-05-01T09:43:28.5Z</time></trkpt><trkpt lat="41.9186651" lon="13.0127812"><ele>444.0</ele><time>2026-05-01T09:43:29.508Z</time></trkpt><trkpt lat="41.9186771" lon="13.0129711"><ele>443.5</ele><time>2026-05-01T09:43:30.524Z</time></trkpt><trkpt lat="41.9187108" lon="13.0131714"><ele>443.0</ele><time>2026-05-01T09:43:31.489Z</time></trkpt><trkpt lat="41.918743" lon="13.0133577"><ele>442.25</ele><time>2026-05-01T09:43:32.506Z</time></trkpt><trkpt lat="41.9187718" lon="13.0135432"><ele>441.5</ele><time>2026-05-01T09:43:33.502Z</time></trkpt><trkpt lat="41.9187909" lon="13.0137055"><ele>440.75</ele><time>2026-05-01T09:43:34.509Z</time></trkpt><trkpt lat="41.918798" lon="13.0138555"><ele>440.0</ele><time>2026-05-01T09:43:35.509Z</time></trkpt><trkpt lat="41.9187842" lon="13.0139964"><ele>440.0</ele><time>2026-05-01T09:43:36.524Z</time></trkpt><trkpt lat="41.9187383" lon="13.0141221"><ele>440.0</ele><time>2026-05-01T09:43:37.514Z</time></trkpt><trkpt lat="41.9186708" lon="13.0142447"><ele>440.0</ele><time>2026-05-01T09:43:38.496Z</time></trkpt><trkpt lat="41.9185821" lon="13.0143717"><ele>440.0</ele><time>2026-05-01T09:43:39.5Z</time></trkpt><trkpt lat="41.9184787" lon="13.0145003"><ele>436.0</ele><time>2026-05-01T09:43:40.494Z</time></trkpt><trkpt lat="41.9183743" lon="13.0146264"><ele>432.0</ele><time>2026-05-01T09:43:41.508Z</time></trkpt><trkpt lat="41.9182905" lon="13.014746"><ele>428.0</ele><time>2026-05-01T09:43:42.514Z</time></trkpt><trkpt lat="41.9182357" lon="13.014865"><ele>424.0</ele><time>2026-05-01T09:43:43.513Z</time></trkpt><trkpt lat="41.9182117" lon="13.0149877"><ele>424.00000000000006</ele><time>2026-05-01T09:43:44.508Z</time></trkpt><trkpt lat="41.9182126" lon="13.0151112"><ele>424.0</ele><time>2026-05-01T09:43:45.514Z</time></trkpt><trkpt lat="41.9182369" lon="13.0152292"><ele>424.0</ele><time>2026-05-01T09:43:46.496Z</time></trkpt><trkpt lat="41.9182763" lon="13.0153423"><ele>424.0</ele><time>2026-05-01T09:43:47.499Z</time></trkpt><trkpt lat="41.9183051" lon="13.01544"><ele>424.00000000000006</ele><time>2026-05-01T09:43:48.514Z</time></trkpt><trkpt lat="41.9182949" lon="13.0155309"><ele>424.0</ele><time>2026-05-01T09:43:49.527Z</time></trkpt><trkpt lat="41.9182524" lon="13.0156132"><ele>424.00000000000006</ele><time>2026-05-01T09:43:50.503Z</time></trkpt><trkpt lat="41.9181917" lon="13.0156833"><ele>424.0</ele><time>2026-05-01T09:43:51.495Z</time></trkpt><trkpt lat="41.9181173" lon="13.0157269"><ele>424.0</ele><time>2026-05-01T09:43:52.501Z</time></trkpt><trkpt lat="41.9180325" lon="13.0157316"><ele>424.0</ele><time>2026-05-01T09:43:53.504Z</time></trkpt><trkpt lat="41.9179468" lon="13.01571"><ele>424.00000000000006</ele><time>2026-05-01T09:43:54.51Z</time></trkpt><trkpt lat="41.91787" lon="13.0156536"><ele>424.0</ele><time>2026-05-01T09:43:55.501Z</time></trkpt><trkpt lat="41.9177986" lon="13.0155672"><ele>424.0</ele><time>2026-05-01T09:43:56.504Z</time></trkpt><trkpt lat="41.9177249" lon="13.0154666"><ele>424.0</ele><time>2026-05-01T09:43:57.497Z</time></trkpt><trkpt lat="41.9176599" lon="13.0153515"><ele>424.0</ele><time>2026-05-01T09:43:58.512Z</time></trkpt><trkpt lat="41.9176042" lon="13.0152186"><ele>424.0</ele><time>2026-05-01T09:43:59.51Z</time></trkpt><trkpt lat="41.9175537" lon="13.0150856"><ele>424.0</ele><time>2026-05-01T09:44:00.506Z</time></trkpt><trkpt lat="41.9175166" lon="13.0149606"><ele>426.79999999999995</ele><time>2026-05-01T09:44:01.511Z</time></trkpt><trkpt lat="41.9174917" lon="13.0148518"><ele>429.59999999999997</ele><time>2026-05-01T09:44:02.51Z</time></trkpt><trkpt lat="41.9174565" lon="13.0147659"><ele>432.4</ele><time>2026-05-01T09:44:03.512Z</time></trkpt><trkpt lat="41.9173674" lon="13.0147026"><ele>435.2</ele><time>2026-05-01T09:44:04.515Z</time></trkpt><trkpt lat="41.917253" lon="13.0146458"><ele>438.0</ele><time>2026-05-01T09:44:05.513Z</time></trkpt><trkpt lat="41.9171366" lon="13.0146032"><ele>438.0</ele><time>2026-05-01T09:44:06.502Z</time></trkpt><trkpt lat="41.9170476" lon="13.0145887"><ele>438.0</ele><time>2026-05-01T09:44:07.521Z</time></trkpt><trkpt lat="41.9169798" lon="13.0146138"><ele>438.0</ele><time>2026-05-01T09:44:08.503Z</time></trkpt><trkpt lat="41.9169315" lon="13.0146896"><ele>438.0</ele><time>2026-05-01T09:44:09.51Z</time></trkpt><trkpt lat="41.9169062" lon="13.014791"><ele>438.0</ele><time>2026-05-01T09:44:10.501Z</time></trkpt><trkpt lat="41.9169094" lon="13.0149017"><ele>438.0</ele><time>2026-05-01T09:44:11.501Z</time></trkpt><trkpt lat="41.9169413" lon="13.0150286"><ele>438.0</ele><time>2026-05-01T09:44:12.512Z</time></trkpt><trkpt lat="41.9170044" lon="13.0151711"><ele>438.0</ele><time>2026-05-01T09:44:13.523Z</time></trkpt><trkpt lat="41.9170892" lon="13.0153335"><ele>438.0</ele><time>2026-05-01T09:44:14.503Z</time></trkpt><trkpt lat="41.9171754" lon="13.0154884"><ele>438.0</ele><time>2026-05-01T09:44:15.506Z</time></trkpt><trkpt lat="41.9172516" lon="13.0156248"><ele>438.0</ele><time>2026-05-01T09:44:16.528Z</time></trkpt><trkpt lat="41.9173169" lon="13.0157432"><ele>437.99999999999994</ele><time>2026-05-01T09:44:17.509Z</time></trkpt><trkpt lat="41.9173658" lon="13.0158554"><ele>437.99999999999994</ele><time>2026-05-01T09:44:18.505Z</time></trkpt><trkpt lat="41.9174008" lon="13.0159621"><ele>438.0</ele><time>2026-05-01T09:44:19.499Z</time></trkpt><trkpt lat="41.9174169" lon="13.016066"><ele>438.0</ele><time>2026-05-01T09:44:20.524Z</time></trkpt><trkpt lat="41.9173848" lon="13.0161644"><ele>438.8333333333333</ele><time>2026-05-01T09:44:21.517Z</time></trkpt><trkpt lat="41.9173268" lon="13.0162447"><ele>439.66666666666663</ele><time>2026-05-01T09:44:22.517Z</time></trkpt><trkpt lat="41.9172585" lon="13.016274"><ele>440.5</ele><time>2026-05-01T09:44:23.5Z</time></trkpt><trkpt lat="41.9171789" lon="13.0162643"><ele>441.3333333333333</ele><time>2026-05-01T09:44:24.504Z</time></trkpt><trkpt lat="41.9171075" lon="13.016204"><ele>442.16666666666663</ele><time>2026-05-01T09:44:25.507Z</time></trkpt><trkpt lat="41.9170222" lon="13.0161028"><ele>443.0</ele><time>2026-05-01T09:44:26.511Z</time></trkpt><trkpt lat="41.9169229" lon="13.0159775"><ele>443.0</ele><time>2026-05-01T09:44:27.54Z</time></trkpt><trkpt lat="41.9168112" lon="13.0158369"><ele>443.0</ele><time>2026-05-01T09:44:28.499Z</time></trkpt><trkpt lat="41.9166995" lon="13.015692"><ele>443.0</ele><time>2026-05-01T09:44:29.519Z</time></trkpt><trkpt lat="41.9166074" lon="13.0155589"><ele>443.0</ele><time>2026-05-01T09:44:30.508Z</time></trkpt><trkpt lat="41.9165256" lon="13.015451"><ele>445.0</ele><time>2026-05-01T09:44:31.515Z</time></trkpt><trkpt lat="41.9164468" lon="13.0153612"><ele>446.99999999999994</ele><time>2026-05-01T09:44:32.523Z</time></trkpt><trkpt lat="41.9163694" lon="13.0152991"><ele>448.99999999999994</ele><time>2026-05-01T09:44:33.515Z</time></trkpt><trkpt lat="41.9162843" lon="13.0152756"><ele>451.0</ele><time>2026-05-01T09:44:34.512Z</time></trkpt><trkpt lat="41.9161787" lon="13.0152984"><ele>453.0</ele><time>2026-05-01T09:44:35.499Z</time></trkpt><trkpt lat="41.9160608" lon="13.0153456"><ele>453.0</ele><time>2026-05-01T09:44:36.511Z</time></trkpt><trkpt lat="41.915934" lon="13.0154089"><ele>453.0</ele><time>2026-05-01T09:44:37.502Z</time></trkpt><trkpt lat="41.9158003" lon="13.0154911"><ele>453.0</ele><time>2026-05-01T09:44:38.509Z</time></trkpt><trkpt lat="41.9156666" lon="13.0155873"><ele>453.0</ele><time>2026-05-01T09:44:39.506Z</time></trkpt><trkpt lat="41.9155381" lon="13.0156927"><ele>453.5</ele><time>2026-05-01T09:44:40.528Z</time></trkpt><trkpt lat="41.9154095" lon="13.0158024"><ele>454.0</ele><time>2026-05-01T09:44:41.526Z</time></trkpt><trkpt lat="41.915285" lon="13.0159139"><ele>454.5</ele><time>2026-05-01T09:44:42.535Z</time></trkpt><trkpt lat="41.9151652" lon="13.0160237"><ele>455.0</ele><time>2026-05-01T09:44:43.533Z</time></trkpt><trkpt lat="41.915048" lon="13.0161338"><ele>459.5</ele><time>2026-05-01T09:44:44.52Z</time></trkpt><trkpt lat="41.9149501" lon="13.0162438"><ele>464.0</ele><time>2026-05-01T09:44:45.52Z</time></trkpt><trkpt lat="41.9148792" lon="13.0163816"><ele>468.5</ele><time>2026-05-01T09:44:46.506Z</time></trkpt><trkpt lat="41.9148118" lon="13.0165621"><ele>473.0</ele><time>2026-05-01T09:44:47.521Z</time></trkpt><trkpt lat="41.9147512" lon="13.0167784"><ele>475.25</ele><time>2026-05-01T09:44:48.506Z</time></trkpt><trkpt lat="41.9146991" lon="13.0169774"><ele>477.5</ele><time>2026-05-01T09:44:49.51Z</time></trkpt><trkpt lat="41.9146561" lon="13.017165"><ele>479.75</ele><time>2026-05-01T09:44:50.509Z</time></trkpt><trkpt lat="41.914624" lon="13.0173377"><ele>482.0</ele><time>2026-05-01T09:44:51.531Z</time></trkpt><trkpt lat="41.9145906" lon="13.017502"><ele>485.25</ele><time>2026-05-01T09:44:52.529Z</time></trkpt><trkpt lat="41.9145428" lon="13.0176596"><ele>488.5</ele><time>2026-05-01T09:44:53.539Z</time></trkpt><trkpt lat="41.9144815" lon="13.0178104"><ele>491.75</ele><time>2026-05-01T09:44:54.511Z</time></trkpt><trkpt lat="41.9143954" lon="13.0179325"><ele>495.0</ele><time>2026-05-01T09:44:55.531Z</time></trkpt><trkpt lat="41.9143046" lon="13.0180305"><ele>495.2</ele><time>2026-05-01T09:44:56.498Z</time></trkpt><trkpt lat="41.9142025" lon="13.01809"><ele>495.4</ele><time>2026-05-01T09:44:57.518Z</time></trkpt><trkpt lat="41.9141021" lon="13.0181431"><ele>495.6</ele><time>2026-05-01T09:44:58.508Z</time></trkpt><trkpt lat="41.9140205" lon="13.0181974"><ele>495.8</ele><time>2026-05-01T09:44:59.512Z</time></trkpt><trkpt lat="41.9139714" lon="13.0182707"><ele>496.0</ele><time>2026-05-01T09:45:00.523Z</time></trkpt><trkpt lat="41.9139432" lon="13.0183681"><ele>496.00000000000006</ele><time>2026-05-01T09:45:01.522Z</time></trkpt><trkpt lat="41.9139504" lon="13.0184813"><ele>496.0</ele><time>2026-05-01T09:45:02.504Z</time></trkpt><trkpt lat="41.9139956" lon="13.0185719"><ele>496.0</ele><time>2026-05-01T09:45:03.526Z</time></trkpt><trkpt lat="41.9140632" lon="13.0186164"><ele>496.0</ele><time>2026-05-01T09:45:04.514Z</time></trkpt><trkpt lat="41.9141422" lon="13.0186175"><ele>496.00000000000006</ele><time>2026-05-01T09:45:05.49Z</time></trkpt><trkpt lat="41.9142258" lon="13.0185748"><ele>496.0</ele><time>2026-05-01T09:45:06.499Z</time></trkpt><trkpt lat="41.9143065" lon="13.0185029"><ele>495.8</ele><time>2026-05-01T09:45:07.511Z</time></trkpt><trkpt lat="41.9143864" lon="13.0184174"><ele>495.6</ele><time>2026-05-01T09:45:08.515Z</time></trkpt><trkpt lat="41.9144524" lon="13.0183139"><ele>495.4</ele><time>2026-05-01T09:45:09.539Z</time></trkpt><trkpt lat="41.9145202" lon="13.0181997"><ele>495.2</ele><time>2026-05-01T09:45:10.558Z</time></trkpt><trkpt lat="41.9145968" lon="13.018076"><ele>495.0</ele><time>2026-05-01T09:45:11.557Z</time></trkpt><trkpt lat="41.9146845" lon="13.0179339"><ele>495.0</ele><time>2026-05-01T09:45:12.553Z</time></trkpt><trkpt lat="41.914779" lon="13.0177815"><ele>495.0</ele><time>2026-05-01T09:45:13.594Z</time></trkpt><trkpt lat="41.9148702" lon="13.0176349"><ele>495.0</ele><time>2026-05-01T09:45:14.532Z</time></trkpt><trkpt lat="41.9149467" lon="13.0174918"><ele>495.0</ele><time>2026-05-01T09:45:15.546Z</time></trkpt><trkpt lat="41.9150139" lon="13.0173514"><ele>494.2</ele><time>2026-05-01T09:45:16.546Z</time></trkpt><trkpt lat="41.9150757" lon="13.0172197"><ele>493.4</ele><time>2026-05-01T09:45:17.547Z</time></trkpt><trkpt lat="41.9151389" lon="13.017104"><ele>492.6</ele><time>2026-05-01T09:45:18.536Z</time></trkpt><trkpt lat="41.9152033" lon="13.0169979"><ele>491.8</ele><time>2026-05-01T09:45:19.584Z</time></trkpt><trkpt lat="41.9152772" lon="13.0169025"><ele>491.0</ele><time>2026-05-01T09:45:20.543Z</time></trkpt><trkpt lat="41.9153532" lon="13.0168302"><ele>491.0</ele><time>2026-05-01T09:45:21.538Z</time></trkpt><trkpt lat="41.9154489" lon="13.0168022"><ele>491.0</ele><time>2026-05-01T09:45:22.536Z</time></trkpt><trkpt lat="41.9155601" lon="13.0168166"><ele>491.0</ele><time>2026-05-01T09:45:23.506Z</time></trkpt><trkpt lat="41.9156743" lon="13.0168629"><ele>491.0</ele><time>2026-05-01T09:45:24.514Z</time></trkpt><trkpt lat="41.9157786" lon="13.0169343"><ele>491.0</ele><time>2026-05-01T09:45:25.505Z</time></trkpt><trkpt lat="41.9158684" lon="13.0170429"><ele>491.0</ele><time>2026-05-01T09:45:26.504Z</time></trkpt><trkpt lat="41.9159151" lon="13.0171814"><ele>491.0</ele><time>2026-05-01T09:45:27.521Z</time></trkpt><trkpt lat="41.915925" lon="13.0173322"><ele>491.0</ele><time>2026-05-01T09:45:28.499Z</time></trkpt><trkpt lat="41.9158991" lon="13.0174805"><ele>491.0</ele><time>2026-05-01T09:45:29.51Z</time></trkpt><trkpt lat="41.9158495" lon="13.0176072"><ele>491.0</ele><time>2026-05-01T09:45:30.51Z</time></trkpt><trkpt lat="41.9157707" lon="13.0177249"><ele>493.75</ele><time>2026-05-01T09:45:31.495Z</time></trkpt><trkpt lat="41.9156797" lon="13.0178265"><ele>496.5</ele><time>2026-05-01T09:45:32.519Z</time></trkpt><trkpt lat="41.9155757" lon="13.0179411"><ele>499.25</ele><time>2026-05-01T09:45:33.499Z</time></trkpt><trkpt lat="41.9154587" lon="13.0180782"><ele>502.0</ele><time>2026-05-01T09:45:34.514Z</time></trkpt><trkpt lat="41.9153437" lon="13.0182267"><ele>503.33333333333337</ele><time>2026-05-01T09:45:35.509Z</time></trkpt><trkpt lat="41.9152404" lon="13.0183975"><ele>504.66666666666663</ele><time>2026-05-01T09:45:36.497Z</time></trkpt><trkpt lat="41.9151371" lon="13.0185942"><ele>506.0</ele><time>2026-05-01T09:45:37.498Z</time></trkpt><trkpt lat="41.9150418" lon="13.0188058"><ele>506.0</ele><time>2026-05-01T09:45:38.504Z</time></trkpt><trkpt lat="41.9149498" lon="13.0189971"><ele>506.0</ele><time>2026-05-01T09:45:39.529Z</time></trkpt><trkpt lat="41.9148688" lon="13.0191572"><ele>506.0</ele><time>2026-05-01T09:45:40.51Z</time></trkpt><trkpt lat="41.9147962" lon="13.0193021"><ele>506.0</ele><time>2026-05-01T09:45:41.512Z</time></trkpt><trkpt lat="41.9147353" lon="13.0194374"><ele>508.16666666666663</ele><time>2026-05-01T09:45:42.514Z</time></trkpt><trkpt lat="41.914682" lon="13.0195637"><ele>510.3333333333333</ele><time>2026-05-01T09:45:43.507Z</time></trkpt><trkpt lat="41.9146278" lon="13.0196757"><ele>512.5</ele><time>2026-05-01T09:45:44.5Z</time></trkpt><trkpt lat="41.9145818" lon="13.0197835"><ele>514.6666666666666</ele><time>2026-05-01T09:45:45.522Z</time></trkpt><trkpt lat="41.9145559" lon="13.0198762"><ele>516.8333333333334</ele><time>2026-05-01T09:45:46.512Z</time></trkpt><trkpt lat="41.9145407" lon="13.0199715"><ele>519.0</ele><time>2026-05-01T09:45:47.515Z</time></trkpt><trkpt lat="41.9145435" lon="13.0200684"><ele>522.0</ele><time>2026-05-01T09:45:48.522Z</time></trkpt><trkpt lat="41.9145564" lon="13.0201893"><ele>525.0</ele><time>2026-05-01T09:45:49.548Z</time></trkpt><trkpt lat="41.9145735" lon="13.0203398"><ele>528.0</ele><time>2026-05-01T09:45:50.525Z</time></trkpt><trkpt lat="41.9145953" lon="13.0205107"><ele>531.0</ele><time>2026-05-01T09:45:51.535Z</time></trkpt><trkpt lat="41.9146166" lon="13.0206864"><ele>532.8</ele><time>2026-05-01T09:45:52.531Z</time></trkpt><trkpt lat="41.9146351" lon="13.0208464"><ele>534.6</ele><time>2026-05-01T09:45:53.535Z</time></trkpt><trkpt lat="41.914654" lon="13.0209833"><ele>536.4</ele><time>2026-05-01T09:45:54.532Z</time></trkpt><trkpt lat="41.9146849" lon="13.0210816"><ele>538.2</ele><time>2026-05-01T09:45:55.528Z</time></trkpt><trkpt lat="41.9147258" lon="13.0211541"><ele>540.0</ele><time>2026-05-01T09:45:56.516Z</time></trkpt><trkpt lat="41.9148398" lon="13.0211985"><ele>540.0</ele><time>2026-05-01T09:45:58.504Z</time></trkpt><trkpt lat="41.9149117" lon="13.0211592"><ele>540.0</ele><time>2026-05-01T09:45:59.499Z</time></trkpt><trkpt lat="41.9149814" lon="13.0210801"><ele>540.0</ele><time>2026-05-01T09:46:00.509Z</time></trkpt><trkpt lat="41.9150603" lon="13.0209635"><ele>540.0</ele><time>2026-05-01T09:46:01.502Z</time></trkpt><trkpt lat="41.9151634" lon="13.0208158"><ele>540.0</ele><time>2026-05-01T09:46:02.499Z</time></trkpt><trkpt lat="41.9152833" lon="13.0206632"><ele>540.0</ele><time>2026-05-01T09:46:03.528Z</time></trkpt><trkpt lat="41.9154085" lon="13.0205265"><ele>540.0</ele><time>2026-05-01T09:46:04.502Z</time></trkpt><trkpt lat="41.9155264" lon="13.0204013"><ele>540.0</ele><time>2026-05-01T09:46:05.546Z</time></trkpt><trkpt lat="41.9156387" lon="13.0202802"><ele>540.0</ele><time>2026-05-01T09:46:06.502Z</time></trkpt><trkpt lat="41.9157424" lon="13.0201691"><ele>540.0</ele><time>2026-05-01T09:46:07.515Z</time></trkpt><trkpt lat="41.9158453" lon="13.0200764"><ele>540.0</ele><time>2026-05-01T09:46:08.489Z</time></trkpt><trkpt lat="41.9159374" lon="13.0200232"><ele>540.0</ele><time>2026-05-01T09:46:09.516Z</time></trkpt><trkpt lat="41.916027" lon="13.0200404"><ele>540.0</ele><time>2026-05-01T09:46:10.503Z</time></trkpt><trkpt lat="41.9161123" lon="13.0200781"><ele>536.25</ele><time>2026-05-01T09:46:11.522Z</time></trkpt><trkpt lat="41.9161873" lon="13.0201377"><ele>532.5</ele><time>2026-05-01T09:46:12.508Z</time></trkpt><trkpt lat="41.9162497" lon="13.0202409"><ele>528.75</ele><time>2026-05-01T09:46:13.546Z</time></trkpt><trkpt lat="41.9162565" lon="13.020412"><ele>525.0</ele><time>2026-05-01T09:46:14.51Z</time></trkpt><trkpt lat="41.9162552" lon="13.0205964"><ele>525.0</ele><time>2026-05-01T09:46:15.525Z</time></trkpt><trkpt lat="41.9162642" lon="13.0207804"><ele>525.0</ele><time>2026-05-01T09:46:16.503Z</time></trkpt><trkpt lat="41.9162823" lon="13.0209545"><ele>525.0</ele><time>2026-05-01T09:46:17.54Z</time></trkpt><trkpt lat="41.9163308" lon="13.0211178"><ele>525.0</ele><time>2026-05-01T09:46:18.542Z</time></trkpt><trkpt lat="41.9164067" lon="13.0212634"><ele>528.5</ele><time>2026-05-01T09:46:19.511Z</time></trkpt><trkpt lat="41.9164918" lon="13.0213867"><ele>532.0</ele><time>2026-05-01T09:46:20.511Z</time></trkpt><trkpt lat="41.9165797" lon="13.0214986"><ele>535.5</ele><time>2026-05-01T09:46:21.528Z</time></trkpt><trkpt lat="41.9166657" lon="13.0215899"><ele>539.0</ele><time>2026-05-01T09:46:22.512Z</time></trkpt><trkpt lat="41.9167501" lon="13.0216485"><ele>540.6</ele><time>2026-05-01T09:46:23.548Z</time></trkpt><trkpt lat="41.9168359" lon="13.0216768"><ele>542.2</ele><time>2026-05-01T09:46:24.518Z</time></trkpt><trkpt lat="41.9169357" lon="13.0216676"><ele>543.8000000000001</ele><time>2026-05-01T09:46:25.507Z</time></trkpt><trkpt lat="41.9170312" lon="13.021631"><ele>545.4</ele><time>2026-05-01T09:46:26.502Z</time></trkpt><trkpt lat="41.9171264" lon="13.0215771"><ele>547.0</ele><time>2026-05-01T09:46:27.531Z</time></trkpt><trkpt lat="41.9172133" lon="13.0215113"><ele>547.0</ele><time>2026-05-01T09:46:28.51Z</time></trkpt><trkpt lat="41.9172965" lon="13.0214358"><ele>547.0</ele><time>2026-05-01T09:46:29.536Z</time></trkpt><trkpt lat="41.9173801" lon="13.0213639"><ele>547.0</ele><time>2026-05-01T09:46:30.52Z</time></trkpt><trkpt lat="41.9174613" lon="13.0213038"><ele>547.0</ele><time>2026-05-01T09:46:31.544Z</time></trkpt><trkpt lat="41.9175353" lon="13.0212731"><ele>547.0</ele><time>2026-05-01T09:46:32.552Z</time></trkpt><trkpt lat="41.917611" lon="13.0212722"><ele>547.0</ele><time>2026-05-01T09:46:33.532Z</time></trkpt><trkpt lat="41.9176867" lon="13.0213245"><ele>547.8333333333334</ele><time>2026-05-01T09:46:34.501Z</time></trkpt><trkpt lat="41.9177294" lon="13.0214158"><ele>548.6666666666667</ele><time>2026-05-01T09:46:35.501Z</time></trkpt><trkpt lat="41.9177449" lon="13.0215272"><ele>549.5</ele><time>2026-05-01T09:46:36.511Z</time></trkpt><trkpt lat="41.9177102" lon="13.0216221"><ele>550.3333333333334</ele><time>2026-05-01T09:46:37.502Z</time></trkpt><trkpt lat="41.9176489" lon="13.021684"><ele>551.1666666666666</ele><time>2026-05-01T09:46:38.488Z</time></trkpt><trkpt lat="41.9175665" lon="13.0217217"><ele>552.0</ele><time>2026-05-01T09:46:39.517Z</time></trkpt><trkpt lat="41.9174638" lon="13.0217465"><ele>553.0</ele><time>2026-05-01T09:46:40.53Z</time></trkpt><trkpt lat="41.9173481" lon="13.0217811"><ele>554.0</ele><time>2026-05-01T09:46:41.507Z</time></trkpt><trkpt lat="41.9172349" lon="13.0218307"><ele>555.0</ele><time>2026-05-01T09:46:42.52Z</time></trkpt><trkpt lat="41.9171343" lon="13.0218905"><ele>556.0</ele><time>2026-05-01T09:46:43.512Z</time></trkpt><trkpt lat="41.9170335" lon="13.0219533"><ele>556.0</ele><time>2026-05-01T09:46:44.506Z</time></trkpt><trkpt lat="41.9169314" lon="13.0220197"><ele>556.0</ele><time>2026-05-01T09:46:45.528Z</time></trkpt><trkpt lat="41.9168277" lon="13.022086"><ele>556.0</ele><time>2026-05-01T09:46:46.518Z</time></trkpt><trkpt lat="41.9167275" lon="13.0221428"><ele>556.0</ele><time>2026-05-01T09:46:47.505Z</time></trkpt><trkpt lat="41.9166331" lon="13.0221829"><ele>556.0</ele><time>2026-05-01T09:46:48.511Z</time></trkpt><trkpt lat="41.9165453" lon="13.022205"><ele>555.6666666666667</ele><time>2026-05-01T09:46:49.508Z</time></trkpt><trkpt lat="41.9164593" lon="13.022213"><ele>555.3333333333334</ele><time>2026-05-01T09:46:50.534Z</time></trkpt><trkpt lat="41.9163787" lon="13.0221947"><ele>555.0</ele><time>2026-05-01T09:46:51.502Z</time></trkpt><trkpt lat="41.9163076" lon="13.0221397"><ele>554.6666666666666</ele><time>2026-05-01T09:46:52.498Z</time></trkpt><trkpt lat="41.9162622" lon="13.0220565"><ele>554.3333333333333</ele><time>2026-05-01T09:46:53.504Z</time></trkpt><trkpt lat="41.9162202" lon="13.0219681"><ele>554.0</ele><time>2026-05-01T09:46:54.53Z</time></trkpt><trkpt lat="41.916168" lon="13.0218984"><ele>554.0</ele><time>2026-05-01T09:46:55.536Z</time></trkpt><trkpt lat="41.9161004" lon="13.021857"><ele>554.0</ele><time>2026-05-01T09:46:56.51Z</time></trkpt><trkpt lat="41.9160234" lon="13.0218566"><ele>554.0</ele><time>2026-05-01T09:46:57.498Z</time></trkpt><trkpt lat="41.9159556" lon="13.0218977"><ele>554.0</ele><time>2026-05-01T09:46:58.496Z</time></trkpt><trkpt lat="41.9158988" lon="13.0219756"><ele>554.0</ele><time>2026-05-01T09:46:59.515Z</time></trkpt><trkpt lat="41.9158488" lon="13.0220829"><ele>554.0</ele><time>2026-05-01T09:47:00.521Z</time></trkpt><trkpt lat="41.9158008" lon="13.0221923"><ele>556.25</ele><time>2026-05-01T09:47:01.517Z</time></trkpt><trkpt lat="41.915746" lon="13.0223139"><ele>558.5</ele><time>2026-05-01T09:47:02.499Z</time></trkpt><trkpt lat="41.9156873" lon="13.0224413"><ele>560.75</ele><time>2026-05-01T09:47:03.517Z</time></trkpt><trkpt lat="41.9156283" lon="13.0225771"><ele>563.0</ele><time>2026-05-01T09:47:04.512Z</time></trkpt><trkpt lat="41.9155638" lon="13.0227289"><ele>566.0</ele><time>2026-05-01T09:47:05.516Z</time></trkpt><trkpt lat="41.9154991" lon="13.0228925"><ele>569.0</ele><time>2026-05-01T09:47:06.553Z</time></trkpt><trkpt lat="41.9154372" lon="13.0230593"><ele>572.0</ele><time>2026-05-01T09:47:07.518Z</time></trkpt><trkpt lat="41.9153695" lon="13.0232291"><ele>575.0</ele><time>2026-05-01T09:47:08.51Z</time></trkpt><trkpt lat="41.915299" lon="13.0233917"><ele>575.0</ele><time>2026-05-01T09:47:09.506Z</time></trkpt><trkpt lat="41.9152319" lon="13.0235445"><ele>575.0</ele><time>2026-05-01T09:47:10.516Z</time></trkpt><trkpt lat="41.9151683" lon="13.023684"><ele>575.0</ele><time>2026-05-01T09:47:11.512Z</time></trkpt><trkpt lat="41.9151008" lon="13.0238053"><ele>575.0</ele><time>2026-05-01T09:47:12.514Z</time></trkpt><trkpt lat="41.9150254" lon="13.0239225"><ele>575.0</ele><time>2026-05-01T09:47:13.512Z</time></trkpt><trkpt lat="41.9149393" lon="13.024028"><ele>575.0</ele><time>2026-05-01T09:47:14.526Z</time></trkpt><trkpt lat="41.9148504" lon="13.0241209"><ele>575.0</ele><time>2026-05-01T09:47:15.51Z</time></trkpt><trkpt lat="41.9147509" lon="13.0242033"><ele>575.0</ele><time>2026-05-01T09:47:16.53Z</time></trkpt><trkpt lat="41.9146502" lon="13.0242673"><ele>576.5</ele><time>2026-05-01T09:47:17.513Z</time></trkpt><trkpt lat="41.9145408" lon="13.0242913"><ele>578.0</ele><time>2026-05-01T09:47:18.543Z</time></trkpt><trkpt lat="41.9144256" lon="13.024281"><ele>579.5</ele><time>2026-05-01T09:47:19.512Z</time></trkpt><trkpt lat="41.9143013" lon="13.0242498"><ele>581.0</ele><time>2026-05-01T09:47:20.513Z</time></trkpt><trkpt lat="41.9141764" lon="13.0242181"><ele>581.0</ele><time>2026-05-01T09:47:21.516Z</time></trkpt><trkpt lat="41.9140442" lon="13.024181"><ele>581.0</ele><time>2026-05-01T09:47:22.517Z</time></trkpt><trkpt lat="41.9139242" lon="13.0241464"><ele>581.0</ele><time>2026-05-01T09:47:23.52Z</time></trkpt><trkpt lat="41.9138101" lon="13.0241147"><ele>581.0</ele><time>2026-05-01T09:47:24.523Z</time></trkpt><trkpt lat="41.9137049" lon="13.0240943"><ele>578.25</ele><time>2026-05-01T09:47:25.521Z</time></trkpt><trkpt lat="41.9135975" lon="13.0240903"><ele>575.5</ele><time>2026-05-01T09:47:26.507Z</time></trkpt><trkpt lat="41.9134889" lon="13.0241092"><ele>572.75</ele><time>2026-05-01T09:47:27.533Z</time></trkpt><trkpt lat="41.9133712" lon="13.0241555"><ele>570.0</ele><time>2026-05-01T09:47:28.517Z</time></trkpt><trkpt lat="41.9132468" lon="13.0242256"><ele>576.0</ele><time>2026-05-01T09:47:29.516Z</time></trkpt><trkpt lat="41.9131349" lon="13.0242908"><ele>582.0</ele><time>2026-05-01T09:47:30.507Z</time></trkpt><trkpt lat="41.9130293" lon="13.0243591"><ele>588.0</ele><time>2026-05-01T09:47:31.507Z</time></trkpt><trkpt lat="41.9129325" lon="13.0244281"><ele>594.0</ele><time>2026-05-01T09:47:32.51Z</time></trkpt><trkpt lat="41.9128458" lon="13.024511"><ele>594.0</ele><time>2026-05-01T09:47:33.517Z</time></trkpt><trkpt lat="41.9127677" lon="13.0246084"><ele>594.0</ele><time>2026-05-01T09:47:34.511Z</time></trkpt><trkpt lat="41.9127109" lon="13.0247025"><ele>594.0</ele><time>2026-05-01T09:47:35.516Z</time></trkpt><trkpt lat="41.9126884" lon="13.0247913"><ele>594.0</ele><time>2026-05-01T09:47:36.512Z</time></trkpt><trkpt lat="41.912667" lon="13.0249361"><ele>594.0</ele><time>2026-05-01T09:47:38.511Z</time></trkpt><trkpt lat="41.9126443" lon="13.0250185"><ele>594.0</ele><time>2026-05-01T09:47:52.508Z</time></trkpt><trkpt lat="41.9125822" lon="13.0249944"><ele>598.2</ele><time>2026-05-01T09:47:54.516Z</time></trkpt><trkpt lat="41.9125476" lon="13.0248863"><ele>602.4</ele><time>2026-05-01T09:47:56.505Z</time></trkpt><trkpt lat="41.9125238" lon="13.024794"><ele>606.6</ele><time>2026-05-01T09:47:57.532Z</time></trkpt><trkpt lat="41.9125025" lon="13.0246703"><ele>610.8</ele><time>2026-05-01T09:47:58.513Z</time></trkpt><trkpt lat="41.9124868" lon="13.0245416"><ele>615.0</ele><time>2026-05-01T09:47:59.505Z</time></trkpt><trkpt lat="41.9124726" lon="13.0244082"><ele>615.0</ele><time>2026-05-01T09:48:00.523Z</time></trkpt><trkpt lat="41.9124574" lon="13.0242725"><ele>615.0</ele><time>2026-05-01T09:48:01.528Z</time></trkpt><trkpt lat="41.9124297" lon="13.0241597"><ele>615.0</ele><time>2026-05-01T09:48:02.52Z</time></trkpt><trkpt lat="41.9124015" lon="13.0240694"><ele>615.0</ele><time>2026-05-01T09:48:03.531Z</time></trkpt><trkpt lat="41.9123225" lon="13.0239956"><ele>615.0</ele><time>2026-05-01T09:48:05.534Z</time></trkpt><trkpt lat="41.9122518" lon="13.0240333"><ele>615.0</ele><time>2026-05-01T09:48:07.516Z</time></trkpt><trkpt lat="41.9121849" lon="13.0241179"><ele>615.0</ele><time>2026-05-01T09:48:09.502Z</time></trkpt><trkpt lat="41.9121211" lon="13.0241793"><ele>615.0</ele><time>2026-05-01T09:48:11.505Z</time></trkpt><trkpt lat="41.9120594" lon="13.0242283"><ele>615.0</ele><time>2026-05-01T09:48:13.517Z</time></trkpt><trkpt lat="41.9119955" lon="13.0242737"><ele>615.0</ele><time>2026-05-01T09:48:15.519Z</time></trkpt><trkpt lat="41.911934" lon="13.0243"><ele>615.0</ele><time>2026-05-01T09:48:17.504Z</time></trkpt><trkpt lat="41.911868" lon="13.0243515"><ele>615.0</ele><time>2026-05-01T09:48:21.505Z</time></trkpt><trkpt lat="41.9117894" lon="13.0244202"><ele>619.5</ele><time>2026-05-01T09:48:24.522Z</time></trkpt><trkpt lat="41.9117021" lon="13.0244163"><ele>624.0</ele><time>2026-05-01T09:48:27.506Z</time></trkpt><trkpt lat="41.9116119" lon="13.0244015"><ele>628.5</ele><time>2026-05-01T09:48:29.514Z</time></trkpt><trkpt lat="41.911533" lon="13.0243806"><ele>633.0</ele><time>2026-05-01T09:48:31.519Z</time></trkpt><trkpt lat="41.9114516" lon="13.0243583"><ele>637.5</ele><time>2026-05-01T09:48:33.513Z</time></trkpt><trkpt lat="41.9113665" lon="13.0243302"><ele>642.0</ele><time>2026-05-01T09:48:35.516Z</time></trkpt><trkpt lat="41.9112918" lon="13.0243027"><ele>642.0</ele><time>2026-05-01T09:48:37.502Z</time></trkpt></trkseg><trkseg><trkpt lat="41.9111523" lon="13.0242621"><ele>642.0</ele><time>2026-05-01T10:13:55.594Z</time></trkpt><trkpt lat="41.911089" lon="13.0242592"><ele>642.0</ele><time>2026-05-01T10:13:57.543Z</time></trkpt><trkpt lat="41.9109994" lon="13.0242715"><ele>642.0</ele><time>2026-05-01T10:13:59.548Z</time></trkpt><trkpt lat="41.9108639" lon="13.0243"><ele>642.0</ele><time>2026-05-01T10:14:01.559Z</time></trkpt><trkpt lat="41.9107883" lon="13.0243222"><ele>642.0</ele><time>2026-05-01T10:14:02.549Z</time></trkpt><trkpt lat="41.9107101" lon="13.0243479"><ele>642.0</ele><time>2026-05-01T10:14:03.559Z</time></trkpt><trkpt lat="41.9106248" lon="13.0243795"><ele>643.2</ele><time>2026-05-01T10:14:04.554Z</time></trkpt><trkpt lat="41.9105424" lon="13.0244165"><ele>644.4000000000001</ele><time>2026-05-01T10:14:05.556Z</time></trkpt><trkpt lat="41.9104522" lon="13.0244436"><ele>645.5999999999999</ele><time>2026-05-01T10:14:06.556Z</time></trkpt><trkpt lat="41.9103594" lon="13.0244709"><ele>646.8</ele><time>2026-05-01T10:14:07.559Z</time></trkpt><trkpt lat="41.9102675" lon="13.0244923"><ele>648.0</ele><time>2026-05-01T10:14:08.572Z</time></trkpt><trkpt lat="41.9101746" lon="13.0245123"><ele>648.0</ele><time>2026-05-01T10:14:09.551Z</time></trkpt><trkpt lat="41.9100844" lon="13.024536"><ele>648.0</ele><time>2026-05-01T10:14:10.554Z</time></trkpt><trkpt lat="41.9099958" lon="13.0245591"><ele>648.0</ele><time>2026-05-01T10:14:11.558Z</time></trkpt><trkpt lat="41.909906" lon="13.0245806"><ele>648.0</ele><time>2026-05-01T10:14:12.581Z</time></trkpt><trkpt lat="41.9098168" lon="13.0246087"><ele>648.0</ele><time>2026-05-01T10:14:13.559Z</time></trkpt><trkpt lat="41.9097376" lon="13.0246432"><ele>648.0</ele><time>2026-05-01T10:14:14.57Z</time></trkpt><trkpt lat="41.9096573" lon="13.0246654"><ele>646.5</ele><time>2026-05-01T10:14:15.558Z</time></trkpt><trkpt lat="41.90958" lon="13.024691"><ele>645.0</ele><time>2026-05-01T10:14:16.556Z</time></trkpt><trkpt lat="41.9095012" lon="13.0247198"><ele>643.5</ele><time>2026-05-01T10:14:17.554Z</time></trkpt><trkpt lat="41.9094172" lon="13.0247466"><ele>642.0</ele><time>2026-05-01T10:14:18.543Z</time></trkpt><trkpt lat="41.9093438" lon="13.0247637"><ele>640.5</ele><time>2026-05-01T10:14:19.571Z</time></trkpt><trkpt lat="41.9092251" lon="13.0247269"><ele>639.0</ele><time>2026-05-01T10:14:21.558Z</time></trkpt><trkpt lat="41.9091838" lon="13.0246321"><ele>635.4</ele><time>2026-05-01T10:14:22.557Z</time></trkpt><trkpt lat="41.909167" lon="13.024501"><ele>631.8</ele><time>2026-05-01T10:14:23.538Z</time></trkpt><trkpt lat="41.9091493" lon="13.0243702"><ele>628.2</ele><time>2026-05-01T10:14:24.532Z</time></trkpt><trkpt lat="41.9091166" lon="13.0242582"><ele>624.6</ele><time>2026-05-01T10:14:25.574Z</time></trkpt><trkpt lat="41.9090609" lon="13.0241652"><ele>621.0</ele><time>2026-05-01T10:14:26.525Z</time></trkpt><trkpt lat="41.9089917" lon="13.0241013"><ele>620.3333333333334</ele><time>2026-05-01T10:14:27.537Z</time></trkpt><trkpt lat="41.9089199" lon="13.0240592"><ele>619.6666666666666</ele><time>2026-05-01T10:14:28.534Z</time></trkpt><trkpt lat="41.9088414" lon="13.0240213"><ele>619.0</ele><time>2026-05-01T10:14:29.529Z</time></trkpt><trkpt lat="41.9087532" lon="13.0239824"><ele>618.3333333333333</ele><time>2026-05-01T10:14:30.562Z</time></trkpt><trkpt lat="41.9086618" lon="13.0239478"><ele>617.6666666666666</ele><time>2026-05-01T10:14:31.555Z</time></trkpt><trkpt lat="41.9085677" lon="13.0239317"><ele>617.0</ele><time>2026-05-01T10:14:32.564Z</time></trkpt><trkpt lat="41.9084786" lon="13.0239197"><ele>615.8333333333333</ele><time>2026-05-01T10:14:33.542Z</time></trkpt><trkpt lat="41.9083903" lon="13.0239121"><ele>614.6666666666666</ele><time>2026-05-01T10:14:34.546Z</time></trkpt><trkpt lat="41.9082962" lon="13.0239158"><ele>613.5</ele><time>2026-05-01T10:14:35.575Z</time></trkpt><trkpt lat="41.908209" lon="13.023918"><ele>612.3333333333334</ele><time>2026-05-01T10:14:36.542Z</time></trkpt><trkpt lat="41.908125" lon="13.0239146"><ele>611.1666666666667</ele><time>2026-05-01T10:14:37.555Z</time></trkpt><trkpt lat="41.9080469" lon="13.0238949"><ele>610.0</ele><time>2026-05-01T10:14:38.554Z</time></trkpt><trkpt lat="41.9079795" lon="13.0238404"><ele>610.0</ele><time>2026-05-01T10:14:39.546Z</time></trkpt><trkpt lat="41.9079213" lon="13.0237568"><ele>610.0</ele><time>2026-05-01T10:14:40.537Z</time></trkpt><trkpt lat="41.9078681" lon="13.023664"><ele>610.0</ele><time>2026-05-01T10:14:41.552Z</time></trkpt><trkpt lat="41.9078184" lon="13.0235748"><ele>610.0</ele><time>2026-05-01T10:14:42.537Z</time></trkpt><trkpt lat="41.9077838" lon="13.0234811"><ele>610.0</ele><time>2026-05-01T10:14:43.554Z</time></trkpt><trkpt lat="41.9077766" lon="13.0233831"><ele>610.0</ele><time>2026-05-01T10:14:44.553Z</time></trkpt><trkpt lat="41.9078069" lon="13.0232857"><ele>605.8</ele><time>2026-05-01T10:14:45.54Z</time></trkpt><trkpt lat="41.9078634" lon="13.0231971"><ele>601.6</ele><time>2026-05-01T10:14:46.55Z</time></trkpt><trkpt lat="41.9079207" lon="13.0231044"><ele>597.4</ele><time>2026-05-01T10:14:47.528Z</time></trkpt><trkpt lat="41.9079693" lon="13.0230019"><ele>593.2</ele><time>2026-05-01T10:14:48.54Z</time></trkpt><trkpt lat="41.9080093" lon="13.022891"><ele>589.0</ele><time>2026-05-01T10:14:49.559Z</time></trkpt><trkpt lat="41.9080411" lon="13.022762"><ele>589.0</ele><time>2026-05-01T10:14:50.537Z</time></trkpt><trkpt lat="41.9080551" lon="13.0226315"><ele>589.0</ele><time>2026-05-01T10:14:51.535Z</time></trkpt><trkpt lat="41.908066" lon="13.0225064"><ele>589.0</ele><time>2026-05-01T10:14:52.557Z</time></trkpt><trkpt lat="41.9080696" lon="13.0223596"><ele>589.0</ele><time>2026-05-01T10:14:53.522Z</time></trkpt><trkpt lat="41.9080743" lon="13.0222"><ele>589.0</ele><time>2026-05-01T10:14:54.567Z</time></trkpt><trkpt lat="41.9080892" lon="13.0220401"><ele>589.0</ele><time>2026-05-01T10:14:55.597Z</time></trkpt><trkpt lat="41.9081139" lon="13.0218721"><ele>589.0</ele><time>2026-05-01T10:14:56.57Z</time></trkpt><trkpt lat="41.9081546" lon="13.0216998"><ele>589.0</ele><time>2026-05-01T10:14:57.58Z</time></trkpt><trkpt lat="41.9082158" lon="13.0215431"><ele>589.0</ele><time>2026-05-01T10:14:58.618Z</time></trkpt><trkpt lat="41.9082913" lon="13.0214046"><ele>592.2</ele><time>2026-05-01T10:14:59.532Z</time></trkpt><trkpt lat="41.9083605" lon="13.0212838"><ele>595.4</ele><time>2026-05-01T10:15:00.558Z</time></trkpt><trkpt lat="41.9084127" lon="13.0211785"><ele>598.6</ele><time>2026-05-01T10:15:01.589Z</time></trkpt><trkpt lat="41.9084275" lon="13.021076"><ele>601.8</ele><time>2026-05-01T10:15:02.556Z</time></trkpt><trkpt lat="41.9083916" lon="13.0209607"><ele>605.0</ele><time>2026-05-01T10:15:03.542Z</time></trkpt><trkpt lat="41.9083324" lon="13.0208374"><ele>609.2</ele><time>2026-05-01T10:15:04.588Z</time></trkpt><trkpt lat="41.9082697" lon="13.0207065"><ele>613.4</ele><time>2026-05-01T10:15:05.557Z</time></trkpt><trkpt lat="41.9082432" lon="13.020562"><ele>617.6</ele><time>2026-05-01T10:15:06.593Z</time></trkpt><trkpt lat="41.9082594" lon="13.0204139"><ele>621.8</ele><time>2026-05-01T10:15:07.566Z</time></trkpt><trkpt lat="41.9083065" lon="13.0202843"><ele>626.0</ele><time>2026-05-01T10:15:08.556Z</time></trkpt><trkpt lat="41.9083723" lon="13.0201761"><ele>620.2</ele><time>2026-05-01T10:15:09.554Z</time></trkpt><trkpt lat="41.9084396" lon="13.0200619"><ele>614.4000000000001</ele><time>2026-05-01T10:15:10.577Z</time></trkpt><trkpt lat="41.9084999" lon="13.019937"><ele>608.6</ele><time>2026-05-01T10:15:11.558Z</time></trkpt><trkpt lat="41.9085514" lon="13.0198198"><ele>602.8000000000001</ele><time>2026-05-01T10:15:12.607Z</time></trkpt><trkpt lat="41.9086061" lon="13.0196918"><ele>597.0</ele><time>2026-05-01T10:15:13.548Z</time></trkpt><trkpt lat="41.9086586" lon="13.0195604"><ele>597.0</ele><time>2026-05-01T10:15:14.55Z</time></trkpt><trkpt lat="41.9087066" lon="13.0194294"><ele>597.0</ele><time>2026-05-01T10:15:15.559Z</time></trkpt><trkpt lat="41.9087466" lon="13.0192953"><ele>597.0</ele><time>2026-05-01T10:15:16.577Z</time></trkpt><trkpt lat="41.9087694" lon="13.0191582"><ele>597.0</ele><time>2026-05-01T10:15:17.586Z</time></trkpt><trkpt lat="41.9088" lon="13.0190221"><ele>597.0</ele><time>2026-05-01T10:15:18.573Z</time></trkpt><trkpt lat="41.9088493" lon="13.0189097"><ele>601.4</ele><time>2026-05-01T10:15:19.561Z</time></trkpt><trkpt lat="41.9089207" lon="13.0188132"><ele>605.8000000000001</ele><time>2026-05-01T10:15:20.574Z</time></trkpt><trkpt lat="41.9089888" lon="13.0187135"><ele>610.2</ele><time>2026-05-01T10:15:21.629Z</time></trkpt><trkpt lat="41.9090503" lon="13.0185983"><ele>614.6</ele><time>2026-05-01T10:15:22.594Z</time></trkpt><trkpt lat="41.9090856" lon="13.0184668"><ele>619.0</ele><time>2026-05-01T10:15:23.555Z</time></trkpt><trkpt lat="41.9091045" lon="13.0183289"><ele>618.4</ele><time>2026-05-01T10:15:24.568Z</time></trkpt><trkpt lat="41.9091134" lon="13.0181872"><ele>617.8</ele><time>2026-05-01T10:15:25.585Z</time></trkpt><trkpt lat="41.9091187" lon="13.0180606"><ele>617.2</ele><time>2026-05-01T10:15:26.605Z</time></trkpt><trkpt lat="41.9091229" lon="13.0179441"><ele>616.6</ele><time>2026-05-01T10:15:27.543Z</time></trkpt><trkpt lat="41.9091013" lon="13.0178401"><ele>616.0</ele><time>2026-05-01T10:15:28.608Z</time></trkpt><trkpt lat="41.9090342" lon="13.0177378"><ele>616.0</ele><time>2026-05-01T10:15:29.558Z</time></trkpt><trkpt lat="41.9089451" lon="13.0176515"><ele>616.0</ele><time>2026-05-01T10:15:30.577Z</time></trkpt><trkpt lat="41.9088296" lon="13.0175976"><ele>616.0</ele><time>2026-05-01T10:15:31.543Z</time></trkpt><trkpt lat="41.908712" lon="13.0175756"><ele>616.0</ele><time>2026-05-01T10:15:32.547Z</time></trkpt><trkpt lat="41.9085946" lon="13.0175756"><ele>616.0</ele><time>2026-05-01T10:15:33.544Z</time></trkpt><trkpt lat="41.9084843" lon="13.0175747"><ele>616.0</ele><time>2026-05-01T10:15:34.56Z</time></trkpt><trkpt lat="41.9083764" lon="13.0175603"><ele>616.0</ele><time>2026-05-01T10:15:35.563Z</time></trkpt><trkpt lat="41.9082787" lon="13.0175077"><ele>616.0</ele><time>2026-05-01T10:15:36.594Z</time></trkpt><trkpt lat="41.9081959" lon="13.0174338"><ele>616.0</ele><time>2026-05-01T10:15:37.563Z</time></trkpt><trkpt lat="41.9081069" lon="13.0173934"><ele>614.2</ele><time>2026-05-01T10:15:38.563Z</time></trkpt><trkpt lat="41.9080156" lon="13.0174004"><ele>612.4000000000001</ele><time>2026-05-01T10:15:39.571Z</time></trkpt><trkpt lat="41.9079285" lon="13.0174427"><ele>610.6</ele><time>2026-05-01T10:15:40.549Z</time></trkpt><trkpt lat="41.907836" lon="13.0175101"><ele>608.8000000000001</ele><time>2026-05-01T10:15:41.554Z</time></trkpt><trkpt lat="41.9077449" lon="13.0175837"><ele>607.0</ele><time>2026-05-01T10:15:42.539Z</time></trkpt><trkpt lat="41.9076466" lon="13.0176523"><ele>611.8000000000001</ele><time>2026-05-01T10:15:43.592Z</time></trkpt><trkpt lat="41.9075408" lon="13.0177038"><ele>616.6</ele><time>2026-05-01T10:15:44.564Z</time></trkpt><trkpt lat="41.9074405" lon="13.0177423"><ele>621.4000000000001</ele><time>2026-05-01T10:15:45.635Z</time></trkpt><trkpt lat="41.9073366" lon="13.0177786"><ele>626.2</ele><time>2026-05-01T10:15:46.555Z</time></trkpt><trkpt lat="41.907238" lon="13.0178128"><ele>631.0</ele><time>2026-05-01T10:15:47.578Z</time></trkpt><trkpt lat="41.9071363" lon="13.0178275"><ele>631.0</ele><time>2026-05-01T10:15:48.614Z</time></trkpt><trkpt lat="41.9070353" lon="13.0178057"><ele>631.0</ele><time>2026-05-01T10:15:49.598Z</time></trkpt><trkpt lat="41.9069397" lon="13.0177719"><ele>631.0</ele><time>2026-05-01T10:15:50.59Z</time></trkpt><trkpt lat="41.906845" lon="13.0177635"><ele>631.0</ele><time>2026-05-01T10:15:51.606Z</time></trkpt><trkpt lat="41.9067431" lon="13.0177925"><ele>631.0</ele><time>2026-05-01T10:15:52.581Z</time></trkpt><trkpt lat="41.9066402" lon="13.0178342"><ele>633.0</ele><time>2026-05-01T10:15:53.611Z</time></trkpt><trkpt lat="41.9065336" lon="13.0178785"><ele>635.0</ele><time>2026-05-01T10:15:54.562Z</time></trkpt><trkpt lat="41.9064209" lon="13.0179235"><ele>637.0</ele><time>2026-05-01T10:15:55.567Z</time></trkpt><trkpt lat="41.9063073" lon="13.0179603"><ele>639.0</ele><time>2026-05-01T10:15:56.577Z</time></trkpt><trkpt lat="41.906195" lon="13.0179764"><ele>639.0</ele><time>2026-05-01T10:15:57.596Z</time></trkpt><trkpt lat="41.906087" lon="13.0179761"><ele>639.0</ele><time>2026-05-01T10:15:58.587Z</time></trkpt><trkpt lat="41.9059793" lon="13.0179743"><ele>639.0</ele><time>2026-05-01T10:15:59.545Z</time></trkpt><trkpt lat="41.9058655" lon="13.0179628"><ele>639.0</ele><time>2026-05-01T10:16:00.554Z</time></trkpt><trkpt lat="41.9057538" lon="13.0179465"><ele>639.0</ele><time>2026-05-01T10:16:01.588Z</time></trkpt><trkpt lat="41.9056497" lon="13.0179182"><ele>639.6</ele><time>2026-05-01T10:16:02.547Z</time></trkpt><trkpt lat="41.9055522" lon="13.0178717"><ele>640.2</ele><time>2026-05-01T10:16:03.619Z</time></trkpt><trkpt lat="41.9054451" lon="13.0178032"><ele>640.8000000000001</ele><time>2026-05-01T10:16:04.578Z</time></trkpt><trkpt lat="41.905351" lon="13.0177329"><ele>641.4</ele><time>2026-05-01T10:16:05.576Z</time></trkpt><trkpt lat="41.9052827" lon="13.0176243"><ele>642.0</ele><time>2026-05-01T10:16:06.588Z</time></trkpt><trkpt lat="41.9052498" lon="13.0174712"><ele>642.0</ele><time>2026-05-01T10:16:07.563Z</time></trkpt><trkpt lat="41.9052242" lon="13.0173169"><ele>642.0</ele><time>2026-05-01T10:16:08.595Z</time></trkpt><trkpt lat="41.9051991" lon="13.0171745"><ele>642.0</ele><time>2026-05-01T10:16:09.581Z</time></trkpt><trkpt lat="41.9051612" lon="13.0170512"><ele>642.0</ele><time>2026-05-01T10:16:10.579Z</time></trkpt><trkpt lat="41.905096" lon="13.01695"><ele>642.0</ele><time>2026-05-01T10:16:11.584Z</time></trkpt><trkpt lat="41.905012" lon="13.0168816"><ele>646.6666666666666</ele><time>2026-05-01T10:16:12.558Z</time></trkpt><trkpt lat="41.9049328" lon="13.0168225"><ele>651.3333333333334</ele><time>2026-05-01T10:16:13.549Z</time></trkpt><trkpt lat="41.9048781" lon="13.0167552"><ele>656.0</ele><time>2026-05-01T10:16:14.606Z</time></trkpt><trkpt lat="41.9048652" lon="13.016665"><ele>660.6666666666667</ele><time>2026-05-01T10:16:15.59Z</time></trkpt><trkpt lat="41.904881" lon="13.0165534"><ele>665.3333333333334</ele><time>2026-05-01T10:16:16.563Z</time></trkpt><trkpt lat="41.9049181" lon="13.0164511"><ele>670.0</ele><time>2026-05-01T10:16:17.584Z</time></trkpt><trkpt lat="41.9049657" lon="13.0163496"><ele>670.75</ele><time>2026-05-01T10:16:18.578Z</time></trkpt><trkpt lat="41.9050325" lon="13.0162175"><ele>671.5</ele><time>2026-05-01T10:16:19.575Z</time></trkpt><trkpt lat="41.9051229" lon="13.0160686"><ele>672.25</ele><time>2026-05-01T10:16:20.582Z</time></trkpt><trkpt lat="41.9052234" lon="13.0159256"><ele>673.0</ele><time>2026-05-01T10:16:21.575Z</time></trkpt><trkpt lat="41.9053379" lon="13.0158103"><ele>670.0</ele><time>2026-05-01T10:16:22.579Z</time></trkpt><trkpt lat="41.9054497" lon="13.0157111"><ele>667.0</ele><time>2026-05-01T10:16:23.561Z</time></trkpt><trkpt lat="41.9055109" lon="13.0156113"><ele>664.0</ele><time>2026-05-01T10:16:24.558Z</time></trkpt><trkpt lat="41.9055191" lon="13.0155201"><ele>661.0</ele><time>2026-05-01T10:16:25.574Z</time></trkpt><trkpt lat="41.905485" lon="13.0154309"><ele>658.0</ele><time>2026-05-01T10:16:26.585Z</time></trkpt><trkpt lat="41.9054191" lon="13.0153689"><ele>658.0</ele><time>2026-05-01T10:16:27.546Z</time></trkpt><trkpt lat="41.9053285" lon="13.0153511"><ele>658.0</ele><time>2026-05-01T10:16:28.577Z</time></trkpt><trkpt lat="41.9052273" lon="13.0153773"><ele>658.0</ele><time>2026-05-01T10:16:29.563Z</time></trkpt><trkpt lat="41.9051367" lon="13.015441"><ele>658.0</ele><time>2026-05-01T10:16:30.556Z</time></trkpt><trkpt lat="41.9050408" lon="13.0154972"><ele>658.0</ele><time>2026-05-01T10:16:31.55Z</time></trkpt><trkpt lat="41.9049334" lon="13.0155353"><ele>659.0</ele><time>2026-05-01T10:16:32.582Z</time></trkpt><trkpt lat="41.9048285" lon="13.0155576"><ele>660.0</ele><time>2026-05-01T10:16:33.589Z</time></trkpt><trkpt lat="41.9047218" lon="13.0155664"><ele>661.0</ele><time>2026-05-01T10:16:34.577Z</time></trkpt><trkpt lat="41.9046119" lon="13.0155596"><ele>662.0</ele><time>2026-05-01T10:16:35.635Z</time></trkpt><trkpt lat="41.9045034" lon="13.0155361"><ele>663.0</ele><time>2026-05-01T10:16:36.591Z</time></trkpt><trkpt lat="41.9044034" lon="13.0154909"><ele>663.0</ele><time>2026-05-01T10:16:37.605Z</time></trkpt><trkpt lat="41.9043032" lon="13.0154212"><ele>663.0</ele><time>2026-05-01T10:16:38.583Z</time></trkpt><trkpt lat="41.9041981" lon="13.0153235"><ele>663.0</ele><time>2026-05-01T10:16:39.575Z</time></trkpt><trkpt lat="41.9040991" lon="13.0152243"><ele>663.0</ele><time>2026-05-01T10:16:40.595Z</time></trkpt><trkpt lat="41.904005" lon="13.0151203"><ele>663.2</ele><time>2026-05-01T10:16:41.57Z</time></trkpt><trkpt lat="41.903917" lon="13.0150166"><ele>663.4</ele><time>2026-05-01T10:16:42.588Z</time></trkpt><trkpt lat="41.9038365" lon="13.0149124"><ele>663.6</ele><time>2026-05-01T10:16:43.63Z</time></trkpt><trkpt lat="41.9037552" lon="13.0148178"><ele>663.8000000000001</ele><time>2026-05-01T10:16:44.57Z</time></trkpt><trkpt lat="41.9036575" lon="13.0147503"><ele>664.0</ele><time>2026-05-01T10:16:45.591Z</time></trkpt><trkpt lat="41.9035468" lon="13.0147468"><ele>664.0</ele><time>2026-05-01T10:16:46.593Z</time></trkpt><trkpt lat="41.9034313" lon="13.0147809"><ele>664.0</ele><time>2026-05-01T10:16:47.559Z</time></trkpt><trkpt lat="41.9033239" lon="13.0148402"><ele>664.0</ele><time>2026-05-01T10:16:48.559Z</time></trkpt><trkpt lat="41.9032358" lon="13.0149401"><ele>664.0</ele><time>2026-05-01T10:16:49.539Z</time></trkpt><trkpt lat="41.9031591" lon="13.0150805"><ele>668.0</ele><time>2026-05-01T10:16:50.536Z</time></trkpt><trkpt lat="41.9030821" lon="13.0152162"><ele>672.0</ele><time>2026-05-01T10:16:51.543Z</time></trkpt><trkpt lat="41.9030058" lon="13.015337"><ele>676.0</ele><time>2026-05-01T10:16:52.563Z</time></trkpt><trkpt lat="41.90291" lon="13.0154456"><ele>680.0</ele><time>2026-05-01T10:16:53.568Z</time></trkpt><trkpt lat="41.9028023" lon="13.0155281"><ele>680.0</ele><time>2026-05-01T10:16:54.557Z</time></trkpt><trkpt lat="41.9026829" lon="13.0155907"><ele>680.0</ele><time>2026-05-01T10:16:55.554Z</time></trkpt><trkpt lat="41.9025621" lon="13.0156473"><ele>680.0</ele><time>2026-05-01T10:16:56.542Z</time></trkpt><trkpt lat="41.9024451" lon="13.0157041"><ele>680.0</ele><time>2026-05-01T10:16:57.551Z</time></trkpt><trkpt lat="41.9023267" lon="13.0157596"><ele>681.75</ele><time>2026-05-01T10:16:58.546Z</time></trkpt><trkpt lat="41.902202" lon="13.0158002"><ele>683.5</ele><time>2026-05-01T10:16:59.571Z</time></trkpt><trkpt lat="41.9020775" lon="13.0158362"><ele>685.25</ele><time>2026-05-01T10:17:00.549Z</time></trkpt><trkpt lat="41.9019552" lon="13.0158758"><ele>687.0</ele><time>2026-05-01T10:17:01.565Z</time></trkpt><trkpt lat="41.9018341" lon="13.0159162"><ele>685.25</ele><time>2026-05-01T10:17:02.568Z</time></trkpt><trkpt lat="41.9017077" lon="13.0159608"><ele>683.5</ele><time>2026-05-01T10:17:03.594Z</time></trkpt><trkpt lat="41.9015826" lon="13.0160047"><ele>681.75</ele><time>2026-05-01T10:17:04.551Z</time></trkpt><trkpt lat="41.9014554" lon="13.0160584"><ele>680.0</ele><time>2026-05-01T10:17:05.558Z</time></trkpt><trkpt lat="41.9013199" lon="13.0161174"><ele>680.0</ele><time>2026-05-01T10:17:06.566Z</time></trkpt><trkpt lat="41.9011825" lon="13.0161538"><ele>680.0</ele><time>2026-05-01T10:17:07.554Z</time></trkpt><trkpt lat="41.9010462" lon="13.0161665"><ele>680.0</ele><time>2026-05-01T10:17:08.583Z</time></trkpt><trkpt lat="41.9009123" lon="13.0161563"><ele>680.0</ele><time>2026-05-01T10:17:09.578Z</time></trkpt><trkpt lat="41.9007774" lon="13.0161445"><ele>680.0</ele><time>2026-05-01T10:17:10.557Z</time></trkpt><trkpt lat="41.9006409" lon="13.0161532"><ele>680.0</ele><time>2026-05-01T10:17:11.557Z</time></trkpt><trkpt lat="41.9005015" lon="13.0161671"><ele>680.0</ele><time>2026-05-01T10:17:12.554Z</time></trkpt><trkpt lat="41.9003603" lon="13.016179"><ele>680.0</ele><time>2026-05-01T10:17:13.562Z</time></trkpt><trkpt lat="41.9002197" lon="13.0161881"><ele>678.25</ele><time>2026-05-01T10:17:14.571Z</time></trkpt><trkpt lat="41.9000772" lon="13.0162066"><ele>676.5</ele><time>2026-05-01T10:17:15.579Z</time></trkpt><trkpt lat="41.8999341" lon="13.0162398"><ele>674.75</ele><time>2026-05-01T10:17:16.57Z</time></trkpt><trkpt lat="41.8997914" lon="13.0162892"><ele>673.0</ele><time>2026-05-01T10:17:17.572Z</time></trkpt><trkpt lat="41.8996472" lon="13.0163356"><ele>673.0</ele><time>2026-05-01T10:17:18.553Z</time></trkpt><trkpt lat="41.8994982" lon="13.0163801"><ele>673.0</ele><time>2026-05-01T10:17:19.566Z</time></trkpt><trkpt lat="41.899352" lon="13.0164237"><ele>673.0</ele><time>2026-05-01T10:17:20.571Z</time></trkpt><trkpt lat="41.899208" lon="13.0164573"><ele>673.0</ele><time>2026-05-01T10:17:21.579Z</time></trkpt><trkpt lat="41.8990685" lon="13.0164821"><ele>671.25</ele><time>2026-05-01T10:17:22.557Z</time></trkpt><trkpt lat="41.898934" lon="13.016502"><ele>669.5</ele><time>2026-05-01T10:17:23.576Z</time></trkpt><trkpt lat="41.898807" lon="13.0165195"><ele>667.75</ele><time>2026-05-01T10:17:24.582Z</time></trkpt><trkpt lat="41.898696" lon="13.0165375"><ele>666.0</ele><time>2026-05-01T10:17:25.566Z</time></trkpt><trkpt lat="41.8986027" lon="13.0165614"><ele>666.0</ele><time>2026-05-01T10:17:26.562Z</time></trkpt><trkpt lat="41.8985212" lon="13.0165888"><ele>666.0</ele><time>2026-05-01T10:17:27.544Z</time></trkpt><trkpt lat="41.8984516" lon="13.016606"><ele>666.0</ele><time>2026-05-01T10:17:28.541Z</time></trkpt><trkpt lat="41.898357" lon="13.0166086"><ele>666.0</ele><time>2026-05-01T10:17:30.572Z</time></trkpt><trkpt lat="41.8983571" lon="13.0165092"><ele>666.0</ele><time>2026-05-01T10:17:34.55Z</time></trkpt><trkpt lat="41.8984313" lon="13.0165169"><ele>666.0</ele><time>2026-05-01T10:17:37.552Z</time></trkpt><trkpt lat="41.8985128" lon="13.0164934"><ele>666.0</ele><time>2026-05-01T10:17:39.603Z</time></trkpt><trkpt lat="41.8986176" lon="13.0164521"><ele>666.0</ele><time>2026-05-01T10:17:41.561Z</time></trkpt><trkpt lat="41.8987394" lon="13.0164088"><ele>666.0</ele><time>2026-05-01T10:17:43.55Z</time></trkpt><trkpt lat="41.8988068" lon="13.0163785"><ele>666.0</ele><time>2026-05-01T10:17:44.597Z</time></trkpt><trkpt lat="41.898867" lon="13.0163454"><ele>666.0</ele><time>2026-05-01T10:17:45.588Z</time></trkpt><trkpt lat="41.8989848" lon="13.0162833"><ele>666.0</ele><time>2026-05-01T10:17:47.62Z</time></trkpt><trkpt lat="41.8990584" lon="13.0162589"><ele>666.0</ele><time>2026-05-01T10:17:48.589Z</time></trkpt><trkpt lat="41.8991358" lon="13.0162278"><ele>666.0</ele><time>2026-05-01T10:17:49.604Z</time></trkpt><trkpt lat="41.8992185" lon="13.0161958"><ele>666.0</ele><time>2026-05-01T10:17:50.576Z</time></trkpt><trkpt lat="41.8993007" lon="13.0161652"><ele>666.0</ele><time>2026-05-01T10:17:51.554Z</time></trkpt><trkpt lat="41.8993778" lon="13.0161214"><ele>666.0</ele><time>2026-05-01T10:17:52.578Z</time></trkpt><trkpt lat="41.8994525" lon="13.0160753"><ele>667.1666666666666</ele><time>2026-05-01T10:17:53.566Z</time></trkpt><trkpt lat="41.8995232" lon="13.0160396"><ele>668.3333333333334</ele><time>2026-05-01T10:17:54.563Z</time></trkpt><trkpt lat="41.8995913" lon="13.0160083"><ele>669.5</ele><time>2026-05-01T10:17:55.581Z</time></trkpt><trkpt lat="41.8996506" lon="13.0159735"><ele>670.6666666666667</ele><time>2026-05-01T10:17:56.556Z</time></trkpt><trkpt lat="41.8997143" lon="13.0158948"><ele>671.8333333333334</ele><time>2026-05-01T10:17:58.558Z</time></trkpt><trkpt lat="41.8996449" lon="13.0157829"><ele>673.0</ele><time>2026-05-01T10:18:01.54Z</time></trkpt><trkpt lat="41.8995824" lon="13.0157716"><ele>669.5</ele><time>2026-05-01T10:18:02.558Z</time></trkpt><trkpt lat="41.8995199" lon="13.0157839"><ele>666.0</ele><time>2026-05-01T10:18:03.556Z</time></trkpt><trkpt lat="41.8994438" lon="13.0157955"><ele>662.5</ele><time>2026-05-01T10:18:04.539Z</time></trkpt><trkpt lat="41.8993767" lon="13.0158067"><ele>659.0</ele><time>2026-05-01T10:18:05.545Z</time></trkpt><trkpt lat="41.8993064" lon="13.0158108"><ele>655.5</ele><time>2026-05-01T10:18:06.574Z</time></trkpt><trkpt lat="41.8992425" lon="13.0158066"><ele>652.0</ele><time>2026-05-01T10:18:07.543Z</time></trkpt><trkpt lat="41.8991082" lon="13.0157979"><ele>651.8333333333334</ele><time>2026-05-01T10:18:09.547Z</time></trkpt><trkpt lat="41.8990359" lon="13.0157834"><ele>651.6666666666667</ele><time>2026-05-01T10:18:10.552Z</time></trkpt><trkpt lat="41.8989483" lon="13.0157497"><ele>651.5</ele><time>2026-05-01T10:18:11.548Z</time></trkpt><trkpt lat="41.898877" lon="13.0157175"><ele>651.3333333333334</ele><time>2026-05-01T10:18:12.56Z</time></trkpt><trkpt lat="41.8988125" lon="13.0156751"><ele>651.1666666666666</ele><time>2026-05-01T10:18:13.562Z</time></trkpt><trkpt lat="41.8987459" lon="13.0156067"><ele>651.0</ele><time>2026-05-01T10:18:14.558Z</time></trkpt><trkpt lat="41.8986951" lon="13.0155214"><ele>651.0</ele><time>2026-05-01T10:18:15.568Z</time></trkpt><trkpt lat="41.898644" lon="13.0154399"><ele>651.0</ele><time>2026-05-01T10:18:16.554Z</time></trkpt><trkpt lat="41.8986035" lon="13.0153573"><ele>651.0</ele><time>2026-05-01T10:18:17.554Z</time></trkpt><trkpt lat="41.89856" lon="13.0152287"><ele>651.0</ele><time>2026-05-01T10:18:19.567Z</time></trkpt><trkpt lat="41.8985365" lon="13.0151174"><ele>651.0</ele><time>2026-05-01T10:18:21.554Z</time></trkpt><trkpt lat="41.8985092" lon="13.0150097"><ele>651.0</ele><time>2026-05-01T10:18:23.553Z</time></trkpt><trkpt lat="41.8984842" lon="13.0149247"><ele>650.0</ele><time>2026-05-01T10:18:25.55Z</time></trkpt><trkpt lat="41.8984851" lon="13.0148247"><ele>649.0</ele><time>2026-05-01T10:18:27.553Z</time></trkpt><trkpt lat="41.8984851" lon="13.0147328"><ele>648.0</ele><time>2026-05-01T10:18:29.559Z</time></trkpt><trkpt lat="41.8984901" lon="13.0146166"><ele>647.0</ele><time>2026-05-01T10:18:31.566Z</time></trkpt><trkpt lat="41.8985072" lon="13.014486"><ele>646.0</ele><time>2026-05-01T10:18:33.591Z</time></trkpt><trkpt lat="41.8985049" lon="13.0143071"><ele>646.0</ele><time>2026-05-01T10:18:35.566Z</time></trkpt><trkpt lat="41.8985084" lon="13.0141974"><ele>646.0</ele><time>2026-05-01T10:18:36.565Z</time></trkpt><trkpt lat="41.8985098" lon="13.0140848"><ele>646.0</ele><time>2026-05-01T10:18:37.584Z</time></trkpt><trkpt lat="41.8985121" lon="13.0139738"><ele>646.0</ele><time>2026-05-01T10:18:38.55Z</time></trkpt><trkpt lat="41.8985139" lon="13.0138715"><ele>646.0</ele><time>2026-05-01T10:18:39.57Z</time></trkpt><trkpt lat="41.898515" lon="13.0137716"><ele>646.0</ele><time>2026-05-01T10:18:40.563Z</time></trkpt><trkpt lat="41.8985098" lon="13.0136584"><ele>644.8</ele><time>2026-05-01T10:18:41.563Z</time></trkpt><trkpt lat="41.8984962" lon="13.0135378"><ele>643.5999999999999</ele><time>2026-05-01T10:18:42.585Z</time></trkpt><trkpt lat="41.8984772" lon="13.0134239"><ele>642.4</ele><time>2026-05-01T10:18:43.557Z</time></trkpt><trkpt lat="41.8984778" lon="13.0133014"><ele>641.2</ele><time>2026-05-01T10:18:44.589Z</time></trkpt><trkpt lat="41.8984924" lon="13.0131747"><ele>640.0</ele><time>2026-05-01T10:18:45.568Z</time></trkpt><trkpt lat="41.8985075" lon="13.013051"><ele>638.3333333333334</ele><time>2026-05-01T10:18:46.551Z</time></trkpt><trkpt lat="41.8985157" lon="13.0129348"><ele>636.6666666666667</ele><time>2026-05-01T10:18:47.581Z</time></trkpt><trkpt lat="41.8985166" lon="13.0128326"><ele>635.0</ele><time>2026-05-01T10:18:48.543Z</time></trkpt><trkpt lat="41.8984957" lon="13.0127349"><ele>633.3333333333334</ele><time>2026-05-01T10:18:49.567Z</time></trkpt><trkpt lat="41.8984509" lon="13.0126584"><ele>631.6666666666666</ele><time>2026-05-01T10:18:50.555Z</time></trkpt><trkpt lat="41.8983952" lon="13.0125875"><ele>630.0</ele><time>2026-05-01T10:18:51.545Z</time></trkpt><trkpt lat="41.8983327" lon="13.0125227"><ele>633.2</ele><time>2026-05-01T10:18:52.577Z</time></trkpt><trkpt lat="41.8982723" lon="13.012474"><ele>636.4</ele><time>2026-05-01T10:18:53.544Z</time></trkpt><trkpt lat="41.8981959" lon="13.012427"><ele>639.5999999999999</ele><time>2026-05-01T10:18:55.561Z</time></trkpt><trkpt lat="41.898111" lon="13.0123394"><ele>642.8</ele><time>2026-05-01T10:18:58.554Z</time></trkpt><trkpt lat="41.898046" lon="13.0122433"><ele>646.0</ele><time>2026-05-01T10:19:00.563Z</time></trkpt><trkpt lat="41.8980043" lon="13.0120984"><ele>646.0</ele><time>2026-05-01T10:19:02.548Z</time></trkpt><trkpt lat="41.8979924" lon="13.0119465"><ele>646.0</ele><time>2026-05-01T10:19:04.549Z</time></trkpt><trkpt lat="41.8980069" lon="13.011768"><ele>646.0</ele><time>2026-05-01T10:19:06.543Z</time></trkpt><trkpt lat="41.8980184" lon="13.0116673"><ele>646.0</ele><time>2026-05-01T10:19:07.556Z</time></trkpt><trkpt lat="41.8980308" lon="13.0115657"><ele>646.0</ele><time>2026-05-01T10:19:08.551Z</time></trkpt><trkpt lat="41.8980391" lon="13.0114505"><ele>645.8</ele><time>2026-05-01T10:19:09.565Z</time></trkpt><trkpt lat="41.8980595" lon="13.0113271"><ele>645.5999999999999</ele><time>2026-05-01T10:19:10.534Z</time></trkpt><trkpt lat="41.8980832" lon="13.0112067"><ele>645.4</ele><time>2026-05-01T10:19:11.545Z</time></trkpt><trkpt lat="41.8981285" lon="13.0110909"><ele>645.2</ele><time>2026-05-01T10:19:12.543Z</time></trkpt><trkpt lat="41.8982015" lon="13.0109739"><ele>645.0</ele><time>2026-05-01T10:19:13.55Z</time></trkpt><trkpt lat="41.8982797" lon="13.01087"><ele>643.4</ele><time>2026-05-01T10:19:14.569Z</time></trkpt><trkpt lat="41.8983361" lon="13.0107597"><ele>641.8</ele><time>2026-05-01T10:19:15.583Z</time></trkpt><trkpt lat="41.8983826" lon="13.0106389"><ele>640.2</ele><time>2026-05-01T10:19:16.6Z</time></trkpt><trkpt lat="41.898431" lon="13.0105179"><ele>638.6</ele><time>2026-05-01T10:19:17.538Z</time></trkpt><trkpt lat="41.8984779" lon="13.0103917"><ele>637.0</ele><time>2026-05-01T10:19:18.56Z</time></trkpt><trkpt lat="41.8985296" lon="13.0102746"><ele>642.0</ele><time>2026-05-01T10:19:19.544Z</time></trkpt><trkpt lat="41.8985991" lon="13.0101713"><ele>647.0</ele><time>2026-05-01T10:19:20.555Z</time></trkpt><trkpt lat="41.8986739" lon="13.0100791"><ele>652.0</ele><time>2026-05-01T10:19:21.552Z</time></trkpt><trkpt lat="41.89875" lon="13.0099866"><ele>657.0</ele><time>2026-05-01T10:19:22.557Z</time></trkpt><trkpt lat="41.8988174" lon="13.009894"><ele>662.0</ele><time>2026-05-01T10:19:23.547Z</time></trkpt><trkpt lat="41.8988409" lon="13.009775"><ele>662.4000000000001</ele><time>2026-05-01T10:19:24.545Z</time></trkpt><trkpt lat="41.8988483" lon="13.0096444"><ele>662.8000000000001</ele><time>2026-05-01T10:19:25.563Z</time></trkpt><trkpt lat="41.8988326" lon="13.009524"><ele>663.2</ele><time>2026-05-01T10:19:26.532Z</time></trkpt><trkpt lat="41.898796" lon="13.0094283"><ele>663.6</ele><time>2026-05-01T10:19:27.525Z</time></trkpt><trkpt lat="41.8987374" lon="13.0093469"><ele>664.0</ele><time>2026-05-01T10:19:28.543Z</time></trkpt><trkpt lat="41.8986475" lon="13.0092755"><ele>664.0</ele><time>2026-05-01T10:19:29.546Z</time></trkpt><trkpt lat="41.8985448" lon="13.0092315"><ele>664.0</ele><time>2026-05-01T10:19:30.529Z</time></trkpt><trkpt lat="41.8984441" lon="13.009189"><ele>664.0</ele><time>2026-05-01T10:19:31.53Z</time></trkpt><trkpt lat="41.8983528" lon="13.0091375"><ele>664.0</ele><time>2026-05-01T10:19:32.571Z</time></trkpt><trkpt lat="41.8982682" lon="13.009068"><ele>664.0</ele><time>2026-05-01T10:19:33.546Z</time></trkpt><trkpt lat="41.8981871" lon="13.0089907"><ele>665.25</ele><time>2026-05-01T10:19:34.55Z</time></trkpt><trkpt lat="41.8981083" lon="13.0088975"><ele>666.5</ele><time>2026-05-01T10:19:35.543Z</time></trkpt><trkpt lat="41.8980374" lon="13.008778"><ele>667.75</ele><time>2026-05-01T10:19:36.573Z</time></trkpt><trkpt lat="41.8979673" lon="13.0086442"><ele>669.0</ele><time>2026-05-01T10:19:37.567Z</time></trkpt><trkpt lat="41.8979104" lon="13.0085007"><ele>669.0</ele><time>2026-05-01T10:19:38.55Z</time></trkpt><trkpt lat="41.8978705" lon="13.0083553"><ele>669.0</ele><time>2026-05-01T10:19:39.554Z</time></trkpt><trkpt lat="41.8978193" lon="13.0082437"><ele>669.0</ele><time>2026-05-01T10:19:40.545Z</time></trkpt><trkpt lat="41.8977406" lon="13.0081487"><ele>669.0</ele><time>2026-05-01T10:19:41.561Z</time></trkpt><trkpt lat="41.8976161" lon="13.0080537"><ele>671.5</ele><time>2026-05-01T10:19:42.556Z</time></trkpt><trkpt lat="41.897485" lon="13.0079812"><ele>674.0</ele><time>2026-05-01T10:19:43.547Z</time></trkpt><trkpt lat="41.8973643" lon="13.007913"><ele>676.5</ele><time>2026-05-01T10:19:44.563Z</time></trkpt><trkpt lat="41.8972437" lon="13.0078505"><ele>679.0</ele><time>2026-05-01T10:19:45.556Z</time></trkpt><trkpt lat="41.8971246" lon="13.0078001"><ele>679.0</ele><time>2026-05-01T10:19:46.546Z</time></trkpt><trkpt lat="41.8970185" lon="13.0077382"><ele>679.0</ele><time>2026-05-01T10:19:47.562Z</time></trkpt><trkpt lat="41.8969164" lon="13.0076504"><ele>679.0</ele><time>2026-05-01T10:19:48.581Z</time></trkpt><trkpt lat="41.8968241" lon="13.0075384"><ele>679.0</ele><time>2026-05-01T10:19:49.562Z</time></trkpt><trkpt lat="41.8967262" lon="13.0074217"><ele>678.5</ele><time>2026-05-01T10:19:50.556Z</time></trkpt><trkpt lat="41.8966147" lon="13.0073297"><ele>678.0</ele><time>2026-05-01T10:19:51.552Z</time></trkpt><trkpt lat="41.8965079" lon="13.0072559"><ele>677.5</ele><time>2026-05-01T10:19:52.551Z</time></trkpt><trkpt lat="41.8964162" lon="13.0071622"><ele>677.0</ele><time>2026-05-01T10:19:53.547Z</time></trkpt><trkpt lat="41.8963325" lon="13.0070481"><ele>677.0</ele><time>2026-05-01T10:19:54.588Z</time></trkpt><trkpt lat="41.8962408" lon="13.0069276"><ele>677.0</ele><time>2026-05-01T10:19:55.564Z</time></trkpt><trkpt lat="41.8961418" lon="13.0068072"><ele>677.0</ele><time>2026-05-01T10:19:56.556Z</time></trkpt><trkpt lat="41.8960474" lon="13.0066869"><ele>677.0</ele><time>2026-05-01T10:19:57.551Z</time></trkpt><trkpt lat="41.8959618" lon="13.0065717"><ele>672.0</ele><time>2026-05-01T10:19:58.551Z</time></trkpt><trkpt lat="41.8958806" lon="13.0064688"><ele>667.0</ele><time>2026-05-01T10:19:59.557Z</time></trkpt><trkpt lat="41.8957854" lon="13.0063872"><ele>662.0</ele><time>2026-05-01T10:20:00.594Z</time></trkpt><trkpt lat="41.8956722" lon="13.0063286"><ele>657.0</ele><time>2026-05-01T10:20:01.558Z</time></trkpt><trkpt lat="41.8955588" lon="13.0062779"><ele>657.0</ele><time>2026-05-01T10:20:02.545Z</time></trkpt><trkpt lat="41.8954525" lon="13.0062252"><ele>657.0</ele><time>2026-05-01T10:20:03.563Z</time></trkpt><trkpt lat="41.8953567" lon="13.0061494"><ele>657.0</ele><time>2026-05-01T10:20:04.544Z</time></trkpt><trkpt lat="41.8952818" lon="13.0060753"><ele>657.0</ele><time>2026-05-01T10:20:05.553Z</time></trkpt><trkpt lat="41.8952247" lon="13.0060114"><ele>657.0</ele><time>2026-05-01T10:20:06.593Z</time></trkpt><trkpt lat="41.895175" lon="13.0059536"><ele>652.0</ele><time>2026-05-01T10:20:07.571Z</time></trkpt><trkpt lat="41.895151" lon="13.005791"><ele>647.0</ele><time>2026-05-01T10:20:09.54Z</time></trkpt><trkpt lat="41.8951848" lon="13.0056871"><ele>642.0</ele><time>2026-05-01T10:20:10.553Z</time></trkpt><trkpt lat="41.8952541" lon="13.0055983"><ele>637.0</ele><time>2026-05-01T10:20:11.555Z</time></trkpt><trkpt lat="41.8953566" lon="13.0055397"><ele>632.0</ele><time>2026-05-01T10:20:12.538Z</time></trkpt><trkpt lat="41.8954674" lon="13.0054985"><ele>632.0</ele><time>2026-05-01T10:20:13.558Z</time></trkpt><trkpt lat="41.8955904" lon="13.0054809"><ele>632.0</ele><time>2026-05-01T10:20:14.544Z</time></trkpt><trkpt lat="41.8957122" lon="13.0054664"><ele>632.0</ele><time>2026-05-01T10:20:15.587Z</time></trkpt><trkpt lat="41.895829" lon="13.0054545"><ele>632.0</ele><time>2026-05-01T10:20:16.583Z</time></trkpt><trkpt lat="41.8959231" lon="13.0054377"><ele>633.0</ele><time>2026-05-01T10:20:17.549Z</time></trkpt><trkpt lat="41.8959978" lon="13.0054298"><ele>634.0</ele><time>2026-05-01T10:20:18.567Z</time></trkpt><trkpt lat="41.896094" lon="13.0054216"><ele>635.0</ele><time>2026-05-01T10:20:20.543Z</time></trkpt><trkpt lat="41.8961779" lon="13.0053978"><ele>636.0</ele><time>2026-05-01T10:20:37.549Z</time></trkpt><trkpt lat="41.8962949" lon="13.0053949"><ele>637.0</ele><time>2026-05-01T10:20:39.582Z</time></trkpt><trkpt lat="41.8963634" lon="13.0053939"><ele>638.0</ele><time>2026-05-01T10:20:40.552Z</time></trkpt><trkpt lat="41.8964358" lon="13.0053857"><ele>638.0</ele><time>2026-05-01T10:20:41.561Z</time></trkpt><trkpt lat="41.8965113" lon="13.0053719"><ele>638.0</ele><time>2026-05-01T10:20:42.545Z</time></trkpt><trkpt lat="41.8965985" lon="13.0053457"><ele>638.0</ele><time>2026-05-01T10:20:43.55Z</time></trkpt><trkpt lat="41.896687" lon="13.0052968"><ele>638.0</ele><time>2026-05-01T10:20:44.611Z</time></trkpt><trkpt lat="41.8967747" lon="13.0052387"><ele>638.0</ele><time>2026-05-01T10:20:45.56Z</time></trkpt><trkpt lat="41.8968613" lon="13.0051784"><ele>641.0</ele><time>2026-05-01T10:20:46.549Z</time></trkpt><trkpt lat="41.8969516" lon="13.0051132"><ele>644.0</ele><time>2026-05-01T10:20:47.549Z</time></trkpt><trkpt lat="41.8970399" lon="13.0050564"><ele>647.0</ele><time>2026-05-01T10:20:48.548Z</time></trkpt><trkpt lat="41.8971383" lon="13.0050113"><ele>650.0</ele><time>2026-05-01T10:20:49.554Z</time></trkpt><trkpt lat="41.8972341" lon="13.0049751"><ele>653.0</ele><time>2026-05-01T10:20:50.586Z</time></trkpt><trkpt lat="41.8973311" lon="13.0049358"><ele>651.8</ele><time>2026-05-01T10:20:51.563Z</time></trkpt><trkpt lat="41.8974249" lon="13.004885"><ele>650.5999999999999</ele><time>2026-05-01T10:20:52.585Z</time></trkpt><trkpt lat="41.897517" lon="13.0048272"><ele>649.4000000000001</ele><time>2026-05-01T10:20:53.581Z</time></trkpt><trkpt lat="41.8976037" lon="13.0047543"><ele>648.2</ele><time>2026-05-01T10:20:54.603Z</time></trkpt><trkpt lat="41.8976926" lon="13.0046798"><ele>647.0</ele><time>2026-05-01T10:20:55.617Z</time></trkpt><trkpt lat="41.8977805" lon="13.0046099"><ele>647.0</ele><time>2026-05-01T10:20:56.591Z</time></trkpt><trkpt lat="41.8978631" lon="13.0045472"><ele>647.0</ele><time>2026-05-01T10:20:57.584Z</time></trkpt><trkpt lat="41.8979432" lon="13.0044875"><ele>647.0</ele><time>2026-05-01T10:20:58.569Z</time></trkpt><trkpt lat="41.8980308" lon="13.0044281"><ele>647.0</ele><time>2026-05-01T10:20:59.566Z</time></trkpt><trkpt lat="41.8981209" lon="13.004368"><ele>647.0</ele><time>2026-05-01T10:21:00.55Z</time></trkpt><trkpt lat="41.898216" lon="13.004315"><ele>647.0</ele><time>2026-05-01T10:21:01.547Z</time></trkpt><trkpt lat="41.8983225" lon="13.0042723"><ele>647.0</ele><time>2026-05-01T10:21:02.548Z</time></trkpt><trkpt lat="41.8984307" lon="13.0042443"><ele>647.0</ele><time>2026-05-01T10:21:03.561Z</time></trkpt><trkpt lat="41.8985403" lon="13.0042173"><ele>647.0</ele><time>2026-05-01T10:21:04.56Z</time></trkpt><trkpt lat="41.8986405" lon="13.0041812"><ele>647.0</ele><time>2026-05-01T10:21:05.579Z</time></trkpt><trkpt lat="41.8987368" lon="13.0041445"><ele>645.1666666666666</ele><time>2026-05-01T10:21:06.557Z</time></trkpt><trkpt lat="41.8988272" lon="13.0041005"><ele>643.3333333333333</ele><time>2026-05-01T10:21:07.576Z</time></trkpt><trkpt lat="41.8989106" lon="13.0040603"><ele>641.5</ele><time>2026-05-01T10:21:08.532Z</time></trkpt><trkpt lat="41.8989905" lon="13.00402"><ele>639.6666666666666</ele><time>2026-05-01T10:21:09.562Z</time></trkpt><trkpt lat="41.8990621" lon="13.003977"><ele>637.8333333333334</ele><time>2026-05-01T10:21:10.575Z</time></trkpt><trkpt lat="41.8991335" lon="13.003927"><ele>636.0</ele><time>2026-05-01T10:21:11.563Z</time></trkpt><trkpt lat="41.8991991" lon="13.0038696"><ele>635.8333333333334</ele><time>2026-05-01T10:21:12.559Z</time></trkpt><trkpt lat="41.8992672" lon="13.0038141"><ele>635.6666666666666</ele><time>2026-05-01T10:21:13.555Z</time></trkpt><trkpt lat="41.8993345" lon="13.0037643"><ele>635.5</ele><time>2026-05-01T10:21:14.536Z</time></trkpt><trkpt lat="41.8994353" lon="13.0036985"><ele>635.3333333333333</ele><time>2026-05-01T10:21:16.551Z</time></trkpt><trkpt lat="41.8994413" lon="13.003611"><ele>635.1666666666666</ele><time>2026-05-01T10:21:33.56Z</time></trkpt><trkpt lat="41.8993753" lon="13.0036147"><ele>635.0</ele><time>2026-05-01T10:21:35.57Z</time></trkpt><trkpt lat="41.8993194" lon="13.0036745"><ele>635.0</ele><time>2026-05-01T10:21:37.551Z</time></trkpt><trkpt lat="41.8992871" lon="13.0037489"><ele>635.0</ele><time>2026-05-01T10:21:39.557Z</time></trkpt></trkseg><trkseg><trkpt lat="41.896333" lon="13.0009232"><ele>649.0</ele><time>2026-05-01T10:23:25.536Z</time></trkpt><trkpt lat="41.8963323" lon="13.0008197"><ele>649.0</ele><time>2026-05-01T10:23:28.545Z</time></trkpt><trkpt lat="41.8962551" lon="13.000838"><ele>649.0</ele><time>2026-05-01T10:23:32.568Z</time></trkpt><trkpt lat="41.8961228" lon="13.0008355"><ele>649.0</ele><time>2026-05-01T10:23:34.572Z</time></trkpt><trkpt lat="41.8960449" lon="13.0008393"><ele>649.0</ele><time>2026-05-01T10:23:35.587Z</time></trkpt><trkpt lat="41.8959661" lon="13.0008251"><ele>649.0</ele><time>2026-05-01T10:23:36.591Z</time></trkpt><trkpt lat="41.8958869" lon="13.0007932"><ele>647.0</ele><time>2026-05-01T10:23:37.605Z</time></trkpt><trkpt lat="41.8958184" lon="13.0007293"><ele>645.0</ele><time>2026-05-01T10:23:38.57Z</time></trkpt><trkpt lat="41.8957527" lon="13.0006549"><ele>643.0</ele><time>2026-05-01T10:23:39.582Z</time></trkpt><trkpt lat="41.8956928" lon="13.0005749"><ele>641.0</ele><time>2026-05-01T10:23:40.551Z</time></trkpt><trkpt lat="41.895645" lon="13.0005065"><ele>639.0</ele><time>2026-05-01T10:23:41.571Z</time></trkpt><trkpt lat="41.8956296" lon="13.0004057"><ele>637.0</ele><time>2026-05-01T10:23:42.568Z</time></trkpt><trkpt lat="41.8956447" lon="13.0002836"><ele>637.0</ele><time>2026-05-01T10:23:43.541Z</time></trkpt><trkpt lat="41.8956732" lon="13.0001538"><ele>637.0</ele><time>2026-05-01T10:23:44.589Z</time></trkpt><trkpt lat="41.8957106" lon="13.0000229"><ele>637.0</ele><time>2026-05-01T10:23:45.552Z</time></trkpt><trkpt lat="41.8957568" lon="12.9998979"><ele>637.0</ele><time>2026-05-01T10:23:46.559Z</time></trkpt><trkpt lat="41.8958153" lon="12.9997649"><ele>637.0</ele><time>2026-05-01T10:23:47.553Z</time></trkpt><trkpt lat="41.8958895" lon="12.9996474"><ele>642.4000000000001</ele><time>2026-05-01T10:23:48.579Z</time></trkpt><trkpt lat="41.8959728" lon="12.9995497"><ele>647.8000000000001</ele><time>2026-05-01T10:23:49.542Z</time></trkpt><trkpt lat="41.8960726" lon="12.9994986"><ele>653.2</ele><time>2026-05-01T10:23:50.542Z</time></trkpt><trkpt lat="41.8961833" lon="12.9994706"><ele>658.6</ele><time>2026-05-01T10:23:51.549Z</time></trkpt><trkpt lat="41.8962743" lon="12.9994303"><ele>664.0</ele><time>2026-05-01T10:23:52.58Z</time></trkpt><trkpt lat="41.8963419" lon="12.9993585"><ele>664.0</ele><time>2026-05-01T10:23:53.595Z</time></trkpt><trkpt lat="41.8963811" lon="12.9992498"><ele>664.0</ele><time>2026-05-01T10:23:54.573Z</time></trkpt><trkpt lat="41.896408" lon="12.9991301"><ele>664.0</ele><time>2026-05-01T10:23:55.55Z</time></trkpt><trkpt lat="41.8964471" lon="12.9989972"><ele>664.0</ele><time>2026-05-01T10:23:56.539Z</time></trkpt><trkpt lat="41.8965076" lon="12.998865"><ele>664.0</ele><time>2026-05-01T10:23:57.583Z</time></trkpt><trkpt lat="41.8965787" lon="12.9987329"><ele>661.6</ele><time>2026-05-01T10:23:58.598Z</time></trkpt><trkpt lat="41.8966592" lon="12.9986178"><ele>659.2</ele><time>2026-05-01T10:23:59.604Z</time></trkpt><trkpt lat="41.8967436" lon="12.9985279"><ele>656.8000000000001</ele><time>2026-05-01T10:24:00.587Z</time></trkpt><trkpt lat="41.8968185" lon="12.9984404"><ele>654.4000000000001</ele><time>2026-05-01T10:24:01.562Z</time></trkpt><trkpt lat="41.896871" lon="12.9983376"><ele>652.0</ele><time>2026-05-01T10:24:02.547Z</time></trkpt><trkpt lat="41.8968767" lon="12.9982182"><ele>649.6</ele><time>2026-05-01T10:24:03.544Z</time></trkpt><trkpt lat="41.8968627" lon="12.9981009"><ele>647.2</ele><time>2026-05-01T10:24:04.573Z</time></trkpt><trkpt lat="41.8968102" lon="12.9979904"><ele>644.8</ele><time>2026-05-01T10:24:05.591Z</time></trkpt><trkpt lat="41.8967288" lon="12.9978839"><ele>642.4</ele><time>2026-05-01T10:24:06.554Z</time></trkpt><trkpt lat="41.8966394" lon="12.9977827"><ele>640.0</ele><time>2026-05-01T10:24:07.581Z</time></trkpt><trkpt lat="41.8965583" lon="12.9976934"><ele>640.0</ele><time>2026-05-01T10:24:08.552Z</time></trkpt><trkpt lat="41.8964928" lon="12.9976122"><ele>640.0</ele><time>2026-05-01T10:24:09.56Z</time></trkpt><trkpt lat="41.896424" lon="12.997538"><ele>640.0</ele><time>2026-05-01T10:24:10.561Z</time></trkpt><trkpt lat="41.8963596" lon="12.9974715"><ele>640.0</ele><time>2026-05-01T10:24:11.578Z</time></trkpt><trkpt lat="41.8962942" lon="12.9973991"><ele>640.0</ele><time>2026-05-01T10:24:12.564Z</time></trkpt><trkpt lat="41.8962257" lon="12.9973261"><ele>640.0</ele><time>2026-05-01T10:24:13.531Z</time></trkpt><trkpt lat="41.8961515" lon="12.9972431"><ele>641.5</ele><time>2026-05-01T10:24:14.541Z</time></trkpt><trkpt lat="41.8960798" lon="12.9971547"><ele>643.0</ele><time>2026-05-01T10:24:15.567Z</time></trkpt><trkpt lat="41.8960112" lon="12.9970596"><ele>644.5</ele><time>2026-05-01T10:24:16.597Z</time></trkpt><trkpt lat="41.8959503" lon="12.9969781"><ele>646.0</ele><time>2026-05-01T10:24:17.548Z</time></trkpt><trkpt lat="41.8959076" lon="12.9968961"><ele>647.5</ele><time>2026-05-01T10:24:18.543Z</time></trkpt><trkpt lat="41.895885" lon="12.9968066"><ele>649.0</ele><time>2026-05-01T10:24:19.568Z</time></trkpt><trkpt lat="41.895898" lon="12.9967175"><ele>649.6</ele><time>2026-05-01T10:24:20.549Z</time></trkpt><trkpt lat="41.8959488" lon="12.9966416"><ele>650.2</ele><time>2026-05-01T10:24:21.554Z</time></trkpt><trkpt lat="41.8960167" lon="12.9965716"><ele>650.8000000000001</ele><time>2026-05-01T10:24:22.544Z</time></trkpt><trkpt lat="41.896101" lon="12.9964986"><ele>651.4000000000001</ele><time>2026-05-01T10:24:23.54Z</time></trkpt><trkpt lat="41.8961935" lon="12.9964236"><ele>652.0</ele><time>2026-05-01T10:24:24.587Z</time></trkpt><trkpt lat="41.8962839" lon="12.9963461"><ele>652.0</ele><time>2026-05-01T10:24:25.565Z</time></trkpt><trkpt lat="41.896377" lon="12.9962769"><ele>652.0</ele><time>2026-05-01T10:24:26.603Z</time></trkpt><trkpt lat="41.8964677" lon="12.9962269"><ele>652.0</ele><time>2026-05-01T10:24:27.583Z</time></trkpt><trkpt lat="41.8965732" lon="12.9962069"><ele>652.0</ele><time>2026-05-01T10:24:28.563Z</time></trkpt><trkpt lat="41.8966907" lon="12.9962109"><ele>652.0</ele><time>2026-05-01T10:24:29.598Z</time></trkpt><trkpt lat="41.8968179" lon="12.9962159"><ele>654.4000000000001</ele><time>2026-05-01T10:24:30.592Z</time></trkpt><trkpt lat="41.896942" lon="12.9962161"><ele>656.8000000000001</ele><time>2026-05-01T10:24:31.592Z</time></trkpt><trkpt lat="41.897052" lon="12.9962312"><ele>659.2</ele><time>2026-05-01T10:24:32.578Z</time></trkpt><trkpt lat="41.8971494" lon="12.9962663"><ele>661.6</ele><time>2026-05-01T10:24:33.572Z</time></trkpt><trkpt lat="41.8972496" lon="12.9962997"><ele>664.0</ele><time>2026-05-01T10:24:34.561Z</time></trkpt><trkpt lat="41.8973439" lon="12.9962816"><ele>664.0</ele><time>2026-05-01T10:24:35.553Z</time></trkpt><trkpt lat="41.8974252" lon="12.9962108"><ele>664.0</ele><time>2026-05-01T10:24:36.549Z</time></trkpt><trkpt lat="41.8974865" lon="12.9961172"><ele>664.0</ele><time>2026-05-01T10:24:37.573Z</time></trkpt><trkpt lat="41.8975466" lon="12.9960012"><ele>664.0</ele><time>2026-05-01T10:24:38.538Z</time></trkpt><trkpt lat="41.8976179" lon="12.9958827"><ele>664.0</ele><time>2026-05-01T10:24:39.526Z</time></trkpt><trkpt lat="41.8977146" lon="12.9957825"><ele>664.5</ele><time>2026-05-01T10:24:40.559Z</time></trkpt><trkpt lat="41.897803" lon="12.9956791"><ele>665.0</ele><time>2026-05-01T10:24:41.539Z</time></trkpt><trkpt lat="41.8978843" lon="12.9955615"><ele>665.5</ele><time>2026-05-01T10:24:42.531Z</time></trkpt><trkpt lat="41.8979682" lon="12.9954436"><ele>666.0</ele><time>2026-05-01T10:24:43.535Z</time></trkpt><trkpt lat="41.8980543" lon="12.9953448"><ele>666.0</ele><time>2026-05-01T10:24:44.539Z</time></trkpt><trkpt lat="41.8981433" lon="12.9952754"><ele>666.0</ele><time>2026-05-01T10:24:45.569Z</time></trkpt><trkpt lat="41.8982299" lon="12.9952167"><ele>666.0</ele><time>2026-05-01T10:24:46.544Z</time></trkpt><trkpt lat="41.8983082" lon="12.9951362"><ele>666.0</ele><time>2026-05-01T10:24:47.531Z</time></trkpt><trkpt lat="41.8983762" lon="12.9950309"><ele>666.0</ele><time>2026-05-01T10:24:48.586Z</time></trkpt><trkpt lat="41.8984321" lon="12.9949277"><ele>663.0</ele><time>2026-05-01T10:24:49.553Z</time></trkpt><trkpt lat="41.8984727" lon="12.9948129"><ele>660.0</ele><time>2026-05-01T10:24:50.545Z</time></trkpt><trkpt lat="41.8984755" lon="12.9946939"><ele>657.0</ele><time>2026-05-01T10:24:51.608Z</time></trkpt><trkpt lat="41.8984401" lon="12.9945829"><ele>654.0</ele><time>2026-05-01T10:24:52.577Z</time></trkpt><trkpt lat="41.8983753" lon="12.9945038"><ele>651.0</ele><time>2026-05-01T10:24:53.592Z</time></trkpt><trkpt lat="41.8982827" lon="12.9944571"><ele>651.0</ele><time>2026-05-01T10:24:54.584Z</time></trkpt><trkpt lat="41.8981542" lon="12.9944219"><ele>651.0</ele><time>2026-05-01T10:24:55.567Z</time></trkpt><trkpt lat="41.8980203" lon="12.9943954"><ele>651.0</ele><time>2026-05-01T10:24:56.584Z</time></trkpt><trkpt lat="41.8978903" lon="12.9943825"><ele>651.0</ele><time>2026-05-01T10:24:57.567Z</time></trkpt><trkpt lat="41.8977684" lon="12.9943944"><ele>651.0</ele><time>2026-05-01T10:24:58.593Z</time></trkpt><trkpt lat="41.8976501" lon="12.9944279"><ele>651.0</ele><time>2026-05-01T10:24:59.591Z</time></trkpt><trkpt lat="41.8975254" lon="12.9944623"><ele>651.0</ele><time>2026-05-01T10:25:00.581Z</time></trkpt><trkpt lat="41.8973942" lon="12.9944675"><ele>651.0</ele><time>2026-05-01T10:25:01.577Z</time></trkpt><trkpt lat="41.8972661" lon="12.9944532"><ele>645.5</ele><time>2026-05-01T10:25:02.579Z</time></trkpt><trkpt lat="41.8971458" lon="12.9944332"><ele>640.0</ele><time>2026-05-01T10:25:03.601Z</time></trkpt><trkpt lat="41.8970274" lon="12.9943996"><ele>634.5</ele><time>2026-05-01T10:25:04.589Z</time></trkpt><trkpt lat="41.8969223" lon="12.9943249"><ele>629.0</ele><time>2026-05-01T10:25:05.601Z</time></trkpt><trkpt lat="41.8968364" lon="12.994193"><ele>631.5</ele><time>2026-05-01T10:25:06.577Z</time></trkpt><trkpt lat="41.8967693" lon="12.9940353"><ele>634.0</ele><time>2026-05-01T10:25:07.558Z</time></trkpt><trkpt lat="41.8967072" lon="12.9938894"><ele>636.5</ele><time>2026-05-01T10:25:08.574Z</time></trkpt><trkpt lat="41.8966405" lon="12.9937643"><ele>639.0</ele><time>2026-05-01T10:25:09.578Z</time></trkpt><trkpt lat="41.8965513" lon="12.9936693"><ele>639.0</ele><time>2026-05-01T10:25:10.533Z</time></trkpt><trkpt lat="41.8964369" lon="12.9936006"><ele>639.0</ele><time>2026-05-01T10:25:11.566Z</time></trkpt><trkpt lat="41.8963169" lon="12.9935525"><ele>639.0</ele><time>2026-05-01T10:25:12.57Z</time></trkpt><trkpt lat="41.8962102" lon="12.9934972"><ele>639.0</ele><time>2026-05-01T10:25:13.544Z</time></trkpt><trkpt lat="41.8961458" lon="12.9934014"><ele>644.5</ele><time>2026-05-01T10:25:14.599Z</time></trkpt><trkpt lat="41.8961316" lon="12.9932704"><ele>650.0</ele><time>2026-05-01T10:25:15.582Z</time></trkpt><trkpt lat="41.8961367" lon="12.9931134"><ele>655.5</ele><time>2026-05-01T10:25:16.578Z</time></trkpt><trkpt lat="41.8961388" lon="12.9929516"><ele>661.0</ele><time>2026-05-01T10:25:17.563Z</time></trkpt><trkpt lat="41.896108" lon="12.9927907"><ele>661.0</ele><time>2026-05-01T10:25:18.631Z</time></trkpt><trkpt lat="41.8960594" lon="12.9926202"><ele>661.0</ele><time>2026-05-01T10:25:19.576Z</time></trkpt><trkpt lat="41.8960153" lon="12.9924655"><ele>661.0</ele><time>2026-05-01T10:25:20.56Z</time></trkpt><trkpt lat="41.8959745" lon="12.9923118"><ele>661.0</ele><time>2026-05-01T10:25:21.558Z</time></trkpt><trkpt lat="41.8959372" lon="12.992162"><ele>659.1999999999999</ele><time>2026-05-01T10:25:22.587Z</time></trkpt><trkpt lat="41.8958876" lon="12.992025"><ele>657.4</ele><time>2026-05-01T10:25:23.6Z</time></trkpt><trkpt lat="41.8958324" lon="12.9918954"><ele>655.6</ele><time>2026-05-01T10:25:24.6Z</time></trkpt><trkpt lat="41.8957713" lon="12.9917687"><ele>653.8</ele><time>2026-05-01T10:25:25.577Z</time></trkpt><trkpt lat="41.895708" lon="12.9916562"><ele>652.0</ele><time>2026-05-01T10:25:26.577Z</time></trkpt><trkpt lat="41.895652" lon="12.9915493"><ele>652.0</ele><time>2026-05-01T10:25:27.586Z</time></trkpt><trkpt lat="41.895617" lon="12.9914334"><ele>652.0</ele><time>2026-05-01T10:25:28.575Z</time></trkpt><trkpt lat="41.895622" lon="12.9912986"><ele>652.0</ele><time>2026-05-01T10:25:29.547Z</time></trkpt><trkpt lat="41.895678" lon="12.9911556"><ele>652.0</ele><time>2026-05-01T10:25:30.55Z</time></trkpt><trkpt lat="41.8957606" lon="12.991033"><ele>652.0</ele><time>2026-05-01T10:25:31.57Z</time></trkpt><trkpt lat="41.8958463" lon="12.9909231"><ele>657.5</ele><time>2026-05-01T10:25:32.574Z</time></trkpt><trkpt lat="41.8959346" lon="12.9908018"><ele>663.0</ele><time>2026-05-01T10:25:33.561Z</time></trkpt><trkpt lat="41.8960213" lon="12.9906835"><ele>668.5</ele><time>2026-05-01T10:25:34.581Z</time></trkpt><trkpt lat="41.8961093" lon="12.990566"><ele>674.0</ele><time>2026-05-01T10:25:35.603Z</time></trkpt><trkpt lat="41.8962056" lon="12.9904401"><ele>674.0</ele><time>2026-05-01T10:25:36.591Z</time></trkpt><trkpt lat="41.8962865" lon="12.9903072"><ele>674.0</ele><time>2026-05-01T10:25:37.622Z</time></trkpt><trkpt lat="41.8963472" lon="12.9901677"><ele>674.0</ele><time>2026-05-01T10:25:38.58Z</time></trkpt><trkpt lat="41.8964052" lon="12.9900238"><ele>674.0</ele><time>2026-05-01T10:25:39.563Z</time></trkpt><trkpt lat="41.8964659" lon="12.9898889"><ele>673.2</ele><time>2026-05-01T10:25:40.626Z</time></trkpt><trkpt lat="41.8965318" lon="12.989772"><ele>672.4000000000001</ele><time>2026-05-01T10:25:41.555Z</time></trkpt><trkpt lat="41.8966115" lon="12.9896768"><ele>671.6</ele><time>2026-05-01T10:25:42.571Z</time></trkpt><trkpt lat="41.8967066" lon="12.9895991"><ele>670.8</ele><time>2026-05-01T10:25:43.568Z</time></trkpt><trkpt lat="41.8968238" lon="12.9895546"><ele>670.0</ele><time>2026-05-01T10:25:44.593Z</time></trkpt><trkpt lat="41.8969551" lon="12.989529"><ele>670.0</ele><time>2026-05-01T10:25:45.576Z</time></trkpt><trkpt lat="41.8970901" lon="12.989493"><ele>670.0</ele><time>2026-05-01T10:25:46.646Z</time></trkpt><trkpt lat="41.8972252" lon="12.9894528"><ele>670.0</ele><time>2026-05-01T10:25:47.599Z</time></trkpt><trkpt lat="41.8973494" lon="12.9894036"><ele>670.0</ele><time>2026-05-01T10:25:48.569Z</time></trkpt><trkpt lat="41.897463" lon="12.9893479"><ele>670.0</ele><time>2026-05-01T10:25:49.572Z</time></trkpt><trkpt lat="41.8975733" lon="12.9892834"><ele>670.0</ele><time>2026-05-01T10:25:50.597Z</time></trkpt><trkpt lat="41.8976841" lon="12.9892124"><ele>670.0</ele><time>2026-05-01T10:25:51.615Z</time></trkpt><trkpt lat="41.8977997" lon="12.9891399"><ele>670.0</ele><time>2026-05-01T10:25:52.606Z</time></trkpt><trkpt lat="41.8979211" lon="12.9890852"><ele>671.75</ele><time>2026-05-01T10:25:53.559Z</time></trkpt><trkpt lat="41.8980516" lon="12.9890561"><ele>673.5</ele><time>2026-05-01T10:25:54.602Z</time></trkpt><trkpt lat="41.8981744" lon="12.9890474"><ele>675.25</ele><time>2026-05-01T10:25:55.597Z</time></trkpt><trkpt lat="41.8982825" lon="12.9890995"><ele>677.0</ele><time>2026-05-01T10:25:56.595Z</time></trkpt><trkpt lat="41.8983671" lon="12.9892085"><ele>675.8</ele><time>2026-05-01T10:25:57.559Z</time></trkpt><trkpt lat="41.8984272" lon="12.9893544"><ele>674.6</ele><time>2026-05-01T10:25:58.547Z</time></trkpt><trkpt lat="41.898472" lon="12.9895067"><ele>673.4</ele><time>2026-05-01T10:25:59.53Z</time></trkpt><trkpt lat="41.898518" lon="12.9896373"><ele>672.1999999999999</ele><time>2026-05-01T10:26:00.562Z</time></trkpt><trkpt lat="41.8985738" lon="12.9897144"><ele>671.0</ele><time>2026-05-01T10:26:01.559Z</time></trkpt><trkpt lat="41.8986507" lon="12.9897325"><ele>671.0</ele><time>2026-05-01T10:26:02.607Z</time></trkpt><trkpt lat="41.8987317" lon="12.9897059"><ele>671.0</ele><time>2026-05-01T10:26:03.565Z</time></trkpt><trkpt lat="41.8988076" lon="12.9896537"><ele>671.0</ele><time>2026-05-01T10:26:04.589Z</time></trkpt><trkpt lat="41.8989017" lon="12.9895943"><ele>671.0</ele><time>2026-05-01T10:26:05.567Z</time></trkpt><trkpt lat="41.8990031" lon="12.9895273"><ele>671.0</ele><time>2026-05-01T10:26:06.592Z</time></trkpt><trkpt lat="41.899118" lon="12.9894668"><ele>671.0</ele><time>2026-05-01T10:26:07.637Z</time></trkpt><trkpt lat="41.8992351" lon="12.9894261"><ele>671.0</ele><time>2026-05-01T10:26:08.597Z</time></trkpt><trkpt lat="41.8993606" lon="12.9894021"><ele>671.0</ele><time>2026-05-01T10:26:09.637Z</time></trkpt><trkpt lat="41.8994903" lon="12.9893823"><ele>671.0</ele><time>2026-05-01T10:26:10.616Z</time></trkpt><trkpt lat="41.8996202" lon="12.989377"><ele>672.0</ele><time>2026-05-01T10:26:11.599Z</time></trkpt><trkpt lat="41.8997283" lon="12.9893794"><ele>673.0</ele><time>2026-05-01T10:26:12.572Z</time></trkpt><trkpt lat="41.8998275" lon="12.9893929"><ele>674.0</ele><time>2026-05-01T10:26:13.601Z</time></trkpt><trkpt lat="41.8999237" lon="12.9894112"><ele>675.0</ele><time>2026-05-01T10:26:14.597Z</time></trkpt><trkpt lat="41.9000262" lon="12.9894082"><ele>676.0</ele><time>2026-05-01T10:26:15.591Z</time></trkpt><trkpt lat="41.9001207" lon="12.9893824"><ele>677.5999999999999</ele><time>2026-05-01T10:26:16.618Z</time></trkpt><trkpt lat="41.9002033" lon="12.9893148"><ele>679.2</ele><time>2026-05-01T10:26:17.584Z</time></trkpt><trkpt lat="41.9002722" lon="12.9892231"><ele>680.8</ele><time>2026-05-01T10:26:18.544Z</time></trkpt><trkpt lat="41.9003323" lon="12.9891155"><ele>682.4000000000001</ele><time>2026-05-01T10:26:19.546Z</time></trkpt><trkpt lat="41.9003791" lon="12.9889895"><ele>684.0</ele><time>2026-05-01T10:26:20.555Z</time></trkpt><trkpt lat="41.9004119" lon="12.9888593"><ele>684.0</ele><time>2026-05-01T10:26:21.627Z</time></trkpt><trkpt lat="41.9004326" lon="12.9887246"><ele>684.0</ele><time>2026-05-01T10:26:22.601Z</time></trkpt><trkpt lat="41.9004271" lon="12.988584"><ele>684.0</ele><time>2026-05-01T10:26:23.618Z</time></trkpt><trkpt lat="41.9003992" lon="12.9884374"><ele>684.0</ele><time>2026-05-01T10:26:24.549Z</time></trkpt><trkpt lat="41.9003772" lon="12.9882924"><ele>684.0</ele><time>2026-05-01T10:26:25.557Z</time></trkpt><trkpt lat="41.9003656" lon="12.9881413"><ele>682.8000000000001</ele><time>2026-05-01T10:26:26.625Z</time></trkpt><trkpt lat="41.9003688" lon="12.9879868"><ele>681.6</ele><time>2026-05-01T10:26:27.607Z</time></trkpt><trkpt lat="41.9003928" lon="12.9878357"><ele>680.4</ele><time>2026-05-01T10:26:28.606Z</time></trkpt><trkpt lat="41.900429" lon="12.9876943"><ele>679.2</ele><time>2026-05-01T10:26:29.572Z</time></trkpt><trkpt lat="41.9004542" lon="12.9875577"><ele>678.0</ele><time>2026-05-01T10:26:30.607Z</time></trkpt><trkpt lat="41.9004809" lon="12.987409"><ele>676.25</ele><time>2026-05-01T10:26:31.61Z</time></trkpt><trkpt lat="41.9005085" lon="12.9872516"><ele>674.5</ele><time>2026-05-01T10:26:32.616Z</time></trkpt><trkpt lat="41.900538" lon="12.9871053"><ele>672.75</ele><time>2026-05-01T10:26:33.613Z</time></trkpt><trkpt lat="41.9005744" lon="12.9869584"><ele>671.0</ele><time>2026-05-01T10:26:34.574Z</time></trkpt><trkpt lat="41.9006383" lon="12.9868126"><ele>669.25</ele><time>2026-05-01T10:26:35.564Z</time></trkpt><trkpt lat="41.9007007" lon="12.9866593"><ele>667.5</ele><time>2026-05-01T10:26:36.547Z</time></trkpt><trkpt lat="41.9007634" lon="12.986506"><ele>665.75</ele><time>2026-05-01T10:26:37.591Z</time></trkpt><trkpt lat="41.9008328" lon="12.9863572"><ele>664.0</ele><time>2026-05-01T10:26:38.609Z</time></trkpt><trkpt lat="41.9009046" lon="12.9862274"><ele>664.3333333333334</ele><time>2026-05-01T10:26:39.62Z</time></trkpt><trkpt lat="41.9009713" lon="12.9861094"><ele>664.6666666666667</ele><time>2026-05-01T10:26:40.579Z</time></trkpt><trkpt lat="41.9010106" lon="12.9859994"><ele>665.0</ele><time>2026-05-01T10:26:41.57Z</time></trkpt><trkpt lat="41.9010387" lon="12.9858941"><ele>665.3333333333334</ele><time>2026-05-01T10:26:42.585Z</time></trkpt><trkpt lat="41.9010524" lon="12.9857877"><ele>665.6666666666666</ele><time>2026-05-01T10:26:43.593Z</time></trkpt><trkpt lat="41.9010419" lon="12.9856761"><ele>666.0</ele><time>2026-05-01T10:26:44.56Z</time></trkpt><trkpt lat="41.9010063" lon="12.9855716"><ele>666.0</ele><time>2026-05-01T10:26:45.557Z</time></trkpt><trkpt lat="41.9009283" lon="12.9854701"><ele>666.0</ele><time>2026-05-01T10:26:46.548Z</time></trkpt><trkpt lat="41.9008251" lon="12.9853871"><ele>666.0</ele><time>2026-05-01T10:26:47.577Z</time></trkpt><trkpt lat="41.9007165" lon="12.9853305"><ele>666.0</ele><time>2026-05-01T10:26:48.574Z</time></trkpt><trkpt lat="41.9006137" lon="12.9852731"><ele>664.75</ele><time>2026-05-01T10:26:49.588Z</time></trkpt><trkpt lat="41.9005069" lon="12.9851944"><ele>663.5</ele><time>2026-05-01T10:26:50.58Z</time></trkpt><trkpt lat="41.9003992" lon="12.9851036"><ele>662.25</ele><time>2026-05-01T10:26:51.605Z</time></trkpt><trkpt lat="41.9002777" lon="12.9850279"><ele>661.0</ele><time>2026-05-01T10:26:52.609Z</time></trkpt><trkpt lat="41.9001575" lon="12.9849659"><ele>661.4</ele><time>2026-05-01T10:26:53.638Z</time></trkpt><trkpt lat="41.9000458" lon="12.9849178"><ele>661.8</ele><time>2026-05-01T10:26:54.579Z</time></trkpt><trkpt lat="41.8999509" lon="12.9848791"><ele>662.1999999999999</ele><time>2026-05-01T10:26:55.585Z</time></trkpt><trkpt lat="41.8998757" lon="12.9848097"><ele>662.5999999999999</ele><time>2026-05-01T10:26:56.576Z</time></trkpt><trkpt lat="41.8998304" lon="12.9846976"><ele>663.0</ele><time>2026-05-01T10:26:57.568Z</time></trkpt><trkpt lat="41.8998131" lon="12.9845606"><ele>663.0</ele><time>2026-05-01T10:26:58.547Z</time></trkpt><trkpt lat="41.8998075" lon="12.984438"><ele>663.0</ele><time>2026-05-01T10:26:59.537Z</time></trkpt><trkpt lat="41.8997763" lon="12.9843381"><ele>663.0</ele><time>2026-05-01T10:27:00.539Z</time></trkpt><trkpt lat="41.8997114" lon="12.9842614"><ele>663.0</ele><time>2026-05-01T10:27:01.565Z</time></trkpt><trkpt lat="41.8996176" lon="12.9841966"><ele>663.0</ele><time>2026-05-01T10:27:02.577Z</time></trkpt><trkpt lat="41.899497" lon="12.984153"><ele>664.75</ele><time>2026-05-01T10:27:03.553Z</time></trkpt><trkpt lat="41.8993636" lon="12.9841294"><ele>666.5</ele><time>2026-05-01T10:27:04.606Z</time></trkpt><trkpt lat="41.8992275" lon="12.984097"><ele>668.25</ele><time>2026-05-01T10:27:05.58Z</time></trkpt><trkpt lat="41.8991019" lon="12.9840494"><ele>670.0</ele><time>2026-05-01T10:27:06.584Z</time></trkpt><trkpt lat="41.8989849" lon="12.9839895"><ele>670.0</ele><time>2026-05-01T10:27:07.61Z</time></trkpt><trkpt lat="41.8988694" lon="12.9839453"><ele>670.0</ele><time>2026-05-01T10:27:08.578Z</time></trkpt><trkpt lat="41.8987576" lon="12.9839146"><ele>670.0</ele><time>2026-05-01T10:27:09.602Z</time></trkpt><trkpt lat="41.8986534" lon="12.9838854"><ele>670.0</ele><time>2026-05-01T10:27:10.61Z</time></trkpt><trkpt lat="41.8985544" lon="12.9838597"><ele>670.0</ele><time>2026-05-01T10:27:11.594Z</time></trkpt><trkpt lat="41.8984548" lon="12.9838724"><ele>667.8</ele><time>2026-05-01T10:27:12.586Z</time></trkpt><trkpt lat="41.8983567" lon="12.9839025"><ele>665.6</ele><time>2026-05-01T10:27:13.587Z</time></trkpt><trkpt lat="41.8982619" lon="12.9839005"><ele>663.4000000000001</ele><time>2026-05-01T10:27:14.566Z</time></trkpt><trkpt lat="41.8981659" lon="12.9838501"><ele>661.2</ele><time>2026-05-01T10:27:15.536Z</time></trkpt><trkpt lat="41.8980801" lon="12.9837583"><ele>659.0</ele><time>2026-05-01T10:27:16.55Z</time></trkpt><trkpt lat="41.8980053" lon="12.9836462"><ele>659.0</ele><time>2026-05-01T10:27:17.553Z</time></trkpt><trkpt lat="41.8979236" lon="12.9835269"><ele>659.0</ele><time>2026-05-01T10:27:18.63Z</time></trkpt><trkpt lat="41.8978282" lon="12.9834501"><ele>659.0</ele><time>2026-05-01T10:27:19.548Z</time></trkpt><trkpt lat="41.8977332" lon="12.9834133"><ele>659.0</ele><time>2026-05-01T10:27:20.538Z</time></trkpt><trkpt lat="41.8976391" lon="12.9833903"><ele>659.0</ele><time>2026-05-01T10:27:21.561Z</time></trkpt><trkpt lat="41.8975632" lon="12.9833436"><ele>659.1666666666666</ele><time>2026-05-01T10:27:22.601Z</time></trkpt><trkpt lat="41.8975259" lon="12.9832575"><ele>659.3333333333333</ele><time>2026-05-01T10:27:23.548Z</time></trkpt><trkpt lat="41.8975174" lon="12.9831443"><ele>659.5</ele><time>2026-05-01T10:27:24.587Z</time></trkpt><trkpt lat="41.8975265" lon="12.9830284"><ele>659.6666666666666</ele><time>2026-05-01T10:27:25.593Z</time></trkpt><trkpt lat="41.8975477" lon="12.9829069"><ele>659.8333333333334</ele><time>2026-05-01T10:27:26.565Z</time></trkpt><trkpt lat="41.8975636" lon="12.9827827"><ele>660.0</ele><time>2026-05-01T10:27:27.561Z</time></trkpt><trkpt lat="41.8975435" lon="12.9826642"><ele>660.0</ele><time>2026-05-01T10:27:28.543Z</time></trkpt><trkpt lat="41.8974826" lon="12.9825627"><ele>660.0</ele><time>2026-05-01T10:27:29.558Z</time></trkpt><trkpt lat="41.897391" lon="12.982478"><ele>660.0</ele><time>2026-05-01T10:27:30.541Z</time></trkpt><trkpt lat="41.8972976" lon="12.9823988"><ele>660.0</ele><time>2026-05-01T10:27:31.585Z</time></trkpt><trkpt lat="41.897233" lon="12.9823157"><ele>660.0</ele><time>2026-05-01T10:27:32.595Z</time></trkpt><trkpt lat="41.8972332" lon="12.9822066"><ele>661.5</ele><time>2026-05-01T10:27:33.586Z</time></trkpt><trkpt lat="41.8972664" lon="12.9821073"><ele>663.0</ele><time>2026-05-01T10:27:34.573Z</time></trkpt><trkpt lat="41.8973235" lon="12.9820223"><ele>664.5</ele><time>2026-05-01T10:27:35.574Z</time></trkpt><trkpt lat="41.8973923" lon="12.9819417"><ele>666.0</ele><time>2026-05-01T10:27:36.589Z</time></trkpt><trkpt lat="41.897455" lon="12.9818551"><ele>667.5</ele><time>2026-05-01T10:27:37.586Z</time></trkpt><trkpt lat="41.8975041" lon="12.9817615"><ele>669.0</ele><time>2026-05-01T10:27:38.608Z</time></trkpt><trkpt lat="41.8975358" lon="12.9816628"><ele>669.0</ele><time>2026-05-01T10:27:39.551Z</time></trkpt><trkpt lat="41.8975563" lon="12.9815538"><ele>669.0</ele><time>2026-05-01T10:27:40.587Z</time></trkpt><trkpt lat="41.8975796" lon="12.9814472"><ele>669.0</ele><time>2026-05-01T10:27:41.608Z</time></trkpt><trkpt lat="41.8976074" lon="12.9813412"><ele>669.0</ele><time>2026-05-01T10:27:42.561Z</time></trkpt><trkpt lat="41.8976041" lon="12.9812354"><ele>669.0</ele><time>2026-05-01T10:27:43.567Z</time></trkpt><trkpt lat="41.8975576" lon="12.9811328"><ele>669.0</ele><time>2026-05-01T10:27:44.54Z</time></trkpt><trkpt lat="41.8974803" lon="12.9810434"><ele>669.0</ele><time>2026-05-01T10:27:45.592Z</time></trkpt><trkpt lat="41.8973698" lon="12.9809824"><ele>669.0</ele><time>2026-05-01T10:27:46.526Z</time></trkpt><trkpt lat="41.8972581" lon="12.9809357"><ele>669.0</ele><time>2026-05-01T10:27:47.532Z</time></trkpt><trkpt lat="41.8971655" lon="12.9808813"><ele>669.0</ele><time>2026-05-01T10:27:48.577Z</time></trkpt><trkpt lat="41.8971084" lon="12.9807982"><ele>669.0</ele><time>2026-05-01T10:27:49.564Z</time></trkpt><trkpt lat="41.8970729" lon="12.9806803"><ele>671.25</ele><time>2026-05-01T10:27:50.576Z</time></trkpt><trkpt lat="41.8970265" lon="12.9805399"><ele>673.5</ele><time>2026-05-01T10:27:51.518Z</time></trkpt><trkpt lat="41.8969493" lon="12.9804121"><ele>675.75</ele><time>2026-05-01T10:27:52.555Z</time></trkpt><trkpt lat="41.8968487" lon="12.9803053"><ele>678.0</ele><time>2026-05-01T10:27:53.55Z</time></trkpt><trkpt lat="41.8967429" lon="12.9802317"><ele>674.4</ele><time>2026-05-01T10:27:54.552Z</time></trkpt><trkpt lat="41.8966502" lon="12.9801663"><ele>670.8</ele><time>2026-05-01T10:27:55.61Z</time></trkpt><trkpt lat="41.8965837" lon="12.9800781"><ele>667.2</ele><time>2026-05-01T10:27:56.549Z</time></trkpt><trkpt lat="41.8965468" lon="12.979966"><ele>663.6</ele><time>2026-05-01T10:27:57.535Z</time></trkpt><trkpt lat="41.8965401" lon="12.9798271"><ele>660.0</ele><time>2026-05-01T10:27:58.567Z</time></trkpt><trkpt lat="41.8965651" lon="12.9796953"><ele>660.0</ele><time>2026-05-01T10:27:59.596Z</time></trkpt><trkpt lat="41.8966136" lon="12.9795801"><ele>660.0</ele><time>2026-05-01T10:28:00.574Z</time></trkpt><trkpt lat="41.8966563" lon="12.979466"><ele>660.0</ele><time>2026-05-01T10:28:01.576Z</time></trkpt><trkpt lat="41.8966832" lon="12.9793481"><ele>660.0</ele><time>2026-05-01T10:28:02.602Z</time></trkpt><trkpt lat="41.8966923" lon="12.9792202"><ele>660.0</ele><time>2026-05-01T10:28:03.568Z</time></trkpt><trkpt lat="41.8966868" lon="12.9790825"><ele>660.5</ele><time>2026-05-01T10:28:04.567Z</time></trkpt><trkpt lat="41.8966425" lon="12.9789412"><ele>661.0</ele><time>2026-05-01T10:28:05.536Z</time></trkpt><trkpt lat="41.8965799" lon="12.9788166"><ele>661.5</ele><time>2026-05-01T10:28:06.544Z</time></trkpt><trkpt lat="41.8964936" lon="12.9787098"><ele>662.0</ele><time>2026-05-01T10:28:07.547Z</time></trkpt><trkpt lat="41.8963892" lon="12.9786183"><ele>662.0</ele><time>2026-05-01T10:28:08.554Z</time></trkpt><trkpt lat="41.8962736" lon="12.9785333"><ele>662.0</ele><time>2026-05-01T10:28:09.535Z</time></trkpt><trkpt lat="41.8961574" lon="12.978452"><ele>662.0</ele><time>2026-05-01T10:28:10.57Z</time></trkpt><trkpt lat="41.8960409" lon="12.9783847"><ele>662.0</ele><time>2026-05-01T10:28:11.573Z</time></trkpt><trkpt lat="41.8959261" lon="12.9783279"><ele>662.0</ele><time>2026-05-01T10:28:12.556Z</time></trkpt><trkpt lat="41.8958123" lon="12.9782664"><ele>662.0</ele><time>2026-05-01T10:28:13.568Z</time></trkpt><trkpt lat="41.8957024" lon="12.9782059"><ele>662.0</ele><time>2026-05-01T10:28:14.57Z</time></trkpt><trkpt lat="41.8955905" lon="12.97815"><ele>662.0</ele><time>2026-05-01T10:28:15.634Z</time></trkpt><trkpt lat="41.895474" lon="12.9781061"><ele>662.0</ele><time>2026-05-01T10:28:16.574Z</time></trkpt><trkpt lat="41.8953445" lon="12.9780904"><ele>662.0</ele><time>2026-05-01T10:28:17.575Z</time></trkpt><trkpt lat="41.8952048" lon="12.9781054"><ele>662.0</ele><time>2026-05-01T10:28:18.587Z</time></trkpt><trkpt lat="41.895064" lon="12.9781229"><ele>662.0</ele><time>2026-05-01T10:28:19.636Z</time></trkpt><trkpt lat="41.8949219" lon="12.9781316"><ele>665.3333333333333</ele><time>2026-05-01T10:28:20.626Z</time></trkpt><trkpt lat="41.8947824" lon="12.9781015"><ele>668.6666666666666</ele><time>2026-05-01T10:28:21.609Z</time></trkpt><trkpt lat="41.894641" lon="12.9780365"><ele>672.0</ele><time>2026-05-01T10:28:22.612Z</time></trkpt><trkpt lat="41.8944926" lon="12.9779604"><ele>672.0</ele><time>2026-05-01T10:28:23.608Z</time></trkpt><trkpt lat="41.8943396" lon="12.9778641"><ele>672.0</ele><time>2026-05-01T10:28:24.577Z</time></trkpt><trkpt lat="41.8941886" lon="12.977762"><ele>672.0</ele><time>2026-05-01T10:28:25.623Z</time></trkpt><trkpt lat="41.8940391" lon="12.9777056"><ele>672.6666666666666</ele><time>2026-05-01T10:28:26.616Z</time></trkpt><trkpt lat="41.8938841" lon="12.9776788"><ele>673.3333333333333</ele><time>2026-05-01T10:28:27.595Z</time></trkpt><trkpt lat="41.8937241" lon="12.9776818"><ele>674.0</ele><time>2026-05-01T10:28:28.598Z</time></trkpt><trkpt lat="41.8935807" lon="12.9777029"><ele>674.0</ele><time>2026-05-01T10:28:29.547Z</time></trkpt><trkpt lat="41.8934575" lon="12.9777237"><ele>674.0</ele><time>2026-05-01T10:28:30.585Z</time></trkpt><trkpt lat="41.8933328" lon="12.9777462"><ele>674.0</ele><time>2026-05-01T10:28:31.606Z</time></trkpt><trkpt lat="41.8932136" lon="12.9777404"><ele>674.0</ele><time>2026-05-01T10:28:32.545Z</time></trkpt><trkpt lat="41.8931079" lon="12.9776774"><ele>673.5</ele><time>2026-05-01T10:28:33.556Z</time></trkpt><trkpt lat="41.8930094" lon="12.9775786"><ele>673.0</ele><time>2026-05-01T10:28:34.597Z</time></trkpt><trkpt lat="41.8929076" lon="12.9774826"><ele>672.5</ele><time>2026-05-01T10:28:35.596Z</time></trkpt><trkpt lat="41.892787" lon="12.9774211"><ele>672.0</ele><time>2026-05-01T10:28:36.597Z</time></trkpt><trkpt lat="41.8926504" lon="12.9774068"><ele>675.0</ele><time>2026-05-01T10:28:37.618Z</time></trkpt><trkpt lat="41.892508" lon="12.9774259"><ele>678.0</ele><time>2026-05-01T10:28:38.584Z</time></trkpt><trkpt lat="41.892374" lon="12.9774634"><ele>681.0</ele><time>2026-05-01T10:28:39.569Z</time></trkpt><trkpt lat="41.8922539" lon="12.9775092"><ele>684.0</ele><time>2026-05-01T10:28:40.592Z</time></trkpt><trkpt lat="41.8921398" lon="12.9775444"><ele>684.0</ele><time>2026-05-01T10:28:41.538Z</time></trkpt><trkpt lat="41.8920313" lon="12.9775575"><ele>684.0</ele><time>2026-05-01T10:28:42.608Z</time></trkpt><trkpt lat="41.8919252" lon="12.97755"><ele>684.0</ele><time>2026-05-01T10:28:43.617Z</time></trkpt><trkpt lat="41.8918024" lon="12.9775288"><ele>684.0</ele><time>2026-05-01T10:28:44.594Z</time></trkpt><trkpt lat="41.8916694" lon="12.977488"><ele>685.2</ele><time>2026-05-01T10:28:45.612Z</time></trkpt><trkpt lat="41.8915408" lon="12.977441"><ele>686.4000000000001</ele><time>2026-05-01T10:28:46.595Z</time></trkpt><trkpt lat="41.89143" lon="12.9774016"><ele>687.6</ele><time>2026-05-01T10:28:47.553Z</time></trkpt><trkpt lat="41.8913304" lon="12.9773672"><ele>688.8</ele><time>2026-05-01T10:28:48.558Z</time></trkpt><trkpt lat="41.8912364" lon="12.9773402"><ele>690.0</ele><time>2026-05-01T10:28:49.547Z</time></trkpt><trkpt lat="41.8911469" lon="12.9773061"><ele>690.0</ele><time>2026-05-01T10:28:50.543Z</time></trkpt><trkpt lat="41.891061" lon="12.9772729"><ele>690.0</ele><time>2026-05-01T10:28:51.551Z</time></trkpt><trkpt lat="41.8909723" lon="12.9772401"><ele>690.0</ele><time>2026-05-01T10:28:52.553Z</time></trkpt><trkpt lat="41.8908806" lon="12.9771756"><ele>690.0</ele><time>2026-05-01T10:28:53.54Z</time></trkpt><trkpt lat="41.8907839" lon="12.9770775"><ele>690.0</ele><time>2026-05-01T10:28:54.542Z</time></trkpt><trkpt lat="41.8906857" lon="12.9769844"><ele>687.6</ele><time>2026-05-01T10:28:55.591Z</time></trkpt><trkpt lat="41.890587" lon="12.9769406"><ele>685.2</ele><time>2026-05-01T10:28:56.572Z</time></trkpt><trkpt lat="41.890498" lon="12.9769418"><ele>682.8</ele><time>2026-05-01T10:28:57.543Z</time></trkpt><trkpt lat="41.8904002" lon="12.9769699"><ele>680.4</ele><time>2026-05-01T10:28:58.544Z</time></trkpt><trkpt lat="41.8902961" lon="12.977001"><ele>678.0</ele><time>2026-05-01T10:28:59.543Z</time></trkpt><trkpt lat="41.890185" lon="12.9770119"><ele>677.4</ele><time>2026-05-01T10:29:00.556Z</time></trkpt><trkpt lat="41.8900763" lon="12.976999"><ele>676.8</ele><time>2026-05-01T10:29:01.561Z</time></trkpt><trkpt lat="41.8899682" lon="12.9769726"><ele>676.2</ele><time>2026-05-01T10:29:02.543Z</time></trkpt><trkpt lat="41.8898676" lon="12.9769368"><ele>675.6</ele><time>2026-05-01T10:29:03.551Z</time></trkpt><trkpt lat="41.8897746" lon="12.9768749"><ele>675.0</ele><time>2026-05-01T10:29:04.557Z</time></trkpt><trkpt lat="41.8896909" lon="12.9767877"><ele>679.75</ele><time>2026-05-01T10:29:05.565Z</time></trkpt><trkpt lat="41.8896301" lon="12.9766659"><ele>684.5</ele><time>2026-05-01T10:29:06.54Z</time></trkpt><trkpt lat="41.8895865" lon="12.9765083"><ele>689.25</ele><time>2026-05-01T10:29:07.551Z</time></trkpt><trkpt lat="41.8895482" lon="12.9763416"><ele>694.0</ele><time>2026-05-01T10:29:08.553Z</time></trkpt><trkpt lat="41.8895142" lon="12.9761828"><ele>694.0</ele><time>2026-05-01T10:29:09.562Z</time></trkpt><trkpt lat="41.8894873" lon="12.9760278"><ele>694.0</ele><time>2026-05-01T10:29:10.563Z</time></trkpt><trkpt lat="41.8894606" lon="12.9758838"><ele>694.0</ele><time>2026-05-01T10:29:11.57Z</time></trkpt><trkpt lat="41.8894365" lon="12.9757346"><ele>694.0</ele><time>2026-05-01T10:29:12.562Z</time></trkpt><trkpt lat="41.8894107" lon="12.9755713"><ele>695.25</ele><time>2026-05-01T10:29:13.585Z</time></trkpt><trkpt lat="41.8893937" lon="12.9753903"><ele>696.5</ele><time>2026-05-01T10:29:14.549Z</time></trkpt><trkpt lat="41.8893732" lon="12.9752165"><ele>697.75</ele><time>2026-05-01T10:29:15.567Z</time></trkpt><trkpt lat="41.8893599" lon="12.9750491"><ele>699.0</ele><time>2026-05-01T10:29:16.571Z</time></trkpt><trkpt lat="41.8893592" lon="12.9748942"><ele>696.4000000000001</ele><time>2026-05-01T10:29:17.572Z</time></trkpt><trkpt lat="41.8893663" lon="12.9747363"><ele>693.8</ele><time>2026-05-01T10:29:18.573Z</time></trkpt><trkpt lat="41.8893778" lon="12.9745881"><ele>691.2</ele><time>2026-05-01T10:29:19.567Z</time></trkpt><trkpt lat="41.889384" lon="12.9744477"><ele>688.5999999999999</ele><time>2026-05-01T10:29:20.585Z</time></trkpt><trkpt lat="41.8893768" lon="12.9743138"><ele>686.0</ele><time>2026-05-01T10:29:21.557Z</time></trkpt><trkpt lat="41.889365" lon="12.9741943"><ele>684.0</ele><time>2026-05-01T10:29:22.58Z</time></trkpt><trkpt lat="41.8893577" lon="12.9740875"><ele>682.0</ele><time>2026-05-01T10:29:23.571Z</time></trkpt><trkpt lat="41.8893592" lon="12.9740023"><ele>680.0</ele><time>2026-05-01T10:29:24.551Z</time></trkpt><trkpt lat="41.8893961" lon="12.9738675"><ele>678.0</ele><time>2026-05-01T10:29:26.613Z</time></trkpt><trkpt lat="41.8894355" lon="12.9737915"><ele>676.0</ele><time>2026-05-01T10:29:27.595Z</time></trkpt><trkpt lat="41.8894918" lon="12.9736986"><ele>674.0</ele><time>2026-05-01T10:29:28.598Z</time></trkpt><trkpt lat="41.8895543" lon="12.9735934"><ele>674.0</ele><time>2026-05-01T10:29:29.584Z</time></trkpt><trkpt lat="41.8896179" lon="12.9734822"><ele>674.0</ele><time>2026-05-01T10:29:30.573Z</time></trkpt><trkpt lat="41.8896806" lon="12.9733713"><ele>674.0</ele><time>2026-05-01T10:29:31.602Z</time></trkpt><trkpt lat="41.8897508" lon="12.9732562"><ele>674.0</ele><time>2026-05-01T10:29:32.601Z</time></trkpt><trkpt lat="41.8898203" lon="12.9731399"><ele>674.0</ele><time>2026-05-01T10:29:33.609Z</time></trkpt><trkpt lat="41.8898906" lon="12.9730334"><ele>673.4000000000001</ele><time>2026-05-01T10:29:34.591Z</time></trkpt><trkpt lat="41.8899597" lon="12.9729238"><ele>672.8</ele><time>2026-05-01T10:29:35.616Z</time></trkpt><trkpt lat="41.8900251" lon="12.9728213"><ele>672.2</ele><time>2026-05-01T10:29:36.599Z</time></trkpt><trkpt lat="41.8900742" lon="12.9727129"><ele>671.5999999999999</ele><time>2026-05-01T10:29:37.623Z</time></trkpt><trkpt lat="41.8900984" lon="12.9726064"><ele>671.0</ele><time>2026-05-01T10:29:38.591Z</time></trkpt><trkpt lat="41.8900992" lon="12.9724968"><ele>672.5999999999999</ele><time>2026-05-01T10:29:39.542Z</time></trkpt><trkpt lat="41.8900933" lon="12.9723778"><ele>674.2</ele><time>2026-05-01T10:29:40.605Z</time></trkpt><trkpt lat="41.8900745" lon="12.9722496"><ele>675.8</ele><time>2026-05-01T10:29:41.603Z</time></trkpt><trkpt lat="41.8900469" lon="12.9720959"><ele>677.4000000000001</ele><time>2026-05-01T10:29:42.614Z</time></trkpt><trkpt lat="41.8900393" lon="12.9719281"><ele>679.0</ele><time>2026-05-01T10:29:43.575Z</time></trkpt><trkpt lat="41.8900499" lon="12.9717568"><ele>679.0</ele><time>2026-05-01T10:29:44.607Z</time></trkpt><trkpt lat="41.890082" lon="12.9715987"><ele>679.0</ele><time>2026-05-01T10:29:45.555Z</time></trkpt><trkpt lat="41.8901061" lon="12.9714469"><ele>679.0</ele><time>2026-05-01T10:29:46.567Z</time></trkpt><trkpt lat="41.8901164" lon="12.9712972"><ele>679.0</ele><time>2026-05-01T10:29:47.598Z</time></trkpt><trkpt lat="41.8901117" lon="12.9711514"><ele>679.0</ele><time>2026-05-01T10:29:48.582Z</time></trkpt><trkpt lat="41.8900793" lon="12.970985"><ele>679.0</ele><time>2026-05-01T10:29:49.6Z</time></trkpt><trkpt lat="41.8900341" lon="12.9708064"><ele>679.0</ele><time>2026-05-01T10:29:50.541Z</time></trkpt><trkpt lat="41.8899862" lon="12.9706253"><ele>679.0</ele><time>2026-05-01T10:29:51.596Z</time></trkpt><trkpt lat="41.8899421" lon="12.9704437"><ele>678.25</ele><time>2026-05-01T10:29:52.594Z</time></trkpt><trkpt lat="41.8899105" lon="12.9702525"><ele>677.5</ele><time>2026-05-01T10:29:53.583Z</time></trkpt><trkpt lat="41.8898881" lon="12.9700658"><ele>676.75</ele><time>2026-05-01T10:29:54.575Z</time></trkpt><trkpt lat="41.8898792" lon="12.9698883"><ele>676.0</ele><time>2026-05-01T10:29:55.616Z</time></trkpt><trkpt lat="41.8898939" lon="12.9697204"><ele>674.5</ele><time>2026-05-01T10:29:56.566Z</time></trkpt><trkpt lat="41.8899228" lon="12.9695512"><ele>673.0</ele><time>2026-05-01T10:29:57.642Z</time></trkpt><trkpt lat="41.88996" lon="12.9693929"><ele>671.5</ele><time>2026-05-01T10:29:58.599Z</time></trkpt><trkpt lat="41.8900127" lon="12.9692259"><ele>670.0</ele><time>2026-05-01T10:29:59.578Z</time></trkpt><trkpt lat="41.8900693" lon="12.9690506"><ele>664.0</ele><time>2026-05-01T10:30:00.589Z</time></trkpt><trkpt lat="41.8901246" lon="12.96888"><ele>658.0</ele><time>2026-05-01T10:30:01.598Z</time></trkpt><trkpt lat="41.8901754" lon="12.9687013"><ele>652.0</ele><time>2026-05-01T10:30:02.605Z</time></trkpt><trkpt lat="41.8902214" lon="12.968526"><ele>646.0</ele><time>2026-05-01T10:30:03.607Z</time></trkpt><trkpt lat="41.8902668" lon="12.9683578"><ele>646.0</ele><time>2026-05-01T10:30:04.564Z</time></trkpt><trkpt lat="41.8903087" lon="12.9681925"><ele>646.0</ele><time>2026-05-01T10:30:05.596Z</time></trkpt><trkpt lat="41.890332" lon="12.9680124"><ele>646.0</ele><time>2026-05-01T10:30:06.542Z</time></trkpt><trkpt lat="41.8903452" lon="12.9678079"><ele>646.0</ele><time>2026-05-01T10:30:07.602Z</time></trkpt><trkpt lat="41.8903618" lon="12.9676112"><ele>646.25</ele><time>2026-05-01T10:30:08.607Z</time></trkpt><trkpt lat="41.8903832" lon="12.9674233"><ele>646.5</ele><time>2026-05-01T10:30:09.593Z</time></trkpt><trkpt lat="41.8904128" lon="12.9672409"><ele>646.75</ele><time>2026-05-01T10:30:10.583Z</time></trkpt><trkpt lat="41.8904305" lon="12.9670531"><ele>647.0</ele><time>2026-05-01T10:30:11.588Z</time></trkpt><trkpt lat="41.8904252" lon="12.9668629"><ele>647.0</ele><time>2026-05-01T10:30:12.615Z</time></trkpt><trkpt lat="41.890405" lon="12.9666816"><ele>647.0</ele><time>2026-05-01T10:30:13.559Z</time></trkpt><trkpt lat="41.8903864" lon="12.9665027"><ele>647.0</ele><time>2026-05-01T10:30:14.599Z</time></trkpt><trkpt lat="41.8903836" lon="12.9663439"><ele>647.0</ele><time>2026-05-01T10:30:15.564Z</time></trkpt><trkpt lat="41.8903953" lon="12.9662015"><ele>647.0</ele><time>2026-05-01T10:30:16.551Z</time></trkpt><trkpt lat="41.8904322" lon="12.9660784"><ele>647.0</ele><time>2026-05-01T10:30:17.565Z</time></trkpt><trkpt lat="41.8905014" lon="12.965963"><ele>647.0</ele><time>2026-05-01T10:30:18.55Z</time></trkpt><trkpt lat="41.8905965" lon="12.9658675"><ele>647.0</ele><time>2026-05-01T10:30:19.566Z</time></trkpt><trkpt lat="41.8907105" lon="12.965779"><ele>646.75</ele><time>2026-05-01T10:30:20.545Z</time></trkpt><trkpt lat="41.8908315" lon="12.9656866"><ele>646.5</ele><time>2026-05-01T10:30:21.55Z</time></trkpt><trkpt lat="41.8909477" lon="12.965583"><ele>646.25</ele><time>2026-05-01T10:30:22.554Z</time></trkpt><trkpt lat="41.8910493" lon="12.9654638"><ele>646.0</ele><time>2026-05-01T10:30:23.552Z</time></trkpt><trkpt lat="41.8911265" lon="12.9653298"><ele>646.0</ele><time>2026-05-01T10:30:24.559Z</time></trkpt><trkpt lat="41.8911748" lon="12.9651877"><ele>646.0</ele><time>2026-05-01T10:30:25.546Z</time></trkpt><trkpt lat="41.891187" lon="12.9650412"><ele>646.0</ele><time>2026-05-01T10:30:26.564Z</time></trkpt><trkpt lat="41.8911724" lon="12.9649017"><ele>646.0</ele><time>2026-05-01T10:30:27.549Z</time></trkpt><trkpt lat="41.8911287" lon="12.9647683"><ele>646.0</ele><time>2026-05-01T10:30:28.542Z</time></trkpt><trkpt lat="41.8910583" lon="12.9646385"><ele>644.5</ele><time>2026-05-01T10:30:29.542Z</time></trkpt><trkpt lat="41.8909607" lon="12.9645077"><ele>643.0</ele><time>2026-05-01T10:30:30.533Z</time></trkpt><trkpt lat="41.8908471" lon="12.9643815"><ele>641.5</ele><time>2026-05-01T10:30:31.553Z</time></trkpt><trkpt lat="41.890731" lon="12.964255"><ele>640.0</ele><time>2026-05-01T10:30:32.57Z</time></trkpt><trkpt lat="41.8906266" lon="12.9641339"><ele>645.25</ele><time>2026-05-01T10:30:33.55Z</time></trkpt><trkpt lat="41.8905374" lon="12.9640095"><ele>650.5</ele><time>2026-05-01T10:30:34.564Z</time></trkpt><trkpt lat="41.8904569" lon="12.9638814"><ele>655.75</ele><time>2026-05-01T10:30:35.586Z</time></trkpt><trkpt lat="41.890386" lon="12.9637498"><ele>661.0</ele><time>2026-05-01T10:30:36.573Z</time></trkpt><trkpt lat="41.8903278" lon="12.9636063"><ele>661.0</ele><time>2026-05-01T10:30:37.575Z</time></trkpt><trkpt lat="41.8902862" lon="12.963439"><ele>661.0</ele><time>2026-05-01T10:30:38.577Z</time></trkpt><trkpt lat="41.8902499" lon="12.9632672"><ele>661.0</ele><time>2026-05-01T10:30:39.568Z</time></trkpt><trkpt lat="41.8902196" lon="12.9630883"><ele>661.0</ele><time>2026-05-01T10:30:40.561Z</time></trkpt><trkpt lat="41.8901982" lon="12.9629009"><ele>657.25</ele><time>2026-05-01T10:30:41.57Z</time></trkpt><trkpt lat="41.8901792" lon="12.9627125"><ele>653.5</ele><time>2026-05-01T10:30:42.559Z</time></trkpt><trkpt lat="41.890164" lon="12.9625258"><ele>649.75</ele><time>2026-05-01T10:30:43.545Z</time></trkpt><trkpt lat="41.8901537" lon="12.9623395"><ele>646.0</ele><time>2026-05-01T10:30:44.555Z</time></trkpt><trkpt lat="41.8901574" lon="12.9621473"><ele>645.25</ele><time>2026-05-01T10:30:45.573Z</time></trkpt><trkpt lat="41.890174" lon="12.9619616"><ele>644.5</ele><time>2026-05-01T10:30:46.567Z</time></trkpt><trkpt lat="41.8901975" lon="12.9617982"><ele>643.75</ele><time>2026-05-01T10:30:47.564Z</time></trkpt><trkpt lat="41.8902252" lon="12.9616535"><ele>643.0</ele><time>2026-05-01T10:30:48.57Z</time></trkpt><trkpt lat="41.8902454" lon="12.9615231"><ele>643.0</ele><time>2026-05-01T10:30:49.572Z</time></trkpt><trkpt lat="41.8902663" lon="12.961404"><ele>643.0</ele><time>2026-05-01T10:30:50.554Z</time></trkpt><trkpt lat="41.8902848" lon="12.9612975"><ele>643.0</ele><time>2026-05-01T10:30:51.56Z</time></trkpt><trkpt lat="41.890304" lon="12.9611975"><ele>643.0</ele><time>2026-05-01T10:30:52.551Z</time></trkpt><trkpt lat="41.8903446" lon="12.9610642"><ele>643.0</ele><time>2026-05-01T10:30:54.563Z</time></trkpt><trkpt lat="41.8903852" lon="12.9609676"><ele>643.0</ele><time>2026-05-01T10:30:56.548Z</time></trkpt><trkpt lat="41.8904089" lon="12.9608039"><ele>643.8</ele><time>2026-05-01T10:30:58.561Z</time></trkpt><trkpt lat="41.8904226" lon="12.9606874"><ele>644.5999999999999</ele><time>2026-05-01T10:30:59.551Z</time></trkpt><trkpt lat="41.8904453" lon="12.960554"><ele>645.4000000000001</ele><time>2026-05-01T10:31:00.54Z</time></trkpt><trkpt lat="41.8904739" lon="12.9603822"><ele>646.2</ele><time>2026-05-01T10:31:01.543Z</time></trkpt><trkpt lat="41.8905091" lon="12.9602271"><ele>647.0</ele><time>2026-05-01T10:31:02.535Z</time></trkpt><trkpt lat="41.8905479" lon="12.9600709"><ele>648.0</ele><time>2026-05-01T10:31:03.559Z</time></trkpt><trkpt lat="41.8906018" lon="12.9598887"><ele>649.0</ele><time>2026-05-01T10:31:04.542Z</time></trkpt><trkpt lat="41.890667" lon="12.9597045"><ele>650.0</ele><time>2026-05-01T10:31:05.534Z</time></trkpt><trkpt lat="41.8907373" lon="12.9595307"><ele>651.0</ele><time>2026-05-01T10:31:06.556Z</time></trkpt><trkpt lat="41.8907992" lon="12.9593597"><ele>651.0</ele><time>2026-05-01T10:31:07.546Z</time></trkpt><trkpt lat="41.8908558" lon="12.9592084"><ele>651.0</ele><time>2026-05-01T10:31:08.54Z</time></trkpt><trkpt lat="41.8909135" lon="12.9590675"><ele>651.0</ele><time>2026-05-01T10:31:09.55Z</time></trkpt><trkpt lat="41.8909719" lon="12.9589245"><ele>651.0</ele><time>2026-05-01T10:31:10.553Z</time></trkpt><trkpt lat="41.8910304" lon="12.9587828"><ele>648.5999999999999</ele><time>2026-05-01T10:31:11.566Z</time></trkpt><trkpt lat="41.8910848" lon="12.9586433"><ele>646.1999999999999</ele><time>2026-05-01T10:31:12.555Z</time></trkpt><trkpt lat="41.8911381" lon="12.9585126"><ele>643.8</ele><time>2026-05-01T10:31:13.575Z</time></trkpt><trkpt lat="41.8911759" lon="12.9583862"><ele>641.4</ele><time>2026-05-01T10:31:14.573Z</time></trkpt><trkpt lat="41.8912031" lon="12.9582509"><ele>639.0</ele><time>2026-05-01T10:31:15.552Z</time></trkpt><trkpt lat="41.891212" lon="12.9580667"><ele>639.0</ele><time>2026-05-01T10:31:16.548Z</time></trkpt><trkpt lat="41.8912156" lon="12.9578379"><ele>639.0</ele><time>2026-05-01T10:31:17.545Z</time></trkpt><trkpt lat="41.8912227" lon="12.9576145"><ele>639.0</ele><time>2026-05-01T10:31:18.562Z</time></trkpt><trkpt lat="41.8912271" lon="12.9574281"><ele>640.0</ele><time>2026-05-01T10:31:19.541Z</time></trkpt><trkpt lat="41.891241" lon="12.9572537"><ele>641.0</ele><time>2026-05-01T10:31:20.567Z</time></trkpt><trkpt lat="41.8912694" lon="12.9570871"><ele>642.0</ele><time>2026-05-01T10:31:21.525Z</time></trkpt><trkpt lat="41.8913122" lon="12.9569503"><ele>643.0</ele><time>2026-05-01T10:31:22.536Z</time></trkpt><trkpt lat="41.8913617" lon="12.9568173"><ele>643.4</ele><time>2026-05-01T10:31:23.573Z</time></trkpt><trkpt lat="41.8914086" lon="12.9566862"><ele>643.8</ele><time>2026-05-01T10:31:24.56Z</time></trkpt><trkpt lat="41.891436" lon="12.9565512"><ele>644.2</ele><time>2026-05-01T10:31:25.567Z</time></trkpt><trkpt lat="41.891437" lon="12.956421"><ele>644.6</ele><time>2026-05-01T10:31:26.553Z</time></trkpt><trkpt lat="41.8913983" lon="12.9562931"><ele>645.0</ele><time>2026-05-01T10:31:27.544Z</time></trkpt><trkpt lat="41.891329" lon="12.9561544"><ele>645.0</ele><time>2026-05-01T10:31:28.558Z</time></trkpt><trkpt lat="41.8912288" lon="12.9560126"><ele>645.0</ele><time>2026-05-01T10:31:29.552Z</time></trkpt><trkpt lat="41.8911175" lon="12.9558683"><ele>645.0</ele><time>2026-05-01T10:31:30.561Z</time></trkpt><trkpt lat="41.891035" lon="12.9557077"><ele>645.0</ele><time>2026-05-01T10:31:31.559Z</time></trkpt><trkpt lat="41.8909857" lon="12.9555316"><ele>646.5</ele><time>2026-05-01T10:31:32.547Z</time></trkpt><trkpt lat="41.8909445" lon="12.9553623"><ele>648.0</ele><time>2026-05-01T10:31:33.547Z</time></trkpt><trkpt lat="41.890905" lon="12.9552091"><ele>649.5</ele><time>2026-05-01T10:31:34.538Z</time></trkpt><trkpt lat="41.8908414" lon="12.9550812"><ele>651.0</ele><time>2026-05-01T10:31:35.547Z</time></trkpt><trkpt lat="41.8907484" lon="12.9549838"><ele>651.0</ele><time>2026-05-01T10:31:36.547Z</time></trkpt><trkpt lat="41.8906437" lon="12.9549168"><ele>651.0</ele><time>2026-05-01T10:31:37.54Z</time></trkpt><trkpt lat="41.8905235" lon="12.9548771"><ele>651.0</ele><time>2026-05-01T10:31:38.568Z</time></trkpt><trkpt lat="41.8903953" lon="12.9548547"><ele>651.0</ele><time>2026-05-01T10:31:39.54Z</time></trkpt><trkpt lat="41.8902605" lon="12.9548426"><ele>651.0</ele><time>2026-05-01T10:31:40.539Z</time></trkpt><trkpt lat="41.8901267" lon="12.9548253"><ele>651.0</ele><time>2026-05-01T10:31:41.544Z</time></trkpt><trkpt lat="41.8899834" lon="12.9548021"><ele>651.0</ele><time>2026-05-01T10:31:42.54Z</time></trkpt><trkpt lat="41.8898415" lon="12.9547889"><ele>651.0</ele><time>2026-05-01T10:31:43.577Z</time></trkpt><trkpt lat="41.88971" lon="12.9547707"><ele>654.0</ele><time>2026-05-01T10:31:44.548Z</time></trkpt><trkpt lat="41.8895822" lon="12.9547536"><ele>657.0</ele><time>2026-05-01T10:31:45.545Z</time></trkpt><trkpt lat="41.8894671" lon="12.9547278"><ele>660.0</ele><time>2026-05-01T10:31:46.568Z</time></trkpt><trkpt lat="41.8893539" lon="12.9546919"><ele>663.0</ele><time>2026-05-01T10:31:47.549Z</time></trkpt><trkpt lat="41.8892836" lon="12.9545851"><ele>663.0</ele><time>2026-05-01T10:31:48.55Z</time></trkpt><trkpt lat="41.889262" lon="12.9544274"><ele>663.0</ele><time>2026-05-01T10:31:49.545Z</time></trkpt><trkpt lat="41.8892359" lon="12.9542644"><ele>663.0</ele><time>2026-05-01T10:31:50.552Z</time></trkpt><trkpt lat="41.8891888" lon="12.9541131"><ele>663.0</ele><time>2026-05-01T10:31:51.544Z</time></trkpt><trkpt lat="41.8891123" lon="12.9539729"><ele>662.5</ele><time>2026-05-01T10:31:52.551Z</time></trkpt><trkpt lat="41.8890298" lon="12.9538406"><ele>662.0</ele><time>2026-05-01T10:31:53.555Z</time></trkpt><trkpt lat="41.8889426" lon="12.9537092"><ele>661.5</ele><time>2026-05-01T10:31:54.54Z</time></trkpt><trkpt lat="41.8888439" lon="12.9535766"><ele>661.0</ele><time>2026-05-01T10:31:55.549Z</time></trkpt><trkpt lat="41.8887426" lon="12.9534437"><ele>660.0</ele><time>2026-05-01T10:31:56.534Z</time></trkpt><trkpt lat="41.8886392" lon="12.9533094"><ele>659.0</ele><time>2026-05-01T10:31:57.566Z</time></trkpt><trkpt lat="41.8885419" lon="12.95318"><ele>658.0</ele><time>2026-05-01T10:31:58.548Z</time></trkpt><trkpt lat="41.8884565" lon="12.9530539"><ele>657.0</ele><time>2026-05-01T10:31:59.555Z</time></trkpt><trkpt lat="41.8883741" lon="12.9529431"><ele>657.0</ele><time>2026-05-01T10:32:00.555Z</time></trkpt><trkpt lat="41.8882861" lon="12.9528555"><ele>657.0</ele><time>2026-05-01T10:32:01.558Z</time></trkpt><trkpt lat="41.8881901" lon="12.9527989"><ele>657.0</ele><time>2026-05-01T10:32:02.541Z</time></trkpt><trkpt lat="41.8880735" lon="12.9527893"><ele>657.0</ele><time>2026-05-01T10:32:03.551Z</time></trkpt><trkpt lat="41.8879307" lon="12.9528078"><ele>657.0</ele><time>2026-05-01T10:32:04.544Z</time></trkpt><trkpt lat="41.8877634" lon="12.9528455"><ele>657.0</ele><time>2026-05-01T10:32:05.547Z</time></trkpt><trkpt lat="41.8875884" lon="12.9528843"><ele>657.0</ele><time>2026-05-01T10:32:06.547Z</time></trkpt><trkpt lat="41.8874087" lon="12.9529163"><ele>656.3333333333334</ele><time>2026-05-01T10:32:07.549Z</time></trkpt><trkpt lat="41.8872269" lon="12.9529303"><ele>655.6666666666667</ele><time>2026-05-01T10:32:08.563Z</time></trkpt><trkpt lat="41.8870542" lon="12.9529314"><ele>655.0</ele><time>2026-05-01T10:32:09.548Z</time></trkpt><trkpt lat="41.8869047" lon="12.9529312"><ele>658.3333333333334</ele><time>2026-05-01T10:32:10.595Z</time></trkpt><trkpt lat="41.8867573" lon="12.9529742"><ele>661.6666666666666</ele><time>2026-05-01T10:32:11.564Z</time></trkpt><trkpt lat="41.8866092" lon="12.9530607"><ele>665.0</ele><time>2026-05-01T10:32:12.547Z</time></trkpt><trkpt lat="41.8864701" lon="12.9531551"><ele>665.0</ele><time>2026-05-01T10:32:13.578Z</time></trkpt><trkpt lat="41.88633" lon="12.9532409"><ele>665.0</ele><time>2026-05-01T10:32:14.623Z</time></trkpt><trkpt lat="41.8861714" lon="12.9532932"><ele>665.0</ele><time>2026-05-01T10:32:15.626Z</time></trkpt><trkpt lat="41.8859938" lon="12.9533246"><ele>667.3333333333333</ele><time>2026-05-01T10:32:16.632Z</time></trkpt><trkpt lat="41.8858086" lon="12.9533447"><ele>669.6666666666666</ele><time>2026-05-01T10:32:17.597Z</time></trkpt><trkpt lat="41.8856167" lon="12.9533791"><ele>672.0</ele><time>2026-05-01T10:32:18.564Z</time></trkpt><trkpt lat="41.8854243" lon="12.9534237"><ele>668.3333333333334</ele><time>2026-05-01T10:32:19.552Z</time></trkpt><trkpt lat="41.8852469" lon="12.9534711"><ele>664.6666666666667</ele><time>2026-05-01T10:32:20.542Z</time></trkpt><trkpt lat="41.8850854" lon="12.9535082"><ele>661.0</ele><time>2026-05-01T10:32:21.541Z</time></trkpt><trkpt lat="41.8849306" lon="12.9535524"><ele>661.0</ele><time>2026-05-01T10:32:22.549Z</time></trkpt><trkpt lat="41.88477" lon="12.9536006"><ele>661.0</ele><time>2026-05-01T10:32:23.538Z</time></trkpt><trkpt lat="41.8846093" lon="12.9536504"><ele>661.0</ele><time>2026-05-01T10:32:24.546Z</time></trkpt><trkpt lat="41.8844614" lon="12.9537015"><ele>661.0</ele><time>2026-05-01T10:32:25.554Z</time></trkpt><trkpt lat="41.8843341" lon="12.9537584"><ele>661.0</ele><time>2026-05-01T10:32:26.544Z</time></trkpt><trkpt lat="41.8842214" lon="12.95383"><ele>661.0</ele><time>2026-05-01T10:32:27.543Z</time></trkpt><trkpt lat="41.8841224" lon="12.9539148"><ele>661.0</ele><time>2026-05-01T10:32:28.556Z</time></trkpt><trkpt lat="41.8840304" lon="12.9540039"><ele>664.75</ele><time>2026-05-01T10:32:29.544Z</time></trkpt><trkpt lat="41.8839379" lon="12.9540723"><ele>668.5</ele><time>2026-05-01T10:32:30.54Z</time></trkpt><trkpt lat="41.8838341" lon="12.9541128"><ele>672.25</ele><time>2026-05-01T10:32:31.556Z</time></trkpt><trkpt lat="41.88372" lon="12.9541298"><ele>676.0</ele><time>2026-05-01T10:32:32.544Z</time></trkpt><trkpt lat="41.8835963" lon="12.9541355"><ele>676.0</ele><time>2026-05-01T10:32:33.536Z</time></trkpt><trkpt lat="41.8834659" lon="12.9541278"><ele>676.0</ele><time>2026-05-01T10:32:34.534Z</time></trkpt><trkpt lat="41.8833337" lon="12.9541035"><ele>676.0</ele><time>2026-05-01T10:32:35.556Z</time></trkpt><trkpt lat="41.8832015" lon="12.9540661"><ele>676.0</ele><time>2026-05-01T10:32:36.553Z</time></trkpt><trkpt lat="41.8830834" lon="12.9540235"><ele>677.8</ele><time>2026-05-01T10:32:37.585Z</time></trkpt><trkpt lat="41.8829741" lon="12.9539794"><ele>679.5999999999999</ele><time>2026-05-01T10:32:38.571Z</time></trkpt><trkpt lat="41.882877" lon="12.9539137"><ele>681.4</ele><time>2026-05-01T10:32:39.555Z</time></trkpt><trkpt lat="41.8828" lon="12.9538147"><ele>683.2</ele><time>2026-05-01T10:32:40.551Z</time></trkpt><trkpt lat="41.8827299" lon="12.9536902"><ele>685.0</ele><time>2026-05-01T10:32:41.547Z</time></trkpt><trkpt lat="41.8826535" lon="12.9535517"><ele>688.0</ele><time>2026-05-01T10:32:42.542Z</time></trkpt><trkpt lat="41.8825588" lon="12.9534094"><ele>691.0</ele><time>2026-05-01T10:32:43.557Z</time></trkpt><trkpt lat="41.8824439" lon="12.9532779"><ele>694.0</ele><time>2026-05-01T10:32:44.542Z</time></trkpt><trkpt lat="41.8823163" lon="12.9531532"><ele>694.0</ele><time>2026-05-01T10:32:45.56Z</time></trkpt><trkpt lat="41.8821771" lon="12.9530358"><ele>694.0</ele><time>2026-05-01T10:32:46.561Z</time></trkpt><trkpt lat="41.8820288" lon="12.952932"><ele>694.0</ele><time>2026-05-01T10:32:47.554Z</time></trkpt><trkpt lat="41.8818822" lon="12.9528162"><ele>690.3333333333334</ele><time>2026-05-01T10:32:48.542Z</time></trkpt><trkpt lat="41.8817404" lon="12.9526875"><ele>686.6666666666666</ele><time>2026-05-01T10:32:49.557Z</time></trkpt><trkpt lat="41.8816048" lon="12.9525511"><ele>683.0</ele><time>2026-05-01T10:32:50.551Z</time></trkpt><trkpt lat="41.8814846" lon="12.952415"><ele>689.0</ele><time>2026-05-01T10:32:51.543Z</time></trkpt><trkpt lat="41.8813666" lon="12.9522917"><ele>695.0</ele><time>2026-05-01T10:32:52.55Z</time></trkpt><trkpt lat="41.8812485" lon="12.9521825"><ele>701.0</ele><time>2026-05-01T10:32:53.548Z</time></trkpt><trkpt lat="41.8811334" lon="12.9520671"><ele>707.0</ele><time>2026-05-01T10:32:54.564Z</time></trkpt><trkpt lat="41.8810207" lon="12.9519371"><ele>707.3333333333333</ele><time>2026-05-01T10:32:55.545Z</time></trkpt><trkpt lat="41.8809089" lon="12.9517883"><ele>707.6666666666666</ele><time>2026-05-01T10:32:56.565Z</time></trkpt><trkpt lat="41.8807972" lon="12.9516198"><ele>708.0</ele><time>2026-05-01T10:32:57.539Z</time></trkpt><trkpt lat="41.8806906" lon="12.9514514"><ele>709.75</ele><time>2026-05-01T10:32:58.536Z</time></trkpt><trkpt lat="41.8805918" lon="12.9512879"><ele>711.5</ele><time>2026-05-01T10:32:59.579Z</time></trkpt><trkpt lat="41.8805088" lon="12.9511368"><ele>713.25</ele><time>2026-05-01T10:33:00.547Z</time></trkpt><trkpt lat="41.8804322" lon="12.9510071"><ele>715.0</ele><time>2026-05-01T10:33:01.574Z</time></trkpt><trkpt lat="41.8803619" lon="12.9508865"><ele>717.6</ele><time>2026-05-01T10:33:02.554Z</time></trkpt><trkpt lat="41.8802913" lon="12.9507719"><ele>720.2</ele><time>2026-05-01T10:33:03.548Z</time></trkpt><trkpt lat="41.8802313" lon="12.950668"><ele>722.8</ele><time>2026-05-01T10:33:04.556Z</time></trkpt><trkpt lat="41.8801732" lon="12.9505796"><ele>725.4</ele><time>2026-05-01T10:33:05.544Z</time></trkpt><trkpt lat="41.8801082" lon="12.9505183"><ele>728.0</ele><time>2026-05-01T10:33:06.536Z</time></trkpt><trkpt lat="41.8800409" lon="12.9504716"><ele>728.0</ele><time>2026-05-01T10:33:07.55Z</time></trkpt><trkpt lat="41.8799729" lon="12.9504549"><ele>728.0</ele><time>2026-05-01T10:33:08.536Z</time></trkpt><trkpt lat="41.8799147" lon="12.9505245"><ele>728.0</ele><time>2026-05-01T10:33:09.553Z</time></trkpt><trkpt lat="41.8798827" lon="12.9506399"><ele>728.0</ele><time>2026-05-01T10:33:10.547Z</time></trkpt><trkpt lat="41.8798902" lon="12.9507956"><ele>728.0</ele><time>2026-05-01T10:33:11.544Z</time></trkpt><trkpt lat="41.8799098" lon="12.950971"><ele>731.6666666666666</ele><time>2026-05-01T10:33:12.55Z</time></trkpt><trkpt lat="41.8799382" lon="12.9511785"><ele>735.3333333333334</ele><time>2026-05-01T10:33:13.549Z</time></trkpt><trkpt lat="41.8799894" lon="12.9513951"><ele>739.0</ele><time>2026-05-01T10:33:14.548Z</time></trkpt><trkpt lat="41.8800479" lon="12.9516385"><ele>728.6666666666667</ele><time>2026-05-01T10:33:15.624Z</time></trkpt><trkpt lat="41.8801242" lon="12.951888"><ele>718.3333333333334</ele><time>2026-05-01T10:33:16.556Z</time></trkpt><trkpt lat="41.8802095" lon="12.952148"><ele>708.0</ele><time>2026-05-01T10:33:17.576Z</time></trkpt><trkpt lat="41.8802988" lon="12.9523883"><ele>712.3333333333334</ele><time>2026-05-01T10:33:18.572Z</time></trkpt><trkpt lat="41.8803734" lon="12.9526208"><ele>716.6666666666667</ele><time>2026-05-01T10:33:19.555Z</time></trkpt><trkpt lat="41.8804403" lon="12.9528373"><ele>721.0</ele><time>2026-05-01T10:33:20.568Z</time></trkpt><trkpt lat="41.8805007" lon="12.9530472"><ele>721.0</ele><time>2026-05-01T10:33:21.56Z</time></trkpt><trkpt lat="41.8805734" lon="12.9532508"><ele>721.0</ele><time>2026-05-01T10:33:22.577Z</time></trkpt><trkpt lat="41.8806814" lon="12.9534474"><ele>721.0</ele><time>2026-05-01T10:33:23.576Z</time></trkpt><trkpt lat="41.8807721" lon="12.9536361"><ele>725.0</ele><time>2026-05-01T10:33:24.572Z</time></trkpt><trkpt lat="41.8808502" lon="12.953814"><ele>729.0</ele><time>2026-05-01T10:33:25.546Z</time></trkpt><trkpt lat="41.8809137" lon="12.9539856"><ele>733.0</ele><time>2026-05-01T10:33:26.55Z</time></trkpt><trkpt lat="41.8809662" lon="12.9541594"><ele>737.0</ele><time>2026-05-01T10:33:27.542Z</time></trkpt><trkpt lat="41.8809924" lon="12.9543452"><ele>734.8</ele><time>2026-05-01T10:33:28.545Z</time></trkpt><trkpt lat="41.8809912" lon="12.9545162"><ele>732.6</ele><time>2026-05-01T10:33:29.557Z</time></trkpt><trkpt lat="41.8809857" lon="12.9546438"><ele>730.4</ele><time>2026-05-01T10:33:30.589Z</time></trkpt><trkpt lat="41.8809665" lon="12.9547629"><ele>728.1999999999999</ele><time>2026-05-01T10:33:31.566Z</time></trkpt><trkpt lat="41.8809179" lon="12.9548772"><ele>726.0</ele><time>2026-05-01T10:33:32.559Z</time></trkpt><trkpt lat="41.8808389" lon="12.9549816"><ele>721.4</ele><time>2026-05-01T10:33:33.564Z</time></trkpt><trkpt lat="41.8807433" lon="12.9550643"><ele>716.8</ele><time>2026-05-01T10:33:34.552Z</time></trkpt><trkpt lat="41.8806504" lon="12.9551134"><ele>712.1999999999999</ele><time>2026-05-01T10:33:35.571Z</time></trkpt><trkpt lat="41.8805447" lon="12.9551237"><ele>707.5999999999999</ele><time>2026-05-01T10:33:36.584Z</time></trkpt><trkpt lat="41.8804393" lon="12.9551069"><ele>703.0</ele><time>2026-05-01T10:33:37.554Z</time></trkpt><trkpt lat="41.8803336" lon="12.9550732"><ele>703.0</ele><time>2026-05-01T10:33:38.592Z</time></trkpt><trkpt lat="41.8802196" lon="12.9550414"><ele>703.0</ele><time>2026-05-01T10:33:39.587Z</time></trkpt><trkpt lat="41.8800939" lon="12.9549991"><ele>703.0</ele><time>2026-05-01T10:33:40.595Z</time></trkpt><trkpt lat="41.8799611" lon="12.954949"><ele>703.0</ele><time>2026-05-01T10:33:41.583Z</time></trkpt><trkpt lat="41.8798152" lon="12.9549056"><ele>714.0</ele><time>2026-05-01T10:33:42.592Z</time></trkpt><trkpt lat="41.8796517" lon="12.9548892"><ele>725.0</ele><time>2026-05-01T10:33:43.578Z</time></trkpt><trkpt lat="41.8794885" lon="12.9548861"><ele>736.0</ele><time>2026-05-01T10:33:44.563Z</time></trkpt><trkpt lat="41.8793203" lon="12.9548769"><ele>735.6666666666667</ele><time>2026-05-01T10:33:45.599Z</time></trkpt><trkpt lat="41.8791486" lon="12.9548432"><ele>735.3333333333334</ele><time>2026-05-01T10:33:46.565Z</time></trkpt><trkpt lat="41.878982" lon="12.954783"><ele>735.0</ele><time>2026-05-01T10:33:47.563Z</time></trkpt><trkpt lat="41.8788192" lon="12.9547152"><ele>735.0</ele><time>2026-05-01T10:33:48.602Z</time></trkpt><trkpt lat="41.8786684" lon="12.9546321"><ele>735.0</ele><time>2026-05-01T10:33:49.561Z</time></trkpt><trkpt lat="41.8785183" lon="12.9545255"><ele>735.0</ele><time>2026-05-01T10:33:50.573Z</time></trkpt><trkpt lat="41.8783856" lon="12.9543884"><ele>736.75</ele><time>2026-05-01T10:33:51.605Z</time></trkpt><trkpt lat="41.8782768" lon="12.9542491"><ele>738.5</ele><time>2026-05-01T10:33:52.554Z</time></trkpt><trkpt lat="41.878182" lon="12.9541273"><ele>740.25</ele><time>2026-05-01T10:33:53.592Z</time></trkpt><trkpt lat="41.8780847" lon="12.9540243"><ele>742.0</ele><time>2026-05-01T10:33:54.601Z</time></trkpt><trkpt lat="41.8779863" lon="12.9539115"><ele>742.0</ele><time>2026-05-01T10:33:55.584Z</time></trkpt><trkpt lat="41.8778918" lon="12.953792"><ele>742.0</ele><time>2026-05-01T10:33:56.586Z</time></trkpt><trkpt lat="41.8777972" lon="12.953693"><ele>742.0</ele><time>2026-05-01T10:33:57.594Z</time></trkpt><trkpt lat="41.8777016" lon="12.953628"><ele>742.0</ele><time>2026-05-01T10:33:58.546Z</time></trkpt><trkpt lat="41.8775961" lon="12.9536211"><ele>739.5</ele><time>2026-05-01T10:33:59.584Z</time></trkpt><trkpt lat="41.8774781" lon="12.9536494"><ele>737.0</ele><time>2026-05-01T10:34:00.586Z</time></trkpt><trkpt lat="41.8773534" lon="12.9536855"><ele>734.5</ele><time>2026-05-01T10:34:01.579Z</time></trkpt><trkpt lat="41.8772283" lon="12.9537233"><ele>732.0</ele><time>2026-05-01T10:34:02.645Z</time></trkpt><trkpt lat="41.877112" lon="12.9537202"><ele>732.0</ele><time>2026-05-01T10:34:03.592Z</time></trkpt><trkpt lat="41.8769995" lon="12.9536692"><ele>732.0</ele><time>2026-05-01T10:34:04.596Z</time></trkpt><trkpt lat="41.8769164" lon="12.9535869"><ele>732.0</ele><time>2026-05-01T10:34:05.557Z</time></trkpt><trkpt lat="41.876851" lon="12.9534599"><ele>732.0</ele><time>2026-05-01T10:34:06.55Z</time></trkpt><trkpt lat="41.8767927" lon="12.9533309"><ele>732.0</ele><time>2026-05-01T10:34:07.595Z</time></trkpt><trkpt lat="41.8767391" lon="12.9532153"><ele>735.0</ele><time>2026-05-01T10:34:08.605Z</time></trkpt><trkpt lat="41.8767066" lon="12.9531009"><ele>738.0</ele><time>2026-05-01T10:34:09.587Z</time></trkpt><trkpt lat="41.8766888" lon="12.9529693"><ele>741.0</ele><time>2026-05-01T10:34:10.592Z</time></trkpt><trkpt lat="41.8766783" lon="12.9528239"><ele>744.0</ele><time>2026-05-01T10:34:11.599Z</time></trkpt><trkpt lat="41.876672" lon="12.9526807"><ele>747.0</ele><time>2026-05-01T10:34:12.62Z</time></trkpt><trkpt lat="41.8766513" lon="12.9525536"><ele>750.4000000000001</ele><time>2026-05-01T10:34:13.565Z</time></trkpt><trkpt lat="41.8765979" lon="12.9524556"><ele>753.8000000000001</ele><time>2026-05-01T10:34:14.606Z</time></trkpt><trkpt lat="41.8765183" lon="12.9523907"><ele>757.2</ele><time>2026-05-01T10:34:15.547Z</time></trkpt><trkpt lat="41.8764206" lon="12.9523715"><ele>760.6</ele><time>2026-05-01T10:34:16.596Z</time></trkpt><trkpt lat="41.8763185" lon="12.9523862"><ele>764.0</ele><time>2026-05-01T10:34:17.578Z</time></trkpt><trkpt lat="41.8762004" lon="12.9524254"><ele>764.0</ele><time>2026-05-01T10:34:18.556Z</time></trkpt><trkpt lat="41.8760742" lon="12.9524681"><ele>764.0</ele><time>2026-05-01T10:34:19.573Z</time></trkpt><trkpt lat="41.8759425" lon="12.9524928"><ele>764.0</ele><time>2026-05-01T10:34:20.605Z</time></trkpt><trkpt lat="41.8758069" lon="12.9524855"><ele>764.0</ele><time>2026-05-01T10:34:21.555Z</time></trkpt><trkpt lat="41.8756807" lon="12.9524492"><ele>761.25</ele><time>2026-05-01T10:34:22.578Z</time></trkpt><trkpt lat="41.875572" lon="12.9523749"><ele>758.5</ele><time>2026-05-01T10:34:23.572Z</time></trkpt><trkpt lat="41.8754956" lon="12.9522566"><ele>755.75</ele><time>2026-05-01T10:34:24.584Z</time></trkpt><trkpt lat="41.8754527" lon="12.9521293"><ele>753.0</ele><time>2026-05-01T10:34:25.548Z</time></trkpt><trkpt lat="41.8754311" lon="12.9519878"><ele>753.0</ele><time>2026-05-01T10:34:26.563Z</time></trkpt><trkpt lat="41.8754184" lon="12.9518223"><ele>753.0</ele><time>2026-05-01T10:34:27.559Z</time></trkpt><trkpt lat="41.8753986" lon="12.9516442"><ele>753.0</ele><time>2026-05-01T10:34:28.602Z</time></trkpt><trkpt lat="41.8753732" lon="12.9514715"><ele>753.0</ele><time>2026-05-01T10:34:29.575Z</time></trkpt><trkpt lat="41.8753349" lon="12.9513182"><ele>757.5</ele><time>2026-05-01T10:34:30.624Z</time></trkpt><trkpt lat="41.8752895" lon="12.9511751"><ele>762.0</ele><time>2026-05-01T10:34:31.551Z</time></trkpt><trkpt lat="41.8752579" lon="12.9510283"><ele>766.5</ele><time>2026-05-01T10:34:32.574Z</time></trkpt><trkpt lat="41.8752478" lon="12.9508741"><ele>771.0</ele><time>2026-05-01T10:34:33.61Z</time></trkpt><trkpt lat="41.8752648" lon="12.950715"><ele>774.1999999999999</ele><time>2026-05-01T10:34:34.59Z</time></trkpt><trkpt lat="41.8752879" lon="12.9505588"><ele>777.4</ele><time>2026-05-01T10:34:35.549Z</time></trkpt><trkpt lat="41.8752972" lon="12.9504072"><ele>780.6</ele><time>2026-05-01T10:34:36.583Z</time></trkpt><trkpt lat="41.8752852" lon="12.9502736"><ele>783.8</ele><time>2026-05-01T10:34:37.549Z</time></trkpt><trkpt lat="41.875261" lon="12.9501527"><ele>787.0</ele><time>2026-05-01T10:34:38.549Z</time></trkpt><trkpt lat="41.8752248" lon="12.9500566"><ele>787.1666666666666</ele><time>2026-05-01T10:34:39.548Z</time></trkpt><trkpt lat="41.8751687" lon="12.9499854"><ele>787.3333333333333</ele><time>2026-05-01T10:34:40.567Z</time></trkpt><trkpt lat="41.8750957" lon="12.9499304"><ele>787.5</ele><time>2026-05-01T10:34:41.58Z</time></trkpt><trkpt lat="41.875024" lon="12.9499045"><ele>787.6666666666667</ele><time>2026-05-01T10:34:42.563Z</time></trkpt><trkpt lat="41.8749426" lon="12.9499422"><ele>787.8333333333334</ele><time>2026-05-01T10:34:43.573Z</time></trkpt><trkpt lat="41.8748716" lon="12.9500323"><ele>788.0</ele><time>2026-05-01T10:34:44.543Z</time></trkpt><trkpt lat="41.8747925" lon="12.950138"><ele>780.3333333333334</ele><time>2026-05-01T10:34:45.57Z</time></trkpt><trkpt lat="41.8746815" lon="12.950242"><ele>772.6666666666667</ele><time>2026-05-01T10:34:46.569Z</time></trkpt><trkpt lat="41.8745457" lon="12.9503555"><ele>765.0</ele><time>2026-05-01T10:34:47.601Z</time></trkpt><trkpt lat="41.8744064" lon="12.9504839"><ele>765.0</ele><time>2026-05-01T10:34:48.593Z</time></trkpt><trkpt lat="41.8742877" lon="12.9506162"><ele>765.0</ele><time>2026-05-01T10:34:49.578Z</time></trkpt><trkpt lat="41.8741998" lon="12.9507954"><ele>765.0</ele><time>2026-05-01T10:34:50.591Z</time></trkpt><trkpt lat="41.8741286" lon="12.9510093"><ele>767.0</ele><time>2026-05-01T10:34:51.589Z</time></trkpt><trkpt lat="41.874061" lon="12.9512212"><ele>769.0</ele><time>2026-05-01T10:34:52.609Z</time></trkpt><trkpt lat="41.8739905" lon="12.9514197"><ele>771.0</ele><time>2026-05-01T10:34:53.563Z</time></trkpt><trkpt lat="41.8739043" lon="12.951589"><ele>763.25</ele><time>2026-05-01T10:34:54.614Z</time></trkpt><trkpt lat="41.8738195" lon="12.9517341"><ele>755.5</ele><time>2026-05-01T10:34:55.575Z</time></trkpt><trkpt lat="41.8737388" lon="12.9518578"><ele>747.75</ele><time>2026-05-01T10:34:56.574Z</time></trkpt><trkpt lat="41.8736438" lon="12.9519528"><ele>740.0</ele><time>2026-05-01T10:34:57.606Z</time></trkpt><trkpt lat="41.8735192" lon="12.9520152"><ele>748.25</ele><time>2026-05-01T10:34:58.591Z</time></trkpt><trkpt lat="41.8733786" lon="12.9520624"><ele>756.5</ele><time>2026-05-01T10:34:59.579Z</time></trkpt><trkpt lat="41.8732541" lon="12.9521229"><ele>764.75</ele><time>2026-05-01T10:35:00.544Z</time></trkpt><trkpt lat="41.8731452" lon="12.9521848"><ele>773.0</ele><time>2026-05-01T10:35:01.566Z</time></trkpt><trkpt lat="41.8730508" lon="12.9522587"><ele>773.0000000000001</ele><time>2026-05-01T10:35:02.549Z</time></trkpt><trkpt lat="41.8729725" lon="12.952317"><ele>773.0</ele><time>2026-05-01T10:35:03.597Z</time></trkpt><trkpt lat="41.872905" lon="12.9523374"><ele>773.0</ele><time>2026-05-01T10:35:04.562Z</time></trkpt><trkpt lat="41.8728431" lon="12.9522995"><ele>773.0</ele><time>2026-05-01T10:35:05.59Z</time></trkpt><trkpt lat="41.8727955" lon="12.9522205"><ele>773.0000000000001</ele><time>2026-05-01T10:35:06.55Z</time></trkpt><trkpt lat="41.8727606" lon="12.9521316"><ele>773.0</ele><time>2026-05-01T10:35:07.575Z</time></trkpt><trkpt lat="41.8727243" lon="12.9520311"><ele>773.0</ele><time>2026-05-01T10:35:08.546Z</time></trkpt><trkpt lat="41.8726745" lon="12.951931"><ele>773.0</ele><time>2026-05-01T10:35:09.55Z</time></trkpt><trkpt lat="41.8726094" lon="12.9518359"><ele>773.0</ele><time>2026-05-01T10:35:10.587Z</time></trkpt><trkpt lat="41.872521" lon="12.9517501"><ele>773.0</ele><time>2026-05-01T10:35:11.606Z</time></trkpt><trkpt lat="41.8724147" lon="12.9516576"><ele>773.0</ele><time>2026-05-01T10:35:12.587Z</time></trkpt><trkpt lat="41.8723112" lon="12.9515706"><ele>778.0</ele><time>2026-05-01T10:35:13.624Z</time></trkpt><trkpt lat="41.8722357" lon="12.9514702"><ele>783.0</ele><time>2026-05-01T10:35:14.553Z</time></trkpt><trkpt lat="41.8721663" lon="12.9513432"><ele>788.0</ele><time>2026-05-01T10:35:15.583Z</time></trkpt><trkpt lat="41.8720836" lon="12.9512156"><ele>793.0</ele><time>2026-05-01T10:35:16.546Z</time></trkpt><trkpt lat="41.8719751" lon="12.9510892"><ele>793.0</ele><time>2026-05-01T10:35:17.556Z</time></trkpt><trkpt lat="41.8718619" lon="12.9509674"><ele>793.0</ele><time>2026-05-01T10:35:18.571Z</time></trkpt><trkpt lat="41.8717575" lon="12.9508418"><ele>793.0</ele><time>2026-05-01T10:35:19.58Z</time></trkpt><trkpt lat="41.8716636" lon="12.9507102"><ele>793.0</ele><time>2026-05-01T10:35:20.61Z</time></trkpt><trkpt lat="41.871573" lon="12.9505667"><ele>794.0</ele><time>2026-05-01T10:35:21.6Z</time></trkpt><trkpt lat="41.8714945" lon="12.9504201"><ele>795.0</ele><time>2026-05-01T10:35:22.553Z</time></trkpt><trkpt lat="41.8714043" lon="12.9502809"><ele>796.0</ele><time>2026-05-01T10:35:23.589Z</time></trkpt><trkpt lat="41.8712821" lon="12.9501581"><ele>797.0</ele><time>2026-05-01T10:35:24.551Z</time></trkpt><trkpt lat="41.8711334" lon="12.9500522"><ele>800.3333333333334</ele><time>2026-05-01T10:35:25.561Z</time></trkpt><trkpt lat="41.8709852" lon="12.9499609"><ele>803.6666666666667</ele><time>2026-05-01T10:35:26.554Z</time></trkpt><trkpt lat="41.8708477" lon="12.9498845"><ele>807.0</ele><time>2026-05-01T10:35:27.556Z</time></trkpt><trkpt lat="41.8707173" lon="12.9498221"><ele>807.0</ele><time>2026-05-01T10:35:28.546Z</time></trkpt><trkpt lat="41.8705792" lon="12.9497878"><ele>807.0</ele><time>2026-05-01T10:35:29.563Z</time></trkpt><trkpt lat="41.870445" lon="12.9497629"><ele>807.0</ele><time>2026-05-01T10:35:30.614Z</time></trkpt><trkpt lat="41.8703294" lon="12.9497455"><ele>807.0</ele><time>2026-05-01T10:35:31.606Z</time></trkpt><trkpt lat="41.8702308" lon="12.9497387"><ele>807.0</ele><time>2026-05-01T10:35:32.556Z</time></trkpt><trkpt lat="41.8701482" lon="12.9497522"><ele>807.0</ele><time>2026-05-01T10:35:33.565Z</time></trkpt><trkpt lat="41.870082" lon="12.9498044"><ele>807.0</ele><time>2026-05-01T10:35:34.572Z</time></trkpt><trkpt lat="41.8700311" lon="12.949906"><ele>807.0</ele><time>2026-05-01T10:35:35.548Z</time></trkpt><trkpt lat="41.8700099" lon="12.9500289"><ele>807.0</ele><time>2026-05-01T10:35:36.555Z</time></trkpt><trkpt lat="41.8700143" lon="12.9501558"><ele>807.0</ele><time>2026-05-01T10:35:37.593Z</time></trkpt><trkpt lat="41.8700198" lon="12.9502979"><ele>808.0</ele><time>2026-05-01T10:35:38.589Z</time></trkpt><trkpt lat="41.8700337" lon="12.9504485"><ele>809.0</ele><time>2026-05-01T10:35:39.595Z</time></trkpt><trkpt lat="41.8700513" lon="12.9506034"><ele>810.0</ele><time>2026-05-01T10:35:40.545Z</time></trkpt><trkpt lat="41.8700682" lon="12.9507593"><ele>811.0</ele><time>2026-05-01T10:35:41.587Z</time></trkpt><trkpt lat="41.8700776" lon="12.9509209"><ele>811.0</ele><time>2026-05-01T10:35:42.607Z</time></trkpt><trkpt lat="41.8700677" lon="12.9510747"><ele>811.0</ele><time>2026-05-01T10:35:43.594Z</time></trkpt><trkpt lat="41.8700341" lon="12.9512212"><ele>811.0</ele><time>2026-05-01T10:35:44.591Z</time></trkpt><trkpt lat="41.8700059" lon="12.9513665"><ele>811.0</ele><time>2026-05-01T10:35:45.586Z</time></trkpt><trkpt lat="41.8699668" lon="12.9515003"><ele>811.0</ele><time>2026-05-01T10:35:46.601Z</time></trkpt><trkpt lat="41.8699174" lon="12.9516253"><ele>807.0</ele><time>2026-05-01T10:35:47.601Z</time></trkpt><trkpt lat="41.8698587" lon="12.9517434"><ele>803.0</ele><time>2026-05-01T10:35:48.562Z</time></trkpt><trkpt lat="41.8697861" lon="12.9518539"><ele>799.0</ele><time>2026-05-01T10:35:49.592Z</time></trkpt><trkpt lat="41.8696976" lon="12.9519467"><ele>795.0</ele><time>2026-05-01T10:35:50.569Z</time></trkpt><trkpt lat="41.8696014" lon="12.9520364"><ele>791.0</ele><time>2026-05-01T10:35:51.575Z</time></trkpt><trkpt lat="41.8694948" lon="12.9521233"><ele>791.0</ele><time>2026-05-01T10:35:52.564Z</time></trkpt><trkpt lat="41.8693859" lon="12.952193"><ele>791.0</ele><time>2026-05-01T10:35:53.562Z</time></trkpt><trkpt lat="41.869262" lon="12.9522299"><ele>791.0</ele><time>2026-05-01T10:35:54.593Z</time></trkpt><trkpt lat="41.8691348" lon="12.9522275"><ele>791.0</ele><time>2026-05-01T10:35:55.551Z</time></trkpt><trkpt lat="41.8690105" lon="12.9522194"><ele>796.0</ele><time>2026-05-01T10:35:56.573Z</time></trkpt><trkpt lat="41.8688887" lon="12.9522293"><ele>801.0</ele><time>2026-05-01T10:35:57.593Z</time></trkpt><trkpt lat="41.8687761" lon="12.9522592"><ele>806.0</ele><time>2026-05-01T10:35:58.557Z</time></trkpt><trkpt lat="41.868658" lon="12.9522924"><ele>811.0</ele><time>2026-05-01T10:35:59.57Z</time></trkpt><trkpt lat="41.8685359" lon="12.9522929"><ele>812.75</ele><time>2026-05-01T10:36:00.54Z</time></trkpt><trkpt lat="41.8684144" lon="12.9522576"><ele>814.5</ele><time>2026-05-01T10:36:01.593Z</time></trkpt><trkpt lat="41.868293" lon="12.9522112"><ele>816.25</ele><time>2026-05-01T10:36:02.599Z</time></trkpt><trkpt lat="41.8681677" lon="12.9521985"><ele>818.0</ele><time>2026-05-01T10:36:03.588Z</time></trkpt><trkpt lat="41.8680433" lon="12.9522171"><ele>818.0</ele><time>2026-05-01T10:36:04.543Z</time></trkpt><trkpt lat="41.867923" lon="12.9522385"><ele>818.0</ele><time>2026-05-01T10:36:05.546Z</time></trkpt><trkpt lat="41.8678001" lon="12.9522755"><ele>818.0</ele><time>2026-05-01T10:36:06.551Z</time></trkpt><trkpt lat="41.867674" lon="12.9522987"><ele>818.0</ele><time>2026-05-01T10:36:07.603Z</time></trkpt><trkpt lat="41.8675509" lon="12.9523234"><ele>819.0</ele><time>2026-05-01T10:36:08.576Z</time></trkpt><trkpt lat="41.8674263" lon="12.9523452"><ele>820.0</ele><time>2026-05-01T10:36:09.61Z</time></trkpt><trkpt lat="41.86731" lon="12.9523466"><ele>821.0</ele><time>2026-05-01T10:36:10.606Z</time></trkpt><trkpt lat="41.8672094" lon="12.9523032"><ele>822.0</ele><time>2026-05-01T10:36:11.557Z</time></trkpt><trkpt lat="41.8671128" lon="12.9522277"><ele>822.0</ele><time>2026-05-01T10:36:12.592Z</time></trkpt><trkpt lat="41.8670156" lon="12.9521631"><ele>822.0</ele><time>2026-05-01T10:36:13.557Z</time></trkpt><trkpt lat="41.8669181" lon="12.952102"><ele>822.0</ele><time>2026-05-01T10:36:14.578Z</time></trkpt><trkpt lat="41.8668166" lon="12.9520441"><ele>822.0</ele><time>2026-05-01T10:36:15.544Z</time></trkpt><trkpt lat="41.866712" lon="12.9519883"><ele>822.0</ele><time>2026-05-01T10:36:16.582Z</time></trkpt><trkpt lat="41.8666049" lon="12.9519221"><ele>820.5</ele><time>2026-05-01T10:36:17.546Z</time></trkpt><trkpt lat="41.8664928" lon="12.9518584"><ele>819.0</ele><time>2026-05-01T10:36:18.596Z</time></trkpt><trkpt lat="41.8663809" lon="12.951799"><ele>817.5</ele><time>2026-05-01T10:36:19.59Z</time></trkpt><trkpt lat="41.8662703" lon="12.9517382"><ele>816.0</ele><time>2026-05-01T10:36:20.533Z</time></trkpt><trkpt lat="41.8661591" lon="12.9516773"><ele>821.75</ele><time>2026-05-01T10:36:21.564Z</time></trkpt><trkpt lat="41.8660489" lon="12.9516156"><ele>827.5</ele><time>2026-05-01T10:36:22.569Z</time></trkpt><trkpt lat="41.8659364" lon="12.9515635"><ele>833.25</ele><time>2026-05-01T10:36:23.577Z</time></trkpt><trkpt lat="41.8658223" lon="12.9515177"><ele>839.0</ele><time>2026-05-01T10:36:24.575Z</time></trkpt><trkpt lat="41.8657091" lon="12.9514752"><ele>839.0</ele><time>2026-05-01T10:36:25.538Z</time></trkpt><trkpt lat="41.8655959" lon="12.9514514"><ele>839.0</ele><time>2026-05-01T10:36:26.613Z</time></trkpt><trkpt lat="41.865483" lon="12.951444"><ele>839.0</ele><time>2026-05-01T10:36:27.542Z</time></trkpt><trkpt lat="41.8653755" lon="12.9514974"><ele>839.0</ele><time>2026-05-01T10:36:28.582Z</time></trkpt><trkpt lat="41.8652835" lon="12.9516066"><ele>838.0</ele><time>2026-05-01T10:36:29.566Z</time></trkpt><trkpt lat="41.8651925" lon="12.9517233"><ele>837.0</ele><time>2026-05-01T10:36:30.538Z</time></trkpt><trkpt lat="41.8650954" lon="12.9518247"><ele>836.0</ele><time>2026-05-01T10:36:31.542Z</time></trkpt><trkpt lat="41.8649863" lon="12.9519246"><ele>835.0</ele><time>2026-05-01T10:36:32.547Z</time></trkpt><trkpt lat="41.8648693" lon="12.952014"><ele>835.0</ele><time>2026-05-01T10:36:33.558Z</time></trkpt><trkpt lat="41.8647557" lon="12.9521013"><ele>835.0</ele><time>2026-05-01T10:36:34.544Z</time></trkpt><trkpt lat="41.8646486" lon="12.9522036"><ele>835.0</ele><time>2026-05-01T10:36:35.539Z</time></trkpt><trkpt lat="41.8645463" lon="12.9523204"><ele>835.0</ele><time>2026-05-01T10:36:36.54Z</time></trkpt><trkpt lat="41.8644669" lon="12.9524581"><ele>834.0</ele><time>2026-05-01T10:36:37.553Z</time></trkpt><trkpt lat="41.86443" lon="12.9526272"><ele>833.0</ele><time>2026-05-01T10:36:38.542Z</time></trkpt><trkpt lat="41.8643858" lon="12.9528"><ele>832.0</ele><time>2026-05-01T10:36:39.535Z</time></trkpt><trkpt lat="41.864355" lon="12.9529647"><ele>831.0</ele><time>2026-05-01T10:36:40.565Z</time></trkpt><trkpt lat="41.864328" lon="12.9531366"><ele>831.0</ele><time>2026-05-01T10:36:41.539Z</time></trkpt><trkpt lat="41.8643011" lon="12.9532964"><ele>831.0</ele><time>2026-05-01T10:36:42.559Z</time></trkpt><trkpt lat="41.8642575" lon="12.9534429"><ele>831.0</ele><time>2026-05-01T10:36:43.579Z</time></trkpt><trkpt lat="41.8641823" lon="12.9535599"><ele>831.0</ele><time>2026-05-01T10:36:44.565Z</time></trkpt><trkpt lat="41.8640816" lon="12.9536595"><ele>834.25</ele><time>2026-05-01T10:36:45.552Z</time></trkpt><trkpt lat="41.8639787" lon="12.9537442"><ele>837.5</ele><time>2026-05-01T10:36:46.547Z</time></trkpt><trkpt lat="41.8638645" lon="12.9537962"><ele>840.75</ele><time>2026-05-01T10:36:47.545Z</time></trkpt><trkpt lat="41.8637396" lon="12.9538329"><ele>844.0</ele><time>2026-05-01T10:36:48.564Z</time></trkpt><trkpt lat="41.8636257" lon="12.953882"><ele>844.0</ele><time>2026-05-01T10:36:49.565Z</time></trkpt><trkpt lat="41.8635126" lon="12.9539527"><ele>844.0</ele><time>2026-05-01T10:36:50.574Z</time></trkpt><trkpt lat="41.8634032" lon="12.954048"><ele>844.0</ele><time>2026-05-01T10:36:51.571Z</time></trkpt><trkpt lat="41.8633057" lon="12.9541546"><ele>844.0</ele><time>2026-05-01T10:36:52.546Z</time></trkpt><trkpt lat="41.8632112" lon="12.9542775"><ele>844.2</ele><time>2026-05-01T10:36:53.559Z</time></trkpt><trkpt lat="41.8631361" lon="12.9544189"><ele>844.4000000000001</ele><time>2026-05-01T10:36:54.554Z</time></trkpt><trkpt lat="41.8630768" lon="12.9545278"><ele>844.6</ele><time>2026-05-01T10:36:55.574Z</time></trkpt><trkpt lat="41.863005" lon="12.9546225"><ele>844.8</ele><time>2026-05-01T10:36:56.549Z</time></trkpt><trkpt lat="41.8629196" lon="12.9546873"><ele>845.0</ele><time>2026-05-01T10:36:57.565Z</time></trkpt><trkpt lat="41.8628334" lon="12.9547206"><ele>845.0</ele><time>2026-05-01T10:36:58.547Z</time></trkpt><trkpt lat="41.862756" lon="12.954723"><ele>845.0</ele><time>2026-05-01T10:36:59.542Z</time></trkpt><trkpt lat="41.8626807" lon="12.9546686"><ele>845.0</ele><time>2026-05-01T10:37:00.543Z</time></trkpt><trkpt lat="41.8625912" lon="12.9545726"><ele>845.0</ele><time>2026-05-01T10:37:01.534Z</time></trkpt><trkpt lat="41.8624971" lon="12.9544555"><ele>845.0</ele><time>2026-05-01T10:37:02.543Z</time></trkpt><trkpt lat="41.862404" lon="12.954335"><ele>844.0</ele><time>2026-05-01T10:37:03.546Z</time></trkpt><trkpt lat="41.8623181" lon="12.9542097"><ele>843.0</ele><time>2026-05-01T10:37:04.6Z</time></trkpt><trkpt lat="41.8622306" lon="12.9540867"><ele>842.0</ele><time>2026-05-01T10:37:05.577Z</time></trkpt><trkpt lat="41.8621288" lon="12.9539794"><ele>841.0</ele><time>2026-05-01T10:37:06.544Z</time></trkpt><trkpt lat="41.862016" lon="12.9538941"><ele>844.5</ele><time>2026-05-01T10:37:07.587Z</time></trkpt><trkpt lat="41.8618979" lon="12.9538273"><ele>848.0</ele><time>2026-05-01T10:37:08.607Z</time></trkpt><trkpt lat="41.8617743" lon="12.9537739"><ele>851.5</ele><time>2026-05-01T10:37:09.56Z</time></trkpt><trkpt lat="41.8616516" lon="12.9537271"><ele>855.0</ele><time>2026-05-01T10:37:10.577Z</time></trkpt><trkpt lat="41.8615282" lon="12.9536771"><ele>855.0</ele><time>2026-05-01T10:37:11.548Z</time></trkpt><trkpt lat="41.8614107" lon="12.9536176"><ele>855.0</ele><time>2026-05-01T10:37:12.587Z</time></trkpt><trkpt lat="41.8612954" lon="12.9535559"><ele>855.0</ele><time>2026-05-01T10:37:13.566Z</time></trkpt><trkpt lat="41.8611874" lon="12.9534858"><ele>855.0</ele><time>2026-05-01T10:37:14.543Z</time></trkpt><trkpt lat="41.8610879" lon="12.953397"><ele>858.0</ele><time>2026-05-01T10:37:15.562Z</time></trkpt><trkpt lat="41.8609983" lon="12.9532984"><ele>861.0</ele><time>2026-05-01T10:37:16.561Z</time></trkpt><trkpt lat="41.860912" lon="12.9531942"><ele>864.0</ele><time>2026-05-01T10:37:17.548Z</time></trkpt><trkpt lat="41.8608306" lon="12.9530861"><ele>867.0</ele><time>2026-05-01T10:37:18.557Z</time></trkpt><trkpt lat="41.8607558" lon="12.9529752"><ele>867.0</ele><time>2026-05-01T10:37:19.543Z</time></trkpt><trkpt lat="41.8607" lon="12.9528459"><ele>867.0</ele><time>2026-05-01T10:37:20.551Z</time></trkpt><trkpt lat="41.8606596" lon="12.9526962"><ele>867.0</ele><time>2026-05-01T10:37:21.542Z</time></trkpt><trkpt lat="41.8606447" lon="12.9525361"><ele>867.0</ele><time>2026-05-01T10:37:22.562Z</time></trkpt><trkpt lat="41.8606496" lon="12.9523772"><ele>872.25</ele><time>2026-05-01T10:37:23.553Z</time></trkpt><trkpt lat="41.860668" lon="12.9522202"><ele>877.5</ele><time>2026-05-01T10:37:24.544Z</time></trkpt><trkpt lat="41.8607006" lon="12.9520723"><ele>882.75</ele><time>2026-05-01T10:37:25.555Z</time></trkpt><trkpt lat="41.8607494" lon="12.9519327"><ele>888.0</ele><time>2026-05-01T10:37:26.553Z</time></trkpt><trkpt lat="41.8608209" lon="12.9518096"><ele>886.25</ele><time>2026-05-01T10:37:27.549Z</time></trkpt><trkpt lat="41.8609008" lon="12.9516982"><ele>884.5</ele><time>2026-05-01T10:37:28.544Z</time></trkpt><trkpt lat="41.8609799" lon="12.9515928"><ele>882.75</ele><time>2026-05-01T10:37:29.545Z</time></trkpt><trkpt lat="41.861062" lon="12.9514873"><ele>881.0</ele><time>2026-05-01T10:37:30.543Z</time></trkpt><trkpt lat="41.8611507" lon="12.951392"><ele>884.0</ele><time>2026-05-01T10:37:31.56Z</time></trkpt><trkpt lat="41.8612398" lon="12.9513165"><ele>886.9999999999999</ele><time>2026-05-01T10:37:32.569Z</time></trkpt><trkpt lat="41.8613307" lon="12.9512534"><ele>889.9999999999999</ele><time>2026-05-01T10:37:33.557Z</time></trkpt><trkpt lat="41.8614277" lon="12.9512122"><ele>893.0</ele><time>2026-05-01T10:37:34.572Z</time></trkpt><trkpt lat="41.861524" lon="12.9511896"><ele>896.0</ele><time>2026-05-01T10:37:35.596Z</time></trkpt><trkpt lat="41.8616263" lon="12.9511759"><ele>896.0000000000001</ele><time>2026-05-01T10:37:36.548Z</time></trkpt><trkpt lat="41.8617233" lon="12.9511686"><ele>896.0</ele><time>2026-05-01T10:37:37.555Z</time></trkpt><trkpt lat="41.8618139" lon="12.9511659"><ele>896.0</ele><time>2026-05-01T10:37:38.568Z</time></trkpt><trkpt lat="41.8619038" lon="12.9511624"><ele>896.0</ele><time>2026-05-01T10:37:39.59Z</time></trkpt><trkpt lat="41.8619838" lon="12.9511555"><ele>896.0000000000001</ele><time>2026-05-01T10:37:40.569Z</time></trkpt><trkpt lat="41.8620471" lon="12.9511483"><ele>896.0</ele><time>2026-05-01T10:37:41.574Z</time></trkpt><trkpt lat="41.8621205" lon="12.9511404"><ele>896.4285714285714</ele><time>2026-05-01T10:37:43.584Z</time></trkpt><trkpt lat="41.8622033" lon="12.9511188"><ele>896.8571428571429</ele><time>2026-05-01T10:38:28.56Z</time></trkpt><trkpt lat="41.8622962" lon="12.9510979"><ele>897.2857142857142</ele><time>2026-05-01T10:38:30.55Z</time></trkpt><trkpt lat="41.862361" lon="12.9510901"><ele>897.7142857142857</ele><time>2026-05-01T10:38:31.551Z</time></trkpt><trkpt lat="41.86243" lon="12.9510832"><ele>898.1428571428571</ele><time>2026-05-01T10:38:32.557Z</time></trkpt><trkpt lat="41.8624955" lon="12.9510707"><ele>898.5714285714284</ele><time>2026-05-01T10:38:33.571Z</time></trkpt><trkpt lat="41.86256" lon="12.9510632"><ele>898.9999999999999</ele><time>2026-05-01T10:38:34.563Z</time></trkpt><trkpt lat="41.8626329" lon="12.9510535"><ele>897.5000000000001</ele><time>2026-05-01T10:38:35.556Z</time></trkpt><trkpt lat="41.8627075" lon="12.9510461"><ele>896.0</ele><time>2026-05-01T10:38:36.567Z</time></trkpt><trkpt lat="41.8627771" lon="12.9510446"><ele>894.5</ele><time>2026-05-01T10:38:37.553Z</time></trkpt><trkpt lat="41.8628452" lon="12.9510435"><ele>893.0</ele><time>2026-05-01T10:38:38.564Z</time></trkpt><trkpt lat="41.8629434" lon="12.9510385"><ele>891.5000000000001</ele><time>2026-05-01T10:38:40.557Z</time></trkpt><trkpt lat="41.8630097" lon="12.9510339"><ele>890.0</ele><time>2026-05-01T10:38:42.546Z</time></trkpt><trkpt lat="41.8630836" lon="12.9510413"><ele>890.0000000000001</ele><time>2026-05-01T10:38:46.538Z</time></trkpt><trkpt lat="41.8631367" lon="12.950972"><ele>890.0</ele><time>2026-05-01T10:38:54.565Z</time></trkpt><trkpt lat="41.8631465" lon="12.9508787"><ele>890.0</ele><time>2026-05-01T10:38:57.593Z</time></trkpt><trkpt lat="41.8631597" lon="12.9507741"><ele>890.0</ele><time>2026-05-01T10:38:59.631Z</time></trkpt><trkpt lat="41.8631702" lon="12.9506363"><ele>890.0000000000001</ele><time>2026-05-01T10:39:01.568Z</time></trkpt><trkpt lat="41.8631918" lon="12.9504738"><ele>890.0</ele><time>2026-05-01T10:39:03.586Z</time></trkpt><trkpt lat="41.8632001" lon="12.9503857"><ele>890.7142857142858</ele><time>2026-05-01T10:39:04.627Z</time></trkpt><trkpt lat="41.8632071" lon="12.9503002"><ele>891.4285714285713</ele><time>2026-05-01T10:39:05.593Z</time></trkpt><trkpt lat="41.8632168" lon="12.9502045"><ele>892.1428571428571</ele><time>2026-05-01T10:39:06.576Z</time></trkpt><trkpt lat="41.8632253" lon="12.9501057"><ele>892.8571428571429</ele><time>2026-05-01T10:39:07.621Z</time></trkpt><trkpt lat="41.8632246" lon="12.9500085"><ele>893.5714285714287</ele><time>2026-05-01T10:39:08.586Z</time></trkpt><trkpt lat="41.8632234" lon="12.9499037"><ele>894.2857142857142</ele><time>2026-05-01T10:39:09.63Z</time></trkpt><trkpt lat="41.8632195" lon="12.9497976"><ele>895.0</ele><time>2026-05-01T10:39:10.563Z</time></trkpt><trkpt lat="41.8632179" lon="12.9496985"><ele>894.9999999999999</ele><time>2026-05-01T10:39:11.543Z</time></trkpt><trkpt lat="41.8632191" lon="12.9496098"><ele>895.0</ele><time>2026-05-01T10:39:12.584Z</time></trkpt><trkpt lat="41.8631932" lon="12.9494657"><ele>895.0</ele><time>2026-05-01T10:39:14.64Z</time></trkpt><trkpt lat="41.8631714" lon="12.9493666"><ele>895.0</ele><time>2026-05-01T10:39:16.562Z</time></trkpt><trkpt lat="41.8631677" lon="12.9492704"><ele>894.9999999999999</ele><time>2026-05-01T10:44:42.542Z</time></trkpt><trkpt lat="41.8631989" lon="12.9491652"><ele>895.0</ele><time>2026-05-01T10:44:54.565Z</time></trkpt><trkpt lat="41.8631991" lon="12.949059"><ele>894.6666666666666</ele><time>2026-05-01T10:44:57.552Z</time></trkpt><trkpt lat="41.8632169" lon="12.9489521"><ele>894.3333333333333</ele><time>2026-05-01T10:45:00.531Z</time></trkpt><trkpt lat="41.8632313" lon="12.9488694"><ele>894.0</ele><time>2026-05-01T10:45:04.545Z</time></trkpt><trkpt lat="41.8632391" lon="12.9487754"><ele>893.6666666666667</ele><time>2026-05-01T10:45:08.537Z</time></trkpt><trkpt lat="41.863237" lon="12.948683"><ele>893.3333333333334</ele><time>2026-05-01T10:45:38.547Z</time></trkpt><trkpt lat="41.8632472" lon="12.9485903"><ele>893.0</ele><time>2026-05-01T10:45:40.57Z</time></trkpt><trkpt lat="41.8632704" lon="12.948462"><ele>892.8333333333334</ele><time>2026-05-01T10:45:42.536Z</time></trkpt><trkpt lat="41.8633064" lon="12.9483025"><ele>892.6666666666667</ele><time>2026-05-01T10:45:44.541Z</time></trkpt><trkpt lat="41.8633278" lon="12.948216"><ele>892.5</ele><time>2026-05-01T10:45:45.56Z</time></trkpt><trkpt lat="41.8633491" lon="12.9481276"><ele>892.3333333333333</ele><time>2026-05-01T10:45:46.561Z</time></trkpt><trkpt lat="41.8633727" lon="12.9480335"><ele>892.1666666666666</ele><time>2026-05-01T10:45:47.566Z</time></trkpt><trkpt lat="41.8634001" lon="12.9479317"><ele>892.0</ele><time>2026-05-01T10:45:48.54Z</time></trkpt><trkpt lat="41.8634309" lon="12.9478276"><ele>896.6666666666666</ele><time>2026-05-01T10:45:49.563Z</time></trkpt><trkpt lat="41.8634601" lon="12.9477192"><ele>901.3333333333333</ele><time>2026-05-01T10:45:50.558Z</time></trkpt><trkpt lat="41.8634901" lon="12.9476092"><ele>906.0</ele><time>2026-05-01T10:45:51.539Z</time></trkpt><trkpt lat="41.8635202" lon="12.9474993"><ele>910.6666666666667</ele><time>2026-05-01T10:45:52.561Z</time></trkpt><trkpt lat="41.8635508" lon="12.9473885"><ele>915.3333333333334</ele><time>2026-05-01T10:45:53.571Z</time></trkpt><trkpt lat="41.8635826" lon="12.94727"><ele>920.0</ele><time>2026-05-01T10:45:54.565Z</time></trkpt><trkpt lat="41.8636147" lon="12.9471498"><ele>920.2</ele><time>2026-05-01T10:45:55.556Z</time></trkpt><trkpt lat="41.8636451" lon="12.947022"><ele>920.4</ele><time>2026-05-01T10:45:56.547Z</time></trkpt><trkpt lat="41.8636828" lon="12.9468975"><ele>920.5999999999999</ele><time>2026-05-01T10:45:57.542Z</time></trkpt><trkpt lat="41.8637152" lon="12.9467671"><ele>920.8</ele><time>2026-05-01T10:45:58.576Z</time></trkpt><trkpt lat="41.8637528" lon="12.946623"><ele>921.0</ele><time>2026-05-01T10:45:59.568Z</time></trkpt><trkpt lat="41.8637908" lon="12.9464785"><ele>918.75</ele><time>2026-05-01T10:46:00.555Z</time></trkpt><trkpt lat="41.863831" lon="12.9463297"><ele>916.5</ele><time>2026-05-01T10:46:01.583Z</time></trkpt><trkpt lat="41.8638741" lon="12.9461871"><ele>914.25</ele><time>2026-05-01T10:46:02.589Z</time></trkpt><trkpt lat="41.8639241" lon="12.9460468"><ele>912.0</ele><time>2026-05-01T10:46:03.547Z</time></trkpt><trkpt lat="41.8639815" lon="12.945915"><ele>908.25</ele><time>2026-05-01T10:46:04.569Z</time></trkpt><trkpt lat="41.8640431" lon="12.9457801"><ele>904.5</ele><time>2026-05-01T10:46:05.562Z</time></trkpt><trkpt lat="41.8641055" lon="12.9456396"><ele>900.75</ele><time>2026-05-01T10:46:06.552Z</time></trkpt><trkpt lat="41.8641761" lon="12.9455044"><ele>897.0</ele><time>2026-05-01T10:46:07.569Z</time></trkpt><trkpt lat="41.8642558" lon="12.9453752"><ele>900.25</ele><time>2026-05-01T10:46:08.528Z</time></trkpt><trkpt lat="41.8643462" lon="12.9452485"><ele>903.5</ele><time>2026-05-01T10:46:09.547Z</time></trkpt><trkpt lat="41.8644431" lon="12.9451247"><ele>906.75</ele><time>2026-05-01T10:46:10.567Z</time></trkpt><trkpt lat="41.8645453" lon="12.9449978"><ele>910.0</ele><time>2026-05-01T10:46:11.555Z</time></trkpt><trkpt lat="41.8646489" lon="12.9448713"><ele>910.0</ele><time>2026-05-01T10:46:12.557Z</time></trkpt><trkpt lat="41.8647538" lon="12.9447471"><ele>910.0</ele><time>2026-05-01T10:46:13.534Z</time></trkpt><trkpt lat="41.8648572" lon="12.9446204"><ele>910.0</ele><time>2026-05-01T10:46:14.55Z</time></trkpt><trkpt lat="41.8649586" lon="12.9444913"><ele>910.0</ele><time>2026-05-01T10:46:15.533Z</time></trkpt><trkpt lat="41.8650478" lon="12.9443452"><ele>914.5</ele><time>2026-05-01T10:46:16.587Z</time></trkpt><trkpt lat="41.8651108" lon="12.9441887"><ele>919.0</ele><time>2026-05-01T10:46:17.557Z</time></trkpt><trkpt lat="41.8651676" lon="12.9440245"><ele>923.5</ele><time>2026-05-01T10:46:18.562Z</time></trkpt><trkpt lat="41.8652159" lon="12.9438635"><ele>928.0</ele><time>2026-05-01T10:46:19.543Z</time></trkpt><trkpt lat="41.8652711" lon="12.9437174"><ele>928.0</ele><time>2026-05-01T10:46:20.534Z</time></trkpt><trkpt lat="41.8653483" lon="12.9435996"><ele>928.0</ele><time>2026-05-01T10:46:21.544Z</time></trkpt><trkpt lat="41.8654463" lon="12.9435008"><ele>928.0</ele><time>2026-05-01T10:46:22.536Z</time></trkpt><trkpt lat="41.8655625" lon="12.9434324"><ele>928.0</ele><time>2026-05-01T10:46:23.548Z</time></trkpt><trkpt lat="41.8656815" lon="12.9433724"><ele>928.25</ele><time>2026-05-01T10:46:24.545Z</time></trkpt><trkpt lat="41.8657976" lon="12.9433067"><ele>928.5</ele><time>2026-05-01T10:46:25.591Z</time></trkpt><trkpt lat="41.8659049" lon="12.9432213"><ele>928.75</ele><time>2026-05-01T10:46:26.541Z</time></trkpt><trkpt lat="41.8660033" lon="12.9431216"><ele>929.0</ele><time>2026-05-01T10:46:27.548Z</time></trkpt><trkpt lat="41.8660898" lon="12.9430026"><ele>929.0</ele><time>2026-05-01T10:46:28.555Z</time></trkpt><trkpt lat="41.8661586" lon="12.9428593"><ele>929.0</ele><time>2026-05-01T10:46:29.559Z</time></trkpt><trkpt lat="41.8662118" lon="12.9426906"><ele>929.0</ele><time>2026-05-01T10:46:30.547Z</time></trkpt><trkpt lat="41.8662536" lon="12.9425113"><ele>929.0</ele><time>2026-05-01T10:46:31.577Z</time></trkpt><trkpt lat="41.8662965" lon="12.9423351"><ele>923.75</ele><time>2026-05-01T10:46:32.555Z</time></trkpt><trkpt lat="41.8663486" lon="12.9421819"><ele>918.5</ele><time>2026-05-01T10:46:33.552Z</time></trkpt><trkpt lat="41.8664203" lon="12.9420513"><ele>913.25</ele><time>2026-05-01T10:46:34.58Z</time></trkpt><trkpt lat="41.8665014" lon="12.9419338"><ele>908.0</ele><time>2026-05-01T10:46:35.557Z</time></trkpt><trkpt lat="41.8665972" lon="12.9418473"><ele>908.0</ele><time>2026-05-01T10:46:36.568Z</time></trkpt><trkpt lat="41.8667034" lon="12.9417594"><ele>908.0</ele><time>2026-05-01T10:46:37.532Z</time></trkpt><trkpt lat="41.8668005" lon="12.9416512"><ele>908.0</ele><time>2026-05-01T10:46:38.551Z</time></trkpt><trkpt lat="41.8668706" lon="12.9415177"><ele>908.0</ele><time>2026-05-01T10:46:39.55Z</time></trkpt><trkpt lat="41.8669137" lon="12.9413676"><ele>909.0</ele><time>2026-05-01T10:46:40.553Z</time></trkpt><trkpt lat="41.8669392" lon="12.9412061"><ele>910.0</ele><time>2026-05-01T10:46:41.527Z</time></trkpt><trkpt lat="41.8669547" lon="12.9410369"><ele>911.0</ele><time>2026-05-01T10:46:42.55Z</time></trkpt><trkpt lat="41.8669793" lon="12.9408672"><ele>912.0</ele><time>2026-05-01T10:46:43.549Z</time></trkpt><trkpt lat="41.8670224" lon="12.9406977"><ele>912.0</ele><time>2026-05-01T10:46:44.543Z</time></trkpt><trkpt lat="41.8670852" lon="12.9405347"><ele>912.0</ele><time>2026-05-01T10:46:45.528Z</time></trkpt><trkpt lat="41.8671559" lon="12.9403713"><ele>912.0</ele><time>2026-05-01T10:46:46.53Z</time></trkpt><trkpt lat="41.8672224" lon="12.9402083"><ele>912.0</ele><time>2026-05-01T10:46:47.538Z</time></trkpt><trkpt lat="41.8672926" lon="12.9400423"><ele>909.5</ele><time>2026-05-01T10:46:48.538Z</time></trkpt><trkpt lat="41.8673644" lon="12.9398806"><ele>907.0</ele><time>2026-05-01T10:46:49.551Z</time></trkpt><trkpt lat="41.8674235" lon="12.939724"><ele>904.5</ele><time>2026-05-01T10:46:50.55Z</time></trkpt><trkpt lat="41.8674538" lon="12.9395719"><ele>902.0</ele><time>2026-05-01T10:46:51.532Z</time></trkpt><trkpt lat="41.8674469" lon="12.9394119"><ele>902.0</ele><time>2026-05-01T10:46:52.539Z</time></trkpt><trkpt lat="41.8674096" lon="12.9392533"><ele>902.0</ele><time>2026-05-01T10:46:53.556Z</time></trkpt><trkpt lat="41.8673569" lon="12.9390982"><ele>902.0</ele><time>2026-05-01T10:46:54.567Z</time></trkpt><trkpt lat="41.8672988" lon="12.9389312"><ele>902.0</ele><time>2026-05-01T10:46:55.548Z</time></trkpt><trkpt lat="41.8672481" lon="12.9387714"><ele>901.5</ele><time>2026-05-01T10:46:56.537Z</time></trkpt><trkpt lat="41.8672055" lon="12.9386188"><ele>901.0</ele><time>2026-05-01T10:46:57.547Z</time></trkpt><trkpt lat="41.8671847" lon="12.9384678"><ele>900.5</ele><time>2026-05-01T10:46:58.534Z</time></trkpt><trkpt lat="41.8671873" lon="12.9383051"><ele>900.0</ele><time>2026-05-01T10:46:59.53Z</time></trkpt><trkpt lat="41.8672008" lon="12.938132"><ele>899.75</ele><time>2026-05-01T10:47:00.559Z</time></trkpt><trkpt lat="41.8672147" lon="12.9379459"><ele>899.5</ele><time>2026-05-01T10:47:01.548Z</time></trkpt><trkpt lat="41.8672339" lon="12.9377616"><ele>899.25</ele><time>2026-05-01T10:47:02.545Z</time></trkpt><trkpt lat="41.8672627" lon="12.9375852"><ele>899.0</ele><time>2026-05-01T10:47:03.567Z</time></trkpt><trkpt lat="41.8672939" lon="12.9374327"><ele>900.8000000000001</ele><time>2026-05-01T10:47:04.56Z</time></trkpt><trkpt lat="41.867336" lon="12.9373023"><ele>902.6000000000001</ele><time>2026-05-01T10:47:05.554Z</time></trkpt><trkpt lat="41.8674049" lon="12.9372007"><ele>904.4</ele><time>2026-05-01T10:47:06.568Z</time></trkpt><trkpt lat="41.867486" lon="12.937128"><ele>906.2</ele><time>2026-05-01T10:47:07.538Z</time></trkpt><trkpt lat="41.8675685" lon="12.937068"><ele>908.0</ele><time>2026-05-01T10:47:08.538Z</time></trkpt><trkpt lat="41.8676734" lon="12.9370263"><ele>908.0</ele><time>2026-05-01T10:47:09.552Z</time></trkpt><trkpt lat="41.8677969" lon="12.9369933"><ele>908.0</ele><time>2026-05-01T10:47:10.556Z</time></trkpt><trkpt lat="41.8679321" lon="12.9369666"><ele>908.0</ele><time>2026-05-01T10:47:11.55Z</time></trkpt><trkpt lat="41.8680643" lon="12.9369321"><ele>908.0</ele><time>2026-05-01T10:47:12.56Z</time></trkpt><trkpt lat="41.8681888" lon="12.9369013"><ele>908.0</ele><time>2026-05-01T10:47:13.557Z</time></trkpt><trkpt lat="41.8683069" lon="12.9368672"><ele>908.0</ele><time>2026-05-01T10:47:14.549Z</time></trkpt><trkpt lat="41.8684046" lon="12.9368069"><ele>908.0</ele><time>2026-05-01T10:47:15.565Z</time></trkpt><trkpt lat="41.8684768" lon="12.9367078"><ele>908.0</ele><time>2026-05-01T10:47:16.53Z</time></trkpt><trkpt lat="41.8685161" lon="12.9365694"><ele>908.0</ele><time>2026-05-01T10:47:17.548Z</time></trkpt><trkpt lat="41.8685369" lon="12.936413"><ele>910.0</ele><time>2026-05-01T10:47:18.546Z</time></trkpt><trkpt lat="41.8685554" lon="12.9362493"><ele>912.0</ele><time>2026-05-01T10:47:19.54Z</time></trkpt><trkpt lat="41.8685719" lon="12.936083"><ele>914.0</ele><time>2026-05-01T10:47:20.57Z</time></trkpt><trkpt lat="41.868582" lon="12.935919"><ele>916.0</ele><time>2026-05-01T10:47:21.557Z</time></trkpt><trkpt lat="41.8685763" lon="12.9357485"><ele>916.5</ele><time>2026-05-01T10:47:22.56Z</time></trkpt><trkpt lat="41.8685435" lon="12.9355764"><ele>917.0</ele><time>2026-05-01T10:47:23.558Z</time></trkpt><trkpt lat="41.8684983" lon="12.9354006"><ele>917.5</ele><time>2026-05-01T10:47:24.578Z</time></trkpt><trkpt lat="41.8684478" lon="12.9352252"><ele>918.0</ele><time>2026-05-01T10:47:25.555Z</time></trkpt><trkpt lat="41.8684025" lon="12.9350443"><ele>909.0</ele><time>2026-05-01T10:47:26.563Z</time></trkpt><trkpt lat="41.8683533" lon="12.9348597"><ele>900.0</ele><time>2026-05-01T10:47:27.564Z</time></trkpt><trkpt lat="41.8683017" lon="12.9346738"><ele>891.0</ele><time>2026-05-01T10:47:28.546Z</time></trkpt><trkpt lat="41.8682426" lon="12.9345004"><ele>882.0</ele><time>2026-05-01T10:47:29.55Z</time></trkpt><trkpt lat="41.8681826" lon="12.9343426"><ele>884.75</ele><time>2026-05-01T10:47:30.577Z</time></trkpt><trkpt lat="41.8681262" lon="12.9341927"><ele>887.5</ele><time>2026-05-01T10:47:31.574Z</time></trkpt><trkpt lat="41.8680682" lon="12.9340524"><ele>890.25</ele><time>2026-05-01T10:47:32.546Z</time></trkpt><trkpt lat="41.8680039" lon="12.9339291"><ele>893.0</ele><time>2026-05-01T10:47:33.549Z</time></trkpt><trkpt lat="41.8679208" lon="12.9338534"><ele>893.0</ele><time>2026-05-01T10:47:34.553Z</time></trkpt><trkpt lat="41.8678305" lon="12.9338206"><ele>893.0</ele><time>2026-05-01T10:47:35.553Z</time></trkpt><trkpt lat="41.8677325" lon="12.9338267"><ele>893.0</ele><time>2026-05-01T10:47:36.551Z</time></trkpt><trkpt lat="41.8676375" lon="12.9338686"><ele>893.0</ele><time>2026-05-01T10:47:37.543Z</time></trkpt><trkpt lat="41.8675293" lon="12.9339332"><ele>893.0</ele><time>2026-05-01T10:47:38.532Z</time></trkpt><trkpt lat="41.8674144" lon="12.9339901"><ele>889.5999999999999</ele><time>2026-05-01T10:47:39.532Z</time></trkpt><trkpt lat="41.8672999" lon="12.9340088"><ele>886.1999999999999</ele><time>2026-05-01T10:47:40.542Z</time></trkpt><trkpt lat="41.8671962" lon="12.9339898"><ele>882.8</ele><time>2026-05-01T10:47:41.565Z</time></trkpt><trkpt lat="41.8671085" lon="12.9339416"><ele>879.4</ele><time>2026-05-01T10:47:42.532Z</time></trkpt><trkpt lat="41.8670274" lon="12.9338563"><ele>876.0</ele><time>2026-05-01T10:47:43.528Z</time></trkpt><trkpt lat="41.8669435" lon="12.933774"><ele>876.0</ele><time>2026-05-01T10:47:44.555Z</time></trkpt><trkpt lat="41.8668539" lon="12.933728"><ele>875.9999999999999</ele><time>2026-05-01T10:47:45.551Z</time></trkpt><trkpt lat="41.8667489" lon="12.9337323"><ele>875.9999999999999</ele><time>2026-05-01T10:47:46.537Z</time></trkpt><trkpt lat="41.8666367" lon="12.9337649"><ele>876.0</ele><time>2026-05-01T10:47:47.544Z</time></trkpt><trkpt lat="41.8665204" lon="12.9338112"><ele>876.0</ele><time>2026-05-01T10:47:48.554Z</time></trkpt><trkpt lat="41.8664034" lon="12.9338599"><ele>874.4</ele><time>2026-05-01T10:47:49.541Z</time></trkpt><trkpt lat="41.8662948" lon="12.933896"><ele>872.8</ele><time>2026-05-01T10:47:50.543Z</time></trkpt><trkpt lat="41.866193" lon="12.933887"><ele>871.1999999999999</ele><time>2026-05-01T10:47:51.541Z</time></trkpt><trkpt lat="41.8661036" lon="12.9338127"><ele>869.5999999999999</ele><time>2026-05-01T10:47:52.542Z</time></trkpt><trkpt lat="41.8660298" lon="12.9336945"><ele>868.0</ele><time>2026-05-01T10:47:53.544Z</time></trkpt><trkpt lat="41.8659632" lon="12.9335431"><ele>870.0</ele><time>2026-05-01T10:47:54.547Z</time></trkpt><trkpt lat="41.8659006" lon="12.9333525"><ele>872.0</ele><time>2026-05-01T10:47:55.543Z</time></trkpt><trkpt lat="41.8658224" lon="12.933204"><ele>874.0</ele><time>2026-05-01T10:47:56.546Z</time></trkpt><trkpt lat="41.8657432" lon="12.9330525"><ele>876.0</ele><time>2026-05-01T10:47:57.556Z</time></trkpt><trkpt lat="41.86567" lon="12.9329056"><ele>876.0</ele><time>2026-05-01T10:47:58.557Z</time></trkpt><trkpt lat="41.8656075" lon="12.9327712"><ele>875.9999999999999</ele><time>2026-05-01T10:47:59.555Z</time></trkpt><trkpt lat="41.865555" lon="12.9326422"><ele>875.9999999999999</ele><time>2026-05-01T10:48:00.56Z</time></trkpt><trkpt lat="41.8655166" lon="12.9325164"><ele>876.0</ele><time>2026-05-01T10:48:01.55Z</time></trkpt><trkpt lat="41.865505" lon="12.9323896"><ele>876.0</ele><time>2026-05-01T10:48:02.554Z</time></trkpt><trkpt lat="41.865521" lon="12.9322586"><ele>877.4</ele><time>2026-05-01T10:48:03.537Z</time></trkpt><trkpt lat="41.865555" lon="12.9321232"><ele>878.8</ele><time>2026-05-01T10:48:04.536Z</time></trkpt><trkpt lat="41.865578" lon="12.9319825"><ele>880.1999999999999</ele><time>2026-05-01T10:48:05.549Z</time></trkpt><trkpt lat="41.865563" lon="12.9318402"><ele>881.5999999999999</ele><time>2026-05-01T10:48:06.536Z</time></trkpt><trkpt lat="41.8655019" lon="12.9317055"><ele>883.0</ele><time>2026-05-01T10:48:07.536Z</time></trkpt><trkpt lat="41.8654182" lon="12.9315727"><ele>881.25</ele><time>2026-05-01T10:48:08.532Z</time></trkpt><trkpt lat="41.8653227" lon="12.931459"><ele>879.5</ele><time>2026-05-01T10:48:09.56Z</time></trkpt><trkpt lat="41.8652119" lon="12.9313744"><ele>877.75</ele><time>2026-05-01T10:48:10.531Z</time></trkpt><trkpt lat="41.8650883" lon="12.9313115"><ele>876.0</ele><time>2026-05-01T10:48:11.538Z</time></trkpt><trkpt lat="41.8649511" lon="12.9312542"><ele>876.0</ele><time>2026-05-01T10:48:12.54Z</time></trkpt><trkpt lat="41.8648146" lon="12.9312033"><ele>876.0</ele><time>2026-05-01T10:48:13.551Z</time></trkpt><trkpt lat="41.8646858" lon="12.9311816"><ele>876.0</ele><time>2026-05-01T10:48:14.568Z</time></trkpt><trkpt lat="41.8645578" lon="12.9311913"><ele>876.0</ele><time>2026-05-01T10:48:15.538Z</time></trkpt><trkpt lat="41.8644313" lon="12.931227"><ele>876.0</ele><time>2026-05-01T10:48:16.584Z</time></trkpt><trkpt lat="41.8643097" lon="12.9312742"><ele>875.9999999999999</ele><time>2026-05-01T10:48:17.56Z</time></trkpt><trkpt lat="41.8642069" lon="12.9313199"><ele>875.9999999999999</ele><time>2026-05-01T10:48:18.545Z</time></trkpt><trkpt lat="41.8641127" lon="12.9313596"><ele>876.0</ele><time>2026-05-01T10:48:19.545Z</time></trkpt><trkpt lat="41.8640203" lon="12.93137"><ele>876.0</ele><time>2026-05-01T10:48:20.544Z</time></trkpt><trkpt lat="41.8639235" lon="12.9313498"><ele>875.5</ele><time>2026-05-01T10:48:21.543Z</time></trkpt><trkpt lat="41.863817" lon="12.9313029"><ele>875.0</ele><time>2026-05-01T10:48:22.574Z</time></trkpt><trkpt lat="41.8637064" lon="12.9312607"><ele>874.5</ele><time>2026-05-01T10:48:23.58Z</time></trkpt><trkpt lat="41.8635921" lon="12.9312744"><ele>874.0</ele><time>2026-05-01T10:48:24.552Z</time></trkpt><trkpt lat="41.8634633" lon="12.9313225"><ele>874.25</ele><time>2026-05-01T10:48:25.548Z</time></trkpt><trkpt lat="41.8633398" lon="12.9313747"><ele>874.5</ele><time>2026-05-01T10:48:26.552Z</time></trkpt><trkpt lat="41.8632221" lon="12.9314144"><ele>874.75</ele><time>2026-05-01T10:48:27.563Z</time></trkpt><trkpt lat="41.8631074" lon="12.9314139"><ele>875.0</ele><time>2026-05-01T10:48:28.537Z</time></trkpt><trkpt lat="41.8629969" lon="12.931375"><ele>875.0</ele><time>2026-05-01T10:48:29.554Z</time></trkpt><trkpt lat="41.8628863" lon="12.9313039"><ele>875.0</ele><time>2026-05-01T10:48:30.549Z</time></trkpt><trkpt lat="41.862785" lon="12.9312122"><ele>875.0</ele><time>2026-05-01T10:48:31.573Z</time></trkpt><trkpt lat="41.862704" lon="12.9310915"><ele>875.0</ele><time>2026-05-01T10:48:32.547Z</time></trkpt><trkpt lat="41.8626322" lon="12.9309491"><ele>875.5</ele><time>2026-05-01T10:48:33.545Z</time></trkpt><trkpt lat="41.8625655" lon="12.9308135"><ele>876.0</ele><time>2026-05-01T10:48:34.568Z</time></trkpt><trkpt lat="41.8625113" lon="12.9306899"><ele>876.5</ele><time>2026-05-01T10:48:35.558Z</time></trkpt><trkpt lat="41.8624798" lon="12.9305459"><ele>877.0</ele><time>2026-05-01T10:48:36.55Z</time></trkpt><trkpt lat="41.8624652" lon="12.9303679"><ele>877.0</ele><time>2026-05-01T10:48:37.541Z</time></trkpt><trkpt lat="41.8624517" lon="12.9301818"><ele>877.0</ele><time>2026-05-01T10:48:38.553Z</time></trkpt><trkpt lat="41.8624381" lon="12.9300014"><ele>877.0</ele><time>2026-05-01T10:48:39.544Z</time></trkpt><trkpt lat="41.862425" lon="12.9298328"><ele>877.0</ele><time>2026-05-01T10:48:40.557Z</time></trkpt><trkpt lat="41.8624091" lon="12.9296675"><ele>876.6</ele><time>2026-05-01T10:48:41.548Z</time></trkpt><trkpt lat="41.8623881" lon="12.929511"><ele>876.2</ele><time>2026-05-01T10:48:42.55Z</time></trkpt><trkpt lat="41.8623675" lon="12.929361"><ele>875.8</ele><time>2026-05-01T10:48:43.546Z</time></trkpt><trkpt lat="41.8623498" lon="12.9292175"><ele>875.4</ele><time>2026-05-01T10:48:44.536Z</time></trkpt><trkpt lat="41.862337" lon="12.9290731"><ele>875.0</ele><time>2026-05-01T10:48:45.55Z</time></trkpt><trkpt lat="41.8623315" lon="12.9289364"><ele>874.8</ele><time>2026-05-01T10:48:46.539Z</time></trkpt><trkpt lat="41.8623347" lon="12.9288013"><ele>874.6</ele><time>2026-05-01T10:48:47.558Z</time></trkpt><trkpt lat="41.8623443" lon="12.9286619"><ele>874.4000000000001</ele><time>2026-05-01T10:48:48.584Z</time></trkpt><trkpt lat="41.8623629" lon="12.9285127"><ele>874.2</ele><time>2026-05-01T10:48:49.534Z</time></trkpt><trkpt lat="41.8623875" lon="12.9283601"><ele>874.0</ele><time>2026-05-01T10:48:50.554Z</time></trkpt><trkpt lat="41.8624137" lon="12.9282169"><ele>872.5</ele><time>2026-05-01T10:48:51.593Z</time></trkpt><trkpt lat="41.8624498" lon="12.928075"><ele>871.0</ele><time>2026-05-01T10:48:52.556Z</time></trkpt><trkpt lat="41.8625032" lon="12.9279392"><ele>869.5</ele><time>2026-05-01T10:48:53.537Z</time></trkpt><trkpt lat="41.8625636" lon="12.9278036"><ele>868.0</ele><time>2026-05-01T10:48:54.54Z</time></trkpt><trkpt lat="41.8626265" lon="12.9276648"><ele>868.8</ele><time>2026-05-01T10:48:55.552Z</time></trkpt><trkpt lat="41.862686" lon="12.9275272"><ele>869.5999999999999</ele><time>2026-05-01T10:48:56.559Z</time></trkpt><trkpt lat="41.862745" lon="12.9273935"><ele>870.4000000000001</ele><time>2026-05-01T10:48:57.568Z</time></trkpt><trkpt lat="41.8628005" lon="12.9272792"><ele>871.2</ele><time>2026-05-01T10:48:58.543Z</time></trkpt><trkpt lat="41.8628609" lon="12.9271705"><ele>872.0</ele><time>2026-05-01T10:48:59.568Z</time></trkpt><trkpt lat="41.8629318" lon="12.9270729"><ele>872.0</ele><time>2026-05-01T10:49:00.54Z</time></trkpt><trkpt lat="41.863011" lon="12.9269787"><ele>872.0</ele><time>2026-05-01T10:49:01.577Z</time></trkpt><trkpt lat="41.8630951" lon="12.9268848"><ele>872.0</ele><time>2026-05-01T10:49:02.55Z</time></trkpt><trkpt lat="41.8631761" lon="12.9267861"><ele>872.0</ele><time>2026-05-01T10:49:03.553Z</time></trkpt><trkpt lat="41.8632417" lon="12.9266811"><ele>872.0</ele><time>2026-05-01T10:49:04.576Z</time></trkpt><trkpt lat="41.8632729" lon="12.9265582"><ele>870.8</ele><time>2026-05-01T10:49:05.558Z</time></trkpt><trkpt lat="41.8632673" lon="12.9264192"><ele>869.6</ele><time>2026-05-01T10:49:06.539Z</time></trkpt><trkpt lat="41.8632172" lon="12.9262821"><ele>868.3999999999999</ele><time>2026-05-01T10:49:07.549Z</time></trkpt><trkpt lat="41.8631469" lon="12.9261677"><ele>867.1999999999999</ele><time>2026-05-01T10:49:08.549Z</time></trkpt><trkpt lat="41.8630767" lon="12.9260484"><ele>866.0</ele><time>2026-05-01T10:49:09.556Z</time></trkpt><trkpt lat="41.8630294" lon="12.9259189"><ele>865.5</ele><time>2026-05-01T10:49:10.552Z</time></trkpt><trkpt lat="41.8629982" lon="12.9257838"><ele>865.0</ele><time>2026-05-01T10:49:11.551Z</time></trkpt><trkpt lat="41.8629756" lon="12.9256333"><ele>864.5</ele><time>2026-05-01T10:49:12.548Z</time></trkpt><trkpt lat="41.8629596" lon="12.9254733"><ele>864.0</ele><time>2026-05-01T10:49:13.561Z</time></trkpt><trkpt lat="41.8629437" lon="12.9253155"><ele>864.0</ele><time>2026-05-01T10:49:14.563Z</time></trkpt><trkpt lat="41.8629381" lon="12.9251642"><ele>864.0</ele><time>2026-05-01T10:49:15.569Z</time></trkpt><trkpt lat="41.862962" lon="12.9250165"><ele>864.0</ele><time>2026-05-01T10:49:16.587Z</time></trkpt><trkpt lat="41.8630214" lon="12.9248747"><ele>864.0</ele><time>2026-05-01T10:49:17.567Z</time></trkpt><trkpt lat="41.8630889" lon="12.9247368"><ele>863.25</ele><time>2026-05-01T10:49:18.543Z</time></trkpt><trkpt lat="41.8631369" lon="12.9245929"><ele>862.5</ele><time>2026-05-01T10:49:19.545Z</time></trkpt><trkpt lat="41.8631462" lon="12.9244188"><ele>861.75</ele><time>2026-05-01T10:49:20.548Z</time></trkpt><trkpt lat="41.8631291" lon="12.9242433"><ele>861.0</ele><time>2026-05-01T10:49:21.533Z</time></trkpt><trkpt lat="41.8631043" lon="12.9240714"><ele>860.25</ele><time>2026-05-01T10:49:22.548Z</time></trkpt><trkpt lat="41.863075" lon="12.9239091"><ele>859.5</ele><time>2026-05-01T10:49:23.578Z</time></trkpt><trkpt lat="41.8630579" lon="12.9237538"><ele>858.75</ele><time>2026-05-01T10:49:24.545Z</time></trkpt><trkpt lat="41.8630498" lon="12.9235928"><ele>858.0</ele><time>2026-05-01T10:49:25.58Z</time></trkpt><trkpt lat="41.8630516" lon="12.9234266"><ele>857.25</ele><time>2026-05-01T10:49:26.556Z</time></trkpt><trkpt lat="41.8630504" lon="12.9232559"><ele>856.5</ele><time>2026-05-01T10:49:27.551Z</time></trkpt><trkpt lat="41.8630607" lon="12.9231062"><ele>855.75</ele><time>2026-05-01T10:49:28.545Z</time></trkpt><trkpt lat="41.863088" lon="12.9229693"><ele>855.0</ele><time>2026-05-01T10:49:29.542Z</time></trkpt><trkpt lat="41.8631468" lon="12.9228317"><ele>855.0</ele><time>2026-05-01T10:49:30.578Z</time></trkpt><trkpt lat="41.8632276" lon="12.9226962"><ele>855.0</ele><time>2026-05-01T10:49:31.564Z</time></trkpt><trkpt lat="41.8633059" lon="12.9225627"><ele>855.0</ele><time>2026-05-01T10:49:32.561Z</time></trkpt><trkpt lat="41.863361" lon="12.9224242"><ele>855.0</ele><time>2026-05-01T10:49:33.55Z</time></trkpt><trkpt lat="41.8633756" lon="12.9222694"><ele>853.5</ele><time>2026-05-01T10:49:34.557Z</time></trkpt><trkpt lat="41.8633528" lon="12.9221049"><ele>852.0</ele><time>2026-05-01T10:49:35.567Z</time></trkpt><trkpt lat="41.8633368" lon="12.921945"><ele>850.5</ele><time>2026-05-01T10:49:36.583Z</time></trkpt><trkpt lat="41.8633515" lon="12.921795"><ele>849.0</ele><time>2026-05-01T10:49:37.54Z</time></trkpt><trkpt lat="41.8633955" lon="12.9216313"><ele>847.25</ele><time>2026-05-01T10:49:38.564Z</time></trkpt><trkpt lat="41.8634397" lon="12.9214609"><ele>845.5</ele><time>2026-05-01T10:49:39.566Z</time></trkpt><trkpt lat="41.8634646" lon="12.9212771"><ele>843.75</ele><time>2026-05-01T10:49:40.537Z</time></trkpt><trkpt lat="41.8634753" lon="12.9210922"><ele>842.0</ele><time>2026-05-01T10:49:41.564Z</time></trkpt><trkpt lat="41.8634777" lon="12.9209239"><ele>847.8</ele><time>2026-05-01T10:49:42.545Z</time></trkpt><trkpt lat="41.8634823" lon="12.920772"><ele>853.6</ele><time>2026-05-01T10:49:43.542Z</time></trkpt><trkpt lat="41.8634968" lon="12.9206323"><ele>859.3999999999999</ele><time>2026-05-01T10:49:44.56Z</time></trkpt><trkpt lat="41.8635226" lon="12.9205051"><ele>865.1999999999999</ele><time>2026-05-01T10:49:45.539Z</time></trkpt><trkpt lat="41.8635736" lon="12.9203803"><ele>871.0</ele><time>2026-05-01T10:49:46.584Z</time></trkpt><trkpt lat="41.8636436" lon="12.9202615"><ele>871.0</ele><time>2026-05-01T10:49:47.551Z</time></trkpt><trkpt lat="41.8637196" lon="12.9201393"><ele>871.0</ele><time>2026-05-01T10:49:48.54Z</time></trkpt><trkpt lat="41.863803" lon="12.9200241"><ele>871.0</ele><time>2026-05-01T10:49:49.557Z</time></trkpt><trkpt lat="41.8638958" lon="12.9199153"><ele>871.0</ele><time>2026-05-01T10:49:50.55Z</time></trkpt><trkpt lat="41.8639886" lon="12.9198025"><ele>867.75</ele><time>2026-05-01T10:49:51.55Z</time></trkpt><trkpt lat="41.864082" lon="12.9196928"><ele>864.5</ele><time>2026-05-01T10:49:52.537Z</time></trkpt><trkpt lat="41.8641733" lon="12.9195813"><ele>861.25</ele><time>2026-05-01T10:49:53.54Z</time></trkpt><trkpt lat="41.8642618" lon="12.9194806"><ele>858.0</ele><time>2026-05-01T10:49:54.537Z</time></trkpt><trkpt lat="41.8643476" lon="12.919385"><ele>858.0</ele><time>2026-05-01T10:49:55.558Z</time></trkpt><trkpt lat="41.8644324" lon="12.9192868"><ele>858.0</ele><time>2026-05-01T10:49:56.545Z</time></trkpt><trkpt lat="41.8645192" lon="12.9191909"><ele>858.0</ele><time>2026-05-01T10:49:57.538Z</time></trkpt><trkpt lat="41.8646101" lon="12.9190899"><ele>858.0</ele><time>2026-05-01T10:49:58.541Z</time></trkpt><trkpt lat="41.8647056" lon="12.9189941"><ele>857.5</ele><time>2026-05-01T10:49:59.531Z</time></trkpt><trkpt lat="41.8648116" lon="12.9189226"><ele>857.0</ele><time>2026-05-01T10:50:00.569Z</time></trkpt><trkpt lat="41.8649306" lon="12.9188829"><ele>856.5</ele><time>2026-05-01T10:50:01.557Z</time></trkpt><trkpt lat="41.8650516" lon="12.9188588"><ele>856.0</ele><time>2026-05-01T10:50:02.55Z</time></trkpt><trkpt lat="41.8651641" lon="12.9188229"><ele>856.0</ele><time>2026-05-01T10:50:03.534Z</time></trkpt><trkpt lat="41.865264" lon="12.9187561"><ele>855.9999999999999</ele><time>2026-05-01T10:50:04.541Z</time></trkpt><trkpt lat="41.8653375" lon="12.918655"><ele>855.9999999999999</ele><time>2026-05-01T10:50:05.544Z</time></trkpt><trkpt lat="41.8653925" lon="12.918524"><ele>856.0</ele><time>2026-05-01T10:50:06.538Z</time></trkpt><trkpt lat="41.8654312" lon="12.9183766"><ele>856.0</ele><time>2026-05-01T10:50:07.534Z</time></trkpt><trkpt lat="41.8654619" lon="12.9182193"><ele>852.25</ele><time>2026-05-01T10:50:08.534Z</time></trkpt><trkpt lat="41.8655059" lon="12.9180618"><ele>848.5</ele><time>2026-05-01T10:50:09.548Z</time></trkpt><trkpt lat="41.8655744" lon="12.917918"><ele>844.75</ele><time>2026-05-01T10:50:10.54Z</time></trkpt><trkpt lat="41.8656506" lon="12.9177785"><ele>841.0</ele><time>2026-05-01T10:50:11.552Z</time></trkpt><trkpt lat="41.8657293" lon="12.9176434"><ele>841.75</ele><time>2026-05-01T10:50:12.551Z</time></trkpt><trkpt lat="41.8658178" lon="12.9175124"><ele>842.5</ele><time>2026-05-01T10:50:13.56Z</time></trkpt><trkpt lat="41.8659159" lon="12.9173781"><ele>843.25</ele><time>2026-05-01T10:50:14.565Z</time></trkpt><trkpt lat="41.866015" lon="12.9172419"><ele>844.0</ele><time>2026-05-01T10:50:15.544Z</time></trkpt><trkpt lat="41.8661087" lon="12.9171146"><ele>844.0</ele><time>2026-05-01T10:50:16.588Z</time></trkpt><trkpt lat="41.866199" lon="12.9169872"><ele>844.0</ele><time>2026-05-01T10:50:17.535Z</time></trkpt><trkpt lat="41.8662805" lon="12.9168549"><ele>844.0</ele><time>2026-05-01T10:50:18.551Z</time></trkpt><trkpt lat="41.866339" lon="12.9167088"><ele>844.0</ele><time>2026-05-01T10:50:19.566Z</time></trkpt><trkpt lat="41.8663641" lon="12.9165432"><ele>840.5</ele><time>2026-05-01T10:50:20.541Z</time></trkpt><trkpt lat="41.8663596" lon="12.9163571"><ele>837.0</ele><time>2026-05-01T10:50:21.55Z</time></trkpt><trkpt lat="41.8663446" lon="12.9161721"><ele>833.5</ele><time>2026-05-01T10:50:22.543Z</time></trkpt><trkpt lat="41.8663423" lon="12.9159959"><ele>830.0</ele><time>2026-05-01T10:50:23.537Z</time></trkpt><trkpt lat="41.866361" lon="12.9158355"><ele>828.0</ele><time>2026-05-01T10:50:24.558Z</time></trkpt><trkpt lat="41.8664032" lon="12.9157038"><ele>826.0</ele><time>2026-05-01T10:50:25.546Z</time></trkpt><trkpt lat="41.8664686" lon="12.9156039"><ele>824.0</ele><time>2026-05-01T10:50:26.543Z</time></trkpt><trkpt lat="41.86656" lon="12.9155341"><ele>822.0</ele><time>2026-05-01T10:50:27.557Z</time></trkpt><trkpt lat="41.8666567" lon="12.9154698"><ele>820.0</ele><time>2026-05-01T10:50:28.551Z</time></trkpt><trkpt lat="41.8667543" lon="12.9153941"><ele>820.8</ele><time>2026-05-01T10:50:29.55Z</time></trkpt><trkpt lat="41.8668279" lon="12.9152803"><ele>821.6</ele><time>2026-05-01T10:50:30.538Z</time></trkpt><trkpt lat="41.8668864" lon="12.915159"><ele>822.4000000000001</ele><time>2026-05-01T10:50:31.541Z</time></trkpt><trkpt lat="41.8669343" lon="12.915034"><ele>823.2</ele><time>2026-05-01T10:50:32.536Z</time></trkpt><trkpt lat="41.8669676" lon="12.9149051"><ele>824.0</ele><time>2026-05-01T10:50:33.547Z</time></trkpt><trkpt lat="41.8669916" lon="12.9147744"><ele>824.0000000000001</ele><time>2026-05-01T10:50:34.535Z</time></trkpt><trkpt lat="41.8670116" lon="12.9146425"><ele>824.0</ele><time>2026-05-01T10:50:35.539Z</time></trkpt><trkpt lat="41.867049" lon="12.9145249"><ele>824.0</ele><time>2026-05-01T10:50:36.548Z</time></trkpt><trkpt lat="41.8671015" lon="12.9144319"><ele>824.0</ele><time>2026-05-01T10:50:37.535Z</time></trkpt><trkpt lat="41.8671621" lon="12.9143575"><ele>824.0000000000001</ele><time>2026-05-01T10:50:38.546Z</time></trkpt><trkpt lat="41.8672332" lon="12.9142994"><ele>824.0</ele><time>2026-05-01T10:50:39.552Z</time></trkpt><trkpt lat="41.8673023" lon="12.9142474"><ele>823.0</ele><time>2026-05-01T10:50:40.552Z</time></trkpt><trkpt lat="41.8673744" lon="12.9142008"><ele>822.0</ele><time>2026-05-01T10:50:41.531Z</time></trkpt><trkpt lat="41.8674594" lon="12.9141391"><ele>821.0</ele><time>2026-05-01T10:50:42.533Z</time></trkpt><trkpt lat="41.8675464" lon="12.9140726"><ele>820.0</ele><time>2026-05-01T10:50:43.554Z</time></trkpt><trkpt lat="41.8676273" lon="12.9140018"><ele>819.0</ele><time>2026-05-01T10:50:44.544Z</time></trkpt><trkpt lat="41.8677086" lon="12.9139266"><ele>819.0</ele><time>2026-05-01T10:50:45.535Z</time></trkpt><trkpt lat="41.8677814" lon="12.9138404"><ele>819.0</ele><time>2026-05-01T10:50:46.533Z</time></trkpt><trkpt lat="41.8678295" lon="12.9137328"><ele>819.0</ele><time>2026-05-01T10:50:47.544Z</time></trkpt><trkpt lat="41.8678557" lon="12.9136235"><ele>819.0</ele><time>2026-05-01T10:50:48.52Z</time></trkpt><trkpt lat="41.8678697" lon="12.9134919"><ele>819.0</ele><time>2026-05-01T10:50:49.537Z</time></trkpt><trkpt lat="41.8678593" lon="12.9133548"><ele>817.0</ele><time>2026-05-01T10:50:50.55Z</time></trkpt><trkpt lat="41.8678296" lon="12.9132205"><ele>815.0</ele><time>2026-05-01T10:50:51.576Z</time></trkpt><trkpt lat="41.8677861" lon="12.9130959"><ele>813.0</ele><time>2026-05-01T10:50:52.54Z</time></trkpt><trkpt lat="41.867727" lon="12.9129848"><ele>811.0</ele><time>2026-05-01T10:50:53.54Z</time></trkpt><trkpt lat="41.8676452" lon="12.9129016"><ele>809.0</ele><time>2026-05-01T10:50:54.547Z</time></trkpt><trkpt lat="41.8675568" lon="12.9128371"><ele>806.5000000000001</ele><time>2026-05-01T10:50:55.529Z</time></trkpt><trkpt lat="41.867464" lon="12.9127827"><ele>804.0</ele><time>2026-05-01T10:50:56.558Z</time></trkpt><trkpt lat="41.8673764" lon="12.9127357"><ele>801.5</ele><time>2026-05-01T10:50:57.564Z</time></trkpt><trkpt lat="41.8672983" lon="12.9126831"><ele>799.0</ele><time>2026-05-01T10:50:58.546Z</time></trkpt><trkpt lat="41.8672277" lon="12.9126232"><ele>796.5000000000001</ele><time>2026-05-01T10:50:59.548Z</time></trkpt><trkpt lat="41.8671761" lon="12.9125523"><ele>794.0</ele><time>2026-05-01T10:51:00.541Z</time></trkpt><trkpt lat="41.8671394" lon="12.9124471"><ele>794.0000000000001</ele><time>2026-05-01T10:51:01.556Z</time></trkpt><trkpt lat="41.8671063" lon="12.9123394"><ele>794.0</ele><time>2026-05-01T10:51:02.548Z</time></trkpt><trkpt lat="41.8670665" lon="12.9122354"><ele>794.0</ele><time>2026-05-01T10:51:03.56Z</time></trkpt><trkpt lat="41.8670072" lon="12.9121534"><ele>794.0</ele><time>2026-05-01T10:51:04.54Z</time></trkpt><trkpt lat="41.8669391" lon="12.9120831"><ele>794.0000000000001</ele><time>2026-05-01T10:51:05.547Z</time></trkpt><trkpt lat="41.8668674" lon="12.9120255"><ele>794.0</ele><time>2026-05-01T10:51:06.557Z</time></trkpt><trkpt lat="41.8667896" lon="12.9119711"><ele>792.8000000000001</ele><time>2026-05-01T10:51:07.579Z</time></trkpt><trkpt lat="41.8667049" lon="12.9119269"><ele>791.6</ele><time>2026-05-01T10:51:08.541Z</time></trkpt><trkpt lat="41.8666239" lon="12.9118778"><ele>790.4</ele><time>2026-05-01T10:51:09.571Z</time></trkpt><trkpt lat="41.8665408" lon="12.911833"><ele>789.2</ele><time>2026-05-01T10:51:10.538Z</time></trkpt><trkpt lat="41.8664605" lon="12.9117825"><ele>788.0</ele><time>2026-05-01T10:51:11.559Z</time></trkpt><trkpt lat="41.8663729" lon="12.9117283"><ele>788.0</ele><time>2026-05-01T10:51:12.545Z</time></trkpt><trkpt lat="41.8662825" lon="12.9116772"><ele>788.0</ele><time>2026-05-01T10:51:13.542Z</time></trkpt><trkpt lat="41.8662002" lon="12.9116213"><ele>788.0</ele><time>2026-05-01T10:51:14.537Z</time></trkpt><trkpt lat="41.8661237" lon="12.9115483"><ele>788.0</ele><time>2026-05-01T10:51:15.563Z</time></trkpt><trkpt lat="41.8660522" lon="12.9114536"><ele>788.0</ele><time>2026-05-01T10:51:16.545Z</time></trkpt><trkpt lat="41.8659984" lon="12.9113383"><ele>788.0</ele><time>2026-05-01T10:51:17.561Z</time></trkpt><trkpt lat="41.8659477" lon="12.911217"><ele>788.0</ele><time>2026-05-01T10:51:18.538Z</time></trkpt><trkpt lat="41.8659038" lon="12.9110889"><ele>788.0</ele><time>2026-05-01T10:51:19.542Z</time></trkpt><trkpt lat="41.8658647" lon="12.9109586"><ele>788.0</ele><time>2026-05-01T10:51:20.55Z</time></trkpt><trkpt lat="41.8658318" lon="12.9108286"><ele>788.0</ele><time>2026-05-01T10:51:21.563Z</time></trkpt><trkpt lat="41.8658084" lon="12.9106879"><ele>786.2</ele><time>2026-05-01T10:51:22.563Z</time></trkpt><trkpt lat="41.8657921" lon="12.9105417"><ele>784.4</ele><time>2026-05-01T10:51:23.533Z</time></trkpt><trkpt lat="41.8657809" lon="12.9103941"><ele>782.6</ele><time>2026-05-01T10:51:24.555Z</time></trkpt><trkpt lat="41.8657723" lon="12.9102528"><ele>780.8000000000001</ele><time>2026-05-01T10:51:25.548Z</time></trkpt><trkpt lat="41.8657577" lon="12.9101226"><ele>779.0</ele><time>2026-05-01T10:51:26.536Z</time></trkpt><trkpt lat="41.8657171" lon="12.9100101"><ele>779.0</ele><time>2026-05-01T10:51:27.546Z</time></trkpt><trkpt lat="41.8656314" lon="12.9099265"><ele>779.0</ele><time>2026-05-01T10:51:28.543Z</time></trkpt><trkpt lat="41.8655257" lon="12.9098701"><ele>779.0</ele><time>2026-05-01T10:51:29.55Z</time></trkpt><trkpt lat="41.8654135" lon="12.9098227"><ele>779.0</ele><time>2026-05-01T10:51:30.556Z</time></trkpt><trkpt lat="41.8653359" lon="12.9097175"><ele>779.0</ele><time>2026-05-01T10:51:31.568Z</time></trkpt><trkpt lat="41.8652845" lon="12.9095906"><ele>779.0</ele><time>2026-05-01T10:51:32.548Z</time></trkpt><trkpt lat="41.8652281" lon="12.9094664"><ele>779.0</ele><time>2026-05-01T10:51:33.541Z</time></trkpt><trkpt lat="41.8651753" lon="12.9093414"><ele>779.0</ele><time>2026-05-01T10:51:34.542Z</time></trkpt><trkpt lat="41.8651241" lon="12.9092091"><ele>779.0</ele><time>2026-05-01T10:51:35.551Z</time></trkpt><trkpt lat="41.865074" lon="12.9090786"><ele>779.0</ele><time>2026-05-01T10:51:36.575Z</time></trkpt><trkpt lat="41.8650314" lon="12.9089502"><ele>779.6</ele><time>2026-05-01T10:51:37.578Z</time></trkpt><trkpt lat="41.8650098" lon="12.9088252"><ele>780.2</ele><time>2026-05-01T10:51:38.579Z</time></trkpt><trkpt lat="41.8650157" lon="12.9086932"><ele>780.8000000000001</ele><time>2026-05-01T10:51:39.565Z</time></trkpt><trkpt lat="41.8650437" lon="12.9085621"><ele>781.4000000000001</ele><time>2026-05-01T10:51:40.542Z</time></trkpt><trkpt lat="41.8650792" lon="12.908433"><ele>782.0</ele><time>2026-05-01T10:51:41.533Z</time></trkpt><trkpt lat="41.865114" lon="12.9083234"><ele>782.0</ele><time>2026-05-01T10:51:42.557Z</time></trkpt><trkpt lat="41.8651471" lon="12.9082246"><ele>782.0</ele><time>2026-05-01T10:51:43.58Z</time></trkpt><trkpt lat="41.8651964" lon="12.9080937"><ele>782.0</ele><time>2026-05-01T10:51:45.55Z</time></trkpt><trkpt lat="41.8652271" lon="12.908018"><ele>782.0</ele><time>2026-05-01T10:51:47.548Z</time></trkpt><trkpt lat="41.8652384" lon="12.9078966"><ele>782.0</ele><time>2026-05-01T10:52:33.586Z</time></trkpt><trkpt lat="41.8652732" lon="12.9077436"><ele>782.0000000000001</ele><time>2026-05-01T10:52:35.562Z</time></trkpt><trkpt lat="41.8652983" lon="12.9076384"><ele>782.0</ele><time>2026-05-01T10:52:36.555Z</time></trkpt><trkpt lat="41.8653271" lon="12.9075359"><ele>782.0</ele><time>2026-05-01T10:52:37.543Z</time></trkpt><trkpt lat="41.8653661" lon="12.907439"><ele>782.0</ele><time>2026-05-01T10:52:38.537Z</time></trkpt><trkpt lat="41.8654217" lon="12.9073447"><ele>782.0000000000001</ele><time>2026-05-01T10:52:39.561Z</time></trkpt><trkpt lat="41.8654834" lon="12.9072649"><ele>782.0</ele><time>2026-05-01T10:52:40.55Z</time></trkpt><trkpt lat="41.8655426" lon="12.9071928"><ele>779.3333333333334</ele><time>2026-05-01T10:52:41.562Z</time></trkpt><trkpt lat="41.8655965" lon="12.9071199"><ele>776.6666666666667</ele><time>2026-05-01T10:52:42.544Z</time></trkpt><trkpt lat="41.8656023" lon="12.9069544"><ele>774.0</ele><time>2026-05-01T10:52:44.538Z</time></trkpt><trkpt lat="41.8655588" lon="12.9068867"><ele>771.3333333333334</ele><time>2026-05-01T10:52:45.559Z</time></trkpt><trkpt lat="41.8654871" lon="12.9068578"><ele>768.6666666666667</ele><time>2026-05-01T10:52:46.549Z</time></trkpt><trkpt lat="41.8654094" lon="12.9068692"><ele>766.0</ele><time>2026-05-01T10:52:47.561Z</time></trkpt><trkpt lat="41.8653454" lon="12.9069334"><ele>766.0</ele><time>2026-05-01T10:52:48.591Z</time></trkpt><trkpt lat="41.8652985" lon="12.9070178"><ele>766.0</ele><time>2026-05-01T10:52:49.59Z</time></trkpt><trkpt lat="41.8652461" lon="12.907124"><ele>766.0</ele><time>2026-05-01T10:52:50.536Z</time></trkpt><trkpt lat="41.8651924" lon="12.9072328"><ele>766.0</ele><time>2026-05-01T10:52:51.54Z</time></trkpt><trkpt lat="41.8651408" lon="12.9073561"><ele>766.0</ele><time>2026-05-01T10:52:52.57Z</time></trkpt><trkpt lat="41.8650866" lon="12.9074765"><ele>763.8</ele><time>2026-05-01T10:52:53.552Z</time></trkpt><trkpt lat="41.8650368" lon="12.9075971"><ele>761.5999999999999</ele><time>2026-05-01T10:52:54.548Z</time></trkpt><trkpt lat="41.8649867" lon="12.9077135"><ele>759.4</ele><time>2026-05-01T10:52:55.547Z</time></trkpt><trkpt lat="41.8649291" lon="12.9078314"><ele>757.2</ele><time>2026-05-01T10:52:56.55Z</time></trkpt><trkpt lat="41.8648735" lon="12.9079477"><ele>755.0</ele><time>2026-05-01T10:52:57.552Z</time></trkpt><trkpt lat="41.8648196" lon="12.9080653"><ele>755.0</ele><time>2026-05-01T10:52:58.543Z</time></trkpt><trkpt lat="41.8647655" lon="12.9081824"><ele>755.0</ele><time>2026-05-01T10:52:59.533Z</time></trkpt><trkpt lat="41.8647137" lon="12.9083004"><ele>755.0</ele><time>2026-05-01T10:53:00.552Z</time></trkpt><trkpt lat="41.8646583" lon="12.9084177"><ele>755.0</ele><time>2026-05-01T10:53:01.552Z</time></trkpt><trkpt lat="41.8646025" lon="12.9085363"><ele>755.0</ele><time>2026-05-01T10:53:02.55Z</time></trkpt><trkpt lat="41.8645479" lon="12.9086529"><ele>755.8333333333333</ele><time>2026-05-01T10:53:03.548Z</time></trkpt><trkpt lat="41.8645" lon="12.9087609"><ele>756.6666666666666</ele><time>2026-05-01T10:53:04.557Z</time></trkpt><trkpt lat="41.8644559" lon="12.9088625"><ele>757.5</ele><time>2026-05-01T10:53:05.55Z</time></trkpt><trkpt lat="41.8644118" lon="12.908948"><ele>758.3333333333334</ele><time>2026-05-01T10:53:06.535Z</time></trkpt><trkpt lat="41.8643729" lon="12.90902"><ele>759.1666666666667</ele><time>2026-05-01T10:53:07.536Z</time></trkpt><trkpt lat="41.8643082" lon="12.9091152"><ele>760.0</ele><time>2026-05-01T10:53:09.544Z</time></trkpt><trkpt lat="41.8642475" lon="12.9091862"><ele>760.0</ele><time>2026-05-01T10:53:12.56Z</time></trkpt><trkpt lat="41.8642746" lon="12.9092684"><ele>760.0</ele><time>2026-05-01T10:53:16.57Z</time></trkpt><trkpt lat="41.8643233" lon="12.9093269"><ele>760.0</ele><time>2026-05-01T10:53:22.546Z</time></trkpt><trkpt lat="41.8642941" lon="12.9092318"><ele>760.0</ele><time>2026-05-01T10:56:11.54Z</time></trkpt><trkpt lat="41.8643037" lon="12.9091205"><ele>760.0</ele><time>2026-05-01T10:56:15.544Z</time></trkpt><trkpt lat="41.8643763" lon="12.9090363"><ele>760.0</ele><time>2026-05-01T10:56:17.55Z</time></trkpt><trkpt lat="41.864448" lon="12.9089687"><ele>760.0</ele><time>2026-05-01T10:56:19.552Z</time></trkpt><trkpt lat="41.8645084" lon="12.908899"><ele>760.0</ele><time>2026-05-01T10:56:22.562Z</time></trkpt><trkpt lat="41.8645482" lon="12.9087783"><ele>760.0</ele><time>2026-05-01T10:56:28.557Z</time></trkpt><trkpt lat="41.8646138" lon="12.9086229"><ele>760.0</ele><time>2026-05-01T10:56:30.545Z</time></trkpt><trkpt lat="41.8646586" lon="12.9085087"><ele>760.0</ele><time>2026-05-01T10:56:31.545Z</time></trkpt><trkpt lat="41.8647214" lon="12.908382"><ele>758.75</ele><time>2026-05-01T10:56:32.548Z</time></trkpt><trkpt lat="41.8647892" lon="12.9082399"><ele>757.5</ele><time>2026-05-01T10:56:33.548Z</time></trkpt><trkpt lat="41.8648572" lon="12.9080933"><ele>756.25</ele><time>2026-05-01T10:56:34.541Z</time></trkpt><trkpt lat="41.8649281" lon="12.9079499"><ele>755.0</ele><time>2026-05-01T10:56:35.552Z</time></trkpt><trkpt lat="41.8650037" lon="12.907798"><ele>755.0</ele><time>2026-05-01T10:56:36.553Z</time></trkpt><trkpt lat="41.8650727" lon="12.9076488"><ele>755.0</ele><time>2026-05-01T10:56:37.569Z</time></trkpt><trkpt lat="41.8651372" lon="12.9075074"><ele>755.0</ele><time>2026-05-01T10:56:38.589Z</time></trkpt><trkpt lat="41.8651921" lon="12.907378"><ele>755.0</ele><time>2026-05-01T10:56:39.541Z</time></trkpt><trkpt lat="41.8652434" lon="12.9072628"><ele>756.8333333333333</ele><time>2026-05-01T10:56:40.557Z</time></trkpt><trkpt lat="41.8652895" lon="12.9071629"><ele>758.6666666666666</ele><time>2026-05-01T10:56:41.576Z</time></trkpt><trkpt lat="41.8653338" lon="12.9070593"><ele>760.5</ele><time>2026-05-01T10:56:42.55Z</time></trkpt><trkpt lat="41.8653747" lon="12.9069658"><ele>762.3333333333334</ele><time>2026-05-01T10:56:43.553Z</time></trkpt><trkpt lat="41.8654312" lon="12.9069039"><ele>764.1666666666667</ele><time>2026-05-01T10:56:44.557Z</time></trkpt><trkpt lat="41.8654982" lon="12.9069042"><ele>766.0</ele><time>2026-05-01T10:56:45.537Z</time></trkpt><trkpt lat="41.8655595" lon="12.9069349"><ele>766.0</ele><time>2026-05-01T10:56:46.55Z</time></trkpt><trkpt lat="41.8655604" lon="12.9070614"><ele>766.0</ele><time>2026-05-01T10:56:48.549Z</time></trkpt><trkpt lat="41.8655226" lon="12.907139"><ele>766.0</ele><time>2026-05-01T10:56:49.562Z</time></trkpt><trkpt lat="41.8654598" lon="12.9072137"><ele>766.0</ele><time>2026-05-01T10:56:50.547Z</time></trkpt><trkpt lat="41.8653914" lon="12.9073127"><ele>766.0</ele><time>2026-05-01T10:56:51.536Z</time></trkpt><trkpt lat="41.8653274" lon="12.9074546"><ele>766.5</ele><time>2026-05-01T10:56:52.573Z</time></trkpt><trkpt lat="41.8652765" lon="12.9076282"><ele>767.0</ele><time>2026-05-01T10:56:53.577Z</time></trkpt><trkpt lat="41.8658749" lon="12.9110428"><ele>767.0</ele><time>2026-05-01T10:57:22.567Z</time></trkpt><trkpt lat="41.8659115" lon="12.9111454"><ele>767.0</ele><time>2026-05-01T10:57:23.555Z</time></trkpt><trkpt lat="41.8659529" lon="12.9112614"><ele>767.0</ele><time>2026-05-01T10:57:24.557Z</time></trkpt><trkpt lat="41.8660032" lon="12.9113812"><ele>767.0</ele><time>2026-05-01T10:57:25.55Z</time></trkpt><trkpt lat="41.8660694" lon="12.9114907"><ele>767.0</ele><time>2026-05-01T10:57:26.587Z</time></trkpt><trkpt lat="41.8661517" lon="12.9115916"><ele>768.5</ele><time>2026-05-01T10:57:27.559Z</time></trkpt><trkpt lat="41.8662488" lon="12.9116733"><ele>770.0</ele><time>2026-05-01T10:57:28.553Z</time></trkpt><trkpt lat="41.8663618" lon="12.9117388"><ele>771.5</ele><time>2026-05-01T10:57:29.551Z</time></trkpt><trkpt lat="41.8664779" lon="12.9117982"><ele>773.0</ele><time>2026-05-01T10:57:30.568Z</time></trkpt><trkpt lat="41.8665949" lon="12.9118695"><ele>773.0</ele><time>2026-05-01T10:57:31.558Z</time></trkpt><trkpt lat="41.8667073" lon="12.9119466"><ele>773.0</ele><time>2026-05-01T10:57:32.563Z</time></trkpt><trkpt lat="41.8668149" lon="12.9120169"><ele>773.0</ele><time>2026-05-01T10:57:33.569Z</time></trkpt><trkpt lat="41.8669131" lon="12.9120751"><ele>773.0</ele><time>2026-05-01T10:57:34.564Z</time></trkpt><trkpt lat="41.8669881" lon="12.91213"><ele>773.0</ele><time>2026-05-01T10:57:35.599Z</time></trkpt><trkpt lat="41.8670817" lon="12.9122968"><ele>776.0000000000001</ele><time>2026-05-01T10:57:37.541Z</time></trkpt><trkpt lat="41.8671178" lon="12.9123978"><ele>779.0</ele><time>2026-05-01T10:57:38.547Z</time></trkpt><trkpt lat="41.8671468" lon="12.9124875"><ele>782.0</ele><time>2026-05-01T10:57:39.567Z</time></trkpt><trkpt lat="41.8672169" lon="12.9126268"><ele>785.0</ele><time>2026-05-01T10:57:41.553Z</time></trkpt><trkpt lat="41.8672714" lon="12.9126743"><ele>788.0000000000001</ele><time>2026-05-01T10:57:42.567Z</time></trkpt><trkpt lat="41.8673379" lon="12.9127149"><ele>791.0</ele><time>2026-05-01T10:57:43.573Z</time></trkpt><trkpt lat="41.8673992" lon="12.9127532"><ele>791.0</ele><time>2026-05-01T10:57:44.552Z</time></trkpt><trkpt lat="41.8674633" lon="12.9127893"><ele>791.0</ele><time>2026-05-01T10:57:45.551Z</time></trkpt><trkpt lat="41.8675721" lon="12.9128503"><ele>791.0</ele><time>2026-05-01T10:57:47.552Z</time></trkpt><trkpt lat="41.8676645" lon="12.9129155"><ele>791.0</ele><time>2026-05-01T10:57:49.578Z</time></trkpt><trkpt lat="41.8677379" lon="12.9129861"><ele>791.0</ele><time>2026-05-01T10:57:51.556Z</time></trkpt><trkpt lat="41.8677784" lon="12.9130772"><ele>794.5999999999999</ele><time>2026-05-01T10:57:54.566Z</time></trkpt><trkpt lat="41.8678113" lon="12.9131672"><ele>798.2</ele><time>2026-05-01T10:57:56.572Z</time></trkpt><trkpt lat="41.8678489" lon="12.9134367"><ele>801.8</ele><time>2026-05-01T10:57:59.549Z</time></trkpt><trkpt lat="41.8678449" lon="12.9135459"><ele>805.4000000000001</ele><time>2026-05-01T10:58:00.546Z</time></trkpt><trkpt lat="41.8678212" lon="12.9136603"><ele>809.0</ele><time>2026-05-01T10:58:01.545Z</time></trkpt><trkpt lat="41.8677807" lon="12.9137712"><ele>808.0</ele><time>2026-05-01T10:58:02.581Z</time></trkpt><trkpt lat="41.8677122" lon="12.913878"><ele>807.0</ele><time>2026-05-01T10:58:03.565Z</time></trkpt><trkpt lat="41.8676403" lon="12.9139685"><ele>806.0</ele><time>2026-05-01T10:58:04.579Z</time></trkpt><trkpt lat="41.8675625" lon="12.9140381"><ele>805.0</ele><time>2026-05-01T10:58:05.55Z</time></trkpt><trkpt lat="41.8674875" lon="12.9140957"><ele>804.0</ele><time>2026-05-01T10:58:06.559Z</time></trkpt><trkpt lat="41.8674178" lon="12.9141462"><ele>804.0</ele><time>2026-05-01T10:58:07.548Z</time></trkpt><trkpt lat="41.8673495" lon="12.9141911"><ele>804.0</ele><time>2026-05-01T10:58:08.549Z</time></trkpt><trkpt lat="41.8672857" lon="12.9142374"><ele>804.0</ele><time>2026-05-01T10:58:09.553Z</time></trkpt><trkpt lat="41.8672225" lon="12.9142835"><ele>804.0</ele><time>2026-05-01T10:58:10.541Z</time></trkpt><trkpt lat="41.8671612" lon="12.9143319"><ele>804.0</ele><time>2026-05-01T10:58:11.552Z</time></trkpt><trkpt lat="41.867104" lon="12.9143784"><ele>804.0</ele><time>2026-05-01T10:58:12.574Z</time></trkpt><trkpt lat="41.8670267" lon="12.9144557"><ele>824.0</ele><time>2026-05-01T10:58:14.576Z</time></trkpt><trkpt lat="41.8669966" lon="12.9145689"><ele>824.0</ele><time>2026-05-01T10:58:21.551Z</time></trkpt></trkseg></trk></gpx>